<?xml version="1.0" encoding="UTF-8" standalone="no" ?>
<gpx xmlns="http://www.topografix.com/GPX/1/1" xmlns:xsi="http://www.w3.org/2001/XMLSchema-instance" xsi:schemaLocation="http://www.topografix.com/GPX/1/1 http://www.topografix.com/GPX/1/1/gpx.xsd" version="1.1" creator="VisuGPX - https://www.visugpx.com">
  <metadata>
    <name>Grenoble Trail - entrainement - 2021-09-08</name>
  </metadata>
  <trk>
    <name><![CDATA[Grenoble Trail]]></name>
    <trkseg>
      <trkpt lat="45.19663" lon="5.73979">
        <ele>214.39999389648</ele>
        <time>2021-09-08T03:08:55.000Z</time>
      </trkpt>
      <trkpt lat="45.19662" lon="5.73976">
        <ele>214.39999389648</ele>
        <time>2021-09-08T03:08:56.000Z</time>
      </trkpt>
      <trkpt lat="45.1966" lon="5.73977">
        <ele>214.39999389648</ele>
        <time>2021-09-08T03:09:00.000Z</time>
      </trkpt>
      <trkpt lat="45.19658" lon="5.73977">
        <ele>214.39999389648</ele>
        <time>2021-09-08T03:09:01.000Z</time>
      </trkpt>
      <trkpt lat="45.19657" lon="5.73976">
        <ele>214.39999389648</ele>
        <time>2021-09-08T03:09:02.000Z</time>
      </trkpt>
      <trkpt lat="45.19648" lon="5.73979">
        <ele>214.39999389648</ele>
        <time>2021-09-08T03:09:09.000Z</time>
      </trkpt>
      <trkpt lat="45.19646" lon="5.73978">
        <ele>214.39999389648</ele>
        <time>2021-09-08T03:09:11.000Z</time>
      </trkpt>
      <trkpt lat="45.19642" lon="5.73975">
        <ele>214.60000610352</ele>
        <time>2021-09-08T03:09:15.000Z</time>
      </trkpt>
      <trkpt lat="45.1964" lon="5.73974">
        <ele>214.60000610352</ele>
        <time>2021-09-08T03:09:17.000Z</time>
      </trkpt>
      <trkpt lat="45.19638" lon="5.73973">
        <ele>214.60000610352</ele>
        <time>2021-09-08T03:09:20.000Z</time>
      </trkpt>
      <trkpt lat="45.19635" lon="5.7397">
        <ele>212.80000305176</ele>
        <time>2021-09-08T03:09:25.000Z</time>
      </trkpt>
      <trkpt lat="45.19634" lon="5.73969">
        <ele>212.19999694824</ele>
        <time>2021-09-08T03:09:27.000Z</time>
      </trkpt>
      <trkpt lat="45.19638" lon="5.73978">
        <ele>211.80000305176</ele>
        <time>2021-09-08T03:09:32.000Z</time>
      </trkpt>
      <trkpt lat="45.19637" lon="5.73977">
        <ele>211</ele>
        <time>2021-09-08T03:09:34.000Z</time>
      </trkpt>
      <trkpt lat="45.19636" lon="5.73977">
        <ele>210.80000305176</ele>
        <time>2021-09-08T03:09:35.000Z</time>
      </trkpt>
      <trkpt lat="45.19635" lon="5.73975">
        <ele>210</ele>
        <time>2021-09-08T03:09:37.000Z</time>
      </trkpt>
      <trkpt lat="45.19665" lon="5.73997">
        <ele>207</ele>
        <time>2021-09-08T03:09:48.000Z</time>
      </trkpt>
      <trkpt lat="45.19657" lon="5.74">
        <ele>206.60000610352</ele>
        <time>2021-09-08T03:09:49.000Z</time>
      </trkpt>
      <trkpt lat="45.19654" lon="5.73995">
        <ele>206.60000610352</ele>
        <time>2021-09-08T03:09:50.000Z</time>
      </trkpt>
      <trkpt lat="45.19646" lon="5.73985">
        <ele>206.39999389648</ele>
        <time>2021-09-08T03:09:55.000Z</time>
      </trkpt>
      <trkpt lat="45.19643" lon="5.73983">
        <ele>206.39999389648</ele>
        <time>2021-09-08T03:09:56.000Z</time>
      </trkpt>
      <trkpt lat="45.19647" lon="5.73989">
        <ele>206.39999389648</ele>
        <time>2021-09-08T03:09:59.000Z</time>
      </trkpt>
      <trkpt lat="45.1965" lon="5.7399">
        <ele>206.39999389648</ele>
        <time>2021-09-08T03:10:00.000Z</time>
      </trkpt>
      <trkpt lat="45.19652" lon="5.73989">
        <ele>206.39999389648</ele>
        <time>2021-09-08T03:10:02.000Z</time>
      </trkpt>
      <trkpt lat="45.19654" lon="5.73989">
        <ele>206.39999389648</ele>
        <time>2021-09-08T03:10:04.000Z</time>
      </trkpt>
      <trkpt lat="45.19656" lon="5.73989">
        <ele>206.39999389648</ele>
        <time>2021-09-08T03:10:05.000Z</time>
      </trkpt>
      <trkpt lat="45.19658" lon="5.7399">
        <ele>206.60000610352</ele>
        <time>2021-09-08T03:10:06.000Z</time>
      </trkpt>
      <trkpt lat="45.19661" lon="5.7399">
        <ele>206.60000610352</ele>
        <time>2021-09-08T03:10:07.000Z</time>
      </trkpt>
      <trkpt lat="45.19665" lon="5.73989">
        <ele>206.60000610352</ele>
        <time>2021-09-08T03:10:09.000Z</time>
      </trkpt>
      <trkpt lat="45.19667" lon="5.73987">
        <ele>206.60000610352</ele>
        <time>2021-09-08T03:10:10.000Z</time>
      </trkpt>
      <trkpt lat="45.19669" lon="5.73983">
        <ele>206.39999389648</ele>
        <time>2021-09-08T03:10:11.000Z</time>
      </trkpt>
      <trkpt lat="45.19672" lon="5.73977">
        <ele>206.39999389648</ele>
        <time>2021-09-08T03:10:13.000Z</time>
      </trkpt>
      <trkpt lat="45.19671" lon="5.73974">
        <ele>206.39999389648</ele>
        <time>2021-09-08T03:10:15.000Z</time>
      </trkpt>
      <trkpt lat="45.19671" lon="5.73948">
        <ele>206.60000610352</ele>
        <time>2021-09-08T03:10:33.000Z</time>
      </trkpt>
      <trkpt lat="45.19675" lon="5.73948">
        <ele>206.39999389648</ele>
        <time>2021-09-08T03:10:37.000Z</time>
      </trkpt>
      <trkpt lat="45.19682" lon="5.73946">
        <ele>206.39999389648</ele>
        <time>2021-09-08T03:10:40.000Z</time>
      </trkpt>
      <trkpt lat="45.19687" lon="5.73951">
        <ele>206.39999389648</ele>
        <time>2021-09-08T03:10:43.000Z</time>
      </trkpt>
      <trkpt lat="45.19688" lon="5.73953">
        <ele>206.39999389648</ele>
        <time>2021-09-08T03:10:44.000Z</time>
      </trkpt>
      <trkpt lat="45.19687" lon="5.73961">
        <ele>206.60000610352</ele>
        <time>2021-09-08T03:10:47.000Z</time>
      </trkpt>
      <trkpt lat="45.19687" lon="5.73968">
        <ele>206.60000610352</ele>
        <time>2021-09-08T03:10:49.000Z</time>
      </trkpt>
      <trkpt lat="45.19688" lon="5.73979">
        <ele>206.60000610352</ele>
        <time>2021-09-08T03:10:51.000Z</time>
      </trkpt>
      <trkpt lat="45.19689" lon="5.73984">
        <ele>206.39999389648</ele>
        <time>2021-09-08T03:10:52.000Z</time>
      </trkpt>
      <trkpt lat="45.19689" lon="5.73988">
        <ele>206.39999389648</ele>
        <time>2021-09-08T03:10:53.000Z</time>
      </trkpt>
      <trkpt lat="45.19694" lon="5.73998">
        <ele>206.39999389648</ele>
        <time>2021-09-08T03:10:56.000Z</time>
      </trkpt>
      <trkpt lat="45.19694" lon="5.74001">
        <ele>206.60000610352</ele>
        <time>2021-09-08T03:10:57.000Z</time>
      </trkpt>
      <trkpt lat="45.19696" lon="5.74009">
        <ele>206.60000610352</ele>
        <time>2021-09-08T03:11:00.000Z</time>
      </trkpt>
      <trkpt lat="45.19698" lon="5.74024">
        <ele>206.60000610352</ele>
        <time>2021-09-08T03:11:04.000Z</time>
      </trkpt>
      <trkpt lat="45.197" lon="5.74027">
        <ele>206.60000610352</ele>
        <time>2021-09-08T03:11:05.000Z</time>
      </trkpt>
      <trkpt lat="45.19704" lon="5.74043">
        <ele>206.39999389648</ele>
        <time>2021-09-08T03:11:10.000Z</time>
      </trkpt>
      <trkpt lat="45.19707" lon="5.74054">
        <ele>206.39999389648</ele>
        <time>2021-09-08T03:11:14.000Z</time>
      </trkpt>
      <trkpt lat="45.19707" lon="5.74056">
        <ele>206.80000305176</ele>
        <time>2021-09-08T03:11:15.000Z</time>
      </trkpt>
      <trkpt lat="45.19707" lon="5.74059">
        <ele>206.80000305176</ele>
        <time>2021-09-08T03:11:16.000Z</time>
      </trkpt>
      <trkpt lat="45.1971" lon="5.74069">
        <ele>206.60000610352</ele>
        <time>2021-09-08T03:11:19.000Z</time>
      </trkpt>
      <trkpt lat="45.1971" lon="5.74072">
        <ele>206.60000610352</ele>
        <time>2021-09-08T03:11:20.000Z</time>
      </trkpt>
      <trkpt lat="45.19712" lon="5.74084">
        <ele>206.80000305176</ele>
        <time>2021-09-08T03:11:24.000Z</time>
      </trkpt>
      <trkpt lat="45.19712" lon="5.74087">
        <ele>206.60000610352</ele>
        <time>2021-09-08T03:11:25.000Z</time>
      </trkpt>
      <trkpt lat="45.19714" lon="5.74112">
        <ele>206.60000610352</ele>
        <time>2021-09-08T03:11:31.000Z</time>
      </trkpt>
      <trkpt lat="45.19718" lon="5.74127">
        <ele>206.80000305176</ele>
        <time>2021-09-08T03:11:35.000Z</time>
      </trkpt>
      <trkpt lat="45.19721" lon="5.74147">
        <ele>206.60000610352</ele>
        <time>2021-09-08T03:11:41.000Z</time>
      </trkpt>
      <trkpt lat="45.19726" lon="5.74166">
        <ele>206.60000610352</ele>
        <time>2021-09-08T03:11:47.000Z</time>
      </trkpt>
      <trkpt lat="45.19727" lon="5.74169">
        <ele>206.60000610352</ele>
        <time>2021-09-08T03:11:48.000Z</time>
      </trkpt>
      <trkpt lat="45.19732" lon="5.74189">
        <ele>207</ele>
        <time>2021-09-08T03:11:54.000Z</time>
      </trkpt>
      <trkpt lat="45.19737" lon="5.74202">
        <ele>207</ele>
        <time>2021-09-08T03:11:58.000Z</time>
      </trkpt>
      <trkpt lat="45.19739" lon="5.7422">
        <ele>206.80000305176</ele>
        <time>2021-09-08T03:12:03.000Z</time>
      </trkpt>
      <trkpt lat="45.19735" lon="5.74237">
        <ele>206.80000305176</ele>
        <time>2021-09-08T03:12:08.000Z</time>
      </trkpt>
      <trkpt lat="45.19738" lon="5.7424">
        <ele>206.80000305176</ele>
        <time>2021-09-08T03:12:09.000Z</time>
      </trkpt>
      <trkpt lat="45.19743" lon="5.74255">
        <ele>207.19999694824</ele>
        <time>2021-09-08T03:12:14.000Z</time>
      </trkpt>
      <trkpt lat="45.19744" lon="5.74257">
        <ele>207.60000610352</ele>
        <time>2021-09-08T03:12:16.000Z</time>
      </trkpt>
      <trkpt lat="45.19744" lon="5.74257">
        <ele>208</ele>
        <time>2021-09-08T03:12:17.000Z</time>
      </trkpt>
      <trkpt lat="45.19746" lon="5.74257">
        <ele>208.19999694824</ele>
        <time>2021-09-08T03:12:18.000Z</time>
      </trkpt>
      <trkpt lat="45.19748" lon="5.74256">
        <ele>208.39999389648</ele>
        <time>2021-09-08T03:12:19.000Z</time>
      </trkpt>
      <trkpt lat="45.19754" lon="5.74252">
        <ele>208.80000305176</ele>
        <time>2021-09-08T03:12:23.000Z</time>
      </trkpt>
      <trkpt lat="45.19763" lon="5.74246">
        <ele>208.80000305176</ele>
        <time>2021-09-08T03:12:28.000Z</time>
      </trkpt>
      <trkpt lat="45.19768" lon="5.74246">
        <ele>208.80000305176</ele>
        <time>2021-09-08T03:12:30.000Z</time>
      </trkpt>
      <trkpt lat="45.19784" lon="5.74242">
        <ele>208.60000610352</ele>
        <time>2021-09-08T03:12:39.000Z</time>
      </trkpt>
      <trkpt lat="45.19786" lon="5.74242">
        <ele>208.60000610352</ele>
        <time>2021-09-08T03:12:40.000Z</time>
      </trkpt>
      <trkpt lat="45.19793" lon="5.74242">
        <ele>208.60000610352</ele>
        <time>2021-09-08T03:12:44.000Z</time>
      </trkpt>
      <trkpt lat="45.198" lon="5.74242">
        <ele>208.80000305176</ele>
        <time>2021-09-08T03:12:49.000Z</time>
      </trkpt>
      <trkpt lat="45.19804" lon="5.74239">
        <ele>209</ele>
        <time>2021-09-08T03:12:51.000Z</time>
      </trkpt>
      <trkpt lat="45.19813" lon="5.74233">
        <ele>209</ele>
        <time>2021-09-08T03:12:56.000Z</time>
      </trkpt>
      <trkpt lat="45.19817" lon="5.7423">
        <ele>209</ele>
        <time>2021-09-08T03:12:58.000Z</time>
      </trkpt>
      <trkpt lat="45.19824" lon="5.74227">
        <ele>209</ele>
        <time>2021-09-08T03:13:01.000Z</time>
      </trkpt>
      <trkpt lat="45.19837" lon="5.74221">
        <ele>209</ele>
        <time>2021-09-08T03:13:06.000Z</time>
      </trkpt>
      <trkpt lat="45.19857" lon="5.74217">
        <ele>208.80000305176</ele>
        <time>2021-09-08T03:13:14.000Z</time>
      </trkpt>
      <trkpt lat="45.19874" lon="5.7421">
        <ele>209</ele>
        <time>2021-09-08T03:13:20.000Z</time>
      </trkpt>
      <trkpt lat="45.19878" lon="5.74209">
        <ele>209</ele>
        <time>2021-09-08T03:13:21.000Z</time>
      </trkpt>
      <trkpt lat="45.19896" lon="5.74201">
        <ele>208.60000610352</ele>
        <time>2021-09-08T03:13:27.000Z</time>
      </trkpt>
      <trkpt lat="45.19903" lon="5.74199">
        <ele>208.60000610352</ele>
        <time>2021-09-08T03:13:30.000Z</time>
      </trkpt>
      <trkpt lat="45.19905" lon="5.74198">
        <ele>208.60000610352</ele>
        <time>2021-09-08T03:13:31.000Z</time>
      </trkpt>
      <trkpt lat="45.19912" lon="5.74192">
        <ele>209.19999694824</ele>
        <time>2021-09-08T03:13:34.000Z</time>
      </trkpt>
      <trkpt lat="45.19917" lon="5.74185">
        <ele>209.19999694824</ele>
        <time>2021-09-08T03:13:38.000Z</time>
      </trkpt>
      <trkpt lat="45.19919" lon="5.74183">
        <ele>209.19999694824</ele>
        <time>2021-09-08T03:13:39.000Z</time>
      </trkpt>
      <trkpt lat="45.19921" lon="5.74181">
        <ele>209.19999694824</ele>
        <time>2021-09-08T03:13:40.000Z</time>
      </trkpt>
      <trkpt lat="45.1993" lon="5.74176">
        <ele>209</ele>
        <time>2021-09-08T03:13:44.000Z</time>
      </trkpt>
      <trkpt lat="45.19932" lon="5.74174">
        <ele>209</ele>
        <time>2021-09-08T03:13:45.000Z</time>
      </trkpt>
      <trkpt lat="45.19946" lon="5.74163">
        <ele>209.39999389648</ele>
        <time>2021-09-08T03:13:52.000Z</time>
      </trkpt>
      <trkpt lat="45.1996" lon="5.74155">
        <ele>209</ele>
        <time>2021-09-08T03:13:57.000Z</time>
      </trkpt>
      <trkpt lat="45.19965" lon="5.74152">
        <ele>209</ele>
        <time>2021-09-08T03:13:59.000Z</time>
      </trkpt>
      <trkpt lat="45.1998" lon="5.74137">
        <ele>209.39999389648</ele>
        <time>2021-09-08T03:14:06.000Z</time>
      </trkpt>
      <trkpt lat="45.19982" lon="5.74136">
        <ele>209.60000610352</ele>
        <time>2021-09-08T03:14:07.000Z</time>
      </trkpt>
      <trkpt lat="45.19985" lon="5.74123">
        <ele>210</ele>
        <time>2021-09-08T03:14:12.000Z</time>
      </trkpt>
      <trkpt lat="45.19987" lon="5.7412">
        <ele>210</ele>
        <time>2021-09-08T03:14:13.000Z</time>
      </trkpt>
      <trkpt lat="45.19989" lon="5.74118">
        <ele>210.39999389648</ele>
        <time>2021-09-08T03:14:14.000Z</time>
      </trkpt>
      <trkpt lat="45.19993" lon="5.7411">
        <ele>211</ele>
        <time>2021-09-08T03:14:17.000Z</time>
      </trkpt>
      <trkpt lat="45.19998" lon="5.741">
        <ele>211.39999389648</ele>
        <time>2021-09-08T03:14:21.000Z</time>
      </trkpt>
      <trkpt lat="45.2" lon="5.74097">
        <ele>211.39999389648</ele>
        <time>2021-09-08T03:14:22.000Z</time>
      </trkpt>
      <trkpt lat="45.2001" lon="5.74084">
        <ele>212.60000610352</ele>
        <time>2021-09-08T03:14:28.000Z</time>
      </trkpt>
      <trkpt lat="45.20017" lon="5.74071">
        <ele>212.39999389648</ele>
        <time>2021-09-08T03:14:33.000Z</time>
      </trkpt>
      <trkpt lat="45.20018" lon="5.74069">
        <ele>212.60000610352</ele>
        <time>2021-09-08T03:14:34.000Z</time>
      </trkpt>
      <trkpt lat="45.20027" lon="5.74049">
        <ele>212.19999694824</ele>
        <time>2021-09-08T03:14:41.000Z</time>
      </trkpt>
      <trkpt lat="45.2003" lon="5.74042">
        <ele>211.19999694824</ele>
        <time>2021-09-08T03:14:44.000Z</time>
      </trkpt>
      <trkpt lat="45.20032" lon="5.7404">
        <ele>211.19999694824</ele>
        <time>2021-09-08T03:14:46.000Z</time>
      </trkpt>
      <trkpt lat="45.20034" lon="5.74034">
        <ele>210.60000610352</ele>
        <time>2021-09-08T03:14:49.000Z</time>
      </trkpt>
      <trkpt lat="45.20037" lon="5.74031">
        <ele>210</ele>
        <time>2021-09-08T03:14:51.000Z</time>
      </trkpt>
      <trkpt lat="45.20038" lon="5.74029">
        <ele>210</ele>
        <time>2021-09-08T03:14:52.000Z</time>
      </trkpt>
      <trkpt lat="45.20044" lon="5.74023">
        <ele>209.39999389648</ele>
        <time>2021-09-08T03:14:56.000Z</time>
      </trkpt>
      <trkpt lat="45.20046" lon="5.74021">
        <ele>209</ele>
        <time>2021-09-08T03:14:57.000Z</time>
      </trkpt>
      <trkpt lat="45.20051" lon="5.74019">
        <ele>208.80000305176</ele>
        <time>2021-09-08T03:14:59.000Z</time>
      </trkpt>
      <trkpt lat="45.20068" lon="5.74002">
        <ele>208.60000610352</ele>
        <time>2021-09-08T03:15:05.000Z</time>
      </trkpt>
      <trkpt lat="45.20074" lon="5.73994">
        <ele>208.60000610352</ele>
        <time>2021-09-08T03:15:08.000Z</time>
      </trkpt>
      <trkpt lat="45.20088" lon="5.73975">
        <ele>208.19999694824</ele>
        <time>2021-09-08T03:15:14.000Z</time>
      </trkpt>
      <trkpt lat="45.20098" lon="5.73962">
        <ele>208.19999694824</ele>
        <time>2021-09-08T03:15:18.000Z</time>
      </trkpt>
      <trkpt lat="45.20103" lon="5.73957">
        <ele>208</ele>
        <time>2021-09-08T03:15:20.000Z</time>
      </trkpt>
      <trkpt lat="45.20105" lon="5.73955">
        <ele>208.19999694824</ele>
        <time>2021-09-08T03:15:21.000Z</time>
      </trkpt>
      <trkpt lat="45.2012" lon="5.73938">
        <ele>208.19999694824</ele>
        <time>2021-09-08T03:15:27.000Z</time>
      </trkpt>
      <trkpt lat="45.20123" lon="5.73935">
        <ele>208.19999694824</ele>
        <time>2021-09-08T03:15:28.000Z</time>
      </trkpt>
      <trkpt lat="45.20137" lon="5.73917">
        <ele>208.39999389648</ele>
        <time>2021-09-08T03:15:35.000Z</time>
      </trkpt>
      <trkpt lat="45.20146" lon="5.73898">
        <ele>208.39999389648</ele>
        <time>2021-09-08T03:15:41.000Z</time>
      </trkpt>
      <trkpt lat="45.20147" lon="5.73892">
        <ele>208</ele>
        <time>2021-09-08T03:15:43.000Z</time>
      </trkpt>
      <trkpt lat="45.2015" lon="5.73886">
        <ele>208</ele>
        <time>2021-09-08T03:15:45.000Z</time>
      </trkpt>
      <trkpt lat="45.20161" lon="5.73867">
        <ele>208.39999389648</ele>
        <time>2021-09-08T03:15:52.000Z</time>
      </trkpt>
      <trkpt lat="45.20169" lon="5.73847">
        <ele>208.19999694824</ele>
        <time>2021-09-08T03:15:58.000Z</time>
      </trkpt>
      <trkpt lat="45.2017" lon="5.73843">
        <ele>208.19999694824</ele>
        <time>2021-09-08T03:15:59.000Z</time>
      </trkpt>
      <trkpt lat="45.20171" lon="5.73828">
        <ele>208.19999694824</ele>
        <time>2021-09-08T03:16:03.000Z</time>
      </trkpt>
      <trkpt lat="45.20172" lon="5.7382">
        <ele>208.39999389648</ele>
        <time>2021-09-08T03:16:05.000Z</time>
      </trkpt>
      <trkpt lat="45.20174" lon="5.73803">
        <ele>208</ele>
        <time>2021-09-08T03:16:10.000Z</time>
      </trkpt>
      <trkpt lat="45.20175" lon="5.73782">
        <ele>208.19999694824</ele>
        <time>2021-09-08T03:16:16.000Z</time>
      </trkpt>
      <trkpt lat="45.20175" lon="5.73779">
        <ele>208.39999389648</ele>
        <time>2021-09-08T03:16:17.000Z</time>
      </trkpt>
      <trkpt lat="45.20175" lon="5.73765">
        <ele>208.39999389648</ele>
        <time>2021-09-08T03:16:20.000Z</time>
      </trkpt>
      <trkpt lat="45.20173" lon="5.73744">
        <ele>208.39999389648</ele>
        <time>2021-09-08T03:16:26.000Z</time>
      </trkpt>
      <trkpt lat="45.20175" lon="5.73722">
        <ele>208.60000610352</ele>
        <time>2021-09-08T03:16:32.000Z</time>
      </trkpt>
      <trkpt lat="45.20172" lon="5.73698">
        <ele>208.60000610352</ele>
        <time>2021-09-08T03:16:39.000Z</time>
      </trkpt>
      <trkpt lat="45.20169" lon="5.73679">
        <ele>208.19999694824</ele>
        <time>2021-09-08T03:16:44.000Z</time>
      </trkpt>
      <trkpt lat="45.20169" lon="5.73675">
        <ele>208.39999389648</ele>
        <time>2021-09-08T03:16:45.000Z</time>
      </trkpt>
      <trkpt lat="45.20166" lon="5.73661">
        <ele>208.19999694824</ele>
        <time>2021-09-08T03:16:49.000Z</time>
      </trkpt>
      <trkpt lat="45.20165" lon="5.73657">
        <ele>208.39999389648</ele>
        <time>2021-09-08T03:16:50.000Z</time>
      </trkpt>
      <trkpt lat="45.20157" lon="5.73641">
        <ele>208.39999389648</ele>
        <time>2021-09-08T03:16:56.000Z</time>
      </trkpt>
      <trkpt lat="45.20154" lon="5.73634">
        <ele>208.39999389648</ele>
        <time>2021-09-08T03:16:58.000Z</time>
      </trkpt>
      <trkpt lat="45.2015" lon="5.73621">
        <ele>208.60000610352</ele>
        <time>2021-09-08T03:17:03.000Z</time>
      </trkpt>
      <trkpt lat="45.20148" lon="5.73616">
        <ele>208.19999694824</ele>
        <time>2021-09-08T03:17:05.000Z</time>
      </trkpt>
      <trkpt lat="45.20144" lon="5.73606">
        <ele>208.19999694824</ele>
        <time>2021-09-08T03:17:09.000Z</time>
      </trkpt>
      <trkpt lat="45.20138" lon="5.73599">
        <ele>208.19999694824</ele>
        <time>2021-09-08T03:17:13.000Z</time>
      </trkpt>
      <trkpt lat="45.20133" lon="5.73591">
        <ele>208.80000305176</ele>
        <time>2021-09-08T03:17:16.000Z</time>
      </trkpt>
      <trkpt lat="45.20126" lon="5.73576">
        <ele>208.80000305176</ele>
        <time>2021-09-08T03:17:22.000Z</time>
      </trkpt>
      <trkpt lat="45.20116" lon="5.7356">
        <ele>208.39999389648</ele>
        <time>2021-09-08T03:17:28.000Z</time>
      </trkpt>
      <trkpt lat="45.20104" lon="5.73543">
        <ele>208.39999389648</ele>
        <time>2021-09-08T03:17:33.000Z</time>
      </trkpt>
      <trkpt lat="45.20093" lon="5.73526">
        <ele>208.80000305176</ele>
        <time>2021-09-08T03:17:38.000Z</time>
      </trkpt>
      <trkpt lat="45.20082" lon="5.73516">
        <ele>208.60000610352</ele>
        <time>2021-09-08T03:17:43.000Z</time>
      </trkpt>
      <trkpt lat="45.20067" lon="5.73508">
        <ele>208.19999694824</ele>
        <time>2021-09-08T03:17:48.000Z</time>
      </trkpt>
      <trkpt lat="45.20066" lon="5.73505">
        <ele>208.19999694824</ele>
        <time>2021-09-08T03:17:49.000Z</time>
      </trkpt>
      <trkpt lat="45.20063" lon="5.73499">
        <ele>208.19999694824</ele>
        <time>2021-09-08T03:17:51.000Z</time>
      </trkpt>
      <trkpt lat="45.20057" lon="5.7349">
        <ele>208.60000610352</ele>
        <time>2021-09-08T03:17:55.000Z</time>
      </trkpt>
      <trkpt lat="45.20056" lon="5.73489">
        <ele>208.19999694824</ele>
        <time>2021-09-08T03:17:56.000Z</time>
      </trkpt>
      <trkpt lat="45.20046" lon="5.73483">
        <ele>207.80000305176</ele>
        <time>2021-09-08T03:18:00.000Z</time>
      </trkpt>
      <trkpt lat="45.20046" lon="5.73479">
        <ele>207.60000610352</ele>
        <time>2021-09-08T03:18:01.000Z</time>
      </trkpt>
      <trkpt lat="45.20037" lon="5.73473">
        <ele>207.39999389648</ele>
        <time>2021-09-08T03:18:04.000Z</time>
      </trkpt>
      <trkpt lat="45.20023" lon="5.73462">
        <ele>207.60000610352</ele>
        <time>2021-09-08T03:18:09.000Z</time>
      </trkpt>
      <trkpt lat="45.20004" lon="5.73455">
        <ele>208.19999694824</ele>
        <time>2021-09-08T03:18:16.000Z</time>
      </trkpt>
      <trkpt lat="45.20002" lon="5.73454">
        <ele>208.19999694824</ele>
        <time>2021-09-08T03:18:17.000Z</time>
      </trkpt>
      <trkpt lat="45.19988" lon="5.73446">
        <ele>208.60000610352</ele>
        <time>2021-09-08T03:18:22.000Z</time>
      </trkpt>
      <trkpt lat="45.19985" lon="5.73445">
        <ele>208.80000305176</ele>
        <time>2021-09-08T03:18:23.000Z</time>
      </trkpt>
      <trkpt lat="45.19979" lon="5.73444">
        <ele>208.60000610352</ele>
        <time>2021-09-08T03:18:25.000Z</time>
      </trkpt>
      <trkpt lat="45.19976" lon="5.73443">
        <ele>208.60000610352</ele>
        <time>2021-09-08T03:18:26.000Z</time>
      </trkpt>
      <trkpt lat="45.19957" lon="5.73433">
        <ele>208.39999389648</ele>
        <time>2021-09-08T03:18:32.000Z</time>
      </trkpt>
      <trkpt lat="45.19942" lon="5.73429">
        <ele>208.39999389648</ele>
        <time>2021-09-08T03:18:37.000Z</time>
      </trkpt>
      <trkpt lat="45.19927" lon="5.73426">
        <ele>208.60000610352</ele>
        <time>2021-09-08T03:18:42.000Z</time>
      </trkpt>
      <trkpt lat="45.1992" lon="5.73425">
        <ele>208</ele>
        <time>2021-09-08T03:18:45.000Z</time>
      </trkpt>
      <trkpt lat="45.19912" lon="5.73423">
        <ele>208</ele>
        <time>2021-09-08T03:18:48.000Z</time>
      </trkpt>
      <trkpt lat="45.19908" lon="5.73421">
        <ele>208</ele>
        <time>2021-09-08T03:18:50.000Z</time>
      </trkpt>
      <trkpt lat="45.19899" lon="5.73421">
        <ele>208.39999389648</ele>
        <time>2021-09-08T03:18:53.000Z</time>
      </trkpt>
      <trkpt lat="45.19884" lon="5.73418">
        <ele>208.60000610352</ele>
        <time>2021-09-08T03:18:59.000Z</time>
      </trkpt>
      <trkpt lat="45.19879" lon="5.73415">
        <ele>208.60000610352</ele>
        <time>2021-09-08T03:19:02.000Z</time>
      </trkpt>
      <trkpt lat="45.19877" lon="5.73415">
        <ele>208.60000610352</ele>
        <time>2021-09-08T03:19:03.000Z</time>
      </trkpt>
      <trkpt lat="45.19868" lon="5.73412">
        <ele>208.60000610352</ele>
        <time>2021-09-08T03:19:06.000Z</time>
      </trkpt>
      <trkpt lat="45.19866" lon="5.73412">
        <ele>208.60000610352</ele>
        <time>2021-09-08T03:19:07.000Z</time>
      </trkpt>
      <trkpt lat="45.19856" lon="5.73412">
        <ele>208.60000610352</ele>
        <time>2021-09-08T03:19:12.000Z</time>
      </trkpt>
      <trkpt lat="45.19854" lon="5.73411">
        <ele>208.60000610352</ele>
        <time>2021-09-08T03:19:13.000Z</time>
      </trkpt>
      <trkpt lat="45.19841" lon="5.73405">
        <ele>209</ele>
        <time>2021-09-08T03:19:18.000Z</time>
      </trkpt>
      <trkpt lat="45.19824" lon="5.73399">
        <ele>208.80000305176</ele>
        <time>2021-09-08T03:19:23.000Z</time>
      </trkpt>
      <trkpt lat="45.19817" lon="5.73396">
        <ele>208.80000305176</ele>
        <time>2021-09-08T03:19:26.000Z</time>
      </trkpt>
      <trkpt lat="45.19807" lon="5.73392">
        <ele>208.80000305176</ele>
        <time>2021-09-08T03:19:30.000Z</time>
      </trkpt>
      <trkpt lat="45.19788" lon="5.73383">
        <ele>208.60000610352</ele>
        <time>2021-09-08T03:19:37.000Z</time>
      </trkpt>
      <trkpt lat="45.19785" lon="5.73381">
        <ele>208.80000305176</ele>
        <time>2021-09-08T03:19:38.000Z</time>
      </trkpt>
      <trkpt lat="45.19783" lon="5.7338">
        <ele>208.60000610352</ele>
        <time>2021-09-08T03:19:39.000Z</time>
      </trkpt>
      <trkpt lat="45.19778" lon="5.73378">
        <ele>209</ele>
        <time>2021-09-08T03:19:41.000Z</time>
      </trkpt>
      <trkpt lat="45.19771" lon="5.73376">
        <ele>209</ele>
        <time>2021-09-08T03:19:43.000Z</time>
      </trkpt>
      <trkpt lat="45.1976" lon="5.73374">
        <ele>209.19999694824</ele>
        <time>2021-09-08T03:19:47.000Z</time>
      </trkpt>
      <trkpt lat="45.19751" lon="5.7337">
        <ele>209.60000610352</ele>
        <time>2021-09-08T03:19:50.000Z</time>
      </trkpt>
      <trkpt lat="45.19738" lon="5.73366">
        <ele>210.39999389648</ele>
        <time>2021-09-08T03:19:54.000Z</time>
      </trkpt>
      <trkpt lat="45.19736" lon="5.73366">
        <ele>210.39999389648</ele>
        <time>2021-09-08T03:19:55.000Z</time>
      </trkpt>
      <trkpt lat="45.1973" lon="5.73361">
        <ele>211</ele>
        <time>2021-09-08T03:19:59.000Z</time>
      </trkpt>
      <trkpt lat="45.19731" lon="5.73351">
        <ele>211.19999694824</ele>
        <time>2021-09-08T03:20:02.000Z</time>
      </trkpt>
      <trkpt lat="45.19734" lon="5.73344">
        <ele>211.19999694824</ele>
        <time>2021-09-08T03:20:04.000Z</time>
      </trkpt>
      <trkpt lat="45.19738" lon="5.73337">
        <ele>211.39999389648</ele>
        <time>2021-09-08T03:20:06.000Z</time>
      </trkpt>
      <trkpt lat="45.19744" lon="5.73325">
        <ele>211.39999389648</ele>
        <time>2021-09-08T03:20:09.000Z</time>
      </trkpt>
      <trkpt lat="45.19749" lon="5.73305">
        <ele>211.80000305176</ele>
        <time>2021-09-08T03:20:15.000Z</time>
      </trkpt>
      <trkpt lat="45.1975" lon="5.7329">
        <ele>211.60000610352</ele>
        <time>2021-09-08T03:20:20.000Z</time>
      </trkpt>
      <trkpt lat="45.19754" lon="5.73267">
        <ele>211.39999389648</ele>
        <time>2021-09-08T03:20:26.000Z</time>
      </trkpt>
      <trkpt lat="45.19766" lon="5.73254">
        <ele>210.80000305176</ele>
        <time>2021-09-08T03:20:31.000Z</time>
      </trkpt>
      <trkpt lat="45.19769" lon="5.73253">
        <ele>210.60000610352</ele>
        <time>2021-09-08T03:20:32.000Z</time>
      </trkpt>
      <trkpt lat="45.19775" lon="5.73248">
        <ele>210.39999389648</ele>
        <time>2021-09-08T03:20:35.000Z</time>
      </trkpt>
      <trkpt lat="45.1978" lon="5.73248">
        <ele>210.39999389648</ele>
        <time>2021-09-08T03:20:37.000Z</time>
      </trkpt>
      <trkpt lat="45.19788" lon="5.73253">
        <ele>210.19999694824</ele>
        <time>2021-09-08T03:20:40.000Z</time>
      </trkpt>
      <trkpt lat="45.19795" lon="5.73257">
        <ele>210</ele>
        <time>2021-09-08T03:20:43.000Z</time>
      </trkpt>
      <trkpt lat="45.19806" lon="5.73262">
        <ele>209.80000305176</ele>
        <time>2021-09-08T03:20:48.000Z</time>
      </trkpt>
      <trkpt lat="45.19825" lon="5.73262">
        <ele>210</ele>
        <time>2021-09-08T03:20:54.000Z</time>
      </trkpt>
      <trkpt lat="45.19828" lon="5.73263">
        <ele>210</ele>
        <time>2021-09-08T03:20:55.000Z</time>
      </trkpt>
      <trkpt lat="45.19839" lon="5.73265">
        <ele>210.19999694824</ele>
        <time>2021-09-08T03:21:00.000Z</time>
      </trkpt>
      <trkpt lat="45.19851" lon="5.73268">
        <ele>210.19999694824</ele>
        <time>2021-09-08T03:21:06.000Z</time>
      </trkpt>
      <trkpt lat="45.19856" lon="5.73269">
        <ele>210.19999694824</ele>
        <time>2021-09-08T03:21:08.000Z</time>
      </trkpt>
      <trkpt lat="45.1987" lon="5.7327">
        <ele>209.80000305176</ele>
        <time>2021-09-08T03:21:13.000Z</time>
      </trkpt>
      <trkpt lat="45.19882" lon="5.73275">
        <ele>210.39999389648</ele>
        <time>2021-09-08T03:21:17.000Z</time>
      </trkpt>
      <trkpt lat="45.19884" lon="5.73276">
        <ele>210.39999389648</ele>
        <time>2021-09-08T03:21:18.000Z</time>
      </trkpt>
      <trkpt lat="45.19896" lon="5.73284">
        <ele>211</ele>
        <time>2021-09-08T03:21:24.000Z</time>
      </trkpt>
      <trkpt lat="45.19906" lon="5.73291">
        <ele>210.80000305176</ele>
        <time>2021-09-08T03:21:29.000Z</time>
      </trkpt>
      <trkpt lat="45.19924" lon="5.73305">
        <ele>210.60000610352</ele>
        <time>2021-09-08T03:21:36.000Z</time>
      </trkpt>
      <trkpt lat="45.1993" lon="5.73308">
        <ele>210.80000305176</ele>
        <time>2021-09-08T03:21:39.000Z</time>
      </trkpt>
      <trkpt lat="45.19932" lon="5.73309">
        <ele>210.80000305176</ele>
        <time>2021-09-08T03:21:40.000Z</time>
      </trkpt>
      <trkpt lat="45.19935" lon="5.73311">
        <ele>210.80000305176</ele>
        <time>2021-09-08T03:21:42.000Z</time>
      </trkpt>
      <trkpt lat="45.19937" lon="5.73314">
        <ele>210.80000305176</ele>
        <time>2021-09-08T03:21:43.000Z</time>
      </trkpt>
      <trkpt lat="45.19938" lon="5.73316">
        <ele>210.80000305176</ele>
        <time>2021-09-08T03:21:44.000Z</time>
      </trkpt>
      <trkpt lat="45.19939" lon="5.73318">
        <ele>210.80000305176</ele>
        <time>2021-09-08T03:21:45.000Z</time>
      </trkpt>
      <trkpt lat="45.19947" lon="5.73322">
        <ele>210.39999389648</ele>
        <time>2021-09-08T03:21:48.000Z</time>
      </trkpt>
      <trkpt lat="45.19954" lon="5.73323">
        <ele>210.39999389648</ele>
        <time>2021-09-08T03:21:51.000Z</time>
      </trkpt>
      <trkpt lat="45.19968" lon="5.73325">
        <ele>210.39999389648</ele>
        <time>2021-09-08T03:21:56.000Z</time>
      </trkpt>
      <trkpt lat="45.19983" lon="5.73332">
        <ele>210.39999389648</ele>
        <time>2021-09-08T03:22:01.000Z</time>
      </trkpt>
      <trkpt lat="45.19987" lon="5.73333">
        <ele>210.19999694824</ele>
        <time>2021-09-08T03:22:02.000Z</time>
      </trkpt>
      <trkpt lat="45.1999" lon="5.73335">
        <ele>210.19999694824</ele>
        <time>2021-09-08T03:22:03.000Z</time>
      </trkpt>
      <trkpt lat="45.20009" lon="5.73339">
        <ele>210.19999694824</ele>
        <time>2021-09-08T03:22:08.000Z</time>
      </trkpt>
      <trkpt lat="45.20016" lon="5.7334">
        <ele>210.19999694824</ele>
        <time>2021-09-08T03:22:10.000Z</time>
      </trkpt>
      <trkpt lat="45.20034" lon="5.73347">
        <ele>210</ele>
        <time>2021-09-08T03:22:16.000Z</time>
      </trkpt>
      <trkpt lat="45.20039" lon="5.73351">
        <ele>210</ele>
        <time>2021-09-08T03:22:18.000Z</time>
      </trkpt>
      <trkpt lat="45.20055" lon="5.73359">
        <ele>209.39999389648</ele>
        <time>2021-09-08T03:22:24.000Z</time>
      </trkpt>
      <trkpt lat="45.20064" lon="5.73364">
        <ele>209.39999389648</ele>
        <time>2021-09-08T03:22:28.000Z</time>
      </trkpt>
      <trkpt lat="45.20066" lon="5.73365">
        <ele>209.39999389648</ele>
        <time>2021-09-08T03:22:29.000Z</time>
      </trkpt>
      <trkpt lat="45.20068" lon="5.73365">
        <ele>209.60000610352</ele>
        <time>2021-09-08T03:22:30.000Z</time>
      </trkpt>
      <trkpt lat="45.20075" lon="5.73367">
        <ele>209.60000610352</ele>
        <time>2021-09-08T03:22:33.000Z</time>
      </trkpt>
      <trkpt lat="45.20093" lon="5.73374">
        <ele>209.39999389648</ele>
        <time>2021-09-08T03:22:39.000Z</time>
      </trkpt>
      <trkpt lat="45.20107" lon="5.73387">
        <ele>209.60000610352</ele>
        <time>2021-09-08T03:22:44.000Z</time>
      </trkpt>
      <trkpt lat="45.20123" lon="5.73403">
        <ele>210</ele>
        <time>2021-09-08T03:22:49.000Z</time>
      </trkpt>
      <trkpt lat="45.20138" lon="5.73408">
        <ele>210.19999694824</ele>
        <time>2021-09-08T03:22:54.000Z</time>
      </trkpt>
      <trkpt lat="45.20141" lon="5.73409">
        <ele>210.39999389648</ele>
        <time>2021-09-08T03:22:55.000Z</time>
      </trkpt>
      <trkpt lat="45.20156" lon="5.7341">
        <ele>210.80000305176</ele>
        <time>2021-09-08T03:23:00.000Z</time>
      </trkpt>
      <trkpt lat="45.20167" lon="5.73411">
        <ele>210.80000305176</ele>
        <time>2021-09-08T03:23:05.000Z</time>
      </trkpt>
      <trkpt lat="45.20171" lon="5.73413">
        <ele>210.80000305176</ele>
        <time>2021-09-08T03:23:07.000Z</time>
      </trkpt>
      <trkpt lat="45.20173" lon="5.73414">
        <ele>210.80000305176</ele>
        <time>2021-09-08T03:23:09.000Z</time>
      </trkpt>
      <trkpt lat="45.20184" lon="5.73415">
        <ele>211</ele>
        <time>2021-09-08T03:23:14.000Z</time>
      </trkpt>
      <trkpt lat="45.20198" lon="5.73423">
        <ele>211.19999694824</ele>
        <time>2021-09-08T03:23:19.000Z</time>
      </trkpt>
      <trkpt lat="45.20202" lon="5.7343">
        <ele>211.39999389648</ele>
        <time>2021-09-08T03:23:22.000Z</time>
      </trkpt>
      <trkpt lat="45.20203" lon="5.73431">
        <ele>211.39999389648</ele>
        <time>2021-09-08T03:23:23.000Z</time>
      </trkpt>
      <trkpt lat="45.20204" lon="5.73432">
        <ele>211.39999389648</ele>
        <time>2021-09-08T03:23:24.000Z</time>
      </trkpt>
      <trkpt lat="45.20206" lon="5.73436">
        <ele>211.19999694824</ele>
        <time>2021-09-08T03:23:26.000Z</time>
      </trkpt>
      <trkpt lat="45.20216" lon="5.73444">
        <ele>211.39999389648</ele>
        <time>2021-09-08T03:23:30.000Z</time>
      </trkpt>
      <trkpt lat="45.20219" lon="5.73446">
        <ele>211.39999389648</ele>
        <time>2021-09-08T03:23:31.000Z</time>
      </trkpt>
      <trkpt lat="45.20226" lon="5.73455">
        <ele>211.60000610352</ele>
        <time>2021-09-08T03:23:34.000Z</time>
      </trkpt>
      <trkpt lat="45.20228" lon="5.73457">
        <ele>211.60000610352</ele>
        <time>2021-09-08T03:23:35.000Z</time>
      </trkpt>
      <trkpt lat="45.20234" lon="5.7347">
        <ele>211.60000610352</ele>
        <time>2021-09-08T03:23:39.000Z</time>
      </trkpt>
      <trkpt lat="45.20242" lon="5.73487">
        <ele>211.60000610352</ele>
        <time>2021-09-08T03:23:44.000Z</time>
      </trkpt>
      <trkpt lat="45.20246" lon="5.73499">
        <ele>212.39999389648</ele>
        <time>2021-09-08T03:23:47.000Z</time>
      </trkpt>
      <trkpt lat="45.20256" lon="5.73521">
        <ele>212.80000305176</ele>
        <time>2021-09-08T03:23:53.000Z</time>
      </trkpt>
      <trkpt lat="45.20261" lon="5.73527">
        <ele>213</ele>
        <time>2021-09-08T03:23:55.000Z</time>
      </trkpt>
      <trkpt lat="45.20267" lon="5.7353">
        <ele>213.39999389648</ele>
        <time>2021-09-08T03:23:57.000Z</time>
      </trkpt>
      <trkpt lat="45.20273" lon="5.73533">
        <ele>213.39999389648</ele>
        <time>2021-09-08T03:23:59.000Z</time>
      </trkpt>
      <trkpt lat="45.20274" lon="5.73536">
        <ele>213.80000305176</ele>
        <time>2021-09-08T03:24:00.000Z</time>
      </trkpt>
      <trkpt lat="45.20276" lon="5.7354">
        <ele>213.80000305176</ele>
        <time>2021-09-08T03:24:01.000Z</time>
      </trkpt>
      <trkpt lat="45.20285" lon="5.73548">
        <ele>214.60000610352</ele>
        <time>2021-09-08T03:24:06.000Z</time>
      </trkpt>
      <trkpt lat="45.20287" lon="5.7355">
        <ele>214.80000305176</ele>
        <time>2021-09-08T03:24:07.000Z</time>
      </trkpt>
      <trkpt lat="45.20295" lon="5.73555">
        <ele>215.19999694824</ele>
        <time>2021-09-08T03:24:10.000Z</time>
      </trkpt>
      <trkpt lat="45.20302" lon="5.73571">
        <ele>216</ele>
        <time>2021-09-08T03:24:15.000Z</time>
      </trkpt>
      <trkpt lat="45.20303" lon="5.73574">
        <ele>216</ele>
        <time>2021-09-08T03:24:16.000Z</time>
      </trkpt>
      <trkpt lat="45.20305" lon="5.73576">
        <ele>216</ele>
        <time>2021-09-08T03:24:17.000Z</time>
      </trkpt>
      <trkpt lat="45.20309" lon="5.73585">
        <ele>216.80000305176</ele>
        <time>2021-09-08T03:24:20.000Z</time>
      </trkpt>
      <trkpt lat="45.20309" lon="5.73587">
        <ele>217</ele>
        <time>2021-09-08T03:24:21.000Z</time>
      </trkpt>
      <trkpt lat="45.20311" lon="5.73589">
        <ele>217.19999694824</ele>
        <time>2021-09-08T03:24:23.000Z</time>
      </trkpt>
      <trkpt lat="45.20323" lon="5.73595">
        <ele>217.19999694824</ele>
        <time>2021-09-08T03:24:28.000Z</time>
      </trkpt>
      <trkpt lat="45.20327" lon="5.73603">
        <ele>217.60000610352</ele>
        <time>2021-09-08T03:24:32.000Z</time>
      </trkpt>
      <trkpt lat="45.20329" lon="5.73607">
        <ele>217.80000305176</ele>
        <time>2021-09-08T03:24:34.000Z</time>
      </trkpt>
      <trkpt lat="45.2033" lon="5.7361">
        <ele>217.60000610352</ele>
        <time>2021-09-08T03:24:35.000Z</time>
      </trkpt>
      <trkpt lat="45.20333" lon="5.73616">
        <ele>218</ele>
        <time>2021-09-08T03:24:37.000Z</time>
      </trkpt>
      <trkpt lat="45.20336" lon="5.7362">
        <ele>218</ele>
        <time>2021-09-08T03:24:39.000Z</time>
      </trkpt>
      <trkpt lat="45.20348" lon="5.73634">
        <ele>218.39999389648</ele>
        <time>2021-09-08T03:24:45.000Z</time>
      </trkpt>
      <trkpt lat="45.20363" lon="5.73652">
        <ele>218.80000305176</ele>
        <time>2021-09-08T03:24:51.000Z</time>
      </trkpt>
      <trkpt lat="45.20373" lon="5.73668">
        <ele>219</ele>
        <time>2021-09-08T03:24:56.000Z</time>
      </trkpt>
      <trkpt lat="45.2038" lon="5.73676">
        <ele>219</ele>
        <time>2021-09-08T03:24:59.000Z</time>
      </trkpt>
      <trkpt lat="45.20388" lon="5.73691">
        <ele>219.80000305176</ele>
        <time>2021-09-08T03:25:04.000Z</time>
      </trkpt>
      <trkpt lat="45.20392" lon="5.73696">
        <ele>220</ele>
        <time>2021-09-08T03:25:06.000Z</time>
      </trkpt>
      <trkpt lat="45.20403" lon="5.73709">
        <ele>220.19999694824</ele>
        <time>2021-09-08T03:25:11.000Z</time>
      </trkpt>
      <trkpt lat="45.20407" lon="5.73716">
        <ele>220.39999389648</ele>
        <time>2021-09-08T03:25:13.000Z</time>
      </trkpt>
      <trkpt lat="45.2042" lon="5.7373">
        <ele>221</ele>
        <time>2021-09-08T03:25:19.000Z</time>
      </trkpt>
      <trkpt lat="45.20429" lon="5.73741">
        <ele>221.19999694824</ele>
        <time>2021-09-08T03:25:23.000Z</time>
      </trkpt>
      <trkpt lat="45.20432" lon="5.73743">
        <ele>221.19999694824</ele>
        <time>2021-09-08T03:25:24.000Z</time>
      </trkpt>
      <trkpt lat="45.20443" lon="5.73761">
        <ele>222</ele>
        <time>2021-09-08T03:25:31.000Z</time>
      </trkpt>
      <trkpt lat="45.20447" lon="5.73769">
        <ele>222.39999389648</ele>
        <time>2021-09-08T03:25:33.000Z</time>
      </trkpt>
      <trkpt lat="45.20452" lon="5.73776">
        <ele>222.39999389648</ele>
        <time>2021-09-08T03:25:36.000Z</time>
      </trkpt>
      <trkpt lat="45.20465" lon="5.73793">
        <ele>223</ele>
        <time>2021-09-08T03:25:43.000Z</time>
      </trkpt>
      <trkpt lat="45.20469" lon="5.73797">
        <ele>223.80000305176</ele>
        <time>2021-09-08T03:25:45.000Z</time>
      </trkpt>
      <trkpt lat="45.2048" lon="5.73808">
        <ele>224.60000610352</ele>
        <time>2021-09-08T03:25:50.000Z</time>
      </trkpt>
      <trkpt lat="45.20483" lon="5.7381">
        <ele>224.60000610352</ele>
        <time>2021-09-08T03:25:51.000Z</time>
      </trkpt>
      <trkpt lat="45.20485" lon="5.73814">
        <ele>224.80000305176</ele>
        <time>2021-09-08T03:25:53.000Z</time>
      </trkpt>
      <trkpt lat="45.20493" lon="5.73821">
        <ele>225.39999389648</ele>
        <time>2021-09-08T03:25:57.000Z</time>
      </trkpt>
      <trkpt lat="45.20497" lon="5.73824">
        <ele>226</ele>
        <time>2021-09-08T03:25:59.000Z</time>
      </trkpt>
      <trkpt lat="45.20508" lon="5.73832">
        <ele>226.60000610352</ele>
        <time>2021-09-08T03:26:04.000Z</time>
      </trkpt>
      <trkpt lat="45.20514" lon="5.73835">
        <ele>226.80000305176</ele>
        <time>2021-09-08T03:26:06.000Z</time>
      </trkpt>
      <trkpt lat="45.20516" lon="5.73835">
        <ele>227.39999389648</ele>
        <time>2021-09-08T03:26:07.000Z</time>
      </trkpt>
      <trkpt lat="45.20518" lon="5.73835">
        <ele>227.39999389648</ele>
        <time>2021-09-08T03:26:08.000Z</time>
      </trkpt>
      <trkpt lat="45.20523" lon="5.73835">
        <ele>227.80000305176</ele>
        <time>2021-09-08T03:26:10.000Z</time>
      </trkpt>
      <trkpt lat="45.20529" lon="5.73835">
        <ele>228.39999389648</ele>
        <time>2021-09-08T03:26:13.000Z</time>
      </trkpt>
      <trkpt lat="45.20535" lon="5.73838">
        <ele>229.19999694824</ele>
        <time>2021-09-08T03:26:16.000Z</time>
      </trkpt>
      <trkpt lat="45.20536" lon="5.7384">
        <ele>229.80000305176</ele>
        <time>2021-09-08T03:26:17.000Z</time>
      </trkpt>
      <trkpt lat="45.20537" lon="5.73842">
        <ele>229.80000305176</ele>
        <time>2021-09-08T03:26:18.000Z</time>
      </trkpt>
      <trkpt lat="45.20539" lon="5.73847">
        <ele>230.60000610352</ele>
        <time>2021-09-08T03:26:20.000Z</time>
      </trkpt>
      <trkpt lat="45.2054" lon="5.73849">
        <ele>230.80000305176</ele>
        <time>2021-09-08T03:26:21.000Z</time>
      </trkpt>
      <trkpt lat="45.20541" lon="5.73852">
        <ele>231</ele>
        <time>2021-09-08T03:26:22.000Z</time>
      </trkpt>
      <trkpt lat="45.20543" lon="5.73857">
        <ele>231.60000610352</ele>
        <time>2021-09-08T03:26:24.000Z</time>
      </trkpt>
      <trkpt lat="45.20543" lon="5.73859">
        <ele>232.19999694824</ele>
        <time>2021-09-08T03:26:25.000Z</time>
      </trkpt>
      <trkpt lat="45.20544" lon="5.73862">
        <ele>232.39999389648</ele>
        <time>2021-09-08T03:26:26.000Z</time>
      </trkpt>
      <trkpt lat="45.2055" lon="5.7387">
        <ele>233.60000610352</ele>
        <time>2021-09-08T03:26:30.000Z</time>
      </trkpt>
      <trkpt lat="45.20551" lon="5.73872">
        <ele>234.19999694824</ele>
        <time>2021-09-08T03:26:31.000Z</time>
      </trkpt>
      <trkpt lat="45.20553" lon="5.73872">
        <ele>234.60000610352</ele>
        <time>2021-09-08T03:26:33.000Z</time>
      </trkpt>
      <trkpt lat="45.20553" lon="5.73872">
        <ele>235</ele>
        <time>2021-09-08T03:26:34.000Z</time>
      </trkpt>
      <trkpt lat="45.20556" lon="5.73871">
        <ele>235.80000305176</ele>
        <time>2021-09-08T03:26:36.000Z</time>
      </trkpt>
      <trkpt lat="45.2056" lon="5.73869">
        <ele>236.39999389648</ele>
        <time>2021-09-08T03:26:38.000Z</time>
      </trkpt>
      <trkpt lat="45.20566" lon="5.73867">
        <ele>237</ele>
        <time>2021-09-08T03:26:41.000Z</time>
      </trkpt>
      <trkpt lat="45.20569" lon="5.73866">
        <ele>237.60000610352</ele>
        <time>2021-09-08T03:26:43.000Z</time>
      </trkpt>
      <trkpt lat="45.20577" lon="5.73863">
        <ele>238.80000305176</ele>
        <time>2021-09-08T03:26:48.000Z</time>
      </trkpt>
      <trkpt lat="45.2058" lon="5.73861">
        <ele>239.19999694824</ele>
        <time>2021-09-08T03:26:50.000Z</time>
      </trkpt>
      <trkpt lat="45.20581" lon="5.73861">
        <ele>240</ele>
        <time>2021-09-08T03:26:51.000Z</time>
      </trkpt>
      <trkpt lat="45.20585" lon="5.7386">
        <ele>240.39999389648</ele>
        <time>2021-09-08T03:26:54.000Z</time>
      </trkpt>
      <trkpt lat="45.20586" lon="5.7386">
        <ele>241</ele>
        <time>2021-09-08T03:26:55.000Z</time>
      </trkpt>
      <trkpt lat="45.20587" lon="5.7386">
        <ele>241.19999694824</ele>
        <time>2021-09-08T03:26:56.000Z</time>
      </trkpt>
      <trkpt lat="45.20591" lon="5.73858">
        <ele>242.19999694824</ele>
        <time>2021-09-08T03:26:59.000Z</time>
      </trkpt>
      <trkpt lat="45.20596" lon="5.73855">
        <ele>243.60000610352</ele>
        <time>2021-09-08T03:27:03.000Z</time>
      </trkpt>
      <trkpt lat="45.20601" lon="5.73853">
        <ele>244.80000305176</ele>
        <time>2021-09-08T03:27:07.000Z</time>
      </trkpt>
      <trkpt lat="45.20607" lon="5.7385">
        <ele>245.80000305176</ele>
        <time>2021-09-08T03:27:11.000Z</time>
      </trkpt>
      <trkpt lat="45.20609" lon="5.73849">
        <ele>246.39999389648</ele>
        <time>2021-09-08T03:27:13.000Z</time>
      </trkpt>
      <trkpt lat="45.20614" lon="5.73847">
        <ele>247.39999389648</ele>
        <time>2021-09-08T03:27:16.000Z</time>
      </trkpt>
      <trkpt lat="45.20619" lon="5.73844">
        <ele>248.60000610352</ele>
        <time>2021-09-08T03:27:20.000Z</time>
      </trkpt>
      <trkpt lat="45.20621" lon="5.73843">
        <ele>248.80000305176</ele>
        <time>2021-09-08T03:27:22.000Z</time>
      </trkpt>
      <trkpt lat="45.20622" lon="5.73843">
        <ele>249</ele>
        <time>2021-09-08T03:27:23.000Z</time>
      </trkpt>
      <trkpt lat="45.20623" lon="5.73843">
        <ele>249.60000610352</ele>
        <time>2021-09-08T03:27:24.000Z</time>
      </trkpt>
      <trkpt lat="45.20627" lon="5.73841">
        <ele>250.39999389648</ele>
        <time>2021-09-08T03:27:27.000Z</time>
      </trkpt>
      <trkpt lat="45.20628" lon="5.73841">
        <ele>251.19999694824</ele>
        <time>2021-09-08T03:27:28.000Z</time>
      </trkpt>
      <trkpt lat="45.20632" lon="5.7384">
        <ele>251.60000610352</ele>
        <time>2021-09-08T03:27:31.000Z</time>
      </trkpt>
      <trkpt lat="45.20633" lon="5.7384">
        <ele>252.39999389648</ele>
        <time>2021-09-08T03:27:33.000Z</time>
      </trkpt>
      <trkpt lat="45.20641" lon="5.73836">
        <ele>253.39999389648</ele>
        <time>2021-09-08T03:27:38.000Z</time>
      </trkpt>
      <trkpt lat="45.20641" lon="5.73835">
        <ele>254.39999389648</ele>
        <time>2021-09-08T03:27:39.000Z</time>
      </trkpt>
      <trkpt lat="45.20642" lon="5.73834">
        <ele>254.60000610352</ele>
        <time>2021-09-08T03:27:40.000Z</time>
      </trkpt>
      <trkpt lat="45.20649" lon="5.73833">
        <ele>256</ele>
        <time>2021-09-08T03:27:44.000Z</time>
      </trkpt>
      <trkpt lat="45.20652" lon="5.73833">
        <ele>256.39999389648</ele>
        <time>2021-09-08T03:27:46.000Z</time>
      </trkpt>
      <trkpt lat="45.20654" lon="5.73831">
        <ele>256.79998779297</ele>
        <time>2021-09-08T03:27:48.000Z</time>
      </trkpt>
      <trkpt lat="45.20656" lon="5.73831">
        <ele>257.60000610352</ele>
        <time>2021-09-08T03:27:49.000Z</time>
      </trkpt>
      <trkpt lat="45.20659" lon="5.7383">
        <ele>258.20001220703</ele>
        <time>2021-09-08T03:27:52.000Z</time>
      </trkpt>
      <trkpt lat="45.2066" lon="5.7383">
        <ele>258.79998779297</ele>
        <time>2021-09-08T03:27:53.000Z</time>
      </trkpt>
      <trkpt lat="45.20661" lon="5.73829">
        <ele>259.20001220703</ele>
        <time>2021-09-08T03:27:54.000Z</time>
      </trkpt>
      <trkpt lat="45.20663" lon="5.73828">
        <ele>260</ele>
        <time>2021-09-08T03:27:57.000Z</time>
      </trkpt>
      <trkpt lat="45.20665" lon="5.73827">
        <ele>260.20001220703</ele>
        <time>2021-09-08T03:27:58.000Z</time>
      </trkpt>
      <trkpt lat="45.20666" lon="5.73826">
        <ele>260.60000610352</ele>
        <time>2021-09-08T03:27:59.000Z</time>
      </trkpt>
      <trkpt lat="45.20668" lon="5.73824">
        <ele>260.79998779297</ele>
        <time>2021-09-08T03:28:01.000Z</time>
      </trkpt>
      <trkpt lat="45.20671" lon="5.73824">
        <ele>261.39999389648</ele>
        <time>2021-09-08T03:28:02.000Z</time>
      </trkpt>
      <trkpt lat="45.20673" lon="5.73823">
        <ele>261.60000610352</ele>
        <time>2021-09-08T03:28:04.000Z</time>
      </trkpt>
      <trkpt lat="45.20674" lon="5.73822">
        <ele>261.60000610352</ele>
        <time>2021-09-08T03:28:05.000Z</time>
      </trkpt>
      <trkpt lat="45.20677" lon="5.73821">
        <ele>262.79998779297</ele>
        <time>2021-09-08T03:28:07.000Z</time>
      </trkpt>
      <trkpt lat="45.2068" lon="5.73817">
        <ele>263.20001220703</ele>
        <time>2021-09-08T03:28:10.000Z</time>
      </trkpt>
      <trkpt lat="45.20682" lon="5.73816">
        <ele>264.20001220703</ele>
        <time>2021-09-08T03:28:12.000Z</time>
      </trkpt>
      <trkpt lat="45.20685" lon="5.73814">
        <ele>264.60000610352</ele>
        <time>2021-09-08T03:28:14.000Z</time>
      </trkpt>
      <trkpt lat="45.20686" lon="5.73812">
        <ele>265.39999389648</ele>
        <time>2021-09-08T03:28:16.000Z</time>
      </trkpt>
      <trkpt lat="45.20692" lon="5.73808">
        <ele>266.20001220703</ele>
        <time>2021-09-08T03:28:20.000Z</time>
      </trkpt>
      <trkpt lat="45.20693" lon="5.73807">
        <ele>266.79998779297</ele>
        <time>2021-09-08T03:28:21.000Z</time>
      </trkpt>
      <trkpt lat="45.20696" lon="5.73806">
        <ele>267.60000610352</ele>
        <time>2021-09-08T03:28:24.000Z</time>
      </trkpt>
      <trkpt lat="45.20697" lon="5.73806">
        <ele>268.20001220703</ele>
        <time>2021-09-08T03:28:25.000Z</time>
      </trkpt>
      <trkpt lat="45.20698" lon="5.73805">
        <ele>268.39999389648</ele>
        <time>2021-09-08T03:28:26.000Z</time>
      </trkpt>
      <trkpt lat="45.207" lon="5.73804">
        <ele>268.39999389648</ele>
        <time>2021-09-08T03:28:27.000Z</time>
      </trkpt>
      <trkpt lat="45.20702" lon="5.73803">
        <ele>269.20001220703</ele>
        <time>2021-09-08T03:28:29.000Z</time>
      </trkpt>
      <trkpt lat="45.20703" lon="5.73801">
        <ele>270</ele>
        <time>2021-09-08T03:28:31.000Z</time>
      </trkpt>
      <trkpt lat="45.20704" lon="5.738">
        <ele>270</ele>
        <time>2021-09-08T03:28:33.000Z</time>
      </trkpt>
      <trkpt lat="45.20705" lon="5.73799">
        <ele>271.20001220703</ele>
        <time>2021-09-08T03:28:34.000Z</time>
      </trkpt>
      <trkpt lat="45.20709" lon="5.73798">
        <ele>271.60000610352</ele>
        <time>2021-09-08T03:28:38.000Z</time>
      </trkpt>
      <trkpt lat="45.20711" lon="5.73797">
        <ele>272.39999389648</ele>
        <time>2021-09-08T03:28:39.000Z</time>
      </trkpt>
      <trkpt lat="45.20712" lon="5.73796">
        <ele>273</ele>
        <time>2021-09-08T03:28:40.000Z</time>
      </trkpt>
      <trkpt lat="45.20714" lon="5.73792">
        <ele>273.60000610352</ele>
        <time>2021-09-08T03:28:43.000Z</time>
      </trkpt>
      <trkpt lat="45.20715" lon="5.73792">
        <ele>274.20001220703</ele>
        <time>2021-09-08T03:28:44.000Z</time>
      </trkpt>
      <trkpt lat="45.20715" lon="5.73791">
        <ele>274.60000610352</ele>
        <time>2021-09-08T03:28:45.000Z</time>
      </trkpt>
      <trkpt lat="45.20716" lon="5.73787">
        <ele>275.20001220703</ele>
        <time>2021-09-08T03:28:48.000Z</time>
      </trkpt>
      <trkpt lat="45.20716" lon="5.73786">
        <ele>275.79998779297</ele>
        <time>2021-09-08T03:28:49.000Z</time>
      </trkpt>
      <trkpt lat="45.20717" lon="5.73784">
        <ele>276</ele>
        <time>2021-09-08T03:28:50.000Z</time>
      </trkpt>
      <trkpt lat="45.20718" lon="5.73783">
        <ele>276.39999389648</ele>
        <time>2021-09-08T03:28:51.000Z</time>
      </trkpt>
      <trkpt lat="45.2072" lon="5.73781">
        <ele>277.20001220703</ele>
        <time>2021-09-08T03:28:53.000Z</time>
      </trkpt>
      <trkpt lat="45.20723" lon="5.73776">
        <ele>277.79998779297</ele>
        <time>2021-09-08T03:28:55.000Z</time>
      </trkpt>
      <trkpt lat="45.20725" lon="5.73773">
        <ele>278</ele>
        <time>2021-09-08T03:28:56.000Z</time>
      </trkpt>
      <trkpt lat="45.20726" lon="5.73771">
        <ele>278.20001220703</ele>
        <time>2021-09-08T03:28:57.000Z</time>
      </trkpt>
      <trkpt lat="45.20729" lon="5.73768">
        <ele>279.39999389648</ele>
        <time>2021-09-08T03:28:59.000Z</time>
      </trkpt>
      <trkpt lat="45.20732" lon="5.73765">
        <ele>279.79998779297</ele>
        <time>2021-09-08T03:29:02.000Z</time>
      </trkpt>
      <trkpt lat="45.20733" lon="5.73764">
        <ele>280.60000610352</ele>
        <time>2021-09-08T03:29:03.000Z</time>
      </trkpt>
      <trkpt lat="45.20737" lon="5.7376">
        <ele>281.39999389648</ele>
        <time>2021-09-08T03:29:06.000Z</time>
      </trkpt>
      <trkpt lat="45.20738" lon="5.73759">
        <ele>282</ele>
        <time>2021-09-08T03:29:07.000Z</time>
      </trkpt>
      <trkpt lat="45.20741" lon="5.73757">
        <ele>282.60000610352</ele>
        <time>2021-09-08T03:29:09.000Z</time>
      </trkpt>
      <trkpt lat="45.20743" lon="5.73756">
        <ele>283</ele>
        <time>2021-09-08T03:29:10.000Z</time>
      </trkpt>
      <trkpt lat="45.20745" lon="5.73756">
        <ele>283</ele>
        <time>2021-09-08T03:29:11.000Z</time>
      </trkpt>
      <trkpt lat="45.20747" lon="5.73755">
        <ele>284.20001220703</ele>
        <time>2021-09-08T03:29:13.000Z</time>
      </trkpt>
      <trkpt lat="45.20751" lon="5.73753">
        <ele>285</ele>
        <time>2021-09-08T03:29:16.000Z</time>
      </trkpt>
      <trkpt lat="45.20752" lon="5.73751">
        <ele>285.39999389648</ele>
        <time>2021-09-08T03:29:17.000Z</time>
      </trkpt>
      <trkpt lat="45.20755" lon="5.73749">
        <ele>286.60000610352</ele>
        <time>2021-09-08T03:29:20.000Z</time>
      </trkpt>
      <trkpt lat="45.20758" lon="5.73746">
        <ele>286.79998779297</ele>
        <time>2021-09-08T03:29:22.000Z</time>
      </trkpt>
      <trkpt lat="45.20758" lon="5.73746">
        <ele>287.79998779297</ele>
        <time>2021-09-08T03:29:23.000Z</time>
      </trkpt>
      <trkpt lat="45.20758" lon="5.73745">
        <ele>288.20001220703</ele>
        <time>2021-09-08T03:29:24.000Z</time>
      </trkpt>
      <trkpt lat="45.20763" lon="5.73742">
        <ele>289.39999389648</ele>
        <time>2021-09-08T03:29:28.000Z</time>
      </trkpt>
      <trkpt lat="45.20763" lon="5.73741">
        <ele>289.79998779297</ele>
        <time>2021-09-08T03:29:29.000Z</time>
      </trkpt>
      <trkpt lat="45.20763" lon="5.73741">
        <ele>290.20001220703</ele>
        <time>2021-09-08T03:29:30.000Z</time>
      </trkpt>
      <trkpt lat="45.20763" lon="5.73741">
        <ele>290.39999389648</ele>
        <time>2021-09-08T03:29:31.000Z</time>
      </trkpt>
      <trkpt lat="45.20763" lon="5.7374">
        <ele>290.60000610352</ele>
        <time>2021-09-08T03:29:32.000Z</time>
      </trkpt>
      <trkpt lat="45.20765" lon="5.73739">
        <ele>292</ele>
        <time>2021-09-08T03:29:35.000Z</time>
      </trkpt>
      <trkpt lat="45.20766" lon="5.73739">
        <ele>292.60000610352</ele>
        <time>2021-09-08T03:29:36.000Z</time>
      </trkpt>
      <trkpt lat="45.20768" lon="5.73738">
        <ele>293</ele>
        <time>2021-09-08T03:29:39.000Z</time>
      </trkpt>
      <trkpt lat="45.20769" lon="5.73737">
        <ele>293</ele>
        <time>2021-09-08T03:29:40.000Z</time>
      </trkpt>
      <trkpt lat="45.2077" lon="5.73737">
        <ele>293.39999389648</ele>
        <time>2021-09-08T03:29:41.000Z</time>
      </trkpt>
      <trkpt lat="45.20774" lon="5.73736">
        <ele>293.79998779297</ele>
        <time>2021-09-08T03:29:43.000Z</time>
      </trkpt>
      <trkpt lat="45.20777" lon="5.73735">
        <ele>294.20001220703</ele>
        <time>2021-09-08T03:29:44.000Z</time>
      </trkpt>
      <trkpt lat="45.20779" lon="5.73735">
        <ele>294.79998779297</ele>
        <time>2021-09-08T03:29:46.000Z</time>
      </trkpt>
      <trkpt lat="45.20779" lon="5.73735">
        <ele>295</ele>
        <time>2021-09-08T03:29:47.000Z</time>
      </trkpt>
      <trkpt lat="45.20779" lon="5.73734">
        <ele>295.39999389648</ele>
        <time>2021-09-08T03:29:48.000Z</time>
      </trkpt>
      <trkpt lat="45.20783" lon="5.73733">
        <ele>296.60000610352</ele>
        <time>2021-09-08T03:29:51.000Z</time>
      </trkpt>
      <trkpt lat="45.20783" lon="5.73732">
        <ele>296.79998779297</ele>
        <time>2021-09-08T03:29:52.000Z</time>
      </trkpt>
      <trkpt lat="45.20784" lon="5.73731">
        <ele>297</ele>
        <time>2021-09-08T03:29:53.000Z</time>
      </trkpt>
      <trkpt lat="45.20786" lon="5.7373">
        <ele>297.60000610352</ele>
        <time>2021-09-08T03:29:55.000Z</time>
      </trkpt>
      <trkpt lat="45.20787" lon="5.7373">
        <ele>297.79998779297</ele>
        <time>2021-09-08T03:29:56.000Z</time>
      </trkpt>
      <trkpt lat="45.20791" lon="5.73728">
        <ele>298.60000610352</ele>
        <time>2021-09-08T03:29:59.000Z</time>
      </trkpt>
      <trkpt lat="45.20792" lon="5.73727">
        <ele>299</ele>
        <time>2021-09-08T03:30:00.000Z</time>
      </trkpt>
      <trkpt lat="45.20798" lon="5.73723">
        <ele>300.20001220703</ele>
        <time>2021-09-08T03:30:03.000Z</time>
      </trkpt>
      <trkpt lat="45.20801" lon="5.73722">
        <ele>300.60000610352</ele>
        <time>2021-09-08T03:30:06.000Z</time>
      </trkpt>
      <trkpt lat="45.20802" lon="5.73722">
        <ele>301.60000610352</ele>
        <time>2021-09-08T03:30:07.000Z</time>
      </trkpt>
      <trkpt lat="45.20802" lon="5.73722">
        <ele>301.79998779297</ele>
        <time>2021-09-08T03:30:08.000Z</time>
      </trkpt>
      <trkpt lat="45.20804" lon="5.73724">
        <ele>302.60000610352</ele>
        <time>2021-09-08T03:30:11.000Z</time>
      </trkpt>
      <trkpt lat="45.20805" lon="5.73726">
        <ele>302.60000610352</ele>
        <time>2021-09-08T03:30:12.000Z</time>
      </trkpt>
      <trkpt lat="45.20806" lon="5.73728">
        <ele>303.60000610352</ele>
        <time>2021-09-08T03:30:14.000Z</time>
      </trkpt>
      <trkpt lat="45.20807" lon="5.7373">
        <ele>303.60000610352</ele>
        <time>2021-09-08T03:30:15.000Z</time>
      </trkpt>
      <trkpt lat="45.20808" lon="5.73732">
        <ele>303.79998779297</ele>
        <time>2021-09-08T03:30:16.000Z</time>
      </trkpt>
      <trkpt lat="45.20809" lon="5.73734">
        <ele>304.20001220703</ele>
        <time>2021-09-08T03:30:17.000Z</time>
      </trkpt>
      <trkpt lat="45.20812" lon="5.73737">
        <ele>304.60000610352</ele>
        <time>2021-09-08T03:30:19.000Z</time>
      </trkpt>
      <trkpt lat="45.20814" lon="5.73738">
        <ele>304.79998779297</ele>
        <time>2021-09-08T03:30:20.000Z</time>
      </trkpt>
      <trkpt lat="45.20815" lon="5.73739">
        <ele>304.79998779297</ele>
        <time>2021-09-08T03:30:21.000Z</time>
      </trkpt>
      <trkpt lat="45.20817" lon="5.7374">
        <ele>305</ele>
        <time>2021-09-08T03:30:23.000Z</time>
      </trkpt>
      <trkpt lat="45.20819" lon="5.7374">
        <ele>305.79998779297</ele>
        <time>2021-09-08T03:30:25.000Z</time>
      </trkpt>
      <trkpt lat="45.20824" lon="5.73741">
        <ele>306.39999389648</ele>
        <time>2021-09-08T03:30:28.000Z</time>
      </trkpt>
      <trkpt lat="45.20825" lon="5.7374">
        <ele>307.20001220703</ele>
        <time>2021-09-08T03:30:29.000Z</time>
      </trkpt>
      <trkpt lat="45.20827" lon="5.73739">
        <ele>307.39999389648</ele>
        <time>2021-09-08T03:30:30.000Z</time>
      </trkpt>
      <trkpt lat="45.20831" lon="5.73737">
        <ele>308.39999389648</ele>
        <time>2021-09-08T03:30:33.000Z</time>
      </trkpt>
      <trkpt lat="45.20833" lon="5.73735">
        <ele>308.60000610352</ele>
        <time>2021-09-08T03:30:34.000Z</time>
      </trkpt>
      <trkpt lat="45.20834" lon="5.7373">
        <ele>309.39999389648</ele>
        <time>2021-09-08T03:30:37.000Z</time>
      </trkpt>
      <trkpt lat="45.20834" lon="5.73727">
        <ele>310.39999389648</ele>
        <time>2021-09-08T03:30:39.000Z</time>
      </trkpt>
      <trkpt lat="45.20834" lon="5.73726">
        <ele>310.60000610352</ele>
        <time>2021-09-08T03:30:40.000Z</time>
      </trkpt>
      <trkpt lat="45.20835" lon="5.73725">
        <ele>310.60000610352</ele>
        <time>2021-09-08T03:30:41.000Z</time>
      </trkpt>
      <trkpt lat="45.20839" lon="5.73727">
        <ele>311.79998779297</ele>
        <time>2021-09-08T03:30:44.000Z</time>
      </trkpt>
      <trkpt lat="45.20842" lon="5.73731">
        <ele>312.39999389648</ele>
        <time>2021-09-08T03:30:48.000Z</time>
      </trkpt>
      <trkpt lat="45.20843" lon="5.73731">
        <ele>313.20001220703</ele>
        <time>2021-09-08T03:30:49.000Z</time>
      </trkpt>
      <trkpt lat="45.20844" lon="5.73732">
        <ele>313.20001220703</ele>
        <time>2021-09-08T03:30:50.000Z</time>
      </trkpt>
      <trkpt lat="45.20844" lon="5.7373">
        <ele>313.60000610352</ele>
        <time>2021-09-08T03:30:52.000Z</time>
      </trkpt>
      <trkpt lat="45.20844" lon="5.7373">
        <ele>313.60000610352</ele>
        <time>2021-09-08T03:30:53.000Z</time>
      </trkpt>
      <trkpt lat="45.20844" lon="5.73729">
        <ele>314</ele>
        <time>2021-09-08T03:30:54.000Z</time>
      </trkpt>
      <trkpt lat="45.20844" lon="5.73728">
        <ele>314.39999389648</ele>
        <time>2021-09-08T03:30:55.000Z</time>
      </trkpt>
      <trkpt lat="45.20844" lon="5.73726">
        <ele>315</ele>
        <time>2021-09-08T03:30:56.000Z</time>
      </trkpt>
      <trkpt lat="45.20844" lon="5.73723">
        <ele>315.60000610352</ele>
        <time>2021-09-08T03:30:59.000Z</time>
      </trkpt>
      <trkpt lat="45.20844" lon="5.73724">
        <ele>316.39999389648</ele>
        <time>2021-09-08T03:31:02.000Z</time>
      </trkpt>
      <trkpt lat="45.20845" lon="5.73724">
        <ele>316.60000610352</ele>
        <time>2021-09-08T03:31:03.000Z</time>
      </trkpt>
      <trkpt lat="45.20846" lon="5.73724">
        <ele>317</ele>
        <time>2021-09-08T03:31:04.000Z</time>
      </trkpt>
      <trkpt lat="45.20849" lon="5.73726">
        <ele>317.39999389648</ele>
        <time>2021-09-08T03:31:06.000Z</time>
      </trkpt>
      <trkpt lat="45.20851" lon="5.73729">
        <ele>317.79998779297</ele>
        <time>2021-09-08T03:31:08.000Z</time>
      </trkpt>
      <trkpt lat="45.20854" lon="5.7373">
        <ele>319</ele>
        <time>2021-09-08T03:31:11.000Z</time>
      </trkpt>
      <trkpt lat="45.20862" lon="5.7373">
        <ele>320</ele>
        <time>2021-09-08T03:31:15.000Z</time>
      </trkpt>
      <trkpt lat="45.20868" lon="5.73732">
        <ele>321.20001220703</ele>
        <time>2021-09-08T03:31:19.000Z</time>
      </trkpt>
      <trkpt lat="45.20872" lon="5.73734">
        <ele>321.79998779297</ele>
        <time>2021-09-08T03:31:22.000Z</time>
      </trkpt>
      <trkpt lat="45.20874" lon="5.73734">
        <ele>322.39999389648</ele>
        <time>2021-09-08T03:31:24.000Z</time>
      </trkpt>
      <trkpt lat="45.20877" lon="5.73731">
        <ele>323</ele>
        <time>2021-09-08T03:31:27.000Z</time>
      </trkpt>
      <trkpt lat="45.20877" lon="5.73729">
        <ele>323.60000610352</ele>
        <time>2021-09-08T03:31:29.000Z</time>
      </trkpt>
      <trkpt lat="45.20878" lon="5.73727">
        <ele>324.20001220703</ele>
        <time>2021-09-08T03:31:30.000Z</time>
      </trkpt>
      <trkpt lat="45.20879" lon="5.73726">
        <ele>324.60000610352</ele>
        <time>2021-09-08T03:31:31.000Z</time>
      </trkpt>
      <trkpt lat="45.2088" lon="5.73725">
        <ele>324.60000610352</ele>
        <time>2021-09-08T03:31:32.000Z</time>
      </trkpt>
      <trkpt lat="45.20881" lon="5.73724">
        <ele>324.79998779297</ele>
        <time>2021-09-08T03:31:33.000Z</time>
      </trkpt>
      <trkpt lat="45.20883" lon="5.73722">
        <ele>326</ele>
        <time>2021-09-08T03:31:37.000Z</time>
      </trkpt>
      <trkpt lat="45.20884" lon="5.73722">
        <ele>326.39999389648</ele>
        <time>2021-09-08T03:31:38.000Z</time>
      </trkpt>
      <trkpt lat="45.20887" lon="5.7372">
        <ele>327.39999389648</ele>
        <time>2021-09-08T03:31:41.000Z</time>
      </trkpt>
      <trkpt lat="45.20889" lon="5.73717">
        <ele>328.20001220703</ele>
        <time>2021-09-08T03:31:44.000Z</time>
      </trkpt>
      <trkpt lat="45.2089" lon="5.73716">
        <ele>329</ele>
        <time>2021-09-08T03:31:46.000Z</time>
      </trkpt>
      <trkpt lat="45.2089" lon="5.73715">
        <ele>329.39999389648</ele>
        <time>2021-09-08T03:31:47.000Z</time>
      </trkpt>
      <trkpt lat="45.20894" lon="5.73713">
        <ele>330.39999389648</ele>
        <time>2021-09-08T03:31:51.000Z</time>
      </trkpt>
      <trkpt lat="45.20897" lon="5.73712">
        <ele>331.39999389648</ele>
        <time>2021-09-08T03:31:53.000Z</time>
      </trkpt>
      <trkpt lat="45.20901" lon="5.7371">
        <ele>332.39999389648</ele>
        <time>2021-09-08T03:31:57.000Z</time>
      </trkpt>
      <trkpt lat="45.20901" lon="5.73709">
        <ele>333</ele>
        <time>2021-09-08T03:31:58.000Z</time>
      </trkpt>
      <trkpt lat="45.20902" lon="5.73709">
        <ele>333.39999389648</ele>
        <time>2021-09-08T03:31:59.000Z</time>
      </trkpt>
      <trkpt lat="45.20903" lon="5.73709">
        <ele>333.60000610352</ele>
        <time>2021-09-08T03:32:00.000Z</time>
      </trkpt>
      <trkpt lat="45.20906" lon="5.73709">
        <ele>334.20001220703</ele>
        <time>2021-09-08T03:32:02.000Z</time>
      </trkpt>
      <trkpt lat="45.20909" lon="5.73709">
        <ele>335.20001220703</ele>
        <time>2021-09-08T03:32:05.000Z</time>
      </trkpt>
      <trkpt lat="45.20913" lon="5.73708">
        <ele>337.39999389648</ele>
        <time>2021-09-08T03:32:10.000Z</time>
      </trkpt>
      <trkpt lat="45.20914" lon="5.73707">
        <ele>337.39999389648</ele>
        <time>2021-09-08T03:32:11.000Z</time>
      </trkpt>
      <trkpt lat="45.20916" lon="5.73707">
        <ele>337.39999389648</ele>
        <time>2021-09-08T03:32:12.000Z</time>
      </trkpt>
      <trkpt lat="45.2092" lon="5.73706">
        <ele>338.20001220703</ele>
        <time>2021-09-08T03:32:15.000Z</time>
      </trkpt>
      <trkpt lat="45.20921" lon="5.73707">
        <ele>339.20001220703</ele>
        <time>2021-09-08T03:32:16.000Z</time>
      </trkpt>
      <trkpt lat="45.20923" lon="5.73708">
        <ele>339.20001220703</ele>
        <time>2021-09-08T03:32:17.000Z</time>
      </trkpt>
      <trkpt lat="45.20927" lon="5.7371">
        <ele>339.60000610352</ele>
        <time>2021-09-08T03:32:20.000Z</time>
      </trkpt>
      <trkpt lat="45.20929" lon="5.7371">
        <ele>340</ele>
        <time>2021-09-08T03:32:22.000Z</time>
      </trkpt>
      <trkpt lat="45.2093" lon="5.73709">
        <ele>341.20001220703</ele>
        <time>2021-09-08T03:32:23.000Z</time>
      </trkpt>
      <trkpt lat="45.20933" lon="5.73709">
        <ele>342</ele>
        <time>2021-09-08T03:32:26.000Z</time>
      </trkpt>
      <trkpt lat="45.20934" lon="5.73709">
        <ele>342.20001220703</ele>
        <time>2021-09-08T03:32:27.000Z</time>
      </trkpt>
      <trkpt lat="45.20935" lon="5.7371">
        <ele>342.79998779297</ele>
        <time>2021-09-08T03:32:28.000Z</time>
      </trkpt>
      <trkpt lat="45.20937" lon="5.7371">
        <ele>343.20001220703</ele>
        <time>2021-09-08T03:32:30.000Z</time>
      </trkpt>
      <trkpt lat="45.2094" lon="5.73711">
        <ele>344</ele>
        <time>2021-09-08T03:32:33.000Z</time>
      </trkpt>
      <trkpt lat="45.20941" lon="5.73711">
        <ele>345</ele>
        <time>2021-09-08T03:32:35.000Z</time>
      </trkpt>
      <trkpt lat="45.20946" lon="5.73709">
        <ele>345.60000610352</ele>
        <time>2021-09-08T03:32:39.000Z</time>
      </trkpt>
      <trkpt lat="45.20947" lon="5.73706">
        <ele>346.39999389648</ele>
        <time>2021-09-08T03:32:41.000Z</time>
      </trkpt>
      <trkpt lat="45.20947" lon="5.73706">
        <ele>346.79998779297</ele>
        <time>2021-09-08T03:32:42.000Z</time>
      </trkpt>
      <trkpt lat="45.2095" lon="5.73704">
        <ele>347.39999389648</ele>
        <time>2021-09-08T03:32:45.000Z</time>
      </trkpt>
      <trkpt lat="45.20951" lon="5.73702">
        <ele>348.20001220703</ele>
        <time>2021-09-08T03:32:47.000Z</time>
      </trkpt>
      <trkpt lat="45.20954" lon="5.737">
        <ele>348.79998779297</ele>
        <time>2021-09-08T03:32:50.000Z</time>
      </trkpt>
      <trkpt lat="45.20955" lon="5.73697">
        <ele>349.39999389648</ele>
        <time>2021-09-08T03:32:52.000Z</time>
      </trkpt>
      <trkpt lat="45.20955" lon="5.73695">
        <ele>349.79998779297</ele>
        <time>2021-09-08T03:32:53.000Z</time>
      </trkpt>
      <trkpt lat="45.20955" lon="5.73694">
        <ele>349.79998779297</ele>
        <time>2021-09-08T03:32:54.000Z</time>
      </trkpt>
      <trkpt lat="45.20954" lon="5.73694">
        <ele>350.39999389648</ele>
        <time>2021-09-08T03:32:56.000Z</time>
      </trkpt>
      <trkpt lat="45.20956" lon="5.73692">
        <ele>351</ele>
        <time>2021-09-08T03:32:58.000Z</time>
      </trkpt>
      <trkpt lat="45.20956" lon="5.73691">
        <ele>352</ele>
        <time>2021-09-08T03:33:00.000Z</time>
      </trkpt>
      <trkpt lat="45.20956" lon="5.7369">
        <ele>352.79998779297</ele>
        <time>2021-09-08T03:33:01.000Z</time>
      </trkpt>
      <trkpt lat="45.20957" lon="5.73688">
        <ele>353</ele>
        <time>2021-09-08T03:33:03.000Z</time>
      </trkpt>
      <trkpt lat="45.20958" lon="5.73685">
        <ele>354.20001220703</ele>
        <time>2021-09-08T03:33:06.000Z</time>
      </trkpt>
      <trkpt lat="45.20958" lon="5.73685">
        <ele>354.20001220703</ele>
        <time>2021-09-08T03:33:07.000Z</time>
      </trkpt>
      <trkpt lat="45.20961" lon="5.73678">
        <ele>355</ele>
        <time>2021-09-08T03:33:11.000Z</time>
      </trkpt>
      <trkpt lat="45.20961" lon="5.73676">
        <ele>356</ele>
        <time>2021-09-08T03:33:12.000Z</time>
      </trkpt>
      <trkpt lat="45.20961" lon="5.73674">
        <ele>356</ele>
        <time>2021-09-08T03:33:13.000Z</time>
      </trkpt>
      <trkpt lat="45.20964" lon="5.73668">
        <ele>356.39999389648</ele>
        <time>2021-09-08T03:33:16.000Z</time>
      </trkpt>
      <trkpt lat="45.20965" lon="5.73667">
        <ele>357.20001220703</ele>
        <time>2021-09-08T03:33:18.000Z</time>
      </trkpt>
      <trkpt lat="45.20965" lon="5.73666">
        <ele>357.39999389648</ele>
        <time>2021-09-08T03:33:19.000Z</time>
      </trkpt>
      <trkpt lat="45.20966" lon="5.73665">
        <ele>357.79998779297</ele>
        <time>2021-09-08T03:33:20.000Z</time>
      </trkpt>
      <trkpt lat="45.20967" lon="5.73664">
        <ele>358</ele>
        <time>2021-09-08T03:33:21.000Z</time>
      </trkpt>
      <trkpt lat="45.20967" lon="5.73662">
        <ele>358.39999389648</ele>
        <time>2021-09-08T03:33:22.000Z</time>
      </trkpt>
      <trkpt lat="45.20967" lon="5.73661">
        <ele>358.39999389648</ele>
        <time>2021-09-08T03:33:23.000Z</time>
      </trkpt>
      <trkpt lat="45.20967" lon="5.73661">
        <ele>358.60000610352</ele>
        <time>2021-09-08T03:33:24.000Z</time>
      </trkpt>
      <trkpt lat="45.20968" lon="5.7366">
        <ele>359.60000610352</ele>
        <time>2021-09-08T03:33:26.000Z</time>
      </trkpt>
      <trkpt lat="45.2097" lon="5.73658">
        <ele>360.39999389648</ele>
        <time>2021-09-08T03:33:30.000Z</time>
      </trkpt>
      <trkpt lat="45.2097" lon="5.73658">
        <ele>360.79998779297</ele>
        <time>2021-09-08T03:33:31.000Z</time>
      </trkpt>
      <trkpt lat="45.20972" lon="5.73656">
        <ele>362</ele>
        <time>2021-09-08T03:33:34.000Z</time>
      </trkpt>
      <trkpt lat="45.20972" lon="5.73655">
        <ele>362.60000610352</ele>
        <time>2021-09-08T03:33:35.000Z</time>
      </trkpt>
      <trkpt lat="45.20973" lon="5.73648">
        <ele>362.79998779297</ele>
        <time>2021-09-08T03:33:39.000Z</time>
      </trkpt>
      <trkpt lat="45.20974" lon="5.73646">
        <ele>363.39999389648</ele>
        <time>2021-09-08T03:33:41.000Z</time>
      </trkpt>
      <trkpt lat="45.20972" lon="5.73643">
        <ele>364.60000610352</ele>
        <time>2021-09-08T03:33:44.000Z</time>
      </trkpt>
      <trkpt lat="45.20974" lon="5.7364">
        <ele>365.20001220703</ele>
        <time>2021-09-08T03:33:46.000Z</time>
      </trkpt>
      <trkpt lat="45.20975" lon="5.73639">
        <ele>365.60000610352</ele>
        <time>2021-09-08T03:33:48.000Z</time>
      </trkpt>
      <trkpt lat="45.20975" lon="5.73636">
        <ele>366.39999389648</ele>
        <time>2021-09-08T03:33:51.000Z</time>
      </trkpt>
      <trkpt lat="45.20974" lon="5.73636">
        <ele>367</ele>
        <time>2021-09-08T03:33:52.000Z</time>
      </trkpt>
      <trkpt lat="45.20976" lon="5.73634">
        <ele>368</ele>
        <time>2021-09-08T03:33:55.000Z</time>
      </trkpt>
      <trkpt lat="45.20977" lon="5.73633">
        <ele>368.20001220703</ele>
        <time>2021-09-08T03:33:56.000Z</time>
      </trkpt>
      <trkpt lat="45.20978" lon="5.73627">
        <ele>369.20001220703</ele>
        <time>2021-09-08T03:34:00.000Z</time>
      </trkpt>
      <trkpt lat="45.20978" lon="5.73624">
        <ele>369.79998779297</ele>
        <time>2021-09-08T03:34:02.000Z</time>
      </trkpt>
      <trkpt lat="45.20978" lon="5.73622">
        <ele>370.39999389648</ele>
        <time>2021-09-08T03:34:04.000Z</time>
      </trkpt>
      <trkpt lat="45.20977" lon="5.73617">
        <ele>371.39999389648</ele>
        <time>2021-09-08T03:34:08.000Z</time>
      </trkpt>
      <trkpt lat="45.20978" lon="5.73616">
        <ele>371.79998779297</ele>
        <time>2021-09-08T03:34:09.000Z</time>
      </trkpt>
      <trkpt lat="45.20984" lon="5.73608">
        <ele>373</ele>
        <time>2021-09-08T03:34:14.000Z</time>
      </trkpt>
      <trkpt lat="45.20984" lon="5.73606">
        <ele>373.60000610352</ele>
        <time>2021-09-08T03:34:16.000Z</time>
      </trkpt>
      <trkpt lat="45.20984" lon="5.73605">
        <ele>374.39999389648</ele>
        <time>2021-09-08T03:34:17.000Z</time>
      </trkpt>
      <trkpt lat="45.20984" lon="5.736">
        <ele>375.60000610352</ele>
        <time>2021-09-08T03:34:22.000Z</time>
      </trkpt>
      <trkpt lat="45.20985" lon="5.73599">
        <ele>376.20001220703</ele>
        <time>2021-09-08T03:34:23.000Z</time>
      </trkpt>
      <trkpt lat="45.20986" lon="5.73597">
        <ele>376.79998779297</ele>
        <time>2021-09-08T03:34:25.000Z</time>
      </trkpt>
      <trkpt lat="45.20986" lon="5.73596">
        <ele>377</ele>
        <time>2021-09-08T03:34:26.000Z</time>
      </trkpt>
      <trkpt lat="45.20986" lon="5.73593">
        <ele>377.20001220703</ele>
        <time>2021-09-08T03:34:28.000Z</time>
      </trkpt>
      <trkpt lat="45.20986" lon="5.73591">
        <ele>378.20001220703</ele>
        <time>2021-09-08T03:34:30.000Z</time>
      </trkpt>
      <trkpt lat="45.20985" lon="5.73589">
        <ele>378.60000610352</ele>
        <time>2021-09-08T03:34:31.000Z</time>
      </trkpt>
      <trkpt lat="45.20986" lon="5.73588">
        <ele>379.20001220703</ele>
        <time>2021-09-08T03:34:33.000Z</time>
      </trkpt>
      <trkpt lat="45.20986" lon="5.73587">
        <ele>379.79998779297</ele>
        <time>2021-09-08T03:34:34.000Z</time>
      </trkpt>
      <trkpt lat="45.20987" lon="5.73587">
        <ele>380</ele>
        <time>2021-09-08T03:34:35.000Z</time>
      </trkpt>
      <trkpt lat="45.20987" lon="5.73585">
        <ele>380.79998779297</ele>
        <time>2021-09-08T03:34:38.000Z</time>
      </trkpt>
      <trkpt lat="45.20987" lon="5.73584">
        <ele>381</ele>
        <time>2021-09-08T03:34:40.000Z</time>
      </trkpt>
      <trkpt lat="45.20987" lon="5.73582">
        <ele>382.20001220703</ele>
        <time>2021-09-08T03:34:42.000Z</time>
      </trkpt>
      <trkpt lat="45.20988" lon="5.73578">
        <ele>383.79998779297</ele>
        <time>2021-09-08T03:34:47.000Z</time>
      </trkpt>
      <trkpt lat="45.2099" lon="5.73573">
        <ele>385.39999389648</ele>
        <time>2021-09-08T03:34:52.000Z</time>
      </trkpt>
      <trkpt lat="45.20992" lon="5.73566">
        <ele>386.60000610352</ele>
        <time>2021-09-08T03:34:56.000Z</time>
      </trkpt>
      <trkpt lat="45.20993" lon="5.73563">
        <ele>387.60000610352</ele>
        <time>2021-09-08T03:34:59.000Z</time>
      </trkpt>
      <trkpt lat="45.20995" lon="5.73558">
        <ele>387.79998779297</ele>
        <time>2021-09-08T03:35:02.000Z</time>
      </trkpt>
      <trkpt lat="45.20996" lon="5.73557">
        <ele>388.20001220703</ele>
        <time>2021-09-08T03:35:04.000Z</time>
      </trkpt>
      <trkpt lat="45.20996" lon="5.73557">
        <ele>389</ele>
        <time>2021-09-08T03:35:05.000Z</time>
      </trkpt>
      <trkpt lat="45.20997" lon="5.73555">
        <ele>389.60000610352</ele>
        <time>2021-09-08T03:35:07.000Z</time>
      </trkpt>
      <trkpt lat="45.20997" lon="5.73553">
        <ele>390</ele>
        <time>2021-09-08T03:35:09.000Z</time>
      </trkpt>
      <trkpt lat="45.20997" lon="5.73549">
        <ele>391.20001220703</ele>
        <time>2021-09-08T03:35:12.000Z</time>
      </trkpt>
      <trkpt lat="45.20996" lon="5.73547">
        <ele>391.39999389648</ele>
        <time>2021-09-08T03:35:14.000Z</time>
      </trkpt>
      <trkpt lat="45.20996" lon="5.73547">
        <ele>391.39999389648</ele>
        <time>2021-09-08T03:35:15.000Z</time>
      </trkpt>
      <trkpt lat="45.20996" lon="5.73547">
        <ele>392.60000610352</ele>
        <time>2021-09-08T03:35:16.000Z</time>
      </trkpt>
      <trkpt lat="45.20999" lon="5.73542">
        <ele>393.60000610352</ele>
        <time>2021-09-08T03:35:22.000Z</time>
      </trkpt>
      <trkpt lat="45.20999" lon="5.73541">
        <ele>393.79998779297</ele>
        <time>2021-09-08T03:35:23.000Z</time>
      </trkpt>
      <trkpt lat="45.21" lon="5.7354">
        <ele>394.60000610352</ele>
        <time>2021-09-08T03:35:25.000Z</time>
      </trkpt>
      <trkpt lat="45.21" lon="5.73538">
        <ele>395.39999389648</ele>
        <time>2021-09-08T03:35:28.000Z</time>
      </trkpt>
      <trkpt lat="45.21" lon="5.73537">
        <ele>395.79998779297</ele>
        <time>2021-09-08T03:35:30.000Z</time>
      </trkpt>
      <trkpt lat="45.21001" lon="5.73536">
        <ele>396.39999389648</ele>
        <time>2021-09-08T03:35:32.000Z</time>
      </trkpt>
      <trkpt lat="45.21002" lon="5.73536">
        <ele>396.79998779297</ele>
        <time>2021-09-08T03:35:33.000Z</time>
      </trkpt>
      <trkpt lat="45.21004" lon="5.73535">
        <ele>398.20001220703</ele>
        <time>2021-09-08T03:35:36.000Z</time>
      </trkpt>
      <trkpt lat="45.21005" lon="5.73534">
        <ele>398.20001220703</ele>
        <time>2021-09-08T03:35:37.000Z</time>
      </trkpt>
      <trkpt lat="45.21006" lon="5.73533">
        <ele>399.20001220703</ele>
        <time>2021-09-08T03:35:40.000Z</time>
      </trkpt>
      <trkpt lat="45.21006" lon="5.73528">
        <ele>400.60000610352</ele>
        <time>2021-09-08T03:35:44.000Z</time>
      </trkpt>
      <trkpt lat="45.21006" lon="5.73525">
        <ele>401.60000610352</ele>
        <time>2021-09-08T03:35:47.000Z</time>
      </trkpt>
      <trkpt lat="45.21007" lon="5.73522">
        <ele>402</ele>
        <time>2021-09-08T03:35:49.000Z</time>
      </trkpt>
      <trkpt lat="45.21007" lon="5.7352">
        <ele>403</ele>
        <time>2021-09-08T03:35:50.000Z</time>
      </trkpt>
      <trkpt lat="45.21008" lon="5.73516">
        <ele>404</ele>
        <time>2021-09-08T03:35:54.000Z</time>
      </trkpt>
      <trkpt lat="45.21008" lon="5.73514">
        <ele>404</ele>
        <time>2021-09-08T03:35:56.000Z</time>
      </trkpt>
      <trkpt lat="45.21007" lon="5.73511">
        <ele>406</ele>
        <time>2021-09-08T03:35:59.000Z</time>
      </trkpt>
      <trkpt lat="45.21008" lon="5.73509">
        <ele>406</ele>
        <time>2021-09-08T03:36:01.000Z</time>
      </trkpt>
      <trkpt lat="45.21011" lon="5.73503">
        <ele>407.79998779297</ele>
        <time>2021-09-08T03:36:07.000Z</time>
      </trkpt>
      <trkpt lat="45.21011" lon="5.73502">
        <ele>408</ele>
        <time>2021-09-08T03:36:09.000Z</time>
      </trkpt>
      <trkpt lat="45.21012" lon="5.73498">
        <ele>409</ele>
        <time>2021-09-08T03:36:12.000Z</time>
      </trkpt>
      <trkpt lat="45.21012" lon="5.73494">
        <ele>410</ele>
        <time>2021-09-08T03:36:14.000Z</time>
      </trkpt>
      <trkpt lat="45.21013" lon="5.73493">
        <ele>410.20001220703</ele>
        <time>2021-09-08T03:36:15.000Z</time>
      </trkpt>
      <trkpt lat="45.21013" lon="5.73488">
        <ele>411.79998779297</ele>
        <time>2021-09-08T03:36:20.000Z</time>
      </trkpt>
      <trkpt lat="45.21014" lon="5.73485">
        <ele>412.79998779297</ele>
        <time>2021-09-08T03:36:24.000Z</time>
      </trkpt>
      <trkpt lat="45.21014" lon="5.73484">
        <ele>413.20001220703</ele>
        <time>2021-09-08T03:36:25.000Z</time>
      </trkpt>
      <trkpt lat="45.21015" lon="5.73483">
        <ele>414</ele>
        <time>2021-09-08T03:36:28.000Z</time>
      </trkpt>
      <trkpt lat="45.21016" lon="5.73482">
        <ele>414.39999389648</ele>
        <time>2021-09-08T03:36:29.000Z</time>
      </trkpt>
      <trkpt lat="45.21016" lon="5.7348">
        <ele>414.60000610352</ele>
        <time>2021-09-08T03:36:32.000Z</time>
      </trkpt>
      <trkpt lat="45.21016" lon="5.73479">
        <ele>415</ele>
        <time>2021-09-08T03:36:33.000Z</time>
      </trkpt>
      <trkpt lat="45.21014" lon="5.73477">
        <ele>416.20001220703</ele>
        <time>2021-09-08T03:36:37.000Z</time>
      </trkpt>
      <trkpt lat="45.21014" lon="5.73476">
        <ele>416.60000610352</ele>
        <time>2021-09-08T03:36:38.000Z</time>
      </trkpt>
      <trkpt lat="45.21013" lon="5.73474">
        <ele>417.20001220703</ele>
        <time>2021-09-08T03:36:40.000Z</time>
      </trkpt>
      <trkpt lat="45.21012" lon="5.73474">
        <ele>418.60000610352</ele>
        <time>2021-09-08T03:36:42.000Z</time>
      </trkpt>
      <trkpt lat="45.21011" lon="5.73472">
        <ele>419.20001220703</ele>
        <time>2021-09-08T03:36:45.000Z</time>
      </trkpt>
      <trkpt lat="45.21011" lon="5.73471">
        <ele>419.60000610352</ele>
        <time>2021-09-08T03:36:46.000Z</time>
      </trkpt>
      <trkpt lat="45.21011" lon="5.73468">
        <ele>419.79998779297</ele>
        <time>2021-09-08T03:36:47.000Z</time>
      </trkpt>
      <trkpt lat="45.21011" lon="5.73467">
        <ele>420.79998779297</ele>
        <time>2021-09-08T03:36:49.000Z</time>
      </trkpt>
      <trkpt lat="45.2101" lon="5.73468">
        <ele>421</ele>
        <time>2021-09-08T03:36:50.000Z</time>
      </trkpt>
      <trkpt lat="45.21009" lon="5.73467">
        <ele>421</ele>
        <time>2021-09-08T03:36:52.000Z</time>
      </trkpt>
      <trkpt lat="45.21009" lon="5.73465">
        <ele>422.20001220703</ele>
        <time>2021-09-08T03:36:54.000Z</time>
      </trkpt>
      <trkpt lat="45.21008" lon="5.73465">
        <ele>422.60000610352</ele>
        <time>2021-09-08T03:36:55.000Z</time>
      </trkpt>
      <trkpt lat="45.21008" lon="5.73462">
        <ele>423.60000610352</ele>
        <time>2021-09-08T03:36:58.000Z</time>
      </trkpt>
      <trkpt lat="45.21008" lon="5.73461">
        <ele>424.20001220703</ele>
        <time>2021-09-08T03:37:01.000Z</time>
      </trkpt>
      <trkpt lat="45.21008" lon="5.73461">
        <ele>425</ele>
        <time>2021-09-08T03:37:02.000Z</time>
      </trkpt>
      <trkpt lat="45.21004" lon="5.73461">
        <ele>426.20001220703</ele>
        <time>2021-09-08T03:37:06.000Z</time>
      </trkpt>
      <trkpt lat="45.21002" lon="5.73459">
        <ele>427.39999389648</ele>
        <time>2021-09-08T03:37:09.000Z</time>
      </trkpt>
      <trkpt lat="45.21001" lon="5.73456">
        <ele>428</ele>
        <time>2021-09-08T03:37:12.000Z</time>
      </trkpt>
      <trkpt lat="45.20999" lon="5.73456">
        <ele>428.60000610352</ele>
        <time>2021-09-08T03:37:14.000Z</time>
      </trkpt>
      <trkpt lat="45.20995" lon="5.73453">
        <ele>429.39999389648</ele>
        <time>2021-09-08T03:37:18.000Z</time>
      </trkpt>
      <trkpt lat="45.20994" lon="5.73452">
        <ele>430.20001220703</ele>
        <time>2021-09-08T03:37:19.000Z</time>
      </trkpt>
      <trkpt lat="45.2099" lon="5.7345">
        <ele>431.20001220703</ele>
        <time>2021-09-08T03:37:24.000Z</time>
      </trkpt>
      <trkpt lat="45.20989" lon="5.7345">
        <ele>431.39999389648</ele>
        <time>2021-09-08T03:37:26.000Z</time>
      </trkpt>
      <trkpt lat="45.20985" lon="5.73448">
        <ele>432.39999389648</ele>
        <time>2021-09-08T03:37:29.000Z</time>
      </trkpt>
      <trkpt lat="45.20984" lon="5.73445">
        <ele>433.60000610352</ele>
        <time>2021-09-08T03:37:32.000Z</time>
      </trkpt>
      <trkpt lat="45.20978" lon="5.73442">
        <ele>434.79998779297</ele>
        <time>2021-09-08T03:37:38.000Z</time>
      </trkpt>
      <trkpt lat="45.20975" lon="5.7344">
        <ele>436.39999389648</ele>
        <time>2021-09-08T03:37:41.000Z</time>
      </trkpt>
      <trkpt lat="45.20974" lon="5.73437">
        <ele>437</ele>
        <time>2021-09-08T03:37:44.000Z</time>
      </trkpt>
      <trkpt lat="45.20973" lon="5.73436">
        <ele>437.20001220703</ele>
        <time>2021-09-08T03:37:45.000Z</time>
      </trkpt>
      <trkpt lat="45.20972" lon="5.73436">
        <ele>437.20001220703</ele>
        <time>2021-09-08T03:37:46.000Z</time>
      </trkpt>
      <trkpt lat="45.20972" lon="5.73436">
        <ele>437.60000610352</ele>
        <time>2021-09-08T03:37:47.000Z</time>
      </trkpt>
      <trkpt lat="45.20971" lon="5.73435">
        <ele>438.39999389648</ele>
        <time>2021-09-08T03:37:48.000Z</time>
      </trkpt>
      <trkpt lat="45.20971" lon="5.73435">
        <ele>438.79998779297</ele>
        <time>2021-09-08T03:37:49.000Z</time>
      </trkpt>
      <trkpt lat="45.2097" lon="5.73435">
        <ele>439.20001220703</ele>
        <time>2021-09-08T03:37:51.000Z</time>
      </trkpt>
      <trkpt lat="45.20968" lon="5.73433">
        <ele>440.20001220703</ele>
        <time>2021-09-08T03:37:54.000Z</time>
      </trkpt>
      <trkpt lat="45.20967" lon="5.73433">
        <ele>440.39999389648</ele>
        <time>2021-09-08T03:37:56.000Z</time>
      </trkpt>
      <trkpt lat="45.20966" lon="5.73432">
        <ele>440.60000610352</ele>
        <time>2021-09-08T03:37:57.000Z</time>
      </trkpt>
      <trkpt lat="45.20965" lon="5.73431">
        <ele>440.79998779297</ele>
        <time>2021-09-08T03:37:58.000Z</time>
      </trkpt>
      <trkpt lat="45.20964" lon="5.7343">
        <ele>441</ele>
        <time>2021-09-08T03:38:00.000Z</time>
      </trkpt>
      <trkpt lat="45.20963" lon="5.73429">
        <ele>441.20001220703</ele>
        <time>2021-09-08T03:38:01.000Z</time>
      </trkpt>
      <trkpt lat="45.20961" lon="5.73428">
        <ele>442</ele>
        <time>2021-09-08T03:38:03.000Z</time>
      </trkpt>
      <trkpt lat="45.20961" lon="5.73427">
        <ele>442.60000610352</ele>
        <time>2021-09-08T03:38:04.000Z</time>
      </trkpt>
      <trkpt lat="45.2096" lon="5.73425">
        <ele>443.60000610352</ele>
        <time>2021-09-08T03:38:08.000Z</time>
      </trkpt>
      <trkpt lat="45.20959" lon="5.73424">
        <ele>444</ele>
        <time>2021-09-08T03:38:09.000Z</time>
      </trkpt>
      <trkpt lat="45.20957" lon="5.73423">
        <ele>444.60000610352</ele>
        <time>2021-09-08T03:38:11.000Z</time>
      </trkpt>
      <trkpt lat="45.20956" lon="5.73421">
        <ele>445</ele>
        <time>2021-09-08T03:38:13.000Z</time>
      </trkpt>
      <trkpt lat="45.20954" lon="5.7342">
        <ele>446</ele>
        <time>2021-09-08T03:38:15.000Z</time>
      </trkpt>
      <trkpt lat="45.20954" lon="5.7342">
        <ele>446.60000610352</ele>
        <time>2021-09-08T03:38:16.000Z</time>
      </trkpt>
      <trkpt lat="45.20953" lon="5.73418">
        <ele>447.60000610352</ele>
        <time>2021-09-08T03:38:19.000Z</time>
      </trkpt>
      <trkpt lat="45.20952" lon="5.73416">
        <ele>448</ele>
        <time>2021-09-08T03:38:21.000Z</time>
      </trkpt>
      <trkpt lat="45.20951" lon="5.73413">
        <ele>449</ele>
        <time>2021-09-08T03:38:25.000Z</time>
      </trkpt>
      <trkpt lat="45.20951" lon="5.73412">
        <ele>449.20001220703</ele>
        <time>2021-09-08T03:38:26.000Z</time>
      </trkpt>
      <trkpt lat="45.2095" lon="5.73411">
        <ele>450.20001220703</ele>
        <time>2021-09-08T03:38:28.000Z</time>
      </trkpt>
      <trkpt lat="45.20949" lon="5.73409">
        <ele>451.39999389648</ele>
        <time>2021-09-08T03:38:30.000Z</time>
      </trkpt>
      <trkpt lat="45.20947" lon="5.73407">
        <ele>452</ele>
        <time>2021-09-08T03:38:32.000Z</time>
      </trkpt>
      <trkpt lat="45.20943" lon="5.73405">
        <ele>452.60000610352</ele>
        <time>2021-09-08T03:38:36.000Z</time>
      </trkpt>
      <trkpt lat="45.20943" lon="5.73405">
        <ele>452.60000610352</ele>
        <time>2021-09-08T03:38:37.000Z</time>
      </trkpt>
      <trkpt lat="45.20941" lon="5.73404">
        <ele>452.60000610352</ele>
        <time>2021-09-08T03:38:38.000Z</time>
      </trkpt>
      <trkpt lat="45.20935" lon="5.73402">
        <ele>451.60000610352</ele>
        <time>2021-09-08T03:38:41.000Z</time>
      </trkpt>
      <trkpt lat="45.20932" lon="5.734">
        <ele>451.39999389648</ele>
        <time>2021-09-08T03:38:43.000Z</time>
      </trkpt>
      <trkpt lat="45.2093" lon="5.73398">
        <ele>451.39999389648</ele>
        <time>2021-09-08T03:38:44.000Z</time>
      </trkpt>
      <trkpt lat="45.20927" lon="5.73394">
        <ele>451.79998779297</ele>
        <time>2021-09-08T03:38:47.000Z</time>
      </trkpt>
      <trkpt lat="45.20925" lon="5.73393">
        <ele>452.60000610352</ele>
        <time>2021-09-08T03:38:48.000Z</time>
      </trkpt>
      <trkpt lat="45.20923" lon="5.73391">
        <ele>452.79998779297</ele>
        <time>2021-09-08T03:38:50.000Z</time>
      </trkpt>
      <trkpt lat="45.20921" lon="5.7339">
        <ele>453.79998779297</ele>
        <time>2021-09-08T03:38:52.000Z</time>
      </trkpt>
      <trkpt lat="45.2092" lon="5.7339">
        <ele>454.20001220703</ele>
        <time>2021-09-08T03:38:53.000Z</time>
      </trkpt>
      <trkpt lat="45.20917" lon="5.73387">
        <ele>454.79998779297</ele>
        <time>2021-09-08T03:38:56.000Z</time>
      </trkpt>
      <trkpt lat="45.20916" lon="5.73386">
        <ele>455.20001220703</ele>
        <time>2021-09-08T03:38:57.000Z</time>
      </trkpt>
      <trkpt lat="45.20915" lon="5.73385">
        <ele>455.60000610352</ele>
        <time>2021-09-08T03:38:59.000Z</time>
      </trkpt>
      <trkpt lat="45.20914" lon="5.73385">
        <ele>456.20001220703</ele>
        <time>2021-09-08T03:39:01.000Z</time>
      </trkpt>
      <trkpt lat="45.20914" lon="5.73384">
        <ele>456.79998779297</ele>
        <time>2021-09-08T03:39:02.000Z</time>
      </trkpt>
      <trkpt lat="45.20912" lon="5.73382">
        <ele>457.39999389648</ele>
        <time>2021-09-08T03:39:04.000Z</time>
      </trkpt>
      <trkpt lat="45.20911" lon="5.73379">
        <ele>459.20001220703</ele>
        <time>2021-09-08T03:39:09.000Z</time>
      </trkpt>
      <trkpt lat="45.20909" lon="5.73374">
        <ele>460.39999389648</ele>
        <time>2021-09-08T03:39:13.000Z</time>
      </trkpt>
      <trkpt lat="45.20909" lon="5.73374">
        <ele>461</ele>
        <time>2021-09-08T03:39:15.000Z</time>
      </trkpt>
      <trkpt lat="45.20909" lon="5.73373">
        <ele>461.39999389648</ele>
        <time>2021-09-08T03:39:16.000Z</time>
      </trkpt>
      <trkpt lat="45.20905" lon="5.7337">
        <ele>462.79998779297</ele>
        <time>2021-09-08T03:39:22.000Z</time>
      </trkpt>
      <trkpt lat="45.20905" lon="5.73369">
        <ele>463</ele>
        <time>2021-09-08T03:39:23.000Z</time>
      </trkpt>
      <trkpt lat="45.20902" lon="5.73368">
        <ele>464.20001220703</ele>
        <time>2021-09-08T03:39:26.000Z</time>
      </trkpt>
      <trkpt lat="45.20902" lon="5.73365">
        <ele>465.20001220703</ele>
        <time>2021-09-08T03:39:30.000Z</time>
      </trkpt>
      <trkpt lat="45.20901" lon="5.73364">
        <ele>465.60000610352</ele>
        <time>2021-09-08T03:39:31.000Z</time>
      </trkpt>
      <trkpt lat="45.20895" lon="5.7336">
        <ele>467.39999389648</ele>
        <time>2021-09-08T03:39:37.000Z</time>
      </trkpt>
      <trkpt lat="45.20891" lon="5.73355">
        <ele>468.60000610352</ele>
        <time>2021-09-08T03:39:41.000Z</time>
      </trkpt>
      <trkpt lat="45.20889" lon="5.73353">
        <ele>469</ele>
        <time>2021-09-08T03:39:44.000Z</time>
      </trkpt>
      <trkpt lat="45.20889" lon="5.73354">
        <ele>469.60000610352</ele>
        <time>2021-09-08T03:39:45.000Z</time>
      </trkpt>
      <trkpt lat="45.20886" lon="5.73352">
        <ele>470.60000610352</ele>
        <time>2021-09-08T03:39:49.000Z</time>
      </trkpt>
      <trkpt lat="45.20886" lon="5.73351">
        <ele>470.79998779297</ele>
        <time>2021-09-08T03:39:50.000Z</time>
      </trkpt>
      <trkpt lat="45.20882" lon="5.73349">
        <ele>471.60000610352</ele>
        <time>2021-09-08T03:39:54.000Z</time>
      </trkpt>
      <trkpt lat="45.20881" lon="5.73349">
        <ele>472</ele>
        <time>2021-09-08T03:39:55.000Z</time>
      </trkpt>
      <trkpt lat="45.20881" lon="5.73349">
        <ele>472.20001220703</ele>
        <time>2021-09-08T03:39:56.000Z</time>
      </trkpt>
      <trkpt lat="45.20879" lon="5.73349">
        <ele>473.39999389648</ele>
        <time>2021-09-08T03:39:58.000Z</time>
      </trkpt>
      <trkpt lat="45.20876" lon="5.73349">
        <ele>474</ele>
        <time>2021-09-08T03:40:01.000Z</time>
      </trkpt>
      <trkpt lat="45.20875" lon="5.73349">
        <ele>474.20001220703</ele>
        <time>2021-09-08T03:40:02.000Z</time>
      </trkpt>
      <trkpt lat="45.20874" lon="5.73349">
        <ele>474.20001220703</ele>
        <time>2021-09-08T03:40:03.000Z</time>
      </trkpt>
      <trkpt lat="45.20873" lon="5.73349">
        <ele>474.60000610352</ele>
        <time>2021-09-08T03:40:04.000Z</time>
      </trkpt>
      <trkpt lat="45.20871" lon="5.73348">
        <ele>475.60000610352</ele>
        <time>2021-09-08T03:40:07.000Z</time>
      </trkpt>
      <trkpt lat="45.2087" lon="5.73348">
        <ele>476</ele>
        <time>2021-09-08T03:40:08.000Z</time>
      </trkpt>
      <trkpt lat="45.20869" lon="5.73347">
        <ele>477</ele>
        <time>2021-09-08T03:40:11.000Z</time>
      </trkpt>
      <trkpt lat="45.20869" lon="5.73347">
        <ele>477.60000610352</ele>
        <time>2021-09-08T03:40:12.000Z</time>
      </trkpt>
      <trkpt lat="45.20863" lon="5.73345">
        <ele>478.20001220703</ele>
        <time>2021-09-08T03:40:18.000Z</time>
      </trkpt>
      <trkpt lat="45.20863" lon="5.73344">
        <ele>479.39999389648</ele>
        <time>2021-09-08T03:40:19.000Z</time>
      </trkpt>
      <trkpt lat="45.20859" lon="5.73338">
        <ele>480.60000610352</ele>
        <time>2021-09-08T03:40:24.000Z</time>
      </trkpt>
      <trkpt lat="45.20858" lon="5.73336">
        <ele>480.79998779297</ele>
        <time>2021-09-08T03:40:25.000Z</time>
      </trkpt>
      <trkpt lat="45.20856" lon="5.73332">
        <ele>481.79998779297</ele>
        <time>2021-09-08T03:40:27.000Z</time>
      </trkpt>
      <trkpt lat="45.20855" lon="5.73329">
        <ele>482.79998779297</ele>
        <time>2021-09-08T03:40:29.000Z</time>
      </trkpt>
      <trkpt lat="45.20855" lon="5.73329">
        <ele>482.79998779297</ele>
        <time>2021-09-08T03:40:30.000Z</time>
      </trkpt>
      <trkpt lat="45.20854" lon="5.73327">
        <ele>483.60000610352</ele>
        <time>2021-09-08T03:40:32.000Z</time>
      </trkpt>
      <trkpt lat="45.20854" lon="5.73326">
        <ele>484.20001220703</ele>
        <time>2021-09-08T03:40:33.000Z</time>
      </trkpt>
      <trkpt lat="45.20852" lon="5.73318">
        <ele>484.79998779297</ele>
        <time>2021-09-08T03:40:38.000Z</time>
      </trkpt>
      <trkpt lat="45.20851" lon="5.73317">
        <ele>485.39999389648</ele>
        <time>2021-09-08T03:40:39.000Z</time>
      </trkpt>
      <trkpt lat="45.2085" lon="5.73313">
        <ele>485.60000610352</ele>
        <time>2021-09-08T03:40:41.000Z</time>
      </trkpt>
      <trkpt lat="45.20848" lon="5.73308">
        <ele>486.39999389648</ele>
        <time>2021-09-08T03:40:44.000Z</time>
      </trkpt>
      <trkpt lat="45.20847" lon="5.73307">
        <ele>486.60000610352</ele>
        <time>2021-09-08T03:40:45.000Z</time>
      </trkpt>
      <trkpt lat="45.20846" lon="5.73299">
        <ele>487.79998779297</ele>
        <time>2021-09-08T03:40:50.000Z</time>
      </trkpt>
      <trkpt lat="45.20846" lon="5.73293">
        <ele>488.79998779297</ele>
        <time>2021-09-08T03:40:55.000Z</time>
      </trkpt>
      <trkpt lat="45.20846" lon="5.73292">
        <ele>489.20001220703</ele>
        <time>2021-09-08T03:40:56.000Z</time>
      </trkpt>
      <trkpt lat="45.2085" lon="5.73291">
        <ele>490.39999389648</ele>
        <time>2021-09-08T03:40:59.000Z</time>
      </trkpt>
      <trkpt lat="45.20852" lon="5.73291">
        <ele>491.60000610352</ele>
        <time>2021-09-08T03:41:01.000Z</time>
      </trkpt>
      <trkpt lat="45.20856" lon="5.73292">
        <ele>492.60000610352</ele>
        <time>2021-09-08T03:41:06.000Z</time>
      </trkpt>
      <trkpt lat="45.20857" lon="5.73292">
        <ele>492.79998779297</ele>
        <time>2021-09-08T03:41:07.000Z</time>
      </trkpt>
      <trkpt lat="45.20859" lon="5.73291">
        <ele>493.60000610352</ele>
        <time>2021-09-08T03:41:10.000Z</time>
      </trkpt>
      <trkpt lat="45.2086" lon="5.73292">
        <ele>494.39999389648</ele>
        <time>2021-09-08T03:41:11.000Z</time>
      </trkpt>
      <trkpt lat="45.2086" lon="5.73292">
        <ele>494.60000610352</ele>
        <time>2021-09-08T03:41:12.000Z</time>
      </trkpt>
      <trkpt lat="45.20861" lon="5.73293">
        <ele>495</ele>
        <time>2021-09-08T03:41:13.000Z</time>
      </trkpt>
      <trkpt lat="45.20862" lon="5.73293">
        <ele>495</ele>
        <time>2021-09-08T03:41:14.000Z</time>
      </trkpt>
      <trkpt lat="45.20868" lon="5.7329">
        <ele>496.39999389648</ele>
        <time>2021-09-08T03:41:18.000Z</time>
      </trkpt>
      <trkpt lat="45.2087" lon="5.7329">
        <ele>497</ele>
        <time>2021-09-08T03:41:19.000Z</time>
      </trkpt>
      <trkpt lat="45.20871" lon="5.7329">
        <ele>497.20001220703</ele>
        <time>2021-09-08T03:41:20.000Z</time>
      </trkpt>
      <trkpt lat="45.20874" lon="5.73291">
        <ele>497.60000610352</ele>
        <time>2021-09-08T03:41:22.000Z</time>
      </trkpt>
      <trkpt lat="45.20875" lon="5.73291">
        <ele>498.20001220703</ele>
        <time>2021-09-08T03:41:25.000Z</time>
      </trkpt>
      <trkpt lat="45.20874" lon="5.73291">
        <ele>498.79998779297</ele>
        <time>2021-09-08T03:41:27.000Z</time>
      </trkpt>
      <trkpt lat="45.20873" lon="5.7329">
        <ele>499.79998779297</ele>
        <time>2021-09-08T03:41:29.000Z</time>
      </trkpt>
      <trkpt lat="45.20873" lon="5.73289">
        <ele>500.20001220703</ele>
        <time>2021-09-08T03:41:30.000Z</time>
      </trkpt>
      <trkpt lat="45.20874" lon="5.73283">
        <ele>501.20001220703</ele>
        <time>2021-09-08T03:41:34.000Z</time>
      </trkpt>
      <trkpt lat="45.20873" lon="5.73282">
        <ele>502.20001220703</ele>
        <time>2021-09-08T03:41:36.000Z</time>
      </trkpt>
      <trkpt lat="45.20872" lon="5.73281">
        <ele>502.79998779297</ele>
        <time>2021-09-08T03:41:38.000Z</time>
      </trkpt>
      <trkpt lat="45.20872" lon="5.73279">
        <ele>503.20001220703</ele>
        <time>2021-09-08T03:41:39.000Z</time>
      </trkpt>
      <trkpt lat="45.20872" lon="5.73278">
        <ele>503.39999389648</ele>
        <time>2021-09-08T03:41:40.000Z</time>
      </trkpt>
      <trkpt lat="45.20873" lon="5.73276">
        <ele>504.20001220703</ele>
        <time>2021-09-08T03:41:43.000Z</time>
      </trkpt>
      <trkpt lat="45.20873" lon="5.73273">
        <ele>505</ele>
        <time>2021-09-08T03:41:46.000Z</time>
      </trkpt>
      <trkpt lat="45.20872" lon="5.73271">
        <ele>505.79998779297</ele>
        <time>2021-09-08T03:41:48.000Z</time>
      </trkpt>
      <trkpt lat="45.20872" lon="5.7327">
        <ele>506.20001220703</ele>
        <time>2021-09-08T03:41:49.000Z</time>
      </trkpt>
      <trkpt lat="45.2087" lon="5.73266">
        <ele>506.79998779297</ele>
        <time>2021-09-08T03:41:52.000Z</time>
      </trkpt>
      <trkpt lat="45.2087" lon="5.73264">
        <ele>507.60000610352</ele>
        <time>2021-09-08T03:41:53.000Z</time>
      </trkpt>
      <trkpt lat="45.20868" lon="5.73263">
        <ele>507.60000610352</ele>
        <time>2021-09-08T03:41:54.000Z</time>
      </trkpt>
      <trkpt lat="45.20867" lon="5.73263">
        <ele>507.60000610352</ele>
        <time>2021-09-08T03:41:55.000Z</time>
      </trkpt>
      <trkpt lat="45.20865" lon="5.73259">
        <ele>507.60000610352</ele>
        <time>2021-09-08T03:41:57.000Z</time>
      </trkpt>
      <trkpt lat="45.20863" lon="5.73256">
        <ele>507.60000610352</ele>
        <time>2021-09-08T03:41:59.000Z</time>
      </trkpt>
      <trkpt lat="45.20861" lon="5.73254">
        <ele>507.60000610352</ele>
        <time>2021-09-08T03:42:00.000Z</time>
      </trkpt>
      <trkpt lat="45.2086" lon="5.7325">
        <ele>507.79998779297</ele>
        <time>2021-09-08T03:42:01.000Z</time>
      </trkpt>
      <trkpt lat="45.20859" lon="5.73247">
        <ele>507.79998779297</ele>
        <time>2021-09-08T03:42:02.000Z</time>
      </trkpt>
      <trkpt lat="45.20859" lon="5.73243">
        <ele>507.79998779297</ele>
        <time>2021-09-08T03:42:04.000Z</time>
      </trkpt>
      <trkpt lat="45.20857" lon="5.73238">
        <ele>508.39999389648</ele>
        <time>2021-09-08T03:42:06.000Z</time>
      </trkpt>
      <trkpt lat="45.20853" lon="5.73231">
        <ele>508.79998779297</ele>
        <time>2021-09-08T03:42:10.000Z</time>
      </trkpt>
      <trkpt lat="45.2085" lon="5.73226">
        <ele>509.20001220703</ele>
        <time>2021-09-08T03:42:13.000Z</time>
      </trkpt>
      <trkpt lat="45.20846" lon="5.7322">
        <ele>509.39999389648</ele>
        <time>2021-09-08T03:42:16.000Z</time>
      </trkpt>
      <trkpt lat="45.20843" lon="5.73217">
        <ele>509.60000610352</ele>
        <time>2021-09-08T03:42:18.000Z</time>
      </trkpt>
      <trkpt lat="45.20841" lon="5.73212">
        <ele>510</ele>
        <time>2021-09-08T03:42:20.000Z</time>
      </trkpt>
      <trkpt lat="45.20836" lon="5.73207">
        <ele>510.39999389648</ele>
        <time>2021-09-08T03:42:23.000Z</time>
      </trkpt>
      <trkpt lat="45.20835" lon="5.73205">
        <ele>510.79998779297</ele>
        <time>2021-09-08T03:42:24.000Z</time>
      </trkpt>
      <trkpt lat="45.20834" lon="5.73201">
        <ele>511.20001220703</ele>
        <time>2021-09-08T03:42:26.000Z</time>
      </trkpt>
      <trkpt lat="45.20832" lon="5.73196">
        <ele>512</ele>
        <time>2021-09-08T03:42:29.000Z</time>
      </trkpt>
      <trkpt lat="45.20832" lon="5.73195">
        <ele>512.40002441406</ele>
        <time>2021-09-08T03:42:30.000Z</time>
      </trkpt>
      <trkpt lat="45.2083" lon="5.73191">
        <ele>512.59997558594</ele>
        <time>2021-09-08T03:42:32.000Z</time>
      </trkpt>
      <trkpt lat="45.2083" lon="5.73188">
        <ele>513.40002441406</ele>
        <time>2021-09-08T03:42:34.000Z</time>
      </trkpt>
      <trkpt lat="45.20829" lon="5.73183">
        <ele>513.79998779297</ele>
        <time>2021-09-08T03:42:36.000Z</time>
      </trkpt>
      <trkpt lat="45.20829" lon="5.73178">
        <ele>514.59997558594</ele>
        <time>2021-09-08T03:42:38.000Z</time>
      </trkpt>
      <trkpt lat="45.20827" lon="5.73174">
        <ele>515</ele>
        <time>2021-09-08T03:42:40.000Z</time>
      </trkpt>
      <trkpt lat="45.20824" lon="5.73167">
        <ele>516.20001220703</ele>
        <time>2021-09-08T03:42:44.000Z</time>
      </trkpt>
      <trkpt lat="45.20823" lon="5.73164">
        <ele>516.40002441406</ele>
        <time>2021-09-08T03:42:46.000Z</time>
      </trkpt>
      <trkpt lat="45.2082" lon="5.73157">
        <ele>517.40002441406</ele>
        <time>2021-09-08T03:42:50.000Z</time>
      </trkpt>
      <trkpt lat="45.2082" lon="5.73155">
        <ele>517.40002441406</ele>
        <time>2021-09-08T03:42:51.000Z</time>
      </trkpt>
      <trkpt lat="45.20819" lon="5.73153">
        <ele>517.59997558594</ele>
        <time>2021-09-08T03:42:52.000Z</time>
      </trkpt>
      <trkpt lat="45.20819" lon="5.73151">
        <ele>517.79998779297</ele>
        <time>2021-09-08T03:42:53.000Z</time>
      </trkpt>
      <trkpt lat="45.20814" lon="5.73144">
        <ele>518.40002441406</ele>
        <time>2021-09-08T03:42:57.000Z</time>
      </trkpt>
      <trkpt lat="45.20812" lon="5.7314">
        <ele>519</ele>
        <time>2021-09-08T03:42:59.000Z</time>
      </trkpt>
      <trkpt lat="45.20811" lon="5.73138">
        <ele>519</ele>
        <time>2021-09-08T03:43:00.000Z</time>
      </trkpt>
      <trkpt lat="45.20809" lon="5.73134">
        <ele>519.79998779297</ele>
        <time>2021-09-08T03:43:03.000Z</time>
      </trkpt>
      <trkpt lat="45.20807" lon="5.7313">
        <ele>520.79998779297</ele>
        <time>2021-09-08T03:43:06.000Z</time>
      </trkpt>
      <trkpt lat="45.20806" lon="5.73129">
        <ele>520.79998779297</ele>
        <time>2021-09-08T03:43:07.000Z</time>
      </trkpt>
      <trkpt lat="45.20805" lon="5.73127">
        <ele>521</ele>
        <time>2021-09-08T03:43:08.000Z</time>
      </trkpt>
      <trkpt lat="45.20802" lon="5.73121">
        <ele>522</ele>
        <time>2021-09-08T03:43:11.000Z</time>
      </trkpt>
      <trkpt lat="45.20799" lon="5.73116">
        <ele>522.40002441406</ele>
        <time>2021-09-08T03:43:14.000Z</time>
      </trkpt>
      <trkpt lat="45.20799" lon="5.73111">
        <ele>523.40002441406</ele>
        <time>2021-09-08T03:43:16.000Z</time>
      </trkpt>
      <trkpt lat="45.20797" lon="5.73107">
        <ele>523.59997558594</ele>
        <time>2021-09-08T03:43:18.000Z</time>
      </trkpt>
      <trkpt lat="45.20797" lon="5.73106">
        <ele>524</ele>
        <time>2021-09-08T03:43:19.000Z</time>
      </trkpt>
      <trkpt lat="45.20796" lon="5.731">
        <ele>524.40002441406</ele>
        <time>2021-09-08T03:43:22.000Z</time>
      </trkpt>
      <trkpt lat="45.20795" lon="5.73098">
        <ele>525.20001220703</ele>
        <time>2021-09-08T03:43:24.000Z</time>
      </trkpt>
      <trkpt lat="45.20794" lon="5.73097">
        <ele>525.59997558594</ele>
        <time>2021-09-08T03:43:25.000Z</time>
      </trkpt>
      <trkpt lat="45.20793" lon="5.73095">
        <ele>526</ele>
        <time>2021-09-08T03:43:27.000Z</time>
      </trkpt>
      <trkpt lat="45.20791" lon="5.73093">
        <ele>526.20001220703</ele>
        <time>2021-09-08T03:43:29.000Z</time>
      </trkpt>
      <trkpt lat="45.2079" lon="5.73092">
        <ele>527</ele>
        <time>2021-09-08T03:43:30.000Z</time>
      </trkpt>
      <trkpt lat="45.2079" lon="5.73091">
        <ele>527</ele>
        <time>2021-09-08T03:43:31.000Z</time>
      </trkpt>
      <trkpt lat="45.20789" lon="5.73089">
        <ele>527.40002441406</ele>
        <time>2021-09-08T03:43:32.000Z</time>
      </trkpt>
      <trkpt lat="45.20787" lon="5.73083">
        <ele>528</ele>
        <time>2021-09-08T03:43:35.000Z</time>
      </trkpt>
      <trkpt lat="45.20786" lon="5.73081">
        <ele>528.20001220703</ele>
        <time>2021-09-08T03:43:36.000Z</time>
      </trkpt>
      <trkpt lat="45.20785" lon="5.73078">
        <ele>529</ele>
        <time>2021-09-08T03:43:38.000Z</time>
      </trkpt>
      <trkpt lat="45.20784" lon="5.73076">
        <ele>529.20001220703</ele>
        <time>2021-09-08T03:43:39.000Z</time>
      </trkpt>
      <trkpt lat="45.20783" lon="5.7307">
        <ele>529.79998779297</ele>
        <time>2021-09-08T03:43:42.000Z</time>
      </trkpt>
      <trkpt lat="45.20782" lon="5.73068">
        <ele>530.20001220703</ele>
        <time>2021-09-08T03:43:43.000Z</time>
      </trkpt>
      <trkpt lat="45.2078" lon="5.73066">
        <ele>530.79998779297</ele>
        <time>2021-09-08T03:43:45.000Z</time>
      </trkpt>
      <trkpt lat="45.20778" lon="5.73062">
        <ele>531.59997558594</ele>
        <time>2021-09-08T03:43:47.000Z</time>
      </trkpt>
      <trkpt lat="45.20775" lon="5.7306">
        <ele>531.79998779297</ele>
        <time>2021-09-08T03:43:49.000Z</time>
      </trkpt>
      <trkpt lat="45.20769" lon="5.73052">
        <ele>532.79998779297</ele>
        <time>2021-09-08T03:43:53.000Z</time>
      </trkpt>
      <trkpt lat="45.20766" lon="5.7305">
        <ele>533.20001220703</ele>
        <time>2021-09-08T03:43:56.000Z</time>
      </trkpt>
      <trkpt lat="45.20766" lon="5.73047">
        <ele>533.59997558594</ele>
        <time>2021-09-08T03:43:58.000Z</time>
      </trkpt>
      <trkpt lat="45.20764" lon="5.73045">
        <ele>534</ele>
        <time>2021-09-08T03:43:59.000Z</time>
      </trkpt>
      <trkpt lat="45.20756" lon="5.73036">
        <ele>534.59997558594</ele>
        <time>2021-09-08T03:44:04.000Z</time>
      </trkpt>
      <trkpt lat="45.20752" lon="5.73031">
        <ele>535.20001220703</ele>
        <time>2021-09-08T03:44:07.000Z</time>
      </trkpt>
      <trkpt lat="45.2075" lon="5.73029">
        <ele>535.20001220703</ele>
        <time>2021-09-08T03:44:08.000Z</time>
      </trkpt>
      <trkpt lat="45.2074" lon="5.7302">
        <ele>536</ele>
        <time>2021-09-08T03:44:14.000Z</time>
      </trkpt>
      <trkpt lat="45.20738" lon="5.73016">
        <ele>536.40002441406</ele>
        <time>2021-09-08T03:44:16.000Z</time>
      </trkpt>
      <trkpt lat="45.20735" lon="5.73011">
        <ele>536.59997558594</ele>
        <time>2021-09-08T03:44:19.000Z</time>
      </trkpt>
      <trkpt lat="45.20733" lon="5.7301">
        <ele>536.59997558594</ele>
        <time>2021-09-08T03:44:20.000Z</time>
      </trkpt>
      <trkpt lat="45.20729" lon="5.73006">
        <ele>537.40002441406</ele>
        <time>2021-09-08T03:44:23.000Z</time>
      </trkpt>
      <trkpt lat="45.20728" lon="5.73005">
        <ele>537.79998779297</ele>
        <time>2021-09-08T03:44:24.000Z</time>
      </trkpt>
      <trkpt lat="45.20725" lon="5.72999">
        <ele>538.20001220703</ele>
        <time>2021-09-08T03:44:27.000Z</time>
      </trkpt>
      <trkpt lat="45.20723" lon="5.72998">
        <ele>538.79998779297</ele>
        <time>2021-09-08T03:44:28.000Z</time>
      </trkpt>
      <trkpt lat="45.20717" lon="5.72987">
        <ele>540.20001220703</ele>
        <time>2021-09-08T03:44:34.000Z</time>
      </trkpt>
      <trkpt lat="45.20716" lon="5.72986">
        <ele>540.20001220703</ele>
        <time>2021-09-08T03:44:35.000Z</time>
      </trkpt>
      <trkpt lat="45.20711" lon="5.72978">
        <ele>541.79998779297</ele>
        <time>2021-09-08T03:44:40.000Z</time>
      </trkpt>
      <trkpt lat="45.20708" lon="5.72976">
        <ele>542</ele>
        <time>2021-09-08T03:44:42.000Z</time>
      </trkpt>
      <trkpt lat="45.20701" lon="5.72973">
        <ele>542.79998779297</ele>
        <time>2021-09-08T03:44:47.000Z</time>
      </trkpt>
      <trkpt lat="45.20687" lon="5.72962">
        <ele>544</ele>
        <time>2021-09-08T03:44:54.000Z</time>
      </trkpt>
      <trkpt lat="45.20677" lon="5.72949">
        <ele>544.59997558594</ele>
        <time>2021-09-08T03:45:00.000Z</time>
      </trkpt>
      <trkpt lat="45.20675" lon="5.72946">
        <ele>545.20001220703</ele>
        <time>2021-09-08T03:45:01.000Z</time>
      </trkpt>
      <trkpt lat="45.20669" lon="5.72936">
        <ele>546.20001220703</ele>
        <time>2021-09-08T03:45:06.000Z</time>
      </trkpt>
      <trkpt lat="45.20667" lon="5.72934">
        <ele>546.20001220703</ele>
        <time>2021-09-08T03:45:07.000Z</time>
      </trkpt>
      <trkpt lat="45.20663" lon="5.72925">
        <ele>547.20001220703</ele>
        <time>2021-09-08T03:45:11.000Z</time>
      </trkpt>
      <trkpt lat="45.20656" lon="5.72914">
        <ele>548.20001220703</ele>
        <time>2021-09-08T03:45:16.000Z</time>
      </trkpt>
      <trkpt lat="45.20655" lon="5.72912">
        <ele>548.40002441406</ele>
        <time>2021-09-08T03:45:17.000Z</time>
      </trkpt>
      <trkpt lat="45.2065" lon="5.72903">
        <ele>549.40002441406</ele>
        <time>2021-09-08T03:45:21.000Z</time>
      </trkpt>
      <trkpt lat="45.20643" lon="5.72894">
        <ele>550</ele>
        <time>2021-09-08T03:45:26.000Z</time>
      </trkpt>
      <trkpt lat="45.2064" lon="5.7289">
        <ele>550.59997558594</ele>
        <time>2021-09-08T03:45:28.000Z</time>
      </trkpt>
      <trkpt lat="45.20632" lon="5.72883">
        <ele>550</ele>
        <time>2021-09-08T03:45:32.000Z</time>
      </trkpt>
      <trkpt lat="45.20627" lon="5.72881">
        <ele>550</ele>
        <time>2021-09-08T03:45:34.000Z</time>
      </trkpt>
      <trkpt lat="45.2062" lon="5.72873">
        <ele>549.59997558594</ele>
        <time>2021-09-08T03:45:38.000Z</time>
      </trkpt>
      <trkpt lat="45.20612" lon="5.72868">
        <ele>549.40002441406</ele>
        <time>2021-09-08T03:45:42.000Z</time>
      </trkpt>
      <trkpt lat="45.20607" lon="5.72866">
        <ele>549.59997558594</ele>
        <time>2021-09-08T03:45:44.000Z</time>
      </trkpt>
      <trkpt lat="45.20595" lon="5.72853">
        <ele>550.59997558594</ele>
        <time>2021-09-08T03:45:50.000Z</time>
      </trkpt>
      <trkpt lat="45.20593" lon="5.7285">
        <ele>550.59997558594</ele>
        <time>2021-09-08T03:45:51.000Z</time>
      </trkpt>
      <trkpt lat="45.20591" lon="5.72847">
        <ele>550.79998779297</ele>
        <time>2021-09-08T03:45:52.000Z</time>
      </trkpt>
      <trkpt lat="45.2058" lon="5.72832">
        <ele>551.59997558594</ele>
        <time>2021-09-08T03:45:59.000Z</time>
      </trkpt>
      <trkpt lat="45.20567" lon="5.72816">
        <ele>550.79998779297</ele>
        <time>2021-09-08T03:46:06.000Z</time>
      </trkpt>
      <trkpt lat="45.20562" lon="5.72805">
        <ele>550.79998779297</ele>
        <time>2021-09-08T03:46:11.000Z</time>
      </trkpt>
      <trkpt lat="45.20559" lon="5.728">
        <ele>550.59997558594</ele>
        <time>2021-09-08T03:46:13.000Z</time>
      </trkpt>
      <trkpt lat="45.20547" lon="5.72781">
        <ele>550.59997558594</ele>
        <time>2021-09-08T03:46:20.000Z</time>
      </trkpt>
      <trkpt lat="45.20541" lon="5.72771">
        <ele>551</ele>
        <time>2021-09-08T03:46:23.000Z</time>
      </trkpt>
      <trkpt lat="45.2054" lon="5.72769">
        <ele>551</ele>
        <time>2021-09-08T03:46:24.000Z</time>
      </trkpt>
      <trkpt lat="45.20536" lon="5.72764">
        <ele>551.59997558594</ele>
        <time>2021-09-08T03:46:26.000Z</time>
      </trkpt>
      <trkpt lat="45.20526" lon="5.72753">
        <ele>552</ele>
        <time>2021-09-08T03:46:30.000Z</time>
      </trkpt>
      <trkpt lat="45.20519" lon="5.72744">
        <ele>552</ele>
        <time>2021-09-08T03:46:34.000Z</time>
      </trkpt>
      <trkpt lat="45.20518" lon="5.72742">
        <ele>552</ele>
        <time>2021-09-08T03:46:35.000Z</time>
      </trkpt>
      <trkpt lat="45.20514" lon="5.72738">
        <ele>552.20001220703</ele>
        <time>2021-09-08T03:46:37.000Z</time>
      </trkpt>
      <trkpt lat="45.20512" lon="5.72736">
        <ele>552.79998779297</ele>
        <time>2021-09-08T03:46:38.000Z</time>
      </trkpt>
      <trkpt lat="45.20508" lon="5.7273">
        <ele>553.40002441406</ele>
        <time>2021-09-08T03:46:41.000Z</time>
      </trkpt>
      <trkpt lat="45.20505" lon="5.72726">
        <ele>553.59997558594</ele>
        <time>2021-09-08T03:46:43.000Z</time>
      </trkpt>
      <trkpt lat="45.20504" lon="5.72725">
        <ele>553.79998779297</ele>
        <time>2021-09-08T03:46:44.000Z</time>
      </trkpt>
      <trkpt lat="45.20494" lon="5.72716">
        <ele>555</ele>
        <time>2021-09-08T03:46:50.000Z</time>
      </trkpt>
      <trkpt lat="45.20493" lon="5.72713">
        <ele>555.20001220703</ele>
        <time>2021-09-08T03:46:51.000Z</time>
      </trkpt>
      <trkpt lat="45.20486" lon="5.72709">
        <ele>556</ele>
        <time>2021-09-08T03:46:55.000Z</time>
      </trkpt>
      <trkpt lat="45.20481" lon="5.72704">
        <ele>556.79998779297</ele>
        <time>2021-09-08T03:46:58.000Z</time>
      </trkpt>
      <trkpt lat="45.20479" lon="5.72702">
        <ele>557</ele>
        <time>2021-09-08T03:46:59.000Z</time>
      </trkpt>
      <trkpt lat="45.20477" lon="5.72701">
        <ele>557.20001220703</ele>
        <time>2021-09-08T03:47:00.000Z</time>
      </trkpt>
      <trkpt lat="45.20474" lon="5.72698">
        <ele>557.20001220703</ele>
        <time>2021-09-08T03:47:02.000Z</time>
      </trkpt>
      <trkpt lat="45.20467" lon="5.72693">
        <ele>558.40002441406</ele>
        <time>2021-09-08T03:47:06.000Z</time>
      </trkpt>
      <trkpt lat="45.20464" lon="5.7269">
        <ele>558.79998779297</ele>
        <time>2021-09-08T03:47:08.000Z</time>
      </trkpt>
      <trkpt lat="45.20462" lon="5.72689">
        <ele>559.40002441406</ele>
        <time>2021-09-08T03:47:09.000Z</time>
      </trkpt>
      <trkpt lat="45.20451" lon="5.72683">
        <ele>560.79998779297</ele>
        <time>2021-09-08T03:47:16.000Z</time>
      </trkpt>
      <trkpt lat="45.2045" lon="5.72682">
        <ele>560.79998779297</ele>
        <time>2021-09-08T03:47:17.000Z</time>
      </trkpt>
      <trkpt lat="45.20449" lon="5.72681">
        <ele>561</ele>
        <time>2021-09-08T03:47:18.000Z</time>
      </trkpt>
      <trkpt lat="45.20448" lon="5.72678">
        <ele>561.40002441406</ele>
        <time>2021-09-08T03:47:20.000Z</time>
      </trkpt>
      <trkpt lat="45.20446" lon="5.72676">
        <ele>562</ele>
        <time>2021-09-08T03:47:22.000Z</time>
      </trkpt>
      <trkpt lat="45.20444" lon="5.72675">
        <ele>562.40002441406</ele>
        <time>2021-09-08T03:47:23.000Z</time>
      </trkpt>
      <trkpt lat="45.20443" lon="5.72673">
        <ele>562.59997558594</ele>
        <time>2021-09-08T03:47:24.000Z</time>
      </trkpt>
      <trkpt lat="45.2044" lon="5.72669">
        <ele>563.20001220703</ele>
        <time>2021-09-08T03:47:26.000Z</time>
      </trkpt>
      <trkpt lat="45.20437" lon="5.72665">
        <ele>563.40002441406</ele>
        <time>2021-09-08T03:47:28.000Z</time>
      </trkpt>
      <trkpt lat="45.20436" lon="5.72664">
        <ele>563.40002441406</ele>
        <time>2021-09-08T03:47:29.000Z</time>
      </trkpt>
      <trkpt lat="45.20435" lon="5.72662">
        <ele>563.79998779297</ele>
        <time>2021-09-08T03:47:30.000Z</time>
      </trkpt>
      <trkpt lat="45.20434" lon="5.7266">
        <ele>564.20001220703</ele>
        <time>2021-09-08T03:47:31.000Z</time>
      </trkpt>
      <trkpt lat="45.20429" lon="5.72653">
        <ele>565</ele>
        <time>2021-09-08T03:47:35.000Z</time>
      </trkpt>
      <trkpt lat="45.20426" lon="5.7265">
        <ele>565.40002441406</ele>
        <time>2021-09-08T03:47:37.000Z</time>
      </trkpt>
      <trkpt lat="45.20424" lon="5.72648">
        <ele>565.79998779297</ele>
        <time>2021-09-08T03:47:38.000Z</time>
      </trkpt>
      <trkpt lat="45.20421" lon="5.72645">
        <ele>566</ele>
        <time>2021-09-08T03:47:40.000Z</time>
      </trkpt>
      <trkpt lat="45.20417" lon="5.72641">
        <ele>566.59997558594</ele>
        <time>2021-09-08T03:47:42.000Z</time>
      </trkpt>
      <trkpt lat="45.20416" lon="5.72639">
        <ele>566.59997558594</ele>
        <time>2021-09-08T03:47:43.000Z</time>
      </trkpt>
      <trkpt lat="45.20414" lon="5.72633">
        <ele>567.59997558594</ele>
        <time>2021-09-08T03:47:46.000Z</time>
      </trkpt>
      <trkpt lat="45.20414" lon="5.72631">
        <ele>567.59997558594</ele>
        <time>2021-09-08T03:47:47.000Z</time>
      </trkpt>
      <trkpt lat="45.20414" lon="5.72629">
        <ele>567.79998779297</ele>
        <time>2021-09-08T03:47:48.000Z</time>
      </trkpt>
      <trkpt lat="45.20417" lon="5.72627">
        <ele>568.79998779297</ele>
        <time>2021-09-08T03:47:50.000Z</time>
      </trkpt>
      <trkpt lat="45.20419" lon="5.72628">
        <ele>569</ele>
        <time>2021-09-08T03:47:51.000Z</time>
      </trkpt>
      <trkpt lat="45.20421" lon="5.72632">
        <ele>569</ele>
        <time>2021-09-08T03:47:53.000Z</time>
      </trkpt>
      <trkpt lat="45.20423" lon="5.72635">
        <ele>569.79998779297</ele>
        <time>2021-09-08T03:47:55.000Z</time>
      </trkpt>
      <trkpt lat="45.20436" lon="5.72644">
        <ele>570.79998779297</ele>
        <time>2021-09-08T03:48:01.000Z</time>
      </trkpt>
      <trkpt lat="45.20439" lon="5.72647">
        <ele>570.79998779297</ele>
        <time>2021-09-08T03:48:03.000Z</time>
      </trkpt>
      <trkpt lat="45.20445" lon="5.72648">
        <ele>572</ele>
        <time>2021-09-08T03:48:07.000Z</time>
      </trkpt>
      <trkpt lat="45.20446" lon="5.72648">
        <ele>572</ele>
        <time>2021-09-08T03:48:08.000Z</time>
      </trkpt>
      <trkpt lat="45.20453" lon="5.72649">
        <ele>573</ele>
        <time>2021-09-08T03:48:13.000Z</time>
      </trkpt>
      <trkpt lat="45.20454" lon="5.72649">
        <ele>573.20001220703</ele>
        <time>2021-09-08T03:48:14.000Z</time>
      </trkpt>
      <trkpt lat="45.20457" lon="5.72651">
        <ele>573.79998779297</ele>
        <time>2021-09-08T03:48:17.000Z</time>
      </trkpt>
      <trkpt lat="45.2046" lon="5.7265">
        <ele>574</ele>
        <time>2021-09-08T03:48:19.000Z</time>
      </trkpt>
      <trkpt lat="45.20461" lon="5.72651">
        <ele>574</ele>
        <time>2021-09-08T03:48:20.000Z</time>
      </trkpt>
      <trkpt lat="45.20463" lon="5.72651">
        <ele>574.79998779297</ele>
        <time>2021-09-08T03:48:21.000Z</time>
      </trkpt>
      <trkpt lat="45.20471" lon="5.72655">
        <ele>575.79998779297</ele>
        <time>2021-09-08T03:48:26.000Z</time>
      </trkpt>
      <trkpt lat="45.20481" lon="5.72659">
        <ele>576.79998779297</ele>
        <time>2021-09-08T03:48:30.000Z</time>
      </trkpt>
      <trkpt lat="45.20483" lon="5.72659">
        <ele>577</ele>
        <time>2021-09-08T03:48:31.000Z</time>
      </trkpt>
      <trkpt lat="45.20485" lon="5.7266">
        <ele>577</ele>
        <time>2021-09-08T03:48:32.000Z</time>
      </trkpt>
      <trkpt lat="45.2049" lon="5.72661">
        <ele>577.79998779297</ele>
        <time>2021-09-08T03:48:34.000Z</time>
      </trkpt>
      <trkpt lat="45.20492" lon="5.72662">
        <ele>578.20001220703</ele>
        <time>2021-09-08T03:48:35.000Z</time>
      </trkpt>
      <trkpt lat="45.20501" lon="5.72665">
        <ele>579.20001220703</ele>
        <time>2021-09-08T03:48:39.000Z</time>
      </trkpt>
      <trkpt lat="45.20503" lon="5.72666">
        <ele>579.20001220703</ele>
        <time>2021-09-08T03:48:40.000Z</time>
      </trkpt>
      <trkpt lat="45.20509" lon="5.7267">
        <ele>580.20001220703</ele>
        <time>2021-09-08T03:48:45.000Z</time>
      </trkpt>
      <trkpt lat="45.20513" lon="5.72672">
        <ele>580.59997558594</ele>
        <time>2021-09-08T03:48:48.000Z</time>
      </trkpt>
      <trkpt lat="45.20519" lon="5.72675">
        <ele>581.79998779297</ele>
        <time>2021-09-08T03:48:52.000Z</time>
      </trkpt>
      <trkpt lat="45.2052" lon="5.72677">
        <ele>581.79998779297</ele>
        <time>2021-09-08T03:48:53.000Z</time>
      </trkpt>
      <trkpt lat="45.20529" lon="5.72681">
        <ele>582.79998779297</ele>
        <time>2021-09-08T03:48:57.000Z</time>
      </trkpt>
      <trkpt lat="45.20534" lon="5.72684">
        <ele>583.40002441406</ele>
        <time>2021-09-08T03:49:00.000Z</time>
      </trkpt>
      <trkpt lat="45.2054" lon="5.72687">
        <ele>584.59997558594</ele>
        <time>2021-09-08T03:49:03.000Z</time>
      </trkpt>
      <trkpt lat="45.20546" lon="5.72691">
        <ele>585</ele>
        <time>2021-09-08T03:49:06.000Z</time>
      </trkpt>
      <trkpt lat="45.20548" lon="5.72692">
        <ele>585.20001220703</ele>
        <time>2021-09-08T03:49:07.000Z</time>
      </trkpt>
      <trkpt lat="45.2055" lon="5.72694">
        <ele>585.59997558594</ele>
        <time>2021-09-08T03:49:08.000Z</time>
      </trkpt>
      <trkpt lat="45.20555" lon="5.72698">
        <ele>586.59997558594</ele>
        <time>2021-09-08T03:49:12.000Z</time>
      </trkpt>
      <trkpt lat="45.20563" lon="5.72704">
        <ele>587.59997558594</ele>
        <time>2021-09-08T03:49:17.000Z</time>
      </trkpt>
      <trkpt lat="45.20572" lon="5.72708">
        <ele>588.59997558594</ele>
        <time>2021-09-08T03:49:21.000Z</time>
      </trkpt>
      <trkpt lat="45.20575" lon="5.72709">
        <ele>588.79998779297</ele>
        <time>2021-09-08T03:49:23.000Z</time>
      </trkpt>
      <trkpt lat="45.20578" lon="5.72708">
        <ele>589.40002441406</ele>
        <time>2021-09-08T03:49:25.000Z</time>
      </trkpt>
      <trkpt lat="45.20578" lon="5.72707">
        <ele>589.79998779297</ele>
        <time>2021-09-08T03:49:26.000Z</time>
      </trkpt>
      <trkpt lat="45.2058" lon="5.72705">
        <ele>590.20001220703</ele>
        <time>2021-09-08T03:49:27.000Z</time>
      </trkpt>
      <trkpt lat="45.2058" lon="5.72703">
        <ele>590.20001220703</ele>
        <time>2021-09-08T03:49:28.000Z</time>
      </trkpt>
      <trkpt lat="45.20578" lon="5.72702">
        <ele>590.20001220703</ele>
        <time>2021-09-08T03:49:30.000Z</time>
      </trkpt>
      <trkpt lat="45.20577" lon="5.72701">
        <ele>590.59997558594</ele>
        <time>2021-09-08T03:49:31.000Z</time>
      </trkpt>
      <trkpt lat="45.20567" lon="5.72696">
        <ele>591.40002441406</ele>
        <time>2021-09-08T03:49:35.000Z</time>
      </trkpt>
      <trkpt lat="45.20555" lon="5.72689">
        <ele>591.40002441406</ele>
        <time>2021-09-08T03:49:41.000Z</time>
      </trkpt>
      <trkpt lat="45.20546" lon="5.72682">
        <ele>592.59997558594</ele>
        <time>2021-09-08T03:49:46.000Z</time>
      </trkpt>
      <trkpt lat="45.20538" lon="5.72673">
        <ele>593</ele>
        <time>2021-09-08T03:49:51.000Z</time>
      </trkpt>
      <trkpt lat="45.20533" lon="5.72669">
        <ele>593.59997558594</ele>
        <time>2021-09-08T03:49:54.000Z</time>
      </trkpt>
      <trkpt lat="45.20529" lon="5.72663">
        <ele>594.20001220703</ele>
        <time>2021-09-08T03:49:57.000Z</time>
      </trkpt>
      <trkpt lat="45.20525" lon="5.72657">
        <ele>594.79998779297</ele>
        <time>2021-09-08T03:50:00.000Z</time>
      </trkpt>
      <trkpt lat="45.20517" lon="5.72645">
        <ele>596.40002441406</ele>
        <time>2021-09-08T03:50:06.000Z</time>
      </trkpt>
      <trkpt lat="45.20507" lon="5.72638">
        <ele>597.20001220703</ele>
        <time>2021-09-08T03:50:12.000Z</time>
      </trkpt>
      <trkpt lat="45.20503" lon="5.72637">
        <ele>597.59997558594</ele>
        <time>2021-09-08T03:50:14.000Z</time>
      </trkpt>
      <trkpt lat="45.20498" lon="5.72636">
        <ele>598</ele>
        <time>2021-09-08T03:50:16.000Z</time>
      </trkpt>
      <trkpt lat="45.20492" lon="5.72634">
        <ele>598.59997558594</ele>
        <time>2021-09-08T03:50:19.000Z</time>
      </trkpt>
      <trkpt lat="45.2049" lon="5.72634">
        <ele>598.79998779297</ele>
        <time>2021-09-08T03:50:20.000Z</time>
      </trkpt>
      <trkpt lat="45.20483" lon="5.72631">
        <ele>599.59997558594</ele>
        <time>2021-09-08T03:50:24.000Z</time>
      </trkpt>
      <trkpt lat="45.20482" lon="5.72629">
        <ele>599.79998779297</ele>
        <time>2021-09-08T03:50:25.000Z</time>
      </trkpt>
      <trkpt lat="45.20477" lon="5.72621">
        <ele>601</ele>
        <time>2021-09-08T03:50:29.000Z</time>
      </trkpt>
      <trkpt lat="45.2047" lon="5.72611">
        <ele>602</ele>
        <time>2021-09-08T03:50:35.000Z</time>
      </trkpt>
      <trkpt lat="45.20468" lon="5.72608">
        <ele>602.40002441406</ele>
        <time>2021-09-08T03:50:36.000Z</time>
      </trkpt>
      <trkpt lat="45.20463" lon="5.72601">
        <ele>603.20001220703</ele>
        <time>2021-09-08T03:50:39.000Z</time>
      </trkpt>
      <trkpt lat="45.20462" lon="5.72599">
        <ele>603.20001220703</ele>
        <time>2021-09-08T03:50:40.000Z</time>
      </trkpt>
      <trkpt lat="45.20458" lon="5.72592">
        <ele>604.40002441406</ele>
        <time>2021-09-08T03:50:43.000Z</time>
      </trkpt>
      <trkpt lat="45.20455" lon="5.72586">
        <ele>605</ele>
        <time>2021-09-08T03:50:46.000Z</time>
      </trkpt>
      <trkpt lat="45.20449" lon="5.72575">
        <ele>605.59997558594</ele>
        <time>2021-09-08T03:50:51.000Z</time>
      </trkpt>
      <trkpt lat="45.20446" lon="5.7257">
        <ele>606</ele>
        <time>2021-09-08T03:50:53.000Z</time>
      </trkpt>
      <trkpt lat="45.20442" lon="5.72565">
        <ele>607</ele>
        <time>2021-09-08T03:50:56.000Z</time>
      </trkpt>
      <trkpt lat="45.20439" lon="5.72561">
        <ele>607</ele>
        <time>2021-09-08T03:50:58.000Z</time>
      </trkpt>
      <trkpt lat="45.20435" lon="5.7255">
        <ele>608</ele>
        <time>2021-09-08T03:51:03.000Z</time>
      </trkpt>
      <trkpt lat="45.20434" lon="5.72547">
        <ele>608</ele>
        <time>2021-09-08T03:51:04.000Z</time>
      </trkpt>
      <trkpt lat="45.20433" lon="5.72541">
        <ele>608.79998779297</ele>
        <time>2021-09-08T03:51:06.000Z</time>
      </trkpt>
      <trkpt lat="45.20431" lon="5.72535">
        <ele>609</ele>
        <time>2021-09-08T03:51:08.000Z</time>
      </trkpt>
      <trkpt lat="45.20431" lon="5.72529">
        <ele>609.79998779297</ele>
        <time>2021-09-08T03:51:11.000Z</time>
      </trkpt>
      <trkpt lat="45.20434" lon="5.72526">
        <ele>610</ele>
        <time>2021-09-08T03:51:13.000Z</time>
      </trkpt>
      <trkpt lat="45.20437" lon="5.72525">
        <ele>610.40002441406</ele>
        <time>2021-09-08T03:51:14.000Z</time>
      </trkpt>
      <trkpt lat="45.20439" lon="5.72525">
        <ele>611</ele>
        <time>2021-09-08T03:51:15.000Z</time>
      </trkpt>
      <trkpt lat="45.20444" lon="5.72527">
        <ele>611.59997558594</ele>
        <time>2021-09-08T03:51:18.000Z</time>
      </trkpt>
      <trkpt lat="45.20446" lon="5.72529">
        <ele>611.79998779297</ele>
        <time>2021-09-08T03:51:19.000Z</time>
      </trkpt>
      <trkpt lat="45.2045" lon="5.72532">
        <ele>612</ele>
        <time>2021-09-08T03:51:21.000Z</time>
      </trkpt>
      <trkpt lat="45.20452" lon="5.72536">
        <ele>612.59997558594</ele>
        <time>2021-09-08T03:51:23.000Z</time>
      </trkpt>
      <trkpt lat="45.20461" lon="5.72546">
        <ele>613.79998779297</ele>
        <time>2021-09-08T03:51:29.000Z</time>
      </trkpt>
      <trkpt lat="45.20464" lon="5.7255">
        <ele>614.59997558594</ele>
        <time>2021-09-08T03:51:31.000Z</time>
      </trkpt>
      <trkpt lat="45.2047" lon="5.72555">
        <ele>615.40002441406</ele>
        <time>2021-09-08T03:51:35.000Z</time>
      </trkpt>
      <trkpt lat="45.20472" lon="5.72556">
        <ele>615.40002441406</ele>
        <time>2021-09-08T03:51:36.000Z</time>
      </trkpt>
      <trkpt lat="45.20483" lon="5.72565">
        <ele>616.79998779297</ele>
        <time>2021-09-08T03:51:42.000Z</time>
      </trkpt>
      <trkpt lat="45.20498" lon="5.7257">
        <ele>617.20001220703</ele>
        <time>2021-09-08T03:51:48.000Z</time>
      </trkpt>
      <trkpt lat="45.20505" lon="5.72573">
        <ele>617.79998779297</ele>
        <time>2021-09-08T03:51:52.000Z</time>
      </trkpt>
      <trkpt lat="45.20507" lon="5.72573">
        <ele>617.79998779297</ele>
        <time>2021-09-08T03:51:53.000Z</time>
      </trkpt>
      <trkpt lat="45.20518" lon="5.72574">
        <ele>618.59997558594</ele>
        <time>2021-09-08T03:51:59.000Z</time>
      </trkpt>
      <trkpt lat="45.20519" lon="5.72574">
        <ele>618.79998779297</ele>
        <time>2021-09-08T03:52:00.000Z</time>
      </trkpt>
      <trkpt lat="45.20525" lon="5.7257">
        <ele>620</ele>
        <time>2021-09-08T03:52:04.000Z</time>
      </trkpt>
      <trkpt lat="45.20527" lon="5.7257">
        <ele>620</ele>
        <time>2021-09-08T03:52:05.000Z</time>
      </trkpt>
      <trkpt lat="45.20537" lon="5.72563">
        <ele>621</ele>
        <time>2021-09-08T03:52:11.000Z</time>
      </trkpt>
      <trkpt lat="45.20539" lon="5.72562">
        <ele>621.40002441406</ele>
        <time>2021-09-08T03:52:12.000Z</time>
      </trkpt>
      <trkpt lat="45.20548" lon="5.7256">
        <ele>622.20001220703</ele>
        <time>2021-09-08T03:52:16.000Z</time>
      </trkpt>
      <trkpt lat="45.20552" lon="5.7256">
        <ele>622.40002441406</ele>
        <time>2021-09-08T03:52:18.000Z</time>
      </trkpt>
      <trkpt lat="45.20561" lon="5.72562">
        <ele>622.79998779297</ele>
        <time>2021-09-08T03:52:23.000Z</time>
      </trkpt>
      <trkpt lat="45.20569" lon="5.72563">
        <ele>623.20001220703</ele>
        <time>2021-09-08T03:52:27.000Z</time>
      </trkpt>
      <trkpt lat="45.20571" lon="5.72564">
        <ele>623.40002441406</ele>
        <time>2021-09-08T03:52:28.000Z</time>
      </trkpt>
      <trkpt lat="45.20584" lon="5.7257">
        <ele>624.59997558594</ele>
        <time>2021-09-08T03:52:35.000Z</time>
      </trkpt>
      <trkpt lat="45.20588" lon="5.72573">
        <ele>625.20001220703</ele>
        <time>2021-09-08T03:52:37.000Z</time>
      </trkpt>
      <trkpt lat="45.20592" lon="5.72577">
        <ele>625.79998779297</ele>
        <time>2021-09-08T03:52:40.000Z</time>
      </trkpt>
      <trkpt lat="45.20595" lon="5.72579">
        <ele>626</ele>
        <time>2021-09-08T03:52:42.000Z</time>
      </trkpt>
      <trkpt lat="45.20608" lon="5.72588">
        <ele>627</ele>
        <time>2021-09-08T03:52:49.000Z</time>
      </trkpt>
      <trkpt lat="45.20615" lon="5.72593">
        <ele>628</ele>
        <time>2021-09-08T03:52:54.000Z</time>
      </trkpt>
      <trkpt lat="45.20617" lon="5.72593">
        <ele>628</ele>
        <time>2021-09-08T03:52:55.000Z</time>
      </trkpt>
      <trkpt lat="45.20618" lon="5.72594">
        <ele>629</ele>
        <time>2021-09-08T03:52:56.000Z</time>
      </trkpt>
      <trkpt lat="45.20624" lon="5.72598">
        <ele>629.40002441406</ele>
        <time>2021-09-08T03:53:00.000Z</time>
      </trkpt>
      <trkpt lat="45.20627" lon="5.72599">
        <ele>629.79998779297</ele>
        <time>2021-09-08T03:53:02.000Z</time>
      </trkpt>
      <trkpt lat="45.20632" lon="5.72598">
        <ele>630</ele>
        <time>2021-09-08T03:53:04.000Z</time>
      </trkpt>
      <trkpt lat="45.20638" lon="5.72598">
        <ele>630.20001220703</ele>
        <time>2021-09-08T03:53:07.000Z</time>
      </trkpt>
      <trkpt lat="45.20641" lon="5.72598">
        <ele>630.40002441406</ele>
        <time>2021-09-08T03:53:08.000Z</time>
      </trkpt>
      <trkpt lat="45.20643" lon="5.72598">
        <ele>630.59997558594</ele>
        <time>2021-09-08T03:53:09.000Z</time>
      </trkpt>
      <trkpt lat="45.20647" lon="5.72595">
        <ele>631.20001220703</ele>
        <time>2021-09-08T03:53:12.000Z</time>
      </trkpt>
      <trkpt lat="45.20652" lon="5.72592">
        <ele>631.79998779297</ele>
        <time>2021-09-08T03:53:15.000Z</time>
      </trkpt>
      <trkpt lat="45.20655" lon="5.7259">
        <ele>632.20001220703</ele>
        <time>2021-09-08T03:53:17.000Z</time>
      </trkpt>
      <trkpt lat="45.20663" lon="5.72582">
        <ele>633.20001220703</ele>
        <time>2021-09-08T03:53:22.000Z</time>
      </trkpt>
      <trkpt lat="45.20665" lon="5.72581">
        <ele>633.59997558594</ele>
        <time>2021-09-08T03:53:23.000Z</time>
      </trkpt>
      <trkpt lat="45.20675" lon="5.72575">
        <ele>634.59997558594</ele>
        <time>2021-09-08T03:53:29.000Z</time>
      </trkpt>
      <trkpt lat="45.20677" lon="5.72575">
        <ele>634.79998779297</ele>
        <time>2021-09-08T03:53:30.000Z</time>
      </trkpt>
      <trkpt lat="45.20683" lon="5.72573">
        <ele>636.40002441406</ele>
        <time>2021-09-08T03:53:34.000Z</time>
      </trkpt>
      <trkpt lat="45.20686" lon="5.72572">
        <ele>636.79998779297</ele>
        <time>2021-09-08T03:53:36.000Z</time>
      </trkpt>
      <trkpt lat="45.20691" lon="5.72571">
        <ele>637.79998779297</ele>
        <time>2021-09-08T03:53:39.000Z</time>
      </trkpt>
      <trkpt lat="45.20698" lon="5.72572">
        <ele>638.59997558594</ele>
        <time>2021-09-08T03:53:44.000Z</time>
      </trkpt>
      <trkpt lat="45.20699" lon="5.72573">
        <ele>639.20001220703</ele>
        <time>2021-09-08T03:53:45.000Z</time>
      </trkpt>
      <trkpt lat="45.20701" lon="5.72574">
        <ele>639.79998779297</ele>
        <time>2021-09-08T03:53:47.000Z</time>
      </trkpt>
      <trkpt lat="45.20706" lon="5.72576">
        <ele>640.40002441406</ele>
        <time>2021-09-08T03:53:49.000Z</time>
      </trkpt>
      <trkpt lat="45.20708" lon="5.72578">
        <ele>641.20001220703</ele>
        <time>2021-09-08T03:53:51.000Z</time>
      </trkpt>
      <trkpt lat="45.2071" lon="5.72578">
        <ele>641.59997558594</ele>
        <time>2021-09-08T03:53:53.000Z</time>
      </trkpt>
      <trkpt lat="45.20715" lon="5.72579">
        <ele>643.20001220703</ele>
        <time>2021-09-08T03:53:57.000Z</time>
      </trkpt>
      <trkpt lat="45.20718" lon="5.7258">
        <ele>643.40002441406</ele>
        <time>2021-09-08T03:53:59.000Z</time>
      </trkpt>
      <trkpt lat="45.20721" lon="5.72581">
        <ele>644.59997558594</ele>
        <time>2021-09-08T03:54:02.000Z</time>
      </trkpt>
      <trkpt lat="45.20724" lon="5.72581">
        <ele>645.79998779297</ele>
        <time>2021-09-08T03:54:05.000Z</time>
      </trkpt>
      <trkpt lat="45.20725" lon="5.72581">
        <ele>646</ele>
        <time>2021-09-08T03:54:06.000Z</time>
      </trkpt>
      <trkpt lat="45.20726" lon="5.72582">
        <ele>646.20001220703</ele>
        <time>2021-09-08T03:54:07.000Z</time>
      </trkpt>
      <trkpt lat="45.20727" lon="5.72582">
        <ele>646.40002441406</ele>
        <time>2021-09-08T03:54:08.000Z</time>
      </trkpt>
      <trkpt lat="45.20729" lon="5.72582">
        <ele>647.20001220703</ele>
        <time>2021-09-08T03:54:10.000Z</time>
      </trkpt>
      <trkpt lat="45.20731" lon="5.72581">
        <ele>647.20001220703</ele>
        <time>2021-09-08T03:54:12.000Z</time>
      </trkpt>
      <trkpt lat="45.20734" lon="5.72581">
        <ele>648.20001220703</ele>
        <time>2021-09-08T03:54:14.000Z</time>
      </trkpt>
      <trkpt lat="45.20736" lon="5.72581">
        <ele>648.79998779297</ele>
        <time>2021-09-08T03:54:15.000Z</time>
      </trkpt>
      <trkpt lat="45.20736" lon="5.72584">
        <ele>649</ele>
        <time>2021-09-08T03:54:17.000Z</time>
      </trkpt>
      <trkpt lat="45.20738" lon="5.72588">
        <ele>649.40002441406</ele>
        <time>2021-09-08T03:54:19.000Z</time>
      </trkpt>
      <trkpt lat="45.20739" lon="5.72597">
        <ele>650.40002441406</ele>
        <time>2021-09-08T03:54:24.000Z</time>
      </trkpt>
      <trkpt lat="45.2074" lon="5.72599">
        <ele>651.20001220703</ele>
        <time>2021-09-08T03:54:25.000Z</time>
      </trkpt>
      <trkpt lat="45.20741" lon="5.72602">
        <ele>651.40002441406</ele>
        <time>2021-09-08T03:54:26.000Z</time>
      </trkpt>
      <trkpt lat="45.20741" lon="5.72603">
        <ele>651.40002441406</ele>
        <time>2021-09-08T03:54:27.000Z</time>
      </trkpt>
      <trkpt lat="45.20741" lon="5.72605">
        <ele>651.59997558594</ele>
        <time>2021-09-08T03:54:28.000Z</time>
      </trkpt>
      <trkpt lat="45.20741" lon="5.7261">
        <ele>652.59997558594</ele>
        <time>2021-09-08T03:54:31.000Z</time>
      </trkpt>
      <trkpt lat="45.20742" lon="5.72614">
        <ele>652.79998779297</ele>
        <time>2021-09-08T03:54:33.000Z</time>
      </trkpt>
      <trkpt lat="45.20741" lon="5.72616">
        <ele>653.59997558594</ele>
        <time>2021-09-08T03:54:34.000Z</time>
      </trkpt>
      <trkpt lat="45.20741" lon="5.72618">
        <ele>654</ele>
        <time>2021-09-08T03:54:35.000Z</time>
      </trkpt>
      <trkpt lat="45.20744" lon="5.72619">
        <ele>654.40002441406</ele>
        <time>2021-09-08T03:54:38.000Z</time>
      </trkpt>
      <trkpt lat="45.20747" lon="5.72617">
        <ele>655.40002441406</ele>
        <time>2021-09-08T03:54:41.000Z</time>
      </trkpt>
      <trkpt lat="45.20748" lon="5.72617">
        <ele>655.79998779297</ele>
        <time>2021-09-08T03:54:43.000Z</time>
      </trkpt>
      <trkpt lat="45.20749" lon="5.72615">
        <ele>656.20001220703</ele>
        <time>2021-09-08T03:54:45.000Z</time>
      </trkpt>
      <trkpt lat="45.20751" lon="5.72614">
        <ele>656.79998779297</ele>
        <time>2021-09-08T03:54:46.000Z</time>
      </trkpt>
      <trkpt lat="45.20752" lon="5.72614">
        <ele>657.20001220703</ele>
        <time>2021-09-08T03:54:47.000Z</time>
      </trkpt>
      <trkpt lat="45.20756" lon="5.72613">
        <ele>657.20001220703</ele>
        <time>2021-09-08T03:54:50.000Z</time>
      </trkpt>
      <trkpt lat="45.20757" lon="5.72612">
        <ele>658</ele>
        <time>2021-09-08T03:54:51.000Z</time>
      </trkpt>
      <trkpt lat="45.20761" lon="5.7261">
        <ele>659.59997558594</ele>
        <time>2021-09-08T03:54:56.000Z</time>
      </trkpt>
      <trkpt lat="45.20763" lon="5.72609">
        <ele>659.79998779297</ele>
        <time>2021-09-08T03:54:58.000Z</time>
      </trkpt>
      <trkpt lat="45.20764" lon="5.72609">
        <ele>660</ele>
        <time>2021-09-08T03:54:59.000Z</time>
      </trkpt>
      <trkpt lat="45.20765" lon="5.7261">
        <ele>660.20001220703</ele>
        <time>2021-09-08T03:55:00.000Z</time>
      </trkpt>
      <trkpt lat="45.20766" lon="5.72611">
        <ele>660.40002441406</ele>
        <time>2021-09-08T03:55:01.000Z</time>
      </trkpt>
      <trkpt lat="45.20767" lon="5.72612">
        <ele>660.59997558594</ele>
        <time>2021-09-08T03:55:02.000Z</time>
      </trkpt>
      <trkpt lat="45.20768" lon="5.72614">
        <ele>661</ele>
        <time>2021-09-08T03:55:03.000Z</time>
      </trkpt>
      <trkpt lat="45.20769" lon="5.72617">
        <ele>661.79998779297</ele>
        <time>2021-09-08T03:55:05.000Z</time>
      </trkpt>
      <trkpt lat="45.20772" lon="5.72624">
        <ele>663</ele>
        <time>2021-09-08T03:55:08.000Z</time>
      </trkpt>
      <trkpt lat="45.20774" lon="5.72629">
        <ele>663.40002441406</ele>
        <time>2021-09-08T03:55:11.000Z</time>
      </trkpt>
      <trkpt lat="45.20774" lon="5.72633">
        <ele>664</ele>
        <time>2021-09-08T03:55:13.000Z</time>
      </trkpt>
      <trkpt lat="45.20773" lon="5.72634">
        <ele>664.20001220703</ele>
        <time>2021-09-08T03:55:14.000Z</time>
      </trkpt>
      <trkpt lat="45.20773" lon="5.72635">
        <ele>664.40002441406</ele>
        <time>2021-09-08T03:55:15.000Z</time>
      </trkpt>
      <trkpt lat="45.20774" lon="5.72636">
        <ele>664.79998779297</ele>
        <time>2021-09-08T03:55:16.000Z</time>
      </trkpt>
      <trkpt lat="45.20774" lon="5.72638">
        <ele>665.40002441406</ele>
        <time>2021-09-08T03:55:17.000Z</time>
      </trkpt>
      <trkpt lat="45.20774" lon="5.72639">
        <ele>665.79998779297</ele>
        <time>2021-09-08T03:55:18.000Z</time>
      </trkpt>
      <trkpt lat="45.20773" lon="5.72642">
        <ele>666.59997558594</ele>
        <time>2021-09-08T03:55:21.000Z</time>
      </trkpt>
      <trkpt lat="45.20774" lon="5.72643">
        <ele>667</ele>
        <time>2021-09-08T03:55:22.000Z</time>
      </trkpt>
      <trkpt lat="45.20777" lon="5.72644">
        <ele>668.20001220703</ele>
        <time>2021-09-08T03:55:26.000Z</time>
      </trkpt>
      <trkpt lat="45.20781" lon="5.72642">
        <ele>669.20001220703</ele>
        <time>2021-09-08T03:55:31.000Z</time>
      </trkpt>
      <trkpt lat="45.20781" lon="5.72641">
        <ele>669.79998779297</ele>
        <time>2021-09-08T03:55:32.000Z</time>
      </trkpt>
      <trkpt lat="45.20782" lon="5.7264">
        <ele>670.40002441406</ele>
        <time>2021-09-08T03:55:34.000Z</time>
      </trkpt>
      <trkpt lat="45.20783" lon="5.7264">
        <ele>670.59997558594</ele>
        <time>2021-09-08T03:55:36.000Z</time>
      </trkpt>
      <trkpt lat="45.20783" lon="5.7264">
        <ele>671.59997558594</ele>
        <time>2021-09-08T03:55:37.000Z</time>
      </trkpt>
      <trkpt lat="45.20784" lon="5.72641">
        <ele>671.79998779297</ele>
        <time>2021-09-08T03:55:38.000Z</time>
      </trkpt>
      <trkpt lat="45.20784" lon="5.72641">
        <ele>671.79998779297</ele>
        <time>2021-09-08T03:55:39.000Z</time>
      </trkpt>
      <trkpt lat="45.20785" lon="5.7264">
        <ele>672</ele>
        <time>2021-09-08T03:55:40.000Z</time>
      </trkpt>
      <trkpt lat="45.20786" lon="5.72638">
        <ele>672.79998779297</ele>
        <time>2021-09-08T03:55:42.000Z</time>
      </trkpt>
      <trkpt lat="45.20786" lon="5.72632">
        <ele>673.20001220703</ele>
        <time>2021-09-08T03:55:45.000Z</time>
      </trkpt>
      <trkpt lat="45.20787" lon="5.7263">
        <ele>673.40002441406</ele>
        <time>2021-09-08T03:55:46.000Z</time>
      </trkpt>
      <trkpt lat="45.20787" lon="5.72628">
        <ele>674.20001220703</ele>
        <time>2021-09-08T03:55:47.000Z</time>
      </trkpt>
      <trkpt lat="45.20787" lon="5.72627">
        <ele>674.20001220703</ele>
        <time>2021-09-08T03:55:48.000Z</time>
      </trkpt>
      <trkpt lat="45.2079" lon="5.72626">
        <ele>675.20001220703</ele>
        <time>2021-09-08T03:55:51.000Z</time>
      </trkpt>
      <trkpt lat="45.20791" lon="5.72626">
        <ele>675.59997558594</ele>
        <time>2021-09-08T03:55:52.000Z</time>
      </trkpt>
      <trkpt lat="45.20794" lon="5.7263">
        <ele>676.20001220703</ele>
        <time>2021-09-08T03:55:55.000Z</time>
      </trkpt>
      <trkpt lat="45.20796" lon="5.72632">
        <ele>676.79998779297</ele>
        <time>2021-09-08T03:55:57.000Z</time>
      </trkpt>
      <trkpt lat="45.20797" lon="5.72636">
        <ele>677.59997558594</ele>
        <time>2021-09-08T03:56:00.000Z</time>
      </trkpt>
      <trkpt lat="45.20798" lon="5.72638">
        <ele>678</ele>
        <time>2021-09-08T03:56:01.000Z</time>
      </trkpt>
      <trkpt lat="45.208" lon="5.72641">
        <ele>679</ele>
        <time>2021-09-08T03:56:04.000Z</time>
      </trkpt>
      <trkpt lat="45.20799" lon="5.72642">
        <ele>679.20001220703</ele>
        <time>2021-09-08T03:56:05.000Z</time>
      </trkpt>
      <trkpt lat="45.20799" lon="5.72643">
        <ele>679.40002441406</ele>
        <time>2021-09-08T03:56:06.000Z</time>
      </trkpt>
      <trkpt lat="45.208" lon="5.72645">
        <ele>680.20001220703</ele>
        <time>2021-09-08T03:56:08.000Z</time>
      </trkpt>
      <trkpt lat="45.208" lon="5.72646">
        <ele>680.59997558594</ele>
        <time>2021-09-08T03:56:09.000Z</time>
      </trkpt>
      <trkpt lat="45.20801" lon="5.72651">
        <ele>681</ele>
        <time>2021-09-08T03:56:12.000Z</time>
      </trkpt>
      <trkpt lat="45.20802" lon="5.72654">
        <ele>681.59997558594</ele>
        <time>2021-09-08T03:56:13.000Z</time>
      </trkpt>
      <trkpt lat="45.20802" lon="5.72656">
        <ele>682</ele>
        <time>2021-09-08T03:56:14.000Z</time>
      </trkpt>
      <trkpt lat="45.20801" lon="5.72658">
        <ele>682.20001220703</ele>
        <time>2021-09-08T03:56:15.000Z</time>
      </trkpt>
      <trkpt lat="45.20803" lon="5.72662">
        <ele>682.59997558594</ele>
        <time>2021-09-08T03:56:17.000Z</time>
      </trkpt>
      <trkpt lat="45.20804" lon="5.72664">
        <ele>683</ele>
        <time>2021-09-08T03:56:18.000Z</time>
      </trkpt>
      <trkpt lat="45.20805" lon="5.72669">
        <ele>684</ele>
        <time>2021-09-08T03:56:21.000Z</time>
      </trkpt>
      <trkpt lat="45.20805" lon="5.7267">
        <ele>684</ele>
        <time>2021-09-08T03:56:22.000Z</time>
      </trkpt>
      <trkpt lat="45.20805" lon="5.72669">
        <ele>684.40002441406</ele>
        <time>2021-09-08T03:56:23.000Z</time>
      </trkpt>
      <trkpt lat="45.20808" lon="5.72668">
        <ele>685.20001220703</ele>
        <time>2021-09-08T03:56:25.000Z</time>
      </trkpt>
      <trkpt lat="45.2081" lon="5.72667">
        <ele>685.79998779297</ele>
        <time>2021-09-08T03:56:27.000Z</time>
      </trkpt>
      <trkpt lat="45.20812" lon="5.72666">
        <ele>686.59997558594</ele>
        <time>2021-09-08T03:56:30.000Z</time>
      </trkpt>
      <trkpt lat="45.20813" lon="5.72664">
        <ele>686.59997558594</ele>
        <time>2021-09-08T03:56:31.000Z</time>
      </trkpt>
      <trkpt lat="45.20813" lon="5.72663">
        <ele>687</ele>
        <time>2021-09-08T03:56:32.000Z</time>
      </trkpt>
      <trkpt lat="45.20816" lon="5.7266">
        <ele>687.79998779297</ele>
        <time>2021-09-08T03:56:35.000Z</time>
      </trkpt>
      <trkpt lat="45.20817" lon="5.72658">
        <ele>688.20001220703</ele>
        <time>2021-09-08T03:56:36.000Z</time>
      </trkpt>
      <trkpt lat="45.20818" lon="5.72657">
        <ele>688.40002441406</ele>
        <time>2021-09-08T03:56:37.000Z</time>
      </trkpt>
      <trkpt lat="45.20819" lon="5.72656">
        <ele>688.79998779297</ele>
        <time>2021-09-08T03:56:39.000Z</time>
      </trkpt>
      <trkpt lat="45.20821" lon="5.72654">
        <ele>689.40002441406</ele>
        <time>2021-09-08T03:56:41.000Z</time>
      </trkpt>
      <trkpt lat="45.20823" lon="5.72653">
        <ele>689.79998779297</ele>
        <time>2021-09-08T03:56:43.000Z</time>
      </trkpt>
      <trkpt lat="45.20825" lon="5.72653">
        <ele>690</ele>
        <time>2021-09-08T03:56:44.000Z</time>
      </trkpt>
      <trkpt lat="45.20826" lon="5.72654">
        <ele>690.40002441406</ele>
        <time>2021-09-08T03:56:45.000Z</time>
      </trkpt>
      <trkpt lat="45.20828" lon="5.72657">
        <ele>691.40002441406</ele>
        <time>2021-09-08T03:56:49.000Z</time>
      </trkpt>
      <trkpt lat="45.20828" lon="5.72658">
        <ele>691.79998779297</ele>
        <time>2021-09-08T03:56:50.000Z</time>
      </trkpt>
      <trkpt lat="45.20829" lon="5.72659">
        <ele>692</ele>
        <time>2021-09-08T03:56:51.000Z</time>
      </trkpt>
      <trkpt lat="45.20829" lon="5.72662">
        <ele>692.40002441406</ele>
        <time>2021-09-08T03:56:53.000Z</time>
      </trkpt>
      <trkpt lat="45.20829" lon="5.72663">
        <ele>692.79998779297</ele>
        <time>2021-09-08T03:56:54.000Z</time>
      </trkpt>
      <trkpt lat="45.20829" lon="5.72665">
        <ele>693.40002441406</ele>
        <time>2021-09-08T03:56:56.000Z</time>
      </trkpt>
      <trkpt lat="45.20829" lon="5.72667">
        <ele>694.59997558594</ele>
        <time>2021-09-08T03:56:59.000Z</time>
      </trkpt>
      <trkpt lat="45.20829" lon="5.72667">
        <ele>694.79998779297</ele>
        <time>2021-09-08T03:57:00.000Z</time>
      </trkpt>
      <trkpt lat="45.20829" lon="5.72669">
        <ele>695.20001220703</ele>
        <time>2021-09-08T03:57:01.000Z</time>
      </trkpt>
      <trkpt lat="45.20829" lon="5.72675">
        <ele>695.59997558594</ele>
        <time>2021-09-08T03:57:04.000Z</time>
      </trkpt>
      <trkpt lat="45.20829" lon="5.72677">
        <ele>696.40002441406</ele>
        <time>2021-09-08T03:57:06.000Z</time>
      </trkpt>
      <trkpt lat="45.20829" lon="5.72682">
        <ele>696.59997558594</ele>
        <time>2021-09-08T03:57:08.000Z</time>
      </trkpt>
      <trkpt lat="45.20832" lon="5.72687">
        <ele>697.79998779297</ele>
        <time>2021-09-08T03:57:11.000Z</time>
      </trkpt>
      <trkpt lat="45.20832" lon="5.72689">
        <ele>697.79998779297</ele>
        <time>2021-09-08T03:57:12.000Z</time>
      </trkpt>
      <trkpt lat="45.20833" lon="5.72691">
        <ele>698.20001220703</ele>
        <time>2021-09-08T03:57:14.000Z</time>
      </trkpt>
      <trkpt lat="45.20835" lon="5.72692">
        <ele>698.40002441406</ele>
        <time>2021-09-08T03:57:15.000Z</time>
      </trkpt>
      <trkpt lat="45.20836" lon="5.72693">
        <ele>699</ele>
        <time>2021-09-08T03:57:16.000Z</time>
      </trkpt>
      <trkpt lat="45.20836" lon="5.72694">
        <ele>699.40002441406</ele>
        <time>2021-09-08T03:57:17.000Z</time>
      </trkpt>
      <trkpt lat="45.20838" lon="5.72693">
        <ele>699.59997558594</ele>
        <time>2021-09-08T03:57:19.000Z</time>
      </trkpt>
      <trkpt lat="45.20838" lon="5.72692">
        <ele>700.59997558594</ele>
        <time>2021-09-08T03:57:20.000Z</time>
      </trkpt>
      <trkpt lat="45.20841" lon="5.72691">
        <ele>700.79998779297</ele>
        <time>2021-09-08T03:57:22.000Z</time>
      </trkpt>
      <trkpt lat="45.20844" lon="5.72691">
        <ele>701.79998779297</ele>
        <time>2021-09-08T03:57:25.000Z</time>
      </trkpt>
      <trkpt lat="45.20846" lon="5.72691">
        <ele>702.59997558594</ele>
        <time>2021-09-08T03:57:27.000Z</time>
      </trkpt>
      <trkpt lat="45.20848" lon="5.72691">
        <ele>703.20001220703</ele>
        <time>2021-09-08T03:57:29.000Z</time>
      </trkpt>
      <trkpt lat="45.20854" lon="5.7269">
        <ele>704.20001220703</ele>
        <time>2021-09-08T03:57:33.000Z</time>
      </trkpt>
      <trkpt lat="45.20856" lon="5.72691">
        <ele>704.40002441406</ele>
        <time>2021-09-08T03:57:36.000Z</time>
      </trkpt>
      <trkpt lat="45.20861" lon="5.72689">
        <ele>705.59997558594</ele>
        <time>2021-09-08T03:57:40.000Z</time>
      </trkpt>
      <trkpt lat="45.20864" lon="5.72689">
        <ele>705.79998779297</ele>
        <time>2021-09-08T03:57:43.000Z</time>
      </trkpt>
      <trkpt lat="45.20866" lon="5.72688">
        <ele>706.79998779297</ele>
        <time>2021-09-08T03:57:45.000Z</time>
      </trkpt>
      <trkpt lat="45.20868" lon="5.72688">
        <ele>706.79998779297</ele>
        <time>2021-09-08T03:57:46.000Z</time>
      </trkpt>
      <trkpt lat="45.20873" lon="5.72684">
        <ele>707.40002441406</ele>
        <time>2021-09-08T03:57:49.000Z</time>
      </trkpt>
      <trkpt lat="45.20876" lon="5.72681">
        <ele>708</ele>
        <time>2021-09-08T03:57:51.000Z</time>
      </trkpt>
      <trkpt lat="45.20877" lon="5.7268">
        <ele>708.20001220703</ele>
        <time>2021-09-08T03:57:52.000Z</time>
      </trkpt>
      <trkpt lat="45.20879" lon="5.72679">
        <ele>708.20001220703</ele>
        <time>2021-09-08T03:57:54.000Z</time>
      </trkpt>
      <trkpt lat="45.2088" lon="5.72679">
        <ele>709</ele>
        <time>2021-09-08T03:57:55.000Z</time>
      </trkpt>
      <trkpt lat="45.20885" lon="5.72677">
        <ele>710.20001220703</ele>
        <time>2021-09-08T03:57:59.000Z</time>
      </trkpt>
      <trkpt lat="45.20887" lon="5.72677">
        <ele>710.40002441406</ele>
        <time>2021-09-08T03:58:01.000Z</time>
      </trkpt>
      <trkpt lat="45.20891" lon="5.72674">
        <ele>711.40002441406</ele>
        <time>2021-09-08T03:58:05.000Z</time>
      </trkpt>
      <trkpt lat="45.20897" lon="5.72672">
        <ele>712.79998779297</ele>
        <time>2021-09-08T03:58:09.000Z</time>
      </trkpt>
      <trkpt lat="45.20899" lon="5.72672">
        <ele>713.20001220703</ele>
        <time>2021-09-08T03:58:10.000Z</time>
      </trkpt>
      <trkpt lat="45.20901" lon="5.72669">
        <ele>714.20001220703</ele>
        <time>2021-09-08T03:58:14.000Z</time>
      </trkpt>
      <trkpt lat="45.20903" lon="5.72668">
        <ele>714.79998779297</ele>
        <time>2021-09-08T03:58:16.000Z</time>
      </trkpt>
      <trkpt lat="45.20907" lon="5.72669">
        <ele>715.59997558594</ele>
        <time>2021-09-08T03:58:19.000Z</time>
      </trkpt>
      <trkpt lat="45.20912" lon="5.7267">
        <ele>716.59997558594</ele>
        <time>2021-09-08T03:58:23.000Z</time>
      </trkpt>
      <trkpt lat="45.20914" lon="5.72671">
        <ele>717.79998779297</ele>
        <time>2021-09-08T03:58:25.000Z</time>
      </trkpt>
      <trkpt lat="45.20915" lon="5.72674">
        <ele>718.20001220703</ele>
        <time>2021-09-08T03:58:27.000Z</time>
      </trkpt>
      <trkpt lat="45.20916" lon="5.72675">
        <ele>718.59997558594</ele>
        <time>2021-09-08T03:58:28.000Z</time>
      </trkpt>
      <trkpt lat="45.20917" lon="5.72676">
        <ele>719</ele>
        <time>2021-09-08T03:58:29.000Z</time>
      </trkpt>
      <trkpt lat="45.20926" lon="5.7268">
        <ele>719.79998779297</ele>
        <time>2021-09-08T03:58:34.000Z</time>
      </trkpt>
      <trkpt lat="45.20929" lon="5.7268">
        <ele>720.40002441406</ele>
        <time>2021-09-08T03:58:35.000Z</time>
      </trkpt>
      <trkpt lat="45.20931" lon="5.72681">
        <ele>720.59997558594</ele>
        <time>2021-09-08T03:58:37.000Z</time>
      </trkpt>
      <trkpt lat="45.20932" lon="5.72683">
        <ele>721.40002441406</ele>
        <time>2021-09-08T03:58:39.000Z</time>
      </trkpt>
      <trkpt lat="45.20933" lon="5.72684">
        <ele>721.40002441406</ele>
        <time>2021-09-08T03:58:40.000Z</time>
      </trkpt>
      <trkpt lat="45.20938" lon="5.72692">
        <ele>722.59997558594</ele>
        <time>2021-09-08T03:58:45.000Z</time>
      </trkpt>
      <trkpt lat="45.20938" lon="5.72693">
        <ele>723.20001220703</ele>
        <time>2021-09-08T03:58:46.000Z</time>
      </trkpt>
      <trkpt lat="45.20939" lon="5.72694">
        <ele>723.59997558594</ele>
        <time>2021-09-08T03:58:47.000Z</time>
      </trkpt>
      <trkpt lat="45.20939" lon="5.72695">
        <ele>723.59997558594</ele>
        <time>2021-09-08T03:58:48.000Z</time>
      </trkpt>
      <trkpt lat="45.20941" lon="5.72698">
        <ele>724.79998779297</ele>
        <time>2021-09-08T03:58:51.000Z</time>
      </trkpt>
      <trkpt lat="45.20948" lon="5.72703">
        <ele>726</ele>
        <time>2021-09-08T03:58:55.000Z</time>
      </trkpt>
      <trkpt lat="45.20951" lon="5.72705">
        <ele>726.79998779297</ele>
        <time>2021-09-08T03:58:58.000Z</time>
      </trkpt>
      <trkpt lat="45.20953" lon="5.72706">
        <ele>727.40002441406</ele>
        <time>2021-09-08T03:59:00.000Z</time>
      </trkpt>
      <trkpt lat="45.20955" lon="5.72708">
        <ele>728</ele>
        <time>2021-09-08T03:59:01.000Z</time>
      </trkpt>
      <trkpt lat="45.20958" lon="5.7271">
        <ele>728.79998779297</ele>
        <time>2021-09-08T03:59:04.000Z</time>
      </trkpt>
      <trkpt lat="45.20958" lon="5.72711">
        <ele>728.79998779297</ele>
        <time>2021-09-08T03:59:05.000Z</time>
      </trkpt>
      <trkpt lat="45.20959" lon="5.72714">
        <ele>729.79998779297</ele>
        <time>2021-09-08T03:59:07.000Z</time>
      </trkpt>
      <trkpt lat="45.20959" lon="5.72715">
        <ele>729.79998779297</ele>
        <time>2021-09-08T03:59:08.000Z</time>
      </trkpt>
      <trkpt lat="45.20961" lon="5.72715">
        <ele>730.40002441406</ele>
        <time>2021-09-08T03:59:11.000Z</time>
      </trkpt>
      <trkpt lat="45.20962" lon="5.72715">
        <ele>731.40002441406</ele>
        <time>2021-09-08T03:59:12.000Z</time>
      </trkpt>
      <trkpt lat="45.20965" lon="5.72719">
        <ele>731.59997558594</ele>
        <time>2021-09-08T03:59:14.000Z</time>
      </trkpt>
      <trkpt lat="45.20968" lon="5.72725">
        <ele>733</ele>
        <time>2021-09-08T03:59:17.000Z</time>
      </trkpt>
      <trkpt lat="45.20968" lon="5.72727">
        <ele>733.20001220703</ele>
        <time>2021-09-08T03:59:18.000Z</time>
      </trkpt>
      <trkpt lat="45.20969" lon="5.72728">
        <ele>733.20001220703</ele>
        <time>2021-09-08T03:59:19.000Z</time>
      </trkpt>
      <trkpt lat="45.2097" lon="5.72729">
        <ele>734.59997558594</ele>
        <time>2021-09-08T03:59:22.000Z</time>
      </trkpt>
      <trkpt lat="45.20972" lon="5.72731">
        <ele>735.20001220703</ele>
        <time>2021-09-08T03:59:24.000Z</time>
      </trkpt>
      <trkpt lat="45.20972" lon="5.72732">
        <ele>735.40002441406</ele>
        <time>2021-09-08T03:59:25.000Z</time>
      </trkpt>
      <trkpt lat="45.20973" lon="5.72733">
        <ele>735.79998779297</ele>
        <time>2021-09-08T03:59:26.000Z</time>
      </trkpt>
      <trkpt lat="45.20973" lon="5.72734">
        <ele>735.79998779297</ele>
        <time>2021-09-08T03:59:27.000Z</time>
      </trkpt>
      <trkpt lat="45.20974" lon="5.72737">
        <ele>736.79998779297</ele>
        <time>2021-09-08T03:59:29.000Z</time>
      </trkpt>
      <trkpt lat="45.20974" lon="5.72737">
        <ele>737</ele>
        <time>2021-09-08T03:59:30.000Z</time>
      </trkpt>
      <trkpt lat="45.20975" lon="5.72738">
        <ele>737.40002441406</ele>
        <time>2021-09-08T03:59:31.000Z</time>
      </trkpt>
      <trkpt lat="45.20975" lon="5.72739">
        <ele>737.59997558594</ele>
        <time>2021-09-08T03:59:32.000Z</time>
      </trkpt>
      <trkpt lat="45.20976" lon="5.7274">
        <ele>738</ele>
        <time>2021-09-08T03:59:33.000Z</time>
      </trkpt>
      <trkpt lat="45.20978" lon="5.72743">
        <ele>738.79998779297</ele>
        <time>2021-09-08T03:59:35.000Z</time>
      </trkpt>
      <trkpt lat="45.2098" lon="5.72746">
        <ele>739.40002441406</ele>
        <time>2021-09-08T03:59:37.000Z</time>
      </trkpt>
      <trkpt lat="45.20981" lon="5.72748">
        <ele>740</ele>
        <time>2021-09-08T03:59:39.000Z</time>
      </trkpt>
      <trkpt lat="45.20982" lon="5.72749">
        <ele>740.40002441406</ele>
        <time>2021-09-08T03:59:40.000Z</time>
      </trkpt>
      <trkpt lat="45.20983" lon="5.72749">
        <ele>740.59997558594</ele>
        <time>2021-09-08T03:59:41.000Z</time>
      </trkpt>
      <trkpt lat="45.20986" lon="5.72752">
        <ele>741.79998779297</ele>
        <time>2021-09-08T03:59:45.000Z</time>
      </trkpt>
      <trkpt lat="45.20987" lon="5.72754">
        <ele>742.20001220703</ele>
        <time>2021-09-08T03:59:46.000Z</time>
      </trkpt>
      <trkpt lat="45.20987" lon="5.72755">
        <ele>742.79998779297</ele>
        <time>2021-09-08T03:59:48.000Z</time>
      </trkpt>
      <trkpt lat="45.20988" lon="5.72755">
        <ele>743</ele>
        <time>2021-09-08T03:59:49.000Z</time>
      </trkpt>
      <trkpt lat="45.20988" lon="5.72755">
        <ele>743.79998779297</ele>
        <time>2021-09-08T03:59:51.000Z</time>
      </trkpt>
      <trkpt lat="45.20988" lon="5.72753">
        <ele>744.40002441406</ele>
        <time>2021-09-08T03:59:53.000Z</time>
      </trkpt>
      <trkpt lat="45.20988" lon="5.72752">
        <ele>744.79998779297</ele>
        <time>2021-09-08T03:59:56.000Z</time>
      </trkpt>
      <trkpt lat="45.20989" lon="5.72752">
        <ele>745.79998779297</ele>
        <time>2021-09-08T03:59:58.000Z</time>
      </trkpt>
      <trkpt lat="45.2099" lon="5.72752">
        <ele>746.40002441406</ele>
        <time>2021-09-08T03:59:59.000Z</time>
      </trkpt>
      <trkpt lat="45.20993" lon="5.72752">
        <ele>746.59997558594</ele>
        <time>2021-09-08T04:00:01.000Z</time>
      </trkpt>
      <trkpt lat="45.20995" lon="5.72751">
        <ele>747.79998779297</ele>
        <time>2021-09-08T04:00:04.000Z</time>
      </trkpt>
      <trkpt lat="45.20994" lon="5.72749">
        <ele>748.79998779297</ele>
        <time>2021-09-08T04:00:06.000Z</time>
      </trkpt>
      <trkpt lat="45.20995" lon="5.72746">
        <ele>749.79998779297</ele>
        <time>2021-09-08T04:00:11.000Z</time>
      </trkpt>
      <trkpt lat="45.20995" lon="5.72745">
        <ele>749.79998779297</ele>
        <time>2021-09-08T04:00:12.000Z</time>
      </trkpt>
      <trkpt lat="45.20998" lon="5.72743">
        <ele>750.40002441406</ele>
        <time>2021-09-08T04:00:14.000Z</time>
      </trkpt>
      <trkpt lat="45.20999" lon="5.72742">
        <ele>751.59997558594</ele>
        <time>2021-09-08T04:00:15.000Z</time>
      </trkpt>
      <trkpt lat="45.21001" lon="5.7274">
        <ele>752</ele>
        <time>2021-09-08T04:00:19.000Z</time>
      </trkpt>
      <trkpt lat="45.21002" lon="5.72739">
        <ele>752.79998779297</ele>
        <time>2021-09-08T04:00:21.000Z</time>
      </trkpt>
      <trkpt lat="45.21006" lon="5.72737">
        <ele>754.59997558594</ele>
        <time>2021-09-08T04:00:26.000Z</time>
      </trkpt>
      <trkpt lat="45.21007" lon="5.72736">
        <ele>754.79998779297</ele>
        <time>2021-09-08T04:00:28.000Z</time>
      </trkpt>
      <trkpt lat="45.21011" lon="5.72737">
        <ele>755.79998779297</ele>
        <time>2021-09-08T04:00:32.000Z</time>
      </trkpt>
      <trkpt lat="45.21012" lon="5.72738">
        <ele>756.79998779297</ele>
        <time>2021-09-08T04:00:33.000Z</time>
      </trkpt>
      <trkpt lat="45.21013" lon="5.72739">
        <ele>756.79998779297</ele>
        <time>2021-09-08T04:00:34.000Z</time>
      </trkpt>
      <trkpt lat="45.21014" lon="5.72739">
        <ele>757.20001220703</ele>
        <time>2021-09-08T04:00:35.000Z</time>
      </trkpt>
      <trkpt lat="45.21017" lon="5.72738">
        <ele>758</ele>
        <time>2021-09-08T04:00:38.000Z</time>
      </trkpt>
      <trkpt lat="45.21018" lon="5.72738">
        <ele>758.20001220703</ele>
        <time>2021-09-08T04:00:39.000Z</time>
      </trkpt>
      <trkpt lat="45.21019" lon="5.72739">
        <ele>758.20001220703</ele>
        <time>2021-09-08T04:00:40.000Z</time>
      </trkpt>
      <trkpt lat="45.21023" lon="5.7274">
        <ele>759.79998779297</ele>
        <time>2021-09-08T04:00:43.000Z</time>
      </trkpt>
      <trkpt lat="45.21024" lon="5.7274">
        <ele>760</ele>
        <time>2021-09-08T04:00:44.000Z</time>
      </trkpt>
      <trkpt lat="45.2103" lon="5.72739">
        <ele>761.59997558594</ele>
        <time>2021-09-08T04:00:50.000Z</time>
      </trkpt>
      <trkpt lat="45.21031" lon="5.72739">
        <ele>762</ele>
        <time>2021-09-08T04:00:51.000Z</time>
      </trkpt>
      <trkpt lat="45.21034" lon="5.72738">
        <ele>762.79998779297</ele>
        <time>2021-09-08T04:00:55.000Z</time>
      </trkpt>
      <trkpt lat="45.21035" lon="5.72738">
        <ele>762.79998779297</ele>
        <time>2021-09-08T04:00:56.000Z</time>
      </trkpt>
      <trkpt lat="45.21036" lon="5.72738">
        <ele>763.20001220703</ele>
        <time>2021-09-08T04:00:57.000Z</time>
      </trkpt>
      <trkpt lat="45.21038" lon="5.72738">
        <ele>763.59997558594</ele>
        <time>2021-09-08T04:00:58.000Z</time>
      </trkpt>
      <trkpt lat="45.21039" lon="5.72738">
        <ele>764.59997558594</ele>
        <time>2021-09-08T04:00:59.000Z</time>
      </trkpt>
      <trkpt lat="45.21041" lon="5.72739">
        <ele>764.79998779297</ele>
        <time>2021-09-08T04:01:01.000Z</time>
      </trkpt>
      <trkpt lat="45.21043" lon="5.72741">
        <ele>765</ele>
        <time>2021-09-08T04:01:03.000Z</time>
      </trkpt>
      <trkpt lat="45.21043" lon="5.72743">
        <ele>765</ele>
        <time>2021-09-08T04:01:04.000Z</time>
      </trkpt>
      <trkpt lat="45.21044" lon="5.72747">
        <ele>765.59997558594</ele>
        <time>2021-09-08T04:01:06.000Z</time>
      </trkpt>
      <trkpt lat="45.2105" lon="5.72758">
        <ele>766.40002441406</ele>
        <time>2021-09-08T04:01:11.000Z</time>
      </trkpt>
      <trkpt lat="45.21051" lon="5.7276">
        <ele>766.40002441406</ele>
        <time>2021-09-08T04:01:12.000Z</time>
      </trkpt>
      <trkpt lat="45.21052" lon="5.72761">
        <ele>766.79998779297</ele>
        <time>2021-09-08T04:01:13.000Z</time>
      </trkpt>
      <trkpt lat="45.21052" lon="5.72763">
        <ele>766.79998779297</ele>
        <time>2021-09-08T04:01:14.000Z</time>
      </trkpt>
      <trkpt lat="45.21053" lon="5.72768">
        <ele>766.79998779297</ele>
        <time>2021-09-08T04:01:16.000Z</time>
      </trkpt>
      <trkpt lat="45.21058" lon="5.72787">
        <ele>767.20001220703</ele>
        <time>2021-09-08T04:01:23.000Z</time>
      </trkpt>
      <trkpt lat="45.21058" lon="5.7279">
        <ele>767.20001220703</ele>
        <time>2021-09-08T04:01:24.000Z</time>
      </trkpt>
      <trkpt lat="45.21061" lon="5.72795">
        <ele>767.20001220703</ele>
        <time>2021-09-08T04:01:26.000Z</time>
      </trkpt>
      <trkpt lat="45.21065" lon="5.72804">
        <ele>767.20001220703</ele>
        <time>2021-09-08T04:01:29.000Z</time>
      </trkpt>
      <trkpt lat="45.21067" lon="5.72807">
        <ele>767.20001220703</ele>
        <time>2021-09-08T04:01:30.000Z</time>
      </trkpt>
      <trkpt lat="45.21067" lon="5.72811">
        <ele>767.40002441406</ele>
        <time>2021-09-08T04:01:31.000Z</time>
      </trkpt>
      <trkpt lat="45.21071" lon="5.72822">
        <ele>767.79998779297</ele>
        <time>2021-09-08T04:01:35.000Z</time>
      </trkpt>
      <trkpt lat="45.21072" lon="5.72825">
        <ele>768.20001220703</ele>
        <time>2021-09-08T04:01:36.000Z</time>
      </trkpt>
      <trkpt lat="45.21077" lon="5.72833">
        <ele>769.20001220703</ele>
        <time>2021-09-08T04:01:40.000Z</time>
      </trkpt>
      <trkpt lat="45.21078" lon="5.72834">
        <ele>769.40002441406</ele>
        <time>2021-09-08T04:01:41.000Z</time>
      </trkpt>
      <trkpt lat="45.21079" lon="5.72835">
        <ele>769.59997558594</ele>
        <time>2021-09-08T04:01:42.000Z</time>
      </trkpt>
      <trkpt lat="45.21083" lon="5.72842">
        <ele>770</ele>
        <time>2021-09-08T04:01:45.000Z</time>
      </trkpt>
      <trkpt lat="45.21088" lon="5.72848">
        <ele>770.40002441406</ele>
        <time>2021-09-08T04:01:48.000Z</time>
      </trkpt>
      <trkpt lat="45.2109" lon="5.72848">
        <ele>770.79998779297</ele>
        <time>2021-09-08T04:01:49.000Z</time>
      </trkpt>
      <trkpt lat="45.21095" lon="5.72853">
        <ele>772</ele>
        <time>2021-09-08T04:01:53.000Z</time>
      </trkpt>
      <trkpt lat="45.21096" lon="5.72854">
        <ele>772.20001220703</ele>
        <time>2021-09-08T04:01:54.000Z</time>
      </trkpt>
      <trkpt lat="45.21099" lon="5.72856">
        <ele>773.20001220703</ele>
        <time>2021-09-08T04:01:56.000Z</time>
      </trkpt>
      <trkpt lat="45.211" lon="5.72858">
        <ele>773.20001220703</ele>
        <time>2021-09-08T04:01:57.000Z</time>
      </trkpt>
      <trkpt lat="45.21103" lon="5.72861">
        <ele>773.59997558594</ele>
        <time>2021-09-08T04:01:59.000Z</time>
      </trkpt>
      <trkpt lat="45.21105" lon="5.72863">
        <ele>774</ele>
        <time>2021-09-08T04:02:00.000Z</time>
      </trkpt>
      <trkpt lat="45.21106" lon="5.72865">
        <ele>774.20001220703</ele>
        <time>2021-09-08T04:02:01.000Z</time>
      </trkpt>
      <trkpt lat="45.21109" lon="5.72869">
        <ele>774.79998779297</ele>
        <time>2021-09-08T04:02:04.000Z</time>
      </trkpt>
      <trkpt lat="45.2111" lon="5.7287">
        <ele>775.20001220703</ele>
        <time>2021-09-08T04:02:05.000Z</time>
      </trkpt>
      <trkpt lat="45.21111" lon="5.7287">
        <ele>775.20001220703</ele>
        <time>2021-09-08T04:02:06.000Z</time>
      </trkpt>
      <trkpt lat="45.21116" lon="5.72874">
        <ele>776.79998779297</ele>
        <time>2021-09-08T04:02:10.000Z</time>
      </trkpt>
      <trkpt lat="45.21118" lon="5.72876">
        <ele>777</ele>
        <time>2021-09-08T04:02:11.000Z</time>
      </trkpt>
      <trkpt lat="45.21121" lon="5.72878">
        <ele>778</ele>
        <time>2021-09-08T04:02:14.000Z</time>
      </trkpt>
      <trkpt lat="45.21127" lon="5.7288">
        <ele>779.20001220703</ele>
        <time>2021-09-08T04:02:18.000Z</time>
      </trkpt>
      <trkpt lat="45.21129" lon="5.72881">
        <ele>779.20001220703</ele>
        <time>2021-09-08T04:02:19.000Z</time>
      </trkpt>
      <trkpt lat="45.21132" lon="5.72883">
        <ele>780.40002441406</ele>
        <time>2021-09-08T04:02:21.000Z</time>
      </trkpt>
      <trkpt lat="45.21136" lon="5.72885">
        <ele>781.40002441406</ele>
        <time>2021-09-08T04:02:24.000Z</time>
      </trkpt>
      <trkpt lat="45.21137" lon="5.72885">
        <ele>781.40002441406</ele>
        <time>2021-09-08T04:02:25.000Z</time>
      </trkpt>
      <trkpt lat="45.2114" lon="5.72886">
        <ele>782.20001220703</ele>
        <time>2021-09-08T04:02:27.000Z</time>
      </trkpt>
      <trkpt lat="45.21142" lon="5.72886">
        <ele>782.79998779297</ele>
        <time>2021-09-08T04:02:28.000Z</time>
      </trkpt>
      <trkpt lat="45.21143" lon="5.72886">
        <ele>783</ele>
        <time>2021-09-08T04:02:29.000Z</time>
      </trkpt>
      <trkpt lat="45.21148" lon="5.72889">
        <ele>783.20001220703</ele>
        <time>2021-09-08T04:02:32.000Z</time>
      </trkpt>
      <trkpt lat="45.2115" lon="5.72889">
        <ele>783.40002441406</ele>
        <time>2021-09-08T04:02:33.000Z</time>
      </trkpt>
      <trkpt lat="45.21156" lon="5.72892">
        <ele>784.40002441406</ele>
        <time>2021-09-08T04:02:36.000Z</time>
      </trkpt>
      <trkpt lat="45.2116" lon="5.72894">
        <ele>785.20001220703</ele>
        <time>2021-09-08T04:02:38.000Z</time>
      </trkpt>
      <trkpt lat="45.21163" lon="5.72895">
        <ele>785.40002441406</ele>
        <time>2021-09-08T04:02:40.000Z</time>
      </trkpt>
      <trkpt lat="45.21171" lon="5.72897">
        <ele>786.59997558594</ele>
        <time>2021-09-08T04:02:43.000Z</time>
      </trkpt>
      <trkpt lat="45.21176" lon="5.72901">
        <ele>787.79998779297</ele>
        <time>2021-09-08T04:02:46.000Z</time>
      </trkpt>
      <trkpt lat="45.21182" lon="5.72909">
        <ele>788.79998779297</ele>
        <time>2021-09-08T04:02:50.000Z</time>
      </trkpt>
      <trkpt lat="45.21185" lon="5.7291">
        <ele>789</ele>
        <time>2021-09-08T04:02:52.000Z</time>
      </trkpt>
      <trkpt lat="45.21187" lon="5.72914">
        <ele>789.79998779297</ele>
        <time>2021-09-08T04:02:54.000Z</time>
      </trkpt>
      <trkpt lat="45.21189" lon="5.72916">
        <ele>790.20001220703</ele>
        <time>2021-09-08T04:02:55.000Z</time>
      </trkpt>
      <trkpt lat="45.21195" lon="5.72921">
        <ele>791.20001220703</ele>
        <time>2021-09-08T04:02:59.000Z</time>
      </trkpt>
      <trkpt lat="45.21199" lon="5.7293">
        <ele>792.59997558594</ele>
        <time>2021-09-08T04:03:03.000Z</time>
      </trkpt>
      <trkpt lat="45.21203" lon="5.72937">
        <ele>793.79998779297</ele>
        <time>2021-09-08T04:03:08.000Z</time>
      </trkpt>
      <trkpt lat="45.21211" lon="5.7294">
        <ele>795</ele>
        <time>2021-09-08T04:03:13.000Z</time>
      </trkpt>
      <trkpt lat="45.21211" lon="5.7294">
        <ele>795</ele>
        <time>2021-09-08T04:03:14.000Z</time>
      </trkpt>
      <trkpt lat="45.21208" lon="5.72936">
        <ele>796.59997558594</ele>
        <time>2021-09-08T04:03:19.000Z</time>
      </trkpt>
      <trkpt lat="45.21206" lon="5.72932">
        <ele>798</ele>
        <time>2021-09-08T04:03:23.000Z</time>
      </trkpt>
      <trkpt lat="45.21204" lon="5.72929">
        <ele>798.20001220703</ele>
        <time>2021-09-08T04:03:25.000Z</time>
      </trkpt>
      <trkpt lat="45.21204" lon="5.72925">
        <ele>798.59997558594</ele>
        <time>2021-09-08T04:03:27.000Z</time>
      </trkpt>
      <trkpt lat="45.21204" lon="5.72924">
        <ele>799.20001220703</ele>
        <time>2021-09-08T04:03:28.000Z</time>
      </trkpt>
      <trkpt lat="45.21205" lon="5.7292">
        <ele>799.59997558594</ele>
        <time>2021-09-08T04:03:30.000Z</time>
      </trkpt>
      <trkpt lat="45.21207" lon="5.72919">
        <ele>800.79998779297</ele>
        <time>2021-09-08T04:03:32.000Z</time>
      </trkpt>
      <trkpt lat="45.21209" lon="5.72919">
        <ele>800.79998779297</ele>
        <time>2021-09-08T04:03:33.000Z</time>
      </trkpt>
      <trkpt lat="45.21214" lon="5.72921">
        <ele>802</ele>
        <time>2021-09-08T04:03:37.000Z</time>
      </trkpt>
      <trkpt lat="45.21217" lon="5.72923">
        <ele>802</ele>
        <time>2021-09-08T04:03:39.000Z</time>
      </trkpt>
      <trkpt lat="45.2122" lon="5.72923">
        <ele>803.40002441406</ele>
        <time>2021-09-08T04:03:42.000Z</time>
      </trkpt>
      <trkpt lat="45.21222" lon="5.72924">
        <ele>804.40002441406</ele>
        <time>2021-09-08T04:03:45.000Z</time>
      </trkpt>
      <trkpt lat="45.21222" lon="5.72926">
        <ele>804.59997558594</ele>
        <time>2021-09-08T04:03:46.000Z</time>
      </trkpt>
      <trkpt lat="45.21229" lon="5.72933">
        <ele>805.79998779297</ele>
        <time>2021-09-08T04:03:52.000Z</time>
      </trkpt>
      <trkpt lat="45.21237" lon="5.72936">
        <ele>807.20001220703</ele>
        <time>2021-09-08T04:03:57.000Z</time>
      </trkpt>
      <trkpt lat="45.2124" lon="5.72937">
        <ele>807.40002441406</ele>
        <time>2021-09-08T04:03:59.000Z</time>
      </trkpt>
      <trkpt lat="45.21241" lon="5.72937">
        <ele>808</ele>
        <time>2021-09-08T04:04:00.000Z</time>
      </trkpt>
      <trkpt lat="45.21242" lon="5.72937">
        <ele>808.40002441406</ele>
        <time>2021-09-08T04:04:01.000Z</time>
      </trkpt>
      <trkpt lat="45.21247" lon="5.72936">
        <ele>808.79998779297</ele>
        <time>2021-09-08T04:04:04.000Z</time>
      </trkpt>
      <trkpt lat="45.21249" lon="5.72938">
        <ele>809.59997558594</ele>
        <time>2021-09-08T04:04:06.000Z</time>
      </trkpt>
      <trkpt lat="45.21253" lon="5.72941">
        <ele>810.79998779297</ele>
        <time>2021-09-08T04:04:10.000Z</time>
      </trkpt>
      <trkpt lat="45.21254" lon="5.72944">
        <ele>811.40002441406</ele>
        <time>2021-09-08T04:04:12.000Z</time>
      </trkpt>
      <trkpt lat="45.21257" lon="5.72947">
        <ele>811.59997558594</ele>
        <time>2021-09-08T04:04:14.000Z</time>
      </trkpt>
      <trkpt lat="45.21258" lon="5.72947">
        <ele>812.40002441406</ele>
        <time>2021-09-08T04:04:15.000Z</time>
      </trkpt>
      <trkpt lat="45.2126" lon="5.72947">
        <ele>812.59997558594</ele>
        <time>2021-09-08T04:04:17.000Z</time>
      </trkpt>
      <trkpt lat="45.21263" lon="5.72947">
        <ele>813.59997558594</ele>
        <time>2021-09-08T04:04:19.000Z</time>
      </trkpt>
      <trkpt lat="45.21264" lon="5.72947">
        <ele>814</ele>
        <time>2021-09-08T04:04:20.000Z</time>
      </trkpt>
      <trkpt lat="45.21266" lon="5.72947">
        <ele>814.79998779297</ele>
        <time>2021-09-08T04:04:21.000Z</time>
      </trkpt>
      <trkpt lat="45.21269" lon="5.72949">
        <ele>815</ele>
        <time>2021-09-08T04:04:23.000Z</time>
      </trkpt>
      <trkpt lat="45.21272" lon="5.72949">
        <ele>815.79998779297</ele>
        <time>2021-09-08T04:04:25.000Z</time>
      </trkpt>
      <trkpt lat="45.21274" lon="5.72951">
        <ele>816.59997558594</ele>
        <time>2021-09-08T04:04:27.000Z</time>
      </trkpt>
      <trkpt lat="45.21275" lon="5.72955">
        <ele>817.20001220703</ele>
        <time>2021-09-08T04:04:29.000Z</time>
      </trkpt>
      <trkpt lat="45.21276" lon="5.72956">
        <ele>817.20001220703</ele>
        <time>2021-09-08T04:04:30.000Z</time>
      </trkpt>
      <trkpt lat="45.21281" lon="5.72958">
        <ele>818.40002441406</ele>
        <time>2021-09-08T04:04:34.000Z</time>
      </trkpt>
      <trkpt lat="45.21283" lon="5.72961">
        <ele>819</ele>
        <time>2021-09-08T04:04:36.000Z</time>
      </trkpt>
      <trkpt lat="45.21287" lon="5.72964">
        <ele>819.40002441406</ele>
        <time>2021-09-08T04:04:39.000Z</time>
      </trkpt>
      <trkpt lat="45.2129" lon="5.72967">
        <ele>820.59997558594</ele>
        <time>2021-09-08T04:04:42.000Z</time>
      </trkpt>
      <trkpt lat="45.21293" lon="5.72971">
        <ele>821.59997558594</ele>
        <time>2021-09-08T04:04:45.000Z</time>
      </trkpt>
      <trkpt lat="45.21295" lon="5.72973">
        <ele>821.79998779297</ele>
        <time>2021-09-08T04:04:47.000Z</time>
      </trkpt>
      <trkpt lat="45.21296" lon="5.72974">
        <ele>822.59997558594</ele>
        <time>2021-09-08T04:04:48.000Z</time>
      </trkpt>
      <trkpt lat="45.21299" lon="5.72977">
        <ele>822.79998779297</ele>
        <time>2021-09-08T04:04:50.000Z</time>
      </trkpt>
      <trkpt lat="45.213" lon="5.72978">
        <ele>823</ele>
        <time>2021-09-08T04:04:51.000Z</time>
      </trkpt>
      <trkpt lat="45.21303" lon="5.72979">
        <ele>824</ele>
        <time>2021-09-08T04:04:53.000Z</time>
      </trkpt>
      <trkpt lat="45.21305" lon="5.72981">
        <ele>824</ele>
        <time>2021-09-08T04:04:55.000Z</time>
      </trkpt>
      <trkpt lat="45.21308" lon="5.72988">
        <ele>825</ele>
        <time>2021-09-08T04:04:59.000Z</time>
      </trkpt>
      <trkpt lat="45.2131" lon="5.72991">
        <ele>826</ele>
        <time>2021-09-08T04:05:01.000Z</time>
      </trkpt>
      <trkpt lat="45.21312" lon="5.72994">
        <ele>826</ele>
        <time>2021-09-08T04:05:03.000Z</time>
      </trkpt>
      <trkpt lat="45.21313" lon="5.72996">
        <ele>826</ele>
        <time>2021-09-08T04:05:04.000Z</time>
      </trkpt>
      <trkpt lat="45.21315" lon="5.72999">
        <ele>827</ele>
        <time>2021-09-08T04:05:06.000Z</time>
      </trkpt>
      <trkpt lat="45.21316" lon="5.73002">
        <ele>827.40002441406</ele>
        <time>2021-09-08T04:05:08.000Z</time>
      </trkpt>
      <trkpt lat="45.21317" lon="5.73004">
        <ele>827.59997558594</ele>
        <time>2021-09-08T04:05:09.000Z</time>
      </trkpt>
      <trkpt lat="45.21319" lon="5.73008">
        <ele>828.20001220703</ele>
        <time>2021-09-08T04:05:11.000Z</time>
      </trkpt>
      <trkpt lat="45.21321" lon="5.73011">
        <ele>829</ele>
        <time>2021-09-08T04:05:13.000Z</time>
      </trkpt>
      <trkpt lat="45.21323" lon="5.73013">
        <ele>829.40002441406</ele>
        <time>2021-09-08T04:05:14.000Z</time>
      </trkpt>
      <trkpt lat="45.21327" lon="5.73018">
        <ele>830.59997558594</ele>
        <time>2021-09-08T04:05:18.000Z</time>
      </trkpt>
      <trkpt lat="45.2133" lon="5.73024">
        <ele>831</ele>
        <time>2021-09-08T04:05:21.000Z</time>
      </trkpt>
      <trkpt lat="45.21333" lon="5.73026">
        <ele>831.79998779297</ele>
        <time>2021-09-08T04:05:23.000Z</time>
      </trkpt>
      <trkpt lat="45.21334" lon="5.73027">
        <ele>831.79998779297</ele>
        <time>2021-09-08T04:05:24.000Z</time>
      </trkpt>
      <trkpt lat="45.21335" lon="5.7303">
        <ele>832</ele>
        <time>2021-09-08T04:05:26.000Z</time>
      </trkpt>
      <trkpt lat="45.21336" lon="5.73032">
        <ele>832.59997558594</ele>
        <time>2021-09-08T04:05:27.000Z</time>
      </trkpt>
      <trkpt lat="45.21336" lon="5.73033">
        <ele>833</ele>
        <time>2021-09-08T04:05:28.000Z</time>
      </trkpt>
      <trkpt lat="45.21338" lon="5.73037">
        <ele>834.40002441406</ele>
        <time>2021-09-08T04:05:32.000Z</time>
      </trkpt>
      <trkpt lat="45.21339" lon="5.73038">
        <ele>834.79998779297</ele>
        <time>2021-09-08T04:05:33.000Z</time>
      </trkpt>
      <trkpt lat="45.21342" lon="5.73042">
        <ele>835.79998779297</ele>
        <time>2021-09-08T04:05:36.000Z</time>
      </trkpt>
      <trkpt lat="45.21346" lon="5.73045">
        <ele>836.79998779297</ele>
        <time>2021-09-08T04:05:40.000Z</time>
      </trkpt>
      <trkpt lat="45.21347" lon="5.73048">
        <ele>837.59997558594</ele>
        <time>2021-09-08T04:05:42.000Z</time>
      </trkpt>
      <trkpt lat="45.21351" lon="5.73054">
        <ele>838.59997558594</ele>
        <time>2021-09-08T04:05:45.000Z</time>
      </trkpt>
      <trkpt lat="45.21354" lon="5.73062">
        <ele>840.20001220703</ele>
        <time>2021-09-08T04:05:50.000Z</time>
      </trkpt>
      <trkpt lat="45.21355" lon="5.73064">
        <ele>840.40002441406</ele>
        <time>2021-09-08T04:05:51.000Z</time>
      </trkpt>
      <trkpt lat="45.21358" lon="5.73067">
        <ele>841.20001220703</ele>
        <time>2021-09-08T04:05:53.000Z</time>
      </trkpt>
      <trkpt lat="45.21362" lon="5.73077">
        <ele>841.59997558594</ele>
        <time>2021-09-08T04:05:58.000Z</time>
      </trkpt>
      <trkpt lat="45.21365" lon="5.73081">
        <ele>842.20001220703</ele>
        <time>2021-09-08T04:06:00.000Z</time>
      </trkpt>
      <trkpt lat="45.21373" lon="5.73091">
        <ele>842.40002441406</ele>
        <time>2021-09-08T04:06:04.000Z</time>
      </trkpt>
      <trkpt lat="45.21378" lon="5.73098">
        <ele>842.59997558594</ele>
        <time>2021-09-08T04:06:07.000Z</time>
      </trkpt>
      <trkpt lat="45.21379" lon="5.731">
        <ele>842.59997558594</ele>
        <time>2021-09-08T04:06:08.000Z</time>
      </trkpt>
      <trkpt lat="45.2138" lon="5.73103">
        <ele>842.79998779297</ele>
        <time>2021-09-08T04:06:09.000Z</time>
      </trkpt>
      <trkpt lat="45.21383" lon="5.73107">
        <ele>843.59997558594</ele>
        <time>2021-09-08T04:06:11.000Z</time>
      </trkpt>
      <trkpt lat="45.21388" lon="5.73117">
        <ele>843.79998779297</ele>
        <time>2021-09-08T04:06:15.000Z</time>
      </trkpt>
      <trkpt lat="45.21396" lon="5.73127">
        <ele>844.79998779297</ele>
        <time>2021-09-08T04:06:20.000Z</time>
      </trkpt>
      <trkpt lat="45.21399" lon="5.7313">
        <ele>844.79998779297</ele>
        <time>2021-09-08T04:06:22.000Z</time>
      </trkpt>
      <trkpt lat="45.21403" lon="5.73133">
        <ele>845.40002441406</ele>
        <time>2021-09-08T04:06:24.000Z</time>
      </trkpt>
      <trkpt lat="45.21406" lon="5.73137">
        <ele>846</ele>
        <time>2021-09-08T04:06:26.000Z</time>
      </trkpt>
      <trkpt lat="45.21407" lon="5.73142">
        <ele>846.59997558594</ele>
        <time>2021-09-08T04:06:28.000Z</time>
      </trkpt>
      <trkpt lat="45.2141" lon="5.73149">
        <ele>846.79998779297</ele>
        <time>2021-09-08T04:06:31.000Z</time>
      </trkpt>
      <trkpt lat="45.21411" lon="5.7315">
        <ele>847</ele>
        <time>2021-09-08T04:06:32.000Z</time>
      </trkpt>
      <trkpt lat="45.21412" lon="5.73151">
        <ele>847.79998779297</ele>
        <time>2021-09-08T04:06:33.000Z</time>
      </trkpt>
      <trkpt lat="45.21415" lon="5.73154">
        <ele>848.59997558594</ele>
        <time>2021-09-08T04:06:36.000Z</time>
      </trkpt>
      <trkpt lat="45.21419" lon="5.73155">
        <ele>849</ele>
        <time>2021-09-08T04:06:38.000Z</time>
      </trkpt>
      <trkpt lat="45.21428" lon="5.7316">
        <ele>850.40002441406</ele>
        <time>2021-09-08T04:06:43.000Z</time>
      </trkpt>
      <trkpt lat="45.2143" lon="5.7316">
        <ele>850.40002441406</ele>
        <time>2021-09-08T04:06:44.000Z</time>
      </trkpt>
      <trkpt lat="45.21434" lon="5.7316">
        <ele>851.20001220703</ele>
        <time>2021-09-08T04:06:47.000Z</time>
      </trkpt>
      <trkpt lat="45.21436" lon="5.7316">
        <ele>851.40002441406</ele>
        <time>2021-09-08T04:06:48.000Z</time>
      </trkpt>
      <trkpt lat="45.21438" lon="5.7316">
        <ele>852.40002441406</ele>
        <time>2021-09-08T04:06:50.000Z</time>
      </trkpt>
      <trkpt lat="45.21439" lon="5.7316">
        <ele>852.59997558594</ele>
        <time>2021-09-08T04:06:51.000Z</time>
      </trkpt>
      <trkpt lat="45.21441" lon="5.73161">
        <ele>853</ele>
        <time>2021-09-08T04:06:52.000Z</time>
      </trkpt>
      <trkpt lat="45.21442" lon="5.73163">
        <ele>853.59997558594</ele>
        <time>2021-09-08T04:06:54.000Z</time>
      </trkpt>
      <trkpt lat="45.21445" lon="5.73168">
        <ele>854.79998779297</ele>
        <time>2021-09-08T04:06:58.000Z</time>
      </trkpt>
      <trkpt lat="45.21447" lon="5.73173">
        <ele>856</ele>
        <time>2021-09-08T04:07:01.000Z</time>
      </trkpt>
      <trkpt lat="45.21448" lon="5.73178">
        <ele>856.59997558594</ele>
        <time>2021-09-08T04:07:03.000Z</time>
      </trkpt>
      <trkpt lat="45.21448" lon="5.73179">
        <ele>856.79998779297</ele>
        <time>2021-09-08T04:07:04.000Z</time>
      </trkpt>
      <trkpt lat="45.21449" lon="5.73181">
        <ele>857.20001220703</ele>
        <time>2021-09-08T04:07:05.000Z</time>
      </trkpt>
      <trkpt lat="45.2145" lon="5.73182">
        <ele>857.79998779297</ele>
        <time>2021-09-08T04:07:06.000Z</time>
      </trkpt>
      <trkpt lat="45.21454" lon="5.73183">
        <ele>858.79998779297</ele>
        <time>2021-09-08T04:07:09.000Z</time>
      </trkpt>
      <trkpt lat="45.21457" lon="5.73185">
        <ele>859.40002441406</ele>
        <time>2021-09-08T04:07:10.000Z</time>
      </trkpt>
      <trkpt lat="45.21459" lon="5.73186">
        <ele>860</ele>
        <time>2021-09-08T04:07:11.000Z</time>
      </trkpt>
      <trkpt lat="45.21465" lon="5.73193">
        <ele>861</ele>
        <time>2021-09-08T04:07:16.000Z</time>
      </trkpt>
      <trkpt lat="45.21465" lon="5.73197">
        <ele>861.79998779297</ele>
        <time>2021-09-08T04:07:18.000Z</time>
      </trkpt>
      <trkpt lat="45.21465" lon="5.73208">
        <ele>862.20001220703</ele>
        <time>2021-09-08T04:07:22.000Z</time>
      </trkpt>
      <trkpt lat="45.21465" lon="5.73212">
        <ele>862.40002441406</ele>
        <time>2021-09-08T04:07:23.000Z</time>
      </trkpt>
      <trkpt lat="45.21467" lon="5.73218">
        <ele>862.40002441406</ele>
        <time>2021-09-08T04:07:25.000Z</time>
      </trkpt>
      <trkpt lat="45.21471" lon="5.73225">
        <ele>863</ele>
        <time>2021-09-08T04:07:28.000Z</time>
      </trkpt>
      <trkpt lat="45.21475" lon="5.73231">
        <ele>863.40002441406</ele>
        <time>2021-09-08T04:07:30.000Z</time>
      </trkpt>
      <trkpt lat="45.21479" lon="5.73242">
        <ele>865.40002441406</ele>
        <time>2021-09-08T04:07:35.000Z</time>
      </trkpt>
      <trkpt lat="45.21485" lon="5.73246">
        <ele>866.59997558594</ele>
        <time>2021-09-08T04:07:39.000Z</time>
      </trkpt>
      <trkpt lat="45.21488" lon="5.73248">
        <ele>866.79998779297</ele>
        <time>2021-09-08T04:07:41.000Z</time>
      </trkpt>
      <trkpt lat="45.21489" lon="5.7325">
        <ele>867.59997558594</ele>
        <time>2021-09-08T04:07:42.000Z</time>
      </trkpt>
      <trkpt lat="45.21493" lon="5.73257">
        <ele>868.79998779297</ele>
        <time>2021-09-08T04:07:46.000Z</time>
      </trkpt>
      <trkpt lat="45.21499" lon="5.73264">
        <ele>870</ele>
        <time>2021-09-08T04:07:50.000Z</time>
      </trkpt>
      <trkpt lat="45.21502" lon="5.7327">
        <ele>870.59997558594</ele>
        <time>2021-09-08T04:07:53.000Z</time>
      </trkpt>
      <trkpt lat="45.21503" lon="5.73278">
        <ele>870.59997558594</ele>
        <time>2021-09-08T04:07:55.000Z</time>
      </trkpt>
      <trkpt lat="45.21502" lon="5.73297">
        <ele>870.40002441406</ele>
        <time>2021-09-08T04:08:00.000Z</time>
      </trkpt>
      <trkpt lat="45.21504" lon="5.73312">
        <ele>871.20001220703</ele>
        <time>2021-09-08T04:08:05.000Z</time>
      </trkpt>
      <trkpt lat="45.21507" lon="5.73319">
        <ele>872.59997558594</ele>
        <time>2021-09-08T04:08:10.000Z</time>
      </trkpt>
      <trkpt lat="45.21509" lon="5.73319">
        <ele>872.79998779297</ele>
        <time>2021-09-08T04:08:11.000Z</time>
      </trkpt>
      <trkpt lat="45.21514" lon="5.7332">
        <ele>873.20001220703</ele>
        <time>2021-09-08T04:08:14.000Z</time>
      </trkpt>
      <trkpt lat="45.21522" lon="5.73323">
        <ele>874.20001220703</ele>
        <time>2021-09-08T04:08:18.000Z</time>
      </trkpt>
      <trkpt lat="45.21525" lon="5.73324">
        <ele>874.20001220703</ele>
        <time>2021-09-08T04:08:19.000Z</time>
      </trkpt>
      <trkpt lat="45.21527" lon="5.73324">
        <ele>874.59997558594</ele>
        <time>2021-09-08T04:08:20.000Z</time>
      </trkpt>
      <trkpt lat="45.21532" lon="5.73325">
        <ele>875.40002441406</ele>
        <time>2021-09-08T04:08:23.000Z</time>
      </trkpt>
      <trkpt lat="45.21534" lon="5.73326">
        <ele>876</ele>
        <time>2021-09-08T04:08:25.000Z</time>
      </trkpt>
      <trkpt lat="45.21535" lon="5.73328">
        <ele>876</ele>
        <time>2021-09-08T04:08:27.000Z</time>
      </trkpt>
      <trkpt lat="45.21536" lon="5.73329">
        <ele>876.79998779297</ele>
        <time>2021-09-08T04:08:28.000Z</time>
      </trkpt>
      <trkpt lat="45.21537" lon="5.73328">
        <ele>877</ele>
        <time>2021-09-08T04:08:29.000Z</time>
      </trkpt>
      <trkpt lat="45.21541" lon="5.73329">
        <ele>877.59997558594</ele>
        <time>2021-09-08T04:08:31.000Z</time>
      </trkpt>
      <trkpt lat="45.21542" lon="5.73329">
        <ele>877.79998779297</ele>
        <time>2021-09-08T04:08:32.000Z</time>
      </trkpt>
      <trkpt lat="45.21543" lon="5.7333">
        <ele>878</ele>
        <time>2021-09-08T04:08:33.000Z</time>
      </trkpt>
      <trkpt lat="45.21544" lon="5.7333">
        <ele>878.20001220703</ele>
        <time>2021-09-08T04:08:34.000Z</time>
      </trkpt>
      <trkpt lat="45.21547" lon="5.73331">
        <ele>878.59997558594</ele>
        <time>2021-09-08T04:08:36.000Z</time>
      </trkpt>
      <trkpt lat="45.21549" lon="5.73333">
        <ele>879.40002441406</ele>
        <time>2021-09-08T04:08:38.000Z</time>
      </trkpt>
      <trkpt lat="45.21555" lon="5.73335">
        <ele>880</ele>
        <time>2021-09-08T04:08:42.000Z</time>
      </trkpt>
      <trkpt lat="45.21557" lon="5.73336">
        <ele>880</ele>
        <time>2021-09-08T04:08:43.000Z</time>
      </trkpt>
      <trkpt lat="45.21559" lon="5.7334">
        <ele>880.79998779297</ele>
        <time>2021-09-08T04:08:45.000Z</time>
      </trkpt>
      <trkpt lat="45.2156" lon="5.73344">
        <ele>881</ele>
        <time>2021-09-08T04:08:47.000Z</time>
      </trkpt>
      <trkpt lat="45.21567" lon="5.73349">
        <ele>882</ele>
        <time>2021-09-08T04:08:51.000Z</time>
      </trkpt>
      <trkpt lat="45.21569" lon="5.7335">
        <ele>882.20001220703</ele>
        <time>2021-09-08T04:08:52.000Z</time>
      </trkpt>
      <trkpt lat="45.21571" lon="5.73353">
        <ele>882.79998779297</ele>
        <time>2021-09-08T04:08:54.000Z</time>
      </trkpt>
      <trkpt lat="45.21573" lon="5.73353">
        <ele>883.40002441406</ele>
        <time>2021-09-08T04:08:55.000Z</time>
      </trkpt>
      <trkpt lat="45.21578" lon="5.73356">
        <ele>884.40002441406</ele>
        <time>2021-09-08T04:08:58.000Z</time>
      </trkpt>
      <trkpt lat="45.21581" lon="5.73357">
        <ele>885</ele>
        <time>2021-09-08T04:09:00.000Z</time>
      </trkpt>
      <trkpt lat="45.21586" lon="5.73362">
        <ele>885.20001220703</ele>
        <time>2021-09-08T04:09:03.000Z</time>
      </trkpt>
      <trkpt lat="45.21591" lon="5.73364">
        <ele>886</ele>
        <time>2021-09-08T04:09:05.000Z</time>
      </trkpt>
      <trkpt lat="45.21594" lon="5.73367">
        <ele>887.20001220703</ele>
        <time>2021-09-08T04:09:07.000Z</time>
      </trkpt>
      <trkpt lat="45.21599" lon="5.73373">
        <ele>887.40002441406</ele>
        <time>2021-09-08T04:09:11.000Z</time>
      </trkpt>
      <trkpt lat="45.21603" lon="5.73375">
        <ele>888.40002441406</ele>
        <time>2021-09-08T04:09:13.000Z</time>
      </trkpt>
      <trkpt lat="45.21608" lon="5.73379">
        <ele>889.20001220703</ele>
        <time>2021-09-08T04:09:16.000Z</time>
      </trkpt>
      <trkpt lat="45.21609" lon="5.7338">
        <ele>889.59997558594</ele>
        <time>2021-09-08T04:09:17.000Z</time>
      </trkpt>
      <trkpt lat="45.21616" lon="5.73386">
        <ele>890.59997558594</ele>
        <time>2021-09-08T04:09:22.000Z</time>
      </trkpt>
      <trkpt lat="45.21618" lon="5.73387">
        <ele>890.59997558594</ele>
        <time>2021-09-08T04:09:23.000Z</time>
      </trkpt>
      <trkpt lat="45.21625" lon="5.73392">
        <ele>891.79998779297</ele>
        <time>2021-09-08T04:09:27.000Z</time>
      </trkpt>
      <trkpt lat="45.21632" lon="5.734">
        <ele>893</ele>
        <time>2021-09-08T04:09:32.000Z</time>
      </trkpt>
      <trkpt lat="45.21639" lon="5.73411">
        <ele>894</ele>
        <time>2021-09-08T04:09:37.000Z</time>
      </trkpt>
      <trkpt lat="45.21644" lon="5.73419">
        <ele>894.20001220703</ele>
        <time>2021-09-08T04:09:40.000Z</time>
      </trkpt>
      <trkpt lat="45.21652" lon="5.7343">
        <ele>895</ele>
        <time>2021-09-08T04:09:45.000Z</time>
      </trkpt>
      <trkpt lat="45.21653" lon="5.73432">
        <ele>895.40002441406</ele>
        <time>2021-09-08T04:09:46.000Z</time>
      </trkpt>
      <trkpt lat="45.21656" lon="5.73447">
        <ele>896</ele>
        <time>2021-09-08T04:09:51.000Z</time>
      </trkpt>
      <trkpt lat="45.21658" lon="5.73455">
        <ele>896.59997558594</ele>
        <time>2021-09-08T04:09:53.000Z</time>
      </trkpt>
      <trkpt lat="45.21663" lon="5.73472">
        <ele>897.79998779297</ele>
        <time>2021-09-08T04:09:59.000Z</time>
      </trkpt>
      <trkpt lat="45.21664" lon="5.73481">
        <ele>898.59997558594</ele>
        <time>2021-09-08T04:10:02.000Z</time>
      </trkpt>
      <trkpt lat="45.21666" lon="5.73487">
        <ele>898.79998779297</ele>
        <time>2021-09-08T04:10:04.000Z</time>
      </trkpt>
      <trkpt lat="45.21666" lon="5.73488">
        <ele>899.40002441406</ele>
        <time>2021-09-08T04:10:05.000Z</time>
      </trkpt>
      <trkpt lat="45.21667" lon="5.73488">
        <ele>899.40002441406</ele>
        <time>2021-09-08T04:10:06.000Z</time>
      </trkpt>
      <trkpt lat="45.21668" lon="5.73486">
        <ele>900</ele>
        <time>2021-09-08T04:10:08.000Z</time>
      </trkpt>
      <trkpt lat="45.21667" lon="5.73482">
        <ele>900.59997558594</ele>
        <time>2021-09-08T04:10:11.000Z</time>
      </trkpt>
      <trkpt lat="45.21667" lon="5.73475">
        <ele>901.20001220703</ele>
        <time>2021-09-08T04:10:14.000Z</time>
      </trkpt>
      <trkpt lat="45.21665" lon="5.73463">
        <ele>902.59997558594</ele>
        <time>2021-09-08T04:10:20.000Z</time>
      </trkpt>
      <trkpt lat="45.21666" lon="5.73454">
        <ele>903.59997558594</ele>
        <time>2021-09-08T04:10:24.000Z</time>
      </trkpt>
      <trkpt lat="45.21667" lon="5.73448">
        <ele>904.20001220703</ele>
        <time>2021-09-08T04:10:27.000Z</time>
      </trkpt>
      <trkpt lat="45.21668" lon="5.73444">
        <ele>904.79998779297</ele>
        <time>2021-09-08T04:10:29.000Z</time>
      </trkpt>
      <trkpt lat="45.2167" lon="5.73435">
        <ele>906.20001220703</ele>
        <time>2021-09-08T04:10:34.000Z</time>
      </trkpt>
      <trkpt lat="45.21671" lon="5.73432">
        <ele>906.40002441406</ele>
        <time>2021-09-08T04:10:36.000Z</time>
      </trkpt>
      <trkpt lat="45.2167" lon="5.73428">
        <ele>907.40002441406</ele>
        <time>2021-09-08T04:10:39.000Z</time>
      </trkpt>
      <trkpt lat="45.21669" lon="5.73423">
        <ele>908</ele>
        <time>2021-09-08T04:10:41.000Z</time>
      </trkpt>
      <trkpt lat="45.21669" lon="5.73419">
        <ele>908.59997558594</ele>
        <time>2021-09-08T04:10:43.000Z</time>
      </trkpt>
      <trkpt lat="45.21668" lon="5.73415">
        <ele>909</ele>
        <time>2021-09-08T04:10:46.000Z</time>
      </trkpt>
      <trkpt lat="45.21668" lon="5.73414">
        <ele>909.79998779297</ele>
        <time>2021-09-08T04:10:47.000Z</time>
      </trkpt>
      <trkpt lat="45.21668" lon="5.73412">
        <ele>910</ele>
        <time>2021-09-08T04:10:48.000Z</time>
      </trkpt>
      <trkpt lat="45.21666" lon="5.73409">
        <ele>910.20001220703</ele>
        <time>2021-09-08T04:10:50.000Z</time>
      </trkpt>
      <trkpt lat="45.21665" lon="5.73406">
        <ele>911</ele>
        <time>2021-09-08T04:10:51.000Z</time>
      </trkpt>
      <trkpt lat="45.21665" lon="5.73404">
        <ele>911.59997558594</ele>
        <time>2021-09-08T04:10:52.000Z</time>
      </trkpt>
      <trkpt lat="45.21665" lon="5.73402">
        <ele>911.79998779297</ele>
        <time>2021-09-08T04:10:53.000Z</time>
      </trkpt>
      <trkpt lat="45.21663" lon="5.73398">
        <ele>912.40002441406</ele>
        <time>2021-09-08T04:10:55.000Z</time>
      </trkpt>
      <trkpt lat="45.2166" lon="5.73393">
        <ele>913.59997558594</ele>
        <time>2021-09-08T04:10:58.000Z</time>
      </trkpt>
      <trkpt lat="45.21659" lon="5.73391">
        <ele>913.79998779297</ele>
        <time>2021-09-08T04:10:59.000Z</time>
      </trkpt>
      <trkpt lat="45.2166" lon="5.73382">
        <ele>914.79998779297</ele>
        <time>2021-09-08T04:11:03.000Z</time>
      </trkpt>
      <trkpt lat="45.21659" lon="5.73379">
        <ele>916</ele>
        <time>2021-09-08T04:11:05.000Z</time>
      </trkpt>
      <trkpt lat="45.21658" lon="5.73377">
        <ele>916</ele>
        <time>2021-09-08T04:11:06.000Z</time>
      </trkpt>
      <trkpt lat="45.21655" lon="5.73374">
        <ele>916.79998779297</ele>
        <time>2021-09-08T04:11:09.000Z</time>
      </trkpt>
      <trkpt lat="45.21655" lon="5.73372">
        <ele>917</ele>
        <time>2021-09-08T04:11:10.000Z</time>
      </trkpt>
      <trkpt lat="45.21654" lon="5.73371">
        <ele>917</ele>
        <time>2021-09-08T04:11:11.000Z</time>
      </trkpt>
      <trkpt lat="45.21653" lon="5.7337">
        <ele>917.40002441406</ele>
        <time>2021-09-08T04:11:12.000Z</time>
      </trkpt>
      <trkpt lat="45.21653" lon="5.73368">
        <ele>918.20001220703</ele>
        <time>2021-09-08T04:11:13.000Z</time>
      </trkpt>
      <trkpt lat="45.21652" lon="5.73365">
        <ele>918.40002441406</ele>
        <time>2021-09-08T04:11:15.000Z</time>
      </trkpt>
      <trkpt lat="45.2165" lon="5.73363">
        <ele>919.40002441406</ele>
        <time>2021-09-08T04:11:17.000Z</time>
      </trkpt>
      <trkpt lat="45.21649" lon="5.7336">
        <ele>920.20001220703</ele>
        <time>2021-09-08T04:11:19.000Z</time>
      </trkpt>
      <trkpt lat="45.21649" lon="5.73356">
        <ele>920.40002441406</ele>
        <time>2021-09-08T04:11:21.000Z</time>
      </trkpt>
      <trkpt lat="45.21648" lon="5.73355">
        <ele>921</ele>
        <time>2021-09-08T04:11:22.000Z</time>
      </trkpt>
      <trkpt lat="45.21647" lon="5.73354">
        <ele>921.40002441406</ele>
        <time>2021-09-08T04:11:23.000Z</time>
      </trkpt>
      <trkpt lat="45.21643" lon="5.7335">
        <ele>922.59997558594</ele>
        <time>2021-09-08T04:11:27.000Z</time>
      </trkpt>
      <trkpt lat="45.21642" lon="5.73344">
        <ele>924.20001220703</ele>
        <time>2021-09-08T04:11:32.000Z</time>
      </trkpt>
      <trkpt lat="45.21641" lon="5.73338">
        <ele>925</ele>
        <time>2021-09-08T04:11:36.000Z</time>
      </trkpt>
      <trkpt lat="45.2164" lon="5.73337">
        <ele>925.79998779297</ele>
        <time>2021-09-08T04:11:37.000Z</time>
      </trkpt>
      <trkpt lat="45.21639" lon="5.73336">
        <ele>925.79998779297</ele>
        <time>2021-09-08T04:11:38.000Z</time>
      </trkpt>
      <trkpt lat="45.21639" lon="5.73332">
        <ele>926.40002441406</ele>
        <time>2021-09-08T04:11:40.000Z</time>
      </trkpt>
      <trkpt lat="45.21638" lon="5.7333">
        <ele>926.40002441406</ele>
        <time>2021-09-08T04:11:41.000Z</time>
      </trkpt>
      <trkpt lat="45.21638" lon="5.73328">
        <ele>926.79998779297</ele>
        <time>2021-09-08T04:11:42.000Z</time>
      </trkpt>
      <trkpt lat="45.21636" lon="5.7332">
        <ele>928</ele>
        <time>2021-09-08T04:11:46.000Z</time>
      </trkpt>
      <trkpt lat="45.21635" lon="5.73318">
        <ele>928.40002441406</ele>
        <time>2021-09-08T04:11:47.000Z</time>
      </trkpt>
      <trkpt lat="45.21634" lon="5.73315">
        <ele>928.79998779297</ele>
        <time>2021-09-08T04:11:48.000Z</time>
      </trkpt>
      <trkpt lat="45.21633" lon="5.73313">
        <ele>929</ele>
        <time>2021-09-08T04:11:49.000Z</time>
      </trkpt>
      <trkpt lat="45.21633" lon="5.7331">
        <ele>929</ele>
        <time>2021-09-08T04:11:50.000Z</time>
      </trkpt>
      <trkpt lat="45.21631" lon="5.73305">
        <ele>930.20001220703</ele>
        <time>2021-09-08T04:11:53.000Z</time>
      </trkpt>
      <trkpt lat="45.2163" lon="5.73299">
        <ele>930.40002441406</ele>
        <time>2021-09-08T04:11:56.000Z</time>
      </trkpt>
      <trkpt lat="45.21629" lon="5.73295">
        <ele>931.40002441406</ele>
        <time>2021-09-08T04:11:58.000Z</time>
      </trkpt>
      <trkpt lat="45.21628" lon="5.73293">
        <ele>931.40002441406</ele>
        <time>2021-09-08T04:11:59.000Z</time>
      </trkpt>
      <trkpt lat="45.21624" lon="5.73287">
        <ele>932.20001220703</ele>
        <time>2021-09-08T04:12:03.000Z</time>
      </trkpt>
      <trkpt lat="45.21623" lon="5.73284">
        <ele>932.20001220703</ele>
        <time>2021-09-08T04:12:04.000Z</time>
      </trkpt>
      <trkpt lat="45.21622" lon="5.73282">
        <ele>932.40002441406</ele>
        <time>2021-09-08T04:12:05.000Z</time>
      </trkpt>
      <trkpt lat="45.21615" lon="5.73273">
        <ele>933.40002441406</ele>
        <time>2021-09-08T04:12:10.000Z</time>
      </trkpt>
      <trkpt lat="45.21614" lon="5.73268">
        <ele>934</ele>
        <time>2021-09-08T04:12:13.000Z</time>
      </trkpt>
      <trkpt lat="45.21613" lon="5.73266">
        <ele>934.40002441406</ele>
        <time>2021-09-08T04:12:14.000Z</time>
      </trkpt>
      <trkpt lat="45.21609" lon="5.73258">
        <ele>936.20001220703</ele>
        <time>2021-09-08T04:12:19.000Z</time>
      </trkpt>
      <trkpt lat="45.21608" lon="5.73257">
        <ele>936.40002441406</ele>
        <time>2021-09-08T04:12:20.000Z</time>
      </trkpt>
      <trkpt lat="45.21606" lon="5.73253">
        <ele>937.20001220703</ele>
        <time>2021-09-08T04:12:23.000Z</time>
      </trkpt>
      <trkpt lat="45.21605" lon="5.73251">
        <ele>937.79998779297</ele>
        <time>2021-09-08T04:12:24.000Z</time>
      </trkpt>
      <trkpt lat="45.21604" lon="5.73248">
        <ele>938.20001220703</ele>
        <time>2021-09-08T04:12:26.000Z</time>
      </trkpt>
      <trkpt lat="45.21603" lon="5.73244">
        <ele>939.40002441406</ele>
        <time>2021-09-08T04:12:29.000Z</time>
      </trkpt>
      <trkpt lat="45.21603" lon="5.7324">
        <ele>940</ele>
        <time>2021-09-08T04:12:31.000Z</time>
      </trkpt>
      <trkpt lat="45.21602" lon="5.7324">
        <ele>940</ele>
        <time>2021-09-08T04:12:32.000Z</time>
      </trkpt>
      <trkpt lat="45.21601" lon="5.73239">
        <ele>940.79998779297</ele>
        <time>2021-09-08T04:12:33.000Z</time>
      </trkpt>
      <trkpt lat="45.21601" lon="5.73237">
        <ele>941</ele>
        <time>2021-09-08T04:12:34.000Z</time>
      </trkpt>
      <trkpt lat="45.21599" lon="5.73234">
        <ele>941.59997558594</ele>
        <time>2021-09-08T04:12:37.000Z</time>
      </trkpt>
      <trkpt lat="45.21598" lon="5.73232">
        <ele>941.79998779297</ele>
        <time>2021-09-08T04:12:38.000Z</time>
      </trkpt>
      <trkpt lat="45.21598" lon="5.73231">
        <ele>942.79998779297</ele>
        <time>2021-09-08T04:12:39.000Z</time>
      </trkpt>
      <trkpt lat="45.21595" lon="5.7323">
        <ele>942.79998779297</ele>
        <time>2021-09-08T04:12:41.000Z</time>
      </trkpt>
      <trkpt lat="45.21594" lon="5.7323">
        <ele>943.20001220703</ele>
        <time>2021-09-08T04:12:42.000Z</time>
      </trkpt>
      <trkpt lat="45.21593" lon="5.73229">
        <ele>943.20001220703</ele>
        <time>2021-09-08T04:12:43.000Z</time>
      </trkpt>
      <trkpt lat="45.21592" lon="5.73229">
        <ele>943.40002441406</ele>
        <time>2021-09-08T04:12:44.000Z</time>
      </trkpt>
      <trkpt lat="45.2159" lon="5.73224">
        <ele>944.20001220703</ele>
        <time>2021-09-08T04:12:47.000Z</time>
      </trkpt>
      <trkpt lat="45.21585" lon="5.73218">
        <ele>945.20001220703</ele>
        <time>2021-09-08T04:12:52.000Z</time>
      </trkpt>
      <trkpt lat="45.21584" lon="5.73216">
        <ele>945.40002441406</ele>
        <time>2021-09-08T04:12:53.000Z</time>
      </trkpt>
      <trkpt lat="45.21579" lon="5.73207">
        <ele>946.59997558594</ele>
        <time>2021-09-08T04:12:58.000Z</time>
      </trkpt>
      <trkpt lat="45.21574" lon="5.73203">
        <ele>947.59997558594</ele>
        <time>2021-09-08T04:13:02.000Z</time>
      </trkpt>
      <trkpt lat="45.21572" lon="5.73202">
        <ele>948</ele>
        <time>2021-09-08T04:13:03.000Z</time>
      </trkpt>
      <trkpt lat="45.21564" lon="5.73196">
        <ele>949.59997558594</ele>
        <time>2021-09-08T04:13:09.000Z</time>
      </trkpt>
      <trkpt lat="45.21562" lon="5.73193">
        <ele>950.40002441406</ele>
        <time>2021-09-08T04:13:11.000Z</time>
      </trkpt>
      <trkpt lat="45.21561" lon="5.73192">
        <ele>950.59997558594</ele>
        <time>2021-09-08T04:13:12.000Z</time>
      </trkpt>
      <trkpt lat="45.21561" lon="5.73187">
        <ele>952</ele>
        <time>2021-09-08T04:13:15.000Z</time>
      </trkpt>
      <trkpt lat="45.21562" lon="5.73184">
        <ele>952.79998779297</ele>
        <time>2021-09-08T04:13:17.000Z</time>
      </trkpt>
      <trkpt lat="45.21562" lon="5.73181">
        <ele>953</ele>
        <time>2021-09-08T04:13:19.000Z</time>
      </trkpt>
      <trkpt lat="45.21561" lon="5.73177">
        <ele>953.59997558594</ele>
        <time>2021-09-08T04:13:22.000Z</time>
      </trkpt>
      <trkpt lat="45.2156" lon="5.73175">
        <ele>954.20001220703</ele>
        <time>2021-09-08T04:13:23.000Z</time>
      </trkpt>
      <trkpt lat="45.2156" lon="5.73172">
        <ele>955.20001220703</ele>
        <time>2021-09-08T04:13:25.000Z</time>
      </trkpt>
      <trkpt lat="45.2156" lon="5.73171">
        <ele>955.40002441406</ele>
        <time>2021-09-08T04:13:26.000Z</time>
      </trkpt>
      <trkpt lat="45.21563" lon="5.73166">
        <ele>956.79998779297</ele>
        <time>2021-09-08T04:13:29.000Z</time>
      </trkpt>
      <trkpt lat="45.21565" lon="5.73166">
        <ele>957.20001220703</ele>
        <time>2021-09-08T04:13:31.000Z</time>
      </trkpt>
      <trkpt lat="45.21566" lon="5.73165">
        <ele>958</ele>
        <time>2021-09-08T04:13:33.000Z</time>
      </trkpt>
      <trkpt lat="45.21566" lon="5.73162">
        <ele>959</ele>
        <time>2021-09-08T04:13:35.000Z</time>
      </trkpt>
      <trkpt lat="45.21566" lon="5.7316">
        <ele>959</ele>
        <time>2021-09-08T04:13:36.000Z</time>
      </trkpt>
      <trkpt lat="45.21566" lon="5.73156">
        <ele>960.40002441406</ele>
        <time>2021-09-08T04:13:39.000Z</time>
      </trkpt>
      <trkpt lat="45.21567" lon="5.73154">
        <ele>961.20001220703</ele>
        <time>2021-09-08T04:13:41.000Z</time>
      </trkpt>
      <trkpt lat="45.21567" lon="5.73152">
        <ele>961.40002441406</ele>
        <time>2021-09-08T04:13:43.000Z</time>
      </trkpt>
      <trkpt lat="45.21567" lon="5.73151">
        <ele>961.59997558594</ele>
        <time>2021-09-08T04:13:44.000Z</time>
      </trkpt>
      <trkpt lat="45.21566" lon="5.73152">
        <ele>962.59997558594</ele>
        <time>2021-09-08T04:13:46.000Z</time>
      </trkpt>
      <trkpt lat="45.21567" lon="5.7315">
        <ele>963.59997558594</ele>
        <time>2021-09-08T04:13:47.000Z</time>
      </trkpt>
      <trkpt lat="45.21568" lon="5.7315">
        <ele>963.79998779297</ele>
        <time>2021-09-08T04:13:48.000Z</time>
      </trkpt>
      <trkpt lat="45.21571" lon="5.73146">
        <ele>964.40002441406</ele>
        <time>2021-09-08T04:13:51.000Z</time>
      </trkpt>
      <trkpt lat="45.21571" lon="5.73145">
        <ele>964.79998779297</ele>
        <time>2021-09-08T04:13:52.000Z</time>
      </trkpt>
      <trkpt lat="45.21572" lon="5.73143">
        <ele>965.59997558594</ele>
        <time>2021-09-08T04:13:54.000Z</time>
      </trkpt>
      <trkpt lat="45.21572" lon="5.73142">
        <ele>965.79998779297</ele>
        <time>2021-09-08T04:13:55.000Z</time>
      </trkpt>
      <trkpt lat="45.21572" lon="5.73141">
        <ele>966</ele>
        <time>2021-09-08T04:13:56.000Z</time>
      </trkpt>
      <trkpt lat="45.21571" lon="5.73137">
        <ele>967</ele>
        <time>2021-09-08T04:14:00.000Z</time>
      </trkpt>
      <trkpt lat="45.21572" lon="5.73136">
        <ele>967.79998779297</ele>
        <time>2021-09-08T04:14:01.000Z</time>
      </trkpt>
      <trkpt lat="45.21573" lon="5.73132">
        <ele>968.20001220703</ele>
        <time>2021-09-08T04:14:03.000Z</time>
      </trkpt>
      <trkpt lat="45.21574" lon="5.73129">
        <ele>969.40002441406</ele>
        <time>2021-09-08T04:14:05.000Z</time>
      </trkpt>
      <trkpt lat="45.21576" lon="5.73126">
        <ele>970</ele>
        <time>2021-09-08T04:14:07.000Z</time>
      </trkpt>
      <trkpt lat="45.21578" lon="5.73123">
        <ele>970.20001220703</ele>
        <time>2021-09-08T04:14:09.000Z</time>
      </trkpt>
      <trkpt lat="45.2158" lon="5.73122">
        <ele>970.79998779297</ele>
        <time>2021-09-08T04:14:10.000Z</time>
      </trkpt>
      <trkpt lat="45.21583" lon="5.73119">
        <ele>971.79998779297</ele>
        <time>2021-09-08T04:14:12.000Z</time>
      </trkpt>
      <trkpt lat="45.21585" lon="5.73117">
        <ele>971.79998779297</ele>
        <time>2021-09-08T04:14:13.000Z</time>
      </trkpt>
      <trkpt lat="45.21589" lon="5.73118">
        <ele>972.59997558594</ele>
        <time>2021-09-08T04:14:16.000Z</time>
      </trkpt>
      <trkpt lat="45.21592" lon="5.7312">
        <ele>972.79998779297</ele>
        <time>2021-09-08T04:14:18.000Z</time>
      </trkpt>
      <trkpt lat="45.21598" lon="5.73123">
        <ele>973</ele>
        <time>2021-09-08T04:14:22.000Z</time>
      </trkpt>
      <trkpt lat="45.21602" lon="5.73125">
        <ele>974</ele>
        <time>2021-09-08T04:14:25.000Z</time>
      </trkpt>
      <trkpt lat="45.21604" lon="5.73126">
        <ele>974</ele>
        <time>2021-09-08T04:14:26.000Z</time>
      </trkpt>
      <trkpt lat="45.21608" lon="5.73126">
        <ele>975.20001220703</ele>
        <time>2021-09-08T04:14:28.000Z</time>
      </trkpt>
      <trkpt lat="45.21614" lon="5.73127">
        <ele>976.79998779297</ele>
        <time>2021-09-08T04:14:32.000Z</time>
      </trkpt>
      <trkpt lat="45.21615" lon="5.73128">
        <ele>977</ele>
        <time>2021-09-08T04:14:33.000Z</time>
      </trkpt>
      <trkpt lat="45.21618" lon="5.73129">
        <ele>977.59997558594</ele>
        <time>2021-09-08T04:14:35.000Z</time>
      </trkpt>
      <trkpt lat="45.2162" lon="5.73131">
        <ele>978</ele>
        <time>2021-09-08T04:14:36.000Z</time>
      </trkpt>
      <trkpt lat="45.21621" lon="5.73132">
        <ele>978.20001220703</ele>
        <time>2021-09-08T04:14:37.000Z</time>
      </trkpt>
      <trkpt lat="45.21625" lon="5.73134">
        <ele>979.20001220703</ele>
        <time>2021-09-08T04:14:41.000Z</time>
      </trkpt>
      <trkpt lat="45.21629" lon="5.73133">
        <ele>980</ele>
        <time>2021-09-08T04:14:44.000Z</time>
      </trkpt>
      <trkpt lat="45.2163" lon="5.73133">
        <ele>981.20001220703</ele>
        <time>2021-09-08T04:14:45.000Z</time>
      </trkpt>
      <trkpt lat="45.21635" lon="5.73132">
        <ele>983.20001220703</ele>
        <time>2021-09-08T04:14:50.000Z</time>
      </trkpt>
      <trkpt lat="45.21637" lon="5.73131">
        <ele>983.20001220703</ele>
        <time>2021-09-08T04:14:52.000Z</time>
      </trkpt>
      <trkpt lat="45.2164" lon="5.7313">
        <ele>984.20001220703</ele>
        <time>2021-09-08T04:14:55.000Z</time>
      </trkpt>
      <trkpt lat="45.21643" lon="5.73131">
        <ele>985</ele>
        <time>2021-09-08T04:14:58.000Z</time>
      </trkpt>
      <trkpt lat="45.21644" lon="5.73131">
        <ele>985.59997558594</ele>
        <time>2021-09-08T04:14:59.000Z</time>
      </trkpt>
      <trkpt lat="45.21645" lon="5.73131">
        <ele>986</ele>
        <time>2021-09-08T04:15:00.000Z</time>
      </trkpt>
      <trkpt lat="45.21649" lon="5.73134">
        <ele>986.59997558594</ele>
        <time>2021-09-08T04:15:03.000Z</time>
      </trkpt>
      <trkpt lat="45.21651" lon="5.73134">
        <ele>987.59997558594</ele>
        <time>2021-09-08T04:15:05.000Z</time>
      </trkpt>
      <trkpt lat="45.21654" lon="5.73132">
        <ele>987.79998779297</ele>
        <time>2021-09-08T04:15:07.000Z</time>
      </trkpt>
      <trkpt lat="45.21655" lon="5.73132">
        <ele>988.59997558594</ele>
        <time>2021-09-08T04:15:09.000Z</time>
      </trkpt>
      <trkpt lat="45.21656" lon="5.73132">
        <ele>989.20001220703</ele>
        <time>2021-09-08T04:15:10.000Z</time>
      </trkpt>
      <trkpt lat="45.21656" lon="5.73132">
        <ele>989.40002441406</ele>
        <time>2021-09-08T04:15:11.000Z</time>
      </trkpt>
      <trkpt lat="45.21657" lon="5.73133">
        <ele>989.59997558594</ele>
        <time>2021-09-08T04:15:12.000Z</time>
      </trkpt>
      <trkpt lat="45.21661" lon="5.73136">
        <ele>990.79998779297</ele>
        <time>2021-09-08T04:15:16.000Z</time>
      </trkpt>
      <trkpt lat="45.21662" lon="5.73137">
        <ele>990.79998779297</ele>
        <time>2021-09-08T04:15:17.000Z</time>
      </trkpt>
      <trkpt lat="45.21664" lon="5.73137">
        <ele>991.40002441406</ele>
        <time>2021-09-08T04:15:19.000Z</time>
      </trkpt>
      <trkpt lat="45.21666" lon="5.73138">
        <ele>992</ele>
        <time>2021-09-08T04:15:20.000Z</time>
      </trkpt>
      <trkpt lat="45.21671" lon="5.73143">
        <ele>993.79998779297</ele>
        <time>2021-09-08T04:15:25.000Z</time>
      </trkpt>
      <trkpt lat="45.21672" lon="5.73144">
        <ele>993.79998779297</ele>
        <time>2021-09-08T04:15:26.000Z</time>
      </trkpt>
      <trkpt lat="45.21673" lon="5.73147">
        <ele>995.40002441406</ele>
        <time>2021-09-08T04:15:29.000Z</time>
      </trkpt>
      <trkpt lat="45.21673" lon="5.73148">
        <ele>995.40002441406</ele>
        <time>2021-09-08T04:15:30.000Z</time>
      </trkpt>
      <trkpt lat="45.21674" lon="5.73154">
        <ele>996.79998779297</ele>
        <time>2021-09-08T04:15:35.000Z</time>
      </trkpt>
      <trkpt lat="45.21675" lon="5.73154">
        <ele>997.20001220703</ele>
        <time>2021-09-08T04:15:36.000Z</time>
      </trkpt>
      <trkpt lat="45.21676" lon="5.73158">
        <ele>997.79998779297</ele>
        <time>2021-09-08T04:15:39.000Z</time>
      </trkpt>
      <trkpt lat="45.21677" lon="5.7316">
        <ele>998.79998779297</ele>
        <time>2021-09-08T04:15:41.000Z</time>
      </trkpt>
      <trkpt lat="45.21678" lon="5.73161">
        <ele>998.79998779297</ele>
        <time>2021-09-08T04:15:42.000Z</time>
      </trkpt>
      <trkpt lat="45.21679" lon="5.73167">
        <ele>1000.5999755859</ele>
        <time>2021-09-08T04:15:46.000Z</time>
      </trkpt>
      <trkpt lat="45.21681" lon="5.73169">
        <ele>1001.200012207</ele>
        <time>2021-09-08T04:15:48.000Z</time>
      </trkpt>
      <trkpt lat="45.21683" lon="5.73172">
        <ele>1001.5999755859</ele>
        <time>2021-09-08T04:15:51.000Z</time>
      </trkpt>
      <trkpt lat="45.21685" lon="5.73174">
        <ele>1002.4000244141</ele>
        <time>2021-09-08T04:15:53.000Z</time>
      </trkpt>
      <trkpt lat="45.21686" lon="5.73176">
        <ele>1002.799987793</ele>
        <time>2021-09-08T04:15:54.000Z</time>
      </trkpt>
      <trkpt lat="45.21687" lon="5.73179">
        <ele>1003</ele>
        <time>2021-09-08T04:15:56.000Z</time>
      </trkpt>
      <trkpt lat="45.2169" lon="5.73182">
        <ele>1003.799987793</ele>
        <time>2021-09-08T04:15:58.000Z</time>
      </trkpt>
      <trkpt lat="45.21696" lon="5.73191">
        <ele>1004.200012207</ele>
        <time>2021-09-08T04:16:03.000Z</time>
      </trkpt>
      <trkpt lat="45.21701" lon="5.73199">
        <ele>1004.799987793</ele>
        <time>2021-09-08T04:16:07.000Z</time>
      </trkpt>
      <trkpt lat="45.21702" lon="5.73202">
        <ele>1005</ele>
        <time>2021-09-08T04:16:09.000Z</time>
      </trkpt>
      <trkpt lat="45.21703" lon="5.73204">
        <ele>1005.200012207</ele>
        <time>2021-09-08T04:16:10.000Z</time>
      </trkpt>
      <trkpt lat="45.21712" lon="5.73211">
        <ele>1006</ele>
        <time>2021-09-08T04:16:16.000Z</time>
      </trkpt>
      <trkpt lat="45.21713" lon="5.73213">
        <ele>1006.5999755859</ele>
        <time>2021-09-08T04:16:18.000Z</time>
      </trkpt>
      <trkpt lat="45.21714" lon="5.73213">
        <ele>1007.200012207</ele>
        <time>2021-09-08T04:16:19.000Z</time>
      </trkpt>
      <trkpt lat="45.21715" lon="5.73213">
        <ele>1007.799987793</ele>
        <time>2021-09-08T04:16:20.000Z</time>
      </trkpt>
      <trkpt lat="45.21717" lon="5.73213">
        <ele>1008.4000244141</ele>
        <time>2021-09-08T04:16:22.000Z</time>
      </trkpt>
      <trkpt lat="45.2172" lon="5.73209">
        <ele>1009.5999755859</ele>
        <time>2021-09-08T04:16:27.000Z</time>
      </trkpt>
      <trkpt lat="45.21722" lon="5.73208">
        <ele>1010.799987793</ele>
        <time>2021-09-08T04:16:29.000Z</time>
      </trkpt>
      <trkpt lat="45.21723" lon="5.73207">
        <ele>1010.799987793</ele>
        <time>2021-09-08T04:16:30.000Z</time>
      </trkpt>
      <trkpt lat="45.2173" lon="5.73201">
        <ele>1011.4000244141</ele>
        <time>2021-09-08T04:16:35.000Z</time>
      </trkpt>
      <trkpt lat="45.21738" lon="5.732">
        <ele>1011.200012207</ele>
        <time>2021-09-08T04:16:41.000Z</time>
      </trkpt>
      <trkpt lat="45.21741" lon="5.73199">
        <ele>1011</ele>
        <time>2021-09-08T04:16:43.000Z</time>
      </trkpt>
      <trkpt lat="45.21749" lon="5.73204">
        <ele>1011</ele>
        <time>2021-09-08T04:16:48.000Z</time>
      </trkpt>
      <trkpt lat="45.2175" lon="5.73205">
        <ele>1011.799987793</ele>
        <time>2021-09-08T04:16:50.000Z</time>
      </trkpt>
      <trkpt lat="45.21751" lon="5.73207">
        <ele>1012</ele>
        <time>2021-09-08T04:16:51.000Z</time>
      </trkpt>
      <trkpt lat="45.21752" lon="5.7321">
        <ele>1012.200012207</ele>
        <time>2021-09-08T04:16:52.000Z</time>
      </trkpt>
      <trkpt lat="45.21754" lon="5.73216">
        <ele>1012.799987793</ele>
        <time>2021-09-08T04:16:54.000Z</time>
      </trkpt>
      <trkpt lat="45.21755" lon="5.73217">
        <ele>1014.200012207</ele>
        <time>2021-09-08T04:16:56.000Z</time>
      </trkpt>
      <trkpt lat="45.21757" lon="5.73218">
        <ele>1014.4000244141</ele>
        <time>2021-09-08T04:16:58.000Z</time>
      </trkpt>
      <trkpt lat="45.21759" lon="5.73222">
        <ele>1015</ele>
        <time>2021-09-08T04:17:01.000Z</time>
      </trkpt>
      <trkpt lat="45.21764" lon="5.73229">
        <ele>1015.4000244141</ele>
        <time>2021-09-08T04:17:05.000Z</time>
      </trkpt>
      <trkpt lat="45.21765" lon="5.7323">
        <ele>1015.200012207</ele>
        <time>2021-09-08T04:17:06.000Z</time>
      </trkpt>
      <trkpt lat="45.21767" lon="5.73229">
        <ele>1015.4000244141</ele>
        <time>2021-09-08T04:17:09.000Z</time>
      </trkpt>
      <trkpt lat="45.21776" lon="5.73243">
        <ele>1016.4000244141</ele>
        <time>2021-09-08T04:17:15.000Z</time>
      </trkpt>
      <trkpt lat="45.2178" lon="5.7325">
        <ele>1017.5999755859</ele>
        <time>2021-09-08T04:17:19.000Z</time>
      </trkpt>
      <trkpt lat="45.21782" lon="5.73254">
        <ele>1018.4000244141</ele>
        <time>2021-09-08T04:17:22.000Z</time>
      </trkpt>
      <trkpt lat="45.21781" lon="5.73256">
        <ele>1019.4000244141</ele>
        <time>2021-09-08T04:17:23.000Z</time>
      </trkpt>
      <trkpt lat="45.21777" lon="5.73265">
        <ele>1020</ele>
        <time>2021-09-08T04:17:27.000Z</time>
      </trkpt>
      <trkpt lat="45.21777" lon="5.7327">
        <ele>1020.799987793</ele>
        <time>2021-09-08T04:17:29.000Z</time>
      </trkpt>
      <trkpt lat="45.2178" lon="5.73274">
        <ele>1021</ele>
        <time>2021-09-08T04:17:32.000Z</time>
      </trkpt>
      <trkpt lat="45.21783" lon="5.73275">
        <ele>1021.4000244141</ele>
        <time>2021-09-08T04:17:34.000Z</time>
      </trkpt>
      <trkpt lat="45.21786" lon="5.73277">
        <ele>1022.5999755859</ele>
        <time>2021-09-08T04:17:36.000Z</time>
      </trkpt>
      <trkpt lat="45.21791" lon="5.73281">
        <ele>1023.5999755859</ele>
        <time>2021-09-08T04:17:39.000Z</time>
      </trkpt>
      <trkpt lat="45.21792" lon="5.73282">
        <ele>1023.5999755859</ele>
        <time>2021-09-08T04:17:40.000Z</time>
      </trkpt>
      <trkpt lat="45.21794" lon="5.73284">
        <ele>1024.1999511719</ele>
        <time>2021-09-08T04:17:41.000Z</time>
      </trkpt>
      <trkpt lat="45.21796" lon="5.73288">
        <ele>1025</ele>
        <time>2021-09-08T04:17:43.000Z</time>
      </trkpt>
      <trkpt lat="45.218" lon="5.73291">
        <ele>1025.1999511719</ele>
        <time>2021-09-08T04:17:45.000Z</time>
      </trkpt>
      <trkpt lat="45.21803" lon="5.73293">
        <ele>1025.5999755859</ele>
        <time>2021-09-08T04:17:47.000Z</time>
      </trkpt>
      <trkpt lat="45.21806" lon="5.73297">
        <ele>1025.8000488281</ele>
        <time>2021-09-08T04:17:49.000Z</time>
      </trkpt>
      <trkpt lat="45.21808" lon="5.73301">
        <ele>1026.4000244141</ele>
        <time>2021-09-08T04:17:51.000Z</time>
      </trkpt>
      <trkpt lat="45.21811" lon="5.73303">
        <ele>1027.4000244141</ele>
        <time>2021-09-08T04:17:53.000Z</time>
      </trkpt>
      <trkpt lat="45.21813" lon="5.73304">
        <ele>1027.4000244141</ele>
        <time>2021-09-08T04:17:54.000Z</time>
      </trkpt>
      <trkpt lat="45.21817" lon="5.73306">
        <ele>1028.1999511719</ele>
        <time>2021-09-08T04:17:57.000Z</time>
      </trkpt>
      <trkpt lat="45.21818" lon="5.73308">
        <ele>1028.8000488281</ele>
        <time>2021-09-08T04:17:58.000Z</time>
      </trkpt>
      <trkpt lat="45.2182" lon="5.7331">
        <ele>1029.5999755859</ele>
        <time>2021-09-08T04:18:00.000Z</time>
      </trkpt>
      <trkpt lat="45.21822" lon="5.73311">
        <ele>1029.8000488281</ele>
        <time>2021-09-08T04:18:01.000Z</time>
      </trkpt>
      <trkpt lat="45.21826" lon="5.73315">
        <ele>1030.4000244141</ele>
        <time>2021-09-08T04:18:04.000Z</time>
      </trkpt>
      <trkpt lat="45.21827" lon="5.73316">
        <ele>1031</ele>
        <time>2021-09-08T04:18:05.000Z</time>
      </trkpt>
      <trkpt lat="45.21832" lon="5.73321">
        <ele>1032.1999511719</ele>
        <time>2021-09-08T04:18:08.000Z</time>
      </trkpt>
      <trkpt lat="45.21834" lon="5.73324">
        <ele>1032.1999511719</ele>
        <time>2021-09-08T04:18:09.000Z</time>
      </trkpt>
      <trkpt lat="45.21835" lon="5.73326">
        <ele>1032.5999755859</ele>
        <time>2021-09-08T04:18:10.000Z</time>
      </trkpt>
      <trkpt lat="45.21844" lon="5.73336">
        <ele>1032.8000488281</ele>
        <time>2021-09-08T04:18:16.000Z</time>
      </trkpt>
      <trkpt lat="45.21844" lon="5.73337">
        <ele>1032.8000488281</ele>
        <time>2021-09-08T04:18:18.000Z</time>
      </trkpt>
      <trkpt lat="45.21842" lon="5.73338">
        <ele>1032.5999755859</ele>
        <time>2021-09-08T04:18:20.000Z</time>
      </trkpt>
      <trkpt lat="45.21842" lon="5.73339">
        <ele>1032.5999755859</ele>
        <time>2021-09-08T04:18:21.000Z</time>
      </trkpt>
      <trkpt lat="45.21841" lon="5.73349">
        <ele>1032</ele>
        <time>2021-09-08T04:18:27.000Z</time>
      </trkpt>
      <trkpt lat="45.21841" lon="5.73353">
        <ele>1031.8000488281</ele>
        <time>2021-09-08T04:18:34.000Z</time>
      </trkpt>
      <trkpt lat="45.21841" lon="5.73353">
        <ele>1031.5999755859</ele>
        <time>2021-09-08T04:18:39.000Z</time>
      </trkpt>
      <trkpt lat="45.21841" lon="5.73352">
        <ele>1031.5999755859</ele>
        <time>2021-09-08T04:18:42.000Z</time>
      </trkpt>
      <trkpt lat="45.21841" lon="5.73352">
        <ele>1031.8000488281</ele>
        <time>2021-09-08T04:18:44.000Z</time>
      </trkpt>
      <trkpt lat="45.21841" lon="5.73352">
        <ele>1031.8000488281</ele>
        <time>2021-09-08T04:18:46.000Z</time>
      </trkpt>
      <trkpt lat="45.21841" lon="5.73352">
        <ele>1031.8000488281</ele>
        <time>2021-09-08T04:18:49.000Z</time>
      </trkpt>
      <trkpt lat="45.21843" lon="5.73348">
        <ele>1032</ele>
        <time>2021-09-08T04:18:52.000Z</time>
      </trkpt>
      <trkpt lat="45.21848" lon="5.73346">
        <ele>1032.5999755859</ele>
        <time>2021-09-08T04:18:57.000Z</time>
      </trkpt>
      <trkpt lat="45.21848" lon="5.73346">
        <ele>1032.5999755859</ele>
        <time>2021-09-08T04:18:58.000Z</time>
      </trkpt>
      <trkpt lat="45.21843" lon="5.73346">
        <ele>1032.1999511719</ele>
        <time>2021-09-08T04:19:02.000Z</time>
      </trkpt>
      <trkpt lat="45.21842" lon="5.73345">
        <ele>1032.1999511719</ele>
        <time>2021-09-08T04:19:03.000Z</time>
      </trkpt>
      <trkpt lat="45.21838" lon="5.7334">
        <ele>1031.1999511719</ele>
        <time>2021-09-08T04:19:06.000Z</time>
      </trkpt>
      <trkpt lat="45.21837" lon="5.73339">
        <ele>1031</ele>
        <time>2021-09-08T04:19:07.000Z</time>
      </trkpt>
      <trkpt lat="45.21831" lon="5.73332">
        <ele>1030.5999755859</ele>
        <time>2021-09-08T04:19:11.000Z</time>
      </trkpt>
      <trkpt lat="45.21829" lon="5.73328">
        <ele>1030</ele>
        <time>2021-09-08T04:19:13.000Z</time>
      </trkpt>
      <trkpt lat="45.21826" lon="5.73323">
        <ele>1028.8000488281</ele>
        <time>2021-09-08T04:19:16.000Z</time>
      </trkpt>
      <trkpt lat="45.21823" lon="5.7332">
        <ele>1028.1999511719</ele>
        <time>2021-09-08T04:19:18.000Z</time>
      </trkpt>
      <trkpt lat="45.21822" lon="5.73318">
        <ele>1027.5999755859</ele>
        <time>2021-09-08T04:19:20.000Z</time>
      </trkpt>
      <trkpt lat="45.21821" lon="5.73316">
        <ele>1027.5999755859</ele>
        <time>2021-09-08T04:19:21.000Z</time>
      </trkpt>
      <trkpt lat="45.21817" lon="5.73314">
        <ele>1026.5999755859</ele>
        <time>2021-09-08T04:19:23.000Z</time>
      </trkpt>
      <trkpt lat="45.21816" lon="5.73313">
        <ele>1026.4000244141</ele>
        <time>2021-09-08T04:19:24.000Z</time>
      </trkpt>
      <trkpt lat="45.21811" lon="5.7331">
        <ele>1025.4000244141</ele>
        <time>2021-09-08T04:19:27.000Z</time>
      </trkpt>
      <trkpt lat="45.21811" lon="5.73308">
        <ele>1025.1999511719</ele>
        <time>2021-09-08T04:19:28.000Z</time>
      </trkpt>
      <trkpt lat="45.2181" lon="5.73305">
        <ele>1025</ele>
        <time>2021-09-08T04:19:29.000Z</time>
      </trkpt>
      <trkpt lat="45.21809" lon="5.73303">
        <ele>1024.5999755859</ele>
        <time>2021-09-08T04:19:30.000Z</time>
      </trkpt>
      <trkpt lat="45.21805" lon="5.733">
        <ele>1024.1999511719</ele>
        <time>2021-09-08T04:19:32.000Z</time>
      </trkpt>
      <trkpt lat="45.21801" lon="5.73298">
        <ele>1023.799987793</ele>
        <time>2021-09-08T04:19:34.000Z</time>
      </trkpt>
      <trkpt lat="45.21797" lon="5.73294">
        <ele>1023.4000244141</ele>
        <time>2021-09-08T04:19:36.000Z</time>
      </trkpt>
      <trkpt lat="45.21795" lon="5.73291">
        <ele>1022.5999755859</ele>
        <time>2021-09-08T04:19:38.000Z</time>
      </trkpt>
      <trkpt lat="45.21791" lon="5.73287">
        <ele>1021.4000244141</ele>
        <time>2021-09-08T04:19:41.000Z</time>
      </trkpt>
      <trkpt lat="45.21787" lon="5.73283">
        <ele>1020.799987793</ele>
        <time>2021-09-08T04:19:44.000Z</time>
      </trkpt>
      <trkpt lat="45.21785" lon="5.73279">
        <ele>1020</ele>
        <time>2021-09-08T04:19:47.000Z</time>
      </trkpt>
      <trkpt lat="45.21784" lon="5.73279">
        <ele>1019.799987793</ele>
        <time>2021-09-08T04:19:48.000Z</time>
      </trkpt>
      <trkpt lat="45.21781" lon="5.73279">
        <ele>1018.799987793</ele>
        <time>2021-09-08T04:19:50.000Z</time>
      </trkpt>
      <trkpt lat="45.21779" lon="5.73277">
        <ele>1018.799987793</ele>
        <time>2021-09-08T04:19:51.000Z</time>
      </trkpt>
      <trkpt lat="45.21777" lon="5.73272">
        <ele>1018.4000244141</ele>
        <time>2021-09-08T04:19:53.000Z</time>
      </trkpt>
      <trkpt lat="45.21778" lon="5.7327">
        <ele>1018.4000244141</ele>
        <time>2021-09-08T04:19:54.000Z</time>
      </trkpt>
      <trkpt lat="45.2178" lon="5.73267">
        <ele>1018.200012207</ele>
        <time>2021-09-08T04:19:56.000Z</time>
      </trkpt>
      <trkpt lat="45.21781" lon="5.73265">
        <ele>1018.200012207</ele>
        <time>2021-09-08T04:19:57.000Z</time>
      </trkpt>
      <trkpt lat="45.21781" lon="5.73263">
        <ele>1017.4000244141</ele>
        <time>2021-09-08T04:19:58.000Z</time>
      </trkpt>
      <trkpt lat="45.21782" lon="5.73262">
        <ele>1017.4000244141</ele>
        <time>2021-09-08T04:19:59.000Z</time>
      </trkpt>
      <trkpt lat="45.21781" lon="5.73261">
        <ele>1017</ele>
        <time>2021-09-08T04:20:00.000Z</time>
      </trkpt>
      <trkpt lat="45.21779" lon="5.73256">
        <ele>1016.4000244141</ele>
        <time>2021-09-08T04:20:03.000Z</time>
      </trkpt>
      <trkpt lat="45.21778" lon="5.73252">
        <ele>1015.5999755859</ele>
        <time>2021-09-08T04:20:05.000Z</time>
      </trkpt>
      <trkpt lat="45.21777" lon="5.7325">
        <ele>1015</ele>
        <time>2021-09-08T04:20:06.000Z</time>
      </trkpt>
      <trkpt lat="45.21777" lon="5.73249">
        <ele>1015</ele>
        <time>2021-09-08T04:20:07.000Z</time>
      </trkpt>
      <trkpt lat="45.21776" lon="5.73248">
        <ele>1014.799987793</ele>
        <time>2021-09-08T04:20:08.000Z</time>
      </trkpt>
      <trkpt lat="45.21775" lon="5.73243">
        <ele>1014</ele>
        <time>2021-09-08T04:20:10.000Z</time>
      </trkpt>
      <trkpt lat="45.21772" lon="5.73239">
        <ele>1013.5999755859</ele>
        <time>2021-09-08T04:20:13.000Z</time>
      </trkpt>
      <trkpt lat="45.21764" lon="5.73229">
        <ele>1013.799987793</ele>
        <time>2021-09-08T04:20:20.000Z</time>
      </trkpt>
      <trkpt lat="45.21763" lon="5.73228">
        <ele>1013.799987793</ele>
        <time>2021-09-08T04:20:21.000Z</time>
      </trkpt>
      <trkpt lat="45.21761" lon="5.73227">
        <ele>1013.5999755859</ele>
        <time>2021-09-08T04:20:23.000Z</time>
      </trkpt>
      <trkpt lat="45.21759" lon="5.73224">
        <ele>1013.4000244141</ele>
        <time>2021-09-08T04:20:25.000Z</time>
      </trkpt>
      <trkpt lat="45.21759" lon="5.73221">
        <ele>1012.799987793</ele>
        <time>2021-09-08T04:20:27.000Z</time>
      </trkpt>
      <trkpt lat="45.21757" lon="5.73218">
        <ele>1011.5999755859</ele>
        <time>2021-09-08T04:20:31.000Z</time>
      </trkpt>
      <trkpt lat="45.21755" lon="5.73215">
        <ele>1010.799987793</ele>
        <time>2021-09-08T04:20:33.000Z</time>
      </trkpt>
      <trkpt lat="45.21754" lon="5.73214">
        <ele>1010.5999755859</ele>
        <time>2021-09-08T04:20:34.000Z</time>
      </trkpt>
      <trkpt lat="45.2175" lon="5.73209">
        <ele>1010.4000244141</ele>
        <time>2021-09-08T04:20:37.000Z</time>
      </trkpt>
      <trkpt lat="45.21744" lon="5.73207">
        <ele>1010.4000244141</ele>
        <time>2021-09-08T04:20:41.000Z</time>
      </trkpt>
      <trkpt lat="45.21742" lon="5.73208">
        <ele>1011</ele>
        <time>2021-09-08T04:20:43.000Z</time>
      </trkpt>
      <trkpt lat="45.21737" lon="5.73209">
        <ele>1011.200012207</ele>
        <time>2021-09-08T04:20:46.000Z</time>
      </trkpt>
      <trkpt lat="45.21736" lon="5.73212">
        <ele>1011</ele>
        <time>2021-09-08T04:20:49.000Z</time>
      </trkpt>
      <trkpt lat="45.21733" lon="5.73215">
        <ele>1010.200012207</ele>
        <time>2021-09-08T04:20:53.000Z</time>
      </trkpt>
      <trkpt lat="45.21733" lon="5.73216">
        <ele>1009.799987793</ele>
        <time>2021-09-08T04:20:54.000Z</time>
      </trkpt>
      <trkpt lat="45.21732" lon="5.73217">
        <ele>1009.799987793</ele>
        <time>2021-09-08T04:20:55.000Z</time>
      </trkpt>
      <trkpt lat="45.21731" lon="5.73218">
        <ele>1009.4000244141</ele>
        <time>2021-09-08T04:20:57.000Z</time>
      </trkpt>
      <trkpt lat="45.2173" lon="5.7322">
        <ele>1008.5999755859</ele>
        <time>2021-09-08T04:20:59.000Z</time>
      </trkpt>
      <trkpt lat="45.21729" lon="5.7322">
        <ele>1008.5999755859</ele>
        <time>2021-09-08T04:21:00.000Z</time>
      </trkpt>
      <trkpt lat="45.21727" lon="5.7322">
        <ele>1008.200012207</ele>
        <time>2021-09-08T04:21:01.000Z</time>
      </trkpt>
      <trkpt lat="45.21726" lon="5.73221">
        <ele>1007.5999755859</ele>
        <time>2021-09-08T04:21:02.000Z</time>
      </trkpt>
      <trkpt lat="45.21723" lon="5.7322">
        <ele>1007</ele>
        <time>2021-09-08T04:21:04.000Z</time>
      </trkpt>
      <trkpt lat="45.21719" lon="5.73218">
        <ele>1006.4000244141</ele>
        <time>2021-09-08T04:21:07.000Z</time>
      </trkpt>
      <trkpt lat="45.21716" lon="5.73216">
        <ele>1005.799987793</ele>
        <time>2021-09-08T04:21:08.000Z</time>
      </trkpt>
      <trkpt lat="45.2171" lon="5.73211">
        <ele>1005.200012207</ele>
        <time>2021-09-08T04:21:11.000Z</time>
      </trkpt>
      <trkpt lat="45.21708" lon="5.73207">
        <ele>1004.799987793</ele>
        <time>2021-09-08T04:21:13.000Z</time>
      </trkpt>
      <trkpt lat="45.21707" lon="5.73203">
        <ele>1004.799987793</ele>
        <time>2021-09-08T04:21:15.000Z</time>
      </trkpt>
      <trkpt lat="45.21705" lon="5.73199">
        <ele>1004.5999755859</ele>
        <time>2021-09-08T04:21:17.000Z</time>
      </trkpt>
      <trkpt lat="45.21704" lon="5.73197">
        <ele>1005.5999755859</ele>
        <time>2021-09-08T04:21:18.000Z</time>
      </trkpt>
      <trkpt lat="45.217" lon="5.73192">
        <ele>1005.5999755859</ele>
        <time>2021-09-08T04:21:20.000Z</time>
      </trkpt>
      <trkpt lat="45.21697" lon="5.73189">
        <ele>1005.5999755859</ele>
        <time>2021-09-08T04:21:22.000Z</time>
      </trkpt>
      <trkpt lat="45.21693" lon="5.73184">
        <ele>1004.5999755859</ele>
        <time>2021-09-08T04:21:26.000Z</time>
      </trkpt>
      <trkpt lat="45.21692" lon="5.73183">
        <ele>1004.200012207</ele>
        <time>2021-09-08T04:21:27.000Z</time>
      </trkpt>
      <trkpt lat="45.21689" lon="5.73179">
        <ele>1003.4000244141</ele>
        <time>2021-09-08T04:21:30.000Z</time>
      </trkpt>
      <trkpt lat="45.21685" lon="5.73174">
        <ele>1002.5999755859</ele>
        <time>2021-09-08T04:21:34.000Z</time>
      </trkpt>
      <trkpt lat="45.21684" lon="5.73173">
        <ele>1002.200012207</ele>
        <time>2021-09-08T04:21:35.000Z</time>
      </trkpt>
      <trkpt lat="45.21684" lon="5.73172">
        <ele>1002.200012207</ele>
        <time>2021-09-08T04:21:36.000Z</time>
      </trkpt>
      <trkpt lat="45.21683" lon="5.73171">
        <ele>1001.200012207</ele>
        <time>2021-09-08T04:21:37.000Z</time>
      </trkpt>
      <trkpt lat="45.21682" lon="5.7317">
        <ele>1001.200012207</ele>
        <time>2021-09-08T04:21:38.000Z</time>
      </trkpt>
      <trkpt lat="45.21681" lon="5.7317">
        <ele>1001</ele>
        <time>2021-09-08T04:21:39.000Z</time>
      </trkpt>
      <trkpt lat="45.21679" lon="5.73167">
        <ele>999.59997558594</ele>
        <time>2021-09-08T04:21:41.000Z</time>
      </trkpt>
      <trkpt lat="45.21676" lon="5.73161">
        <ele>998.79998779297</ele>
        <time>2021-09-08T04:21:45.000Z</time>
      </trkpt>
      <trkpt lat="45.21676" lon="5.7316">
        <ele>998.59997558594</ele>
        <time>2021-09-08T04:21:46.000Z</time>
      </trkpt>
      <trkpt lat="45.21675" lon="5.73159">
        <ele>998.40002441406</ele>
        <time>2021-09-08T04:21:47.000Z</time>
      </trkpt>
      <trkpt lat="45.21674" lon="5.73153">
        <ele>997.40002441406</ele>
        <time>2021-09-08T04:21:50.000Z</time>
      </trkpt>
      <trkpt lat="45.21673" lon="5.73152">
        <ele>997.40002441406</ele>
        <time>2021-09-08T04:21:51.000Z</time>
      </trkpt>
      <trkpt lat="45.21671" lon="5.73149">
        <ele>996</ele>
        <time>2021-09-08T04:21:54.000Z</time>
      </trkpt>
      <trkpt lat="45.2167" lon="5.73147">
        <ele>995</ele>
        <time>2021-09-08T04:21:56.000Z</time>
      </trkpt>
      <trkpt lat="45.21669" lon="5.73145">
        <ele>994.59997558594</ele>
        <time>2021-09-08T04:21:58.000Z</time>
      </trkpt>
      <trkpt lat="45.21666" lon="5.73144">
        <ele>994</ele>
        <time>2021-09-08T04:22:01.000Z</time>
      </trkpt>
      <trkpt lat="45.21663" lon="5.73144">
        <ele>992.79998779297</ele>
        <time>2021-09-08T04:22:03.000Z</time>
      </trkpt>
      <trkpt lat="45.21662" lon="5.73144">
        <ele>992.79998779297</ele>
        <time>2021-09-08T04:22:04.000Z</time>
      </trkpt>
      <trkpt lat="45.21661" lon="5.73143">
        <ele>991.59997558594</ele>
        <time>2021-09-08T04:22:06.000Z</time>
      </trkpt>
      <trkpt lat="45.21661" lon="5.73143">
        <ele>991.20001220703</ele>
        <time>2021-09-08T04:22:07.000Z</time>
      </trkpt>
      <trkpt lat="45.2166" lon="5.73143">
        <ele>991.20001220703</ele>
        <time>2021-09-08T04:22:08.000Z</time>
      </trkpt>
      <trkpt lat="45.21656" lon="5.7314">
        <ele>989.40002441406</ele>
        <time>2021-09-08T04:22:11.000Z</time>
      </trkpt>
      <trkpt lat="45.21653" lon="5.7314">
        <ele>989.20001220703</ele>
        <time>2021-09-08T04:22:13.000Z</time>
      </trkpt>
      <trkpt lat="45.21649" lon="5.7314">
        <ele>987.79998779297</ele>
        <time>2021-09-08T04:22:15.000Z</time>
      </trkpt>
      <trkpt lat="45.21645" lon="5.7314">
        <ele>986.59997558594</ele>
        <time>2021-09-08T04:22:17.000Z</time>
      </trkpt>
      <trkpt lat="45.21644" lon="5.73139">
        <ele>986.40002441406</ele>
        <time>2021-09-08T04:22:18.000Z</time>
      </trkpt>
      <trkpt lat="45.21643" lon="5.73139">
        <ele>985.79998779297</ele>
        <time>2021-09-08T04:22:20.000Z</time>
      </trkpt>
      <trkpt lat="45.21642" lon="5.73139">
        <ele>985.40002441406</ele>
        <time>2021-09-08T04:22:21.000Z</time>
      </trkpt>
      <trkpt lat="45.21639" lon="5.7314">
        <ele>984</ele>
        <time>2021-09-08T04:22:24.000Z</time>
      </trkpt>
      <trkpt lat="45.21633" lon="5.7314">
        <ele>982.40002441406</ele>
        <time>2021-09-08T04:22:27.000Z</time>
      </trkpt>
      <trkpt lat="45.21631" lon="5.7314">
        <ele>982.20001220703</ele>
        <time>2021-09-08T04:22:28.000Z</time>
      </trkpt>
      <trkpt lat="45.21629" lon="5.73139">
        <ele>981.59997558594</ele>
        <time>2021-09-08T04:22:29.000Z</time>
      </trkpt>
      <trkpt lat="45.21627" lon="5.73138">
        <ele>981.20001220703</ele>
        <time>2021-09-08T04:22:30.000Z</time>
      </trkpt>
      <trkpt lat="45.21621" lon="5.73136">
        <ele>979.59997558594</ele>
        <time>2021-09-08T04:22:33.000Z</time>
      </trkpt>
      <trkpt lat="45.21614" lon="5.73134">
        <ele>979.20001220703</ele>
        <time>2021-09-08T04:22:36.000Z</time>
      </trkpt>
      <trkpt lat="45.21612" lon="5.73133">
        <ele>978.59997558594</ele>
        <time>2021-09-08T04:22:37.000Z</time>
      </trkpt>
      <trkpt lat="45.21609" lon="5.73131">
        <ele>978.20001220703</ele>
        <time>2021-09-08T04:22:39.000Z</time>
      </trkpt>
      <trkpt lat="45.21607" lon="5.7313">
        <ele>978.20001220703</ele>
        <time>2021-09-08T04:22:40.000Z</time>
      </trkpt>
      <trkpt lat="45.21605" lon="5.73129">
        <ele>976.79998779297</ele>
        <time>2021-09-08T04:22:41.000Z</time>
      </trkpt>
      <trkpt lat="45.21597" lon="5.73122">
        <ele>975.20001220703</ele>
        <time>2021-09-08T04:22:45.000Z</time>
      </trkpt>
      <trkpt lat="45.21594" lon="5.7312">
        <ele>975.20001220703</ele>
        <time>2021-09-08T04:22:47.000Z</time>
      </trkpt>
      <trkpt lat="45.21593" lon="5.7312">
        <ele>975.20001220703</ele>
        <time>2021-09-08T04:22:48.000Z</time>
      </trkpt>
      <trkpt lat="45.2159" lon="5.73122">
        <ele>973.59997558594</ele>
        <time>2021-09-08T04:22:51.000Z</time>
      </trkpt>
      <trkpt lat="45.21587" lon="5.73124">
        <ele>973</ele>
        <time>2021-09-08T04:22:53.000Z</time>
      </trkpt>
      <trkpt lat="45.21586" lon="5.73124">
        <ele>972.79998779297</ele>
        <time>2021-09-08T04:22:54.000Z</time>
      </trkpt>
      <trkpt lat="45.21585" lon="5.73126">
        <ele>972.40002441406</ele>
        <time>2021-09-08T04:22:55.000Z</time>
      </trkpt>
      <trkpt lat="45.21583" lon="5.73127">
        <ele>971.40002441406</ele>
        <time>2021-09-08T04:22:57.000Z</time>
      </trkpt>
      <trkpt lat="45.21583" lon="5.73131">
        <ele>970.59997558594</ele>
        <time>2021-09-08T04:22:59.000Z</time>
      </trkpt>
      <trkpt lat="45.21582" lon="5.73133">
        <ele>969.40002441406</ele>
        <time>2021-09-08T04:23:00.000Z</time>
      </trkpt>
      <trkpt lat="45.21583" lon="5.73136">
        <ele>969.40002441406</ele>
        <time>2021-09-08T04:23:02.000Z</time>
      </trkpt>
      <trkpt lat="45.21583" lon="5.73139">
        <ele>969.40002441406</ele>
        <time>2021-09-08T04:23:04.000Z</time>
      </trkpt>
      <trkpt lat="45.21582" lon="5.7314">
        <ele>968</ele>
        <time>2021-09-08T04:23:05.000Z</time>
      </trkpt>
      <trkpt lat="45.21582" lon="5.7314">
        <ele>968</ele>
        <time>2021-09-08T04:23:06.000Z</time>
      </trkpt>
      <trkpt lat="45.2158" lon="5.73141">
        <ele>966.59997558594</ele>
        <time>2021-09-08T04:23:09.000Z</time>
      </trkpt>
      <trkpt lat="45.21579" lon="5.73143">
        <ele>966</ele>
        <time>2021-09-08T04:23:11.000Z</time>
      </trkpt>
      <trkpt lat="45.21579" lon="5.73144">
        <ele>965.40002441406</ele>
        <time>2021-09-08T04:23:12.000Z</time>
      </trkpt>
      <trkpt lat="45.21579" lon="5.73146">
        <ele>965</ele>
        <time>2021-09-08T04:23:13.000Z</time>
      </trkpt>
      <trkpt lat="45.21578" lon="5.73148">
        <ele>964.40002441406</ele>
        <time>2021-09-08T04:23:14.000Z</time>
      </trkpt>
      <trkpt lat="45.21578" lon="5.73149">
        <ele>963.59997558594</ele>
        <time>2021-09-08T04:23:15.000Z</time>
      </trkpt>
      <trkpt lat="45.21578" lon="5.73151">
        <ele>963.20001220703</ele>
        <time>2021-09-08T04:23:17.000Z</time>
      </trkpt>
      <trkpt lat="45.21578" lon="5.73154">
        <ele>962.40002441406</ele>
        <time>2021-09-08T04:23:19.000Z</time>
      </trkpt>
      <trkpt lat="45.21577" lon="5.73156">
        <ele>962</ele>
        <time>2021-09-08T04:23:21.000Z</time>
      </trkpt>
      <trkpt lat="45.21576" lon="5.73157">
        <ele>961.20001220703</ele>
        <time>2021-09-08T04:23:23.000Z</time>
      </trkpt>
      <trkpt lat="45.21575" lon="5.73157">
        <ele>960.40002441406</ele>
        <time>2021-09-08T04:23:24.000Z</time>
      </trkpt>
      <trkpt lat="45.21575" lon="5.73157">
        <ele>960.20001220703</ele>
        <time>2021-09-08T04:23:25.000Z</time>
      </trkpt>
      <trkpt lat="45.21573" lon="5.73161">
        <ele>959.59997558594</ele>
        <time>2021-09-08T04:23:27.000Z</time>
      </trkpt>
      <trkpt lat="45.21572" lon="5.73162">
        <ele>958.59997558594</ele>
        <time>2021-09-08T04:23:28.000Z</time>
      </trkpt>
      <trkpt lat="45.21572" lon="5.73166">
        <ele>957.59997558594</ele>
        <time>2021-09-08T04:23:31.000Z</time>
      </trkpt>
      <trkpt lat="45.21572" lon="5.73167">
        <ele>957.20001220703</ele>
        <time>2021-09-08T04:23:32.000Z</time>
      </trkpt>
      <trkpt lat="45.21572" lon="5.73168">
        <ele>957</ele>
        <time>2021-09-08T04:23:33.000Z</time>
      </trkpt>
      <trkpt lat="45.21572" lon="5.73169">
        <ele>956.59997558594</ele>
        <time>2021-09-08T04:23:34.000Z</time>
      </trkpt>
      <trkpt lat="45.21573" lon="5.73173">
        <ele>956</ele>
        <time>2021-09-08T04:23:37.000Z</time>
      </trkpt>
      <trkpt lat="45.21573" lon="5.73176">
        <ele>955</ele>
        <time>2021-09-08T04:23:39.000Z</time>
      </trkpt>
      <trkpt lat="45.21574" lon="5.7318">
        <ele>954.79998779297</ele>
        <time>2021-09-08T04:23:41.000Z</time>
      </trkpt>
      <trkpt lat="45.21576" lon="5.73184">
        <ele>953.59997558594</ele>
        <time>2021-09-08T04:23:43.000Z</time>
      </trkpt>
      <trkpt lat="45.2158" lon="5.73193">
        <ele>952.59997558594</ele>
        <time>2021-09-08T04:23:47.000Z</time>
      </trkpt>
      <trkpt lat="45.21581" lon="5.73195">
        <ele>951.79998779297</ele>
        <time>2021-09-08T04:23:48.000Z</time>
      </trkpt>
      <trkpt lat="45.21584" lon="5.73201">
        <ele>951.20001220703</ele>
        <time>2021-09-08T04:23:50.000Z</time>
      </trkpt>
      <trkpt lat="45.21588" lon="5.73209">
        <ele>950.59997558594</ele>
        <time>2021-09-08T04:23:53.000Z</time>
      </trkpt>
      <trkpt lat="45.2159" lon="5.7321">
        <ele>950</ele>
        <time>2021-09-08T04:23:54.000Z</time>
      </trkpt>
      <trkpt lat="45.21594" lon="5.73213">
        <ele>949.79998779297</ele>
        <time>2021-09-08T04:23:56.000Z</time>
      </trkpt>
      <trkpt lat="45.21595" lon="5.73215">
        <ele>949.40002441406</ele>
        <time>2021-09-08T04:23:57.000Z</time>
      </trkpt>
      <trkpt lat="45.21596" lon="5.73218">
        <ele>949.20001220703</ele>
        <time>2021-09-08T04:23:58.000Z</time>
      </trkpt>
      <trkpt lat="45.21597" lon="5.73221">
        <ele>949</ele>
        <time>2021-09-08T04:23:59.000Z</time>
      </trkpt>
      <trkpt lat="45.216" lon="5.73225">
        <ele>947.40002441406</ele>
        <time>2021-09-08T04:24:02.000Z</time>
      </trkpt>
      <trkpt lat="45.21602" lon="5.73227">
        <ele>946.79998779297</ele>
        <time>2021-09-08T04:24:04.000Z</time>
      </trkpt>
      <trkpt lat="45.21603" lon="5.73227">
        <ele>946.20001220703</ele>
        <time>2021-09-08T04:24:05.000Z</time>
      </trkpt>
      <trkpt lat="45.21604" lon="5.7323">
        <ele>945.79998779297</ele>
        <time>2021-09-08T04:24:07.000Z</time>
      </trkpt>
      <trkpt lat="45.21607" lon="5.73235">
        <ele>944.79998779297</ele>
        <time>2021-09-08T04:24:10.000Z</time>
      </trkpt>
      <trkpt lat="45.2161" lon="5.73238">
        <ele>943.59997558594</ele>
        <time>2021-09-08T04:24:13.000Z</time>
      </trkpt>
      <trkpt lat="45.21611" lon="5.73239">
        <ele>943.59997558594</ele>
        <time>2021-09-08T04:24:14.000Z</time>
      </trkpt>
      <trkpt lat="45.21612" lon="5.73246">
        <ele>942.59997558594</ele>
        <time>2021-09-08T04:24:17.000Z</time>
      </trkpt>
      <trkpt lat="45.21613" lon="5.73249">
        <ele>941.40002441406</ele>
        <time>2021-09-08T04:24:19.000Z</time>
      </trkpt>
      <trkpt lat="45.21616" lon="5.73255">
        <ele>940.40002441406</ele>
        <time>2021-09-08T04:24:22.000Z</time>
      </trkpt>
      <trkpt lat="45.21617" lon="5.73257">
        <ele>940.20001220703</ele>
        <time>2021-09-08T04:24:23.000Z</time>
      </trkpt>
      <trkpt lat="45.2162" lon="5.73262">
        <ele>939.40002441406</ele>
        <time>2021-09-08T04:24:26.000Z</time>
      </trkpt>
      <trkpt lat="45.21622" lon="5.73262">
        <ele>939.20001220703</ele>
        <time>2021-09-08T04:24:27.000Z</time>
      </trkpt>
      <trkpt lat="45.21623" lon="5.73263">
        <ele>938.59997558594</ele>
        <time>2021-09-08T04:24:28.000Z</time>
      </trkpt>
      <trkpt lat="45.21624" lon="5.73265">
        <ele>938.20001220703</ele>
        <time>2021-09-08T04:24:29.000Z</time>
      </trkpt>
      <trkpt lat="45.21628" lon="5.73272">
        <ele>937.20001220703</ele>
        <time>2021-09-08T04:24:32.000Z</time>
      </trkpt>
      <trkpt lat="45.21631" lon="5.73278">
        <ele>936.59997558594</ele>
        <time>2021-09-08T04:24:34.000Z</time>
      </trkpt>
      <trkpt lat="45.21637" lon="5.73284">
        <ele>936.40002441406</ele>
        <time>2021-09-08T04:24:37.000Z</time>
      </trkpt>
      <trkpt lat="45.21638" lon="5.73287">
        <ele>936.20001220703</ele>
        <time>2021-09-08T04:24:38.000Z</time>
      </trkpt>
      <trkpt lat="45.21641" lon="5.73294">
        <ele>935.20001220703</ele>
        <time>2021-09-08T04:24:41.000Z</time>
      </trkpt>
      <trkpt lat="45.21642" lon="5.73297">
        <ele>934.79998779297</ele>
        <time>2021-09-08T04:24:42.000Z</time>
      </trkpt>
      <trkpt lat="45.21641" lon="5.733">
        <ele>934</ele>
        <time>2021-09-08T04:24:43.000Z</time>
      </trkpt>
      <trkpt lat="45.21641" lon="5.73303">
        <ele>933.59997558594</ele>
        <time>2021-09-08T04:24:44.000Z</time>
      </trkpt>
      <trkpt lat="45.2164" lon="5.73306">
        <ele>933.40002441406</ele>
        <time>2021-09-08T04:24:45.000Z</time>
      </trkpt>
      <trkpt lat="45.2164" lon="5.73308">
        <ele>931</ele>
        <time>2021-09-08T04:24:46.000Z</time>
      </trkpt>
      <trkpt lat="45.21642" lon="5.73317">
        <ele>930.79998779297</ele>
        <time>2021-09-08T04:24:51.000Z</time>
      </trkpt>
      <trkpt lat="45.21642" lon="5.7332">
        <ele>930.40002441406</ele>
        <time>2021-09-08T04:24:52.000Z</time>
      </trkpt>
      <trkpt lat="45.21642" lon="5.73322">
        <ele>930</ele>
        <time>2021-09-08T04:24:53.000Z</time>
      </trkpt>
      <trkpt lat="45.21643" lon="5.73327">
        <ele>929.59997558594</ele>
        <time>2021-09-08T04:24:56.000Z</time>
      </trkpt>
      <trkpt lat="45.21643" lon="5.73329">
        <ele>928.59997558594</ele>
        <time>2021-09-08T04:24:57.000Z</time>
      </trkpt>
      <trkpt lat="45.21644" lon="5.73335">
        <ele>927.59997558594</ele>
        <time>2021-09-08T04:25:00.000Z</time>
      </trkpt>
      <trkpt lat="45.21646" lon="5.73338">
        <ele>926.59997558594</ele>
        <time>2021-09-08T04:25:02.000Z</time>
      </trkpt>
      <trkpt lat="45.21649" lon="5.73343">
        <ele>926</ele>
        <time>2021-09-08T04:25:05.000Z</time>
      </trkpt>
      <trkpt lat="45.21652" lon="5.73346">
        <ele>925.20001220703</ele>
        <time>2021-09-08T04:25:07.000Z</time>
      </trkpt>
      <trkpt lat="45.21652" lon="5.73348">
        <ele>924.59997558594</ele>
        <time>2021-09-08T04:25:08.000Z</time>
      </trkpt>
      <trkpt lat="45.21653" lon="5.73351">
        <ele>923.79998779297</ele>
        <time>2021-09-08T04:25:09.000Z</time>
      </trkpt>
      <trkpt lat="45.21654" lon="5.73357">
        <ele>922.79998779297</ele>
        <time>2021-09-08T04:25:12.000Z</time>
      </trkpt>
      <trkpt lat="45.21655" lon="5.73361">
        <ele>921.79998779297</ele>
        <time>2021-09-08T04:25:14.000Z</time>
      </trkpt>
      <trkpt lat="45.21655" lon="5.73363">
        <ele>921.59997558594</ele>
        <time>2021-09-08T04:25:15.000Z</time>
      </trkpt>
      <trkpt lat="45.21659" lon="5.73371">
        <ele>920.59997558594</ele>
        <time>2021-09-08T04:25:19.000Z</time>
      </trkpt>
      <trkpt lat="45.21661" lon="5.73377">
        <ele>919.20001220703</ele>
        <time>2021-09-08T04:25:21.000Z</time>
      </trkpt>
      <trkpt lat="45.21662" lon="5.73382">
        <ele>918.20001220703</ele>
        <time>2021-09-08T04:25:23.000Z</time>
      </trkpt>
      <trkpt lat="45.21663" lon="5.73383">
        <ele>917.59997558594</ele>
        <time>2021-09-08T04:25:25.000Z</time>
      </trkpt>
      <trkpt lat="45.21664" lon="5.73384">
        <ele>917</ele>
        <time>2021-09-08T04:25:26.000Z</time>
      </trkpt>
      <trkpt lat="45.21664" lon="5.73385">
        <ele>916.79998779297</ele>
        <time>2021-09-08T04:25:27.000Z</time>
      </trkpt>
      <trkpt lat="45.21667" lon="5.73389">
        <ele>915.59997558594</ele>
        <time>2021-09-08T04:25:30.000Z</time>
      </trkpt>
      <trkpt lat="45.21668" lon="5.73394">
        <ele>914.59997558594</ele>
        <time>2021-09-08T04:25:32.000Z</time>
      </trkpt>
      <trkpt lat="45.21668" lon="5.73396">
        <ele>914.59997558594</ele>
        <time>2021-09-08T04:25:33.000Z</time>
      </trkpt>
      <trkpt lat="45.2167" lon="5.73406">
        <ele>913</ele>
        <time>2021-09-08T04:25:37.000Z</time>
      </trkpt>
      <trkpt lat="45.21669" lon="5.73409">
        <ele>912.40002441406</ele>
        <time>2021-09-08T04:25:38.000Z</time>
      </trkpt>
      <trkpt lat="45.21669" lon="5.73414">
        <ele>911.79998779297</ele>
        <time>2021-09-08T04:25:40.000Z</time>
      </trkpt>
      <trkpt lat="45.2167" lon="5.73427">
        <ele>910.20001220703</ele>
        <time>2021-09-08T04:25:44.000Z</time>
      </trkpt>
      <trkpt lat="45.21671" lon="5.73445">
        <ele>908.40002441406</ele>
        <time>2021-09-08T04:25:49.000Z</time>
      </trkpt>
      <trkpt lat="45.21671" lon="5.73453">
        <ele>907.59997558594</ele>
        <time>2021-09-08T04:25:51.000Z</time>
      </trkpt>
      <trkpt lat="45.21673" lon="5.73462">
        <ele>906.59997558594</ele>
        <time>2021-09-08T04:25:54.000Z</time>
      </trkpt>
      <trkpt lat="45.21675" lon="5.73473">
        <ele>905.20001220703</ele>
        <time>2021-09-08T04:25:58.000Z</time>
      </trkpt>
      <trkpt lat="45.21674" lon="5.73481">
        <ele>904.40002441406</ele>
        <time>2021-09-08T04:26:04.000Z</time>
      </trkpt>
      <trkpt lat="45.21673" lon="5.73481">
        <ele>904</ele>
        <time>2021-09-08T04:26:05.000Z</time>
      </trkpt>
      <trkpt lat="45.21669" lon="5.73475">
        <ele>903</ele>
        <time>2021-09-08T04:26:08.000Z</time>
      </trkpt>
      <trkpt lat="45.21663" lon="5.73459">
        <ele>902</ele>
        <time>2021-09-08T04:26:13.000Z</time>
      </trkpt>
      <trkpt lat="45.21662" lon="5.73456">
        <ele>901</ele>
        <time>2021-09-08T04:26:14.000Z</time>
      </trkpt>
      <trkpt lat="45.21657" lon="5.73442">
        <ele>900.20001220703</ele>
        <time>2021-09-08T04:26:18.000Z</time>
      </trkpt>
      <trkpt lat="45.21653" lon="5.73433">
        <ele>900</ele>
        <time>2021-09-08T04:26:21.000Z</time>
      </trkpt>
      <trkpt lat="45.21651" lon="5.73431">
        <ele>899.40002441406</ele>
        <time>2021-09-08T04:26:22.000Z</time>
      </trkpt>
      <trkpt lat="45.21647" lon="5.73423">
        <ele>898.59997558594</ele>
        <time>2021-09-08T04:26:25.000Z</time>
      </trkpt>
      <trkpt lat="45.21636" lon="5.73412">
        <ele>898.40002441406</ele>
        <time>2021-09-08T04:26:30.000Z</time>
      </trkpt>
      <trkpt lat="45.21629" lon="5.73408">
        <ele>897.59997558594</ele>
        <time>2021-09-08T04:26:33.000Z</time>
      </trkpt>
      <trkpt lat="45.21621" lon="5.734">
        <ele>897</ele>
        <time>2021-09-08T04:26:37.000Z</time>
      </trkpt>
      <trkpt lat="45.2162" lon="5.73398">
        <ele>896.40002441406</ele>
        <time>2021-09-08T04:26:38.000Z</time>
      </trkpt>
      <trkpt lat="45.21618" lon="5.73397">
        <ele>896.40002441406</ele>
        <time>2021-09-08T04:26:39.000Z</time>
      </trkpt>
      <trkpt lat="45.21614" lon="5.73393">
        <ele>895.40002441406</ele>
        <time>2021-09-08T04:26:41.000Z</time>
      </trkpt>
      <trkpt lat="45.21612" lon="5.73392">
        <ele>895.20001220703</ele>
        <time>2021-09-08T04:26:42.000Z</time>
      </trkpt>
      <trkpt lat="45.21608" lon="5.73389">
        <ele>894.20001220703</ele>
        <time>2021-09-08T04:26:45.000Z</time>
      </trkpt>
      <trkpt lat="45.21605" lon="5.73382">
        <ele>893</ele>
        <time>2021-09-08T04:26:48.000Z</time>
      </trkpt>
      <trkpt lat="45.21603" lon="5.73377">
        <ele>892.40002441406</ele>
        <time>2021-09-08T04:26:50.000Z</time>
      </trkpt>
      <trkpt lat="45.21598" lon="5.73375">
        <ele>891.59997558594</ele>
        <time>2021-09-08T04:26:52.000Z</time>
      </trkpt>
      <trkpt lat="45.21596" lon="5.73374">
        <ele>891.59997558594</ele>
        <time>2021-09-08T04:26:53.000Z</time>
      </trkpt>
      <trkpt lat="45.21592" lon="5.73369">
        <ele>890.40002441406</ele>
        <time>2021-09-08T04:26:56.000Z</time>
      </trkpt>
      <trkpt lat="45.21585" lon="5.73358">
        <ele>889</ele>
        <time>2021-09-08T04:27:01.000Z</time>
      </trkpt>
      <trkpt lat="45.21583" lon="5.73357">
        <ele>888.79998779297</ele>
        <time>2021-09-08T04:27:02.000Z</time>
      </trkpt>
      <trkpt lat="45.21579" lon="5.73354">
        <ele>887.79998779297</ele>
        <time>2021-09-08T04:27:05.000Z</time>
      </trkpt>
      <trkpt lat="45.21577" lon="5.73354">
        <ele>887.59997558594</ele>
        <time>2021-09-08T04:27:06.000Z</time>
      </trkpt>
      <trkpt lat="45.21573" lon="5.73351">
        <ele>886.79998779297</ele>
        <time>2021-09-08T04:27:08.000Z</time>
      </trkpt>
      <trkpt lat="45.21567" lon="5.73347">
        <ele>885.40002441406</ele>
        <time>2021-09-08T04:27:11.000Z</time>
      </trkpt>
      <trkpt lat="45.21563" lon="5.73345">
        <ele>885</ele>
        <time>2021-09-08T04:27:13.000Z</time>
      </trkpt>
      <trkpt lat="45.21559" lon="5.73343">
        <ele>884.40002441406</ele>
        <time>2021-09-08T04:27:15.000Z</time>
      </trkpt>
      <trkpt lat="45.21554" lon="5.73338">
        <ele>883.40002441406</ele>
        <time>2021-09-08T04:27:18.000Z</time>
      </trkpt>
      <trkpt lat="45.21552" lon="5.73338">
        <ele>883</ele>
        <time>2021-09-08T04:27:19.000Z</time>
      </trkpt>
      <trkpt lat="45.2155" lon="5.73338">
        <ele>882.79998779297</ele>
        <time>2021-09-08T04:27:20.000Z</time>
      </trkpt>
      <trkpt lat="45.21548" lon="5.73337">
        <ele>880</ele>
        <time>2021-09-08T04:27:22.000Z</time>
      </trkpt>
      <trkpt lat="45.21545" lon="5.73335">
        <ele>880</ele>
        <time>2021-09-08T04:27:24.000Z</time>
      </trkpt>
      <trkpt lat="45.21542" lon="5.73331">
        <ele>880</ele>
        <time>2021-09-08T04:27:26.000Z</time>
      </trkpt>
      <trkpt lat="45.21535" lon="5.7333">
        <ele>878.79998779297</ele>
        <time>2021-09-08T04:27:29.000Z</time>
      </trkpt>
      <trkpt lat="45.21531" lon="5.73328">
        <ele>878</ele>
        <time>2021-09-08T04:27:31.000Z</time>
      </trkpt>
      <trkpt lat="45.21525" lon="5.73326">
        <ele>877.59997558594</ele>
        <time>2021-09-08T04:27:33.000Z</time>
      </trkpt>
      <trkpt lat="45.2152" lon="5.73325">
        <ele>876.40002441406</ele>
        <time>2021-09-08T04:27:35.000Z</time>
      </trkpt>
      <trkpt lat="45.21513" lon="5.73323">
        <ele>875.40002441406</ele>
        <time>2021-09-08T04:27:38.000Z</time>
      </trkpt>
      <trkpt lat="45.2151" lon="5.73318">
        <ele>875.20001220703</ele>
        <time>2021-09-08T04:27:41.000Z</time>
      </trkpt>
      <trkpt lat="45.21509" lon="5.73314">
        <ele>874.79998779297</ele>
        <time>2021-09-08T04:27:43.000Z</time>
      </trkpt>
      <trkpt lat="45.21507" lon="5.73305">
        <ele>874.20001220703</ele>
        <time>2021-09-08T04:27:46.000Z</time>
      </trkpt>
      <trkpt lat="45.21505" lon="5.73298">
        <ele>873.59997558594</ele>
        <time>2021-09-08T04:27:48.000Z</time>
      </trkpt>
      <trkpt lat="45.21504" lon="5.7329">
        <ele>873.40002441406</ele>
        <time>2021-09-08T04:27:50.000Z</time>
      </trkpt>
      <trkpt lat="45.21505" lon="5.73276">
        <ele>873.40002441406</ele>
        <time>2021-09-08T04:27:53.000Z</time>
      </trkpt>
      <trkpt lat="45.21504" lon="5.73269">
        <ele>873.59997558594</ele>
        <time>2021-09-08T04:27:55.000Z</time>
      </trkpt>
      <trkpt lat="45.21501" lon="5.73266">
        <ele>873.40002441406</ele>
        <time>2021-09-08T04:27:57.000Z</time>
      </trkpt>
      <trkpt lat="45.21496" lon="5.73264">
        <ele>872.79998779297</ele>
        <time>2021-09-08T04:27:59.000Z</time>
      </trkpt>
      <trkpt lat="45.2149" lon="5.73255">
        <ele>871.79998779297</ele>
        <time>2021-09-08T04:28:03.000Z</time>
      </trkpt>
      <trkpt lat="45.21488" lon="5.73253">
        <ele>871</ele>
        <time>2021-09-08T04:28:04.000Z</time>
      </trkpt>
      <trkpt lat="45.21485" lon="5.73248">
        <ele>870.59997558594</ele>
        <time>2021-09-08T04:28:07.000Z</time>
      </trkpt>
      <trkpt lat="45.21482" lon="5.73247">
        <ele>869.79998779297</ele>
        <time>2021-09-08T04:28:09.000Z</time>
      </trkpt>
      <trkpt lat="45.21481" lon="5.73246">
        <ele>869.20001220703</ele>
        <time>2021-09-08T04:28:10.000Z</time>
      </trkpt>
      <trkpt lat="45.21478" lon="5.73244">
        <ele>868.40002441406</ele>
        <time>2021-09-08T04:28:12.000Z</time>
      </trkpt>
      <trkpt lat="45.21476" lon="5.73243">
        <ele>867.79998779297</ele>
        <time>2021-09-08T04:28:13.000Z</time>
      </trkpt>
      <trkpt lat="45.21473" lon="5.73241">
        <ele>867.40002441406</ele>
        <time>2021-09-08T04:28:15.000Z</time>
      </trkpt>
      <trkpt lat="45.21468" lon="5.73235">
        <ele>866.40002441406</ele>
        <time>2021-09-08T04:28:18.000Z</time>
      </trkpt>
      <trkpt lat="45.21466" lon="5.73228">
        <ele>866.20001220703</ele>
        <time>2021-09-08T04:28:20.000Z</time>
      </trkpt>
      <trkpt lat="45.21466" lon="5.73208">
        <ele>865.59997558594</ele>
        <time>2021-09-08T04:28:25.000Z</time>
      </trkpt>
      <trkpt lat="45.21465" lon="5.73205">
        <ele>865.40002441406</ele>
        <time>2021-09-08T04:28:27.000Z</time>
      </trkpt>
      <trkpt lat="45.21465" lon="5.73203">
        <ele>865.20001220703</ele>
        <time>2021-09-08T04:28:28.000Z</time>
      </trkpt>
      <trkpt lat="45.21465" lon="5.73201">
        <ele>864.59997558594</ele>
        <time>2021-09-08T04:28:29.000Z</time>
      </trkpt>
      <trkpt lat="45.21465" lon="5.73199">
        <ele>864.40002441406</ele>
        <time>2021-09-08T04:28:30.000Z</time>
      </trkpt>
      <trkpt lat="45.21464" lon="5.73197">
        <ele>863.79998779297</ele>
        <time>2021-09-08T04:28:32.000Z</time>
      </trkpt>
      <trkpt lat="45.21463" lon="5.73196">
        <ele>863</ele>
        <time>2021-09-08T04:28:34.000Z</time>
      </trkpt>
      <trkpt lat="45.21462" lon="5.73195">
        <ele>862.59997558594</ele>
        <time>2021-09-08T04:28:35.000Z</time>
      </trkpt>
      <trkpt lat="45.2146" lon="5.73195">
        <ele>862.40002441406</ele>
        <time>2021-09-08T04:28:36.000Z</time>
      </trkpt>
      <trkpt lat="45.21456" lon="5.73193">
        <ele>861.59997558594</ele>
        <time>2021-09-08T04:28:38.000Z</time>
      </trkpt>
      <trkpt lat="45.21455" lon="5.73191">
        <ele>860.79998779297</ele>
        <time>2021-09-08T04:28:39.000Z</time>
      </trkpt>
      <trkpt lat="45.2145" lon="5.73187">
        <ele>859.59997558594</ele>
        <time>2021-09-08T04:28:42.000Z</time>
      </trkpt>
      <trkpt lat="45.21446" lon="5.73181">
        <ele>858.79998779297</ele>
        <time>2021-09-08T04:28:45.000Z</time>
      </trkpt>
      <trkpt lat="45.21444" lon="5.7318">
        <ele>858.40002441406</ele>
        <time>2021-09-08T04:28:46.000Z</time>
      </trkpt>
      <trkpt lat="45.21443" lon="5.73179">
        <ele>857.20001220703</ele>
        <time>2021-09-08T04:28:47.000Z</time>
      </trkpt>
      <trkpt lat="45.2144" lon="5.73177">
        <ele>857.20001220703</ele>
        <time>2021-09-08T04:28:49.000Z</time>
      </trkpt>
      <trkpt lat="45.21438" lon="5.73176">
        <ele>857</ele>
        <time>2021-09-08T04:28:50.000Z</time>
      </trkpt>
      <trkpt lat="45.21437" lon="5.73176">
        <ele>856.79998779297</ele>
        <time>2021-09-08T04:28:51.000Z</time>
      </trkpt>
      <trkpt lat="45.21436" lon="5.73176">
        <ele>856</ele>
        <time>2021-09-08T04:28:52.000Z</time>
      </trkpt>
      <trkpt lat="45.21434" lon="5.73175">
        <ele>855.79998779297</ele>
        <time>2021-09-08T04:28:53.000Z</time>
      </trkpt>
      <trkpt lat="45.21431" lon="5.73174">
        <ele>855.59997558594</ele>
        <time>2021-09-08T04:28:54.000Z</time>
      </trkpt>
      <trkpt lat="45.21428" lon="5.73174">
        <ele>854.40002441406</ele>
        <time>2021-09-08T04:28:55.000Z</time>
      </trkpt>
      <trkpt lat="45.2142" lon="5.73171">
        <ele>853.40002441406</ele>
        <time>2021-09-08T04:28:58.000Z</time>
      </trkpt>
      <trkpt lat="45.21417" lon="5.73169">
        <ele>853.20001220703</ele>
        <time>2021-09-08T04:28:59.000Z</time>
      </trkpt>
      <trkpt lat="45.21412" lon="5.73164">
        <ele>852.79998779297</ele>
        <time>2021-09-08T04:29:02.000Z</time>
      </trkpt>
      <trkpt lat="45.21406" lon="5.73161">
        <ele>852.20001220703</ele>
        <time>2021-09-08T04:29:05.000Z</time>
      </trkpt>
      <trkpt lat="45.21404" lon="5.73151">
        <ele>851</ele>
        <time>2021-09-08T04:29:08.000Z</time>
      </trkpt>
      <trkpt lat="45.21403" lon="5.73145">
        <ele>850</ele>
        <time>2021-09-08T04:29:10.000Z</time>
      </trkpt>
      <trkpt lat="45.21402" lon="5.73142">
        <ele>850</ele>
        <time>2021-09-08T04:29:11.000Z</time>
      </trkpt>
      <trkpt lat="45.21391" lon="5.73128">
        <ele>849.20001220703</ele>
        <time>2021-09-08T04:29:17.000Z</time>
      </trkpt>
      <trkpt lat="45.21388" lon="5.73123">
        <ele>848.79998779297</ele>
        <time>2021-09-08T04:29:19.000Z</time>
      </trkpt>
      <trkpt lat="45.21378" lon="5.73113">
        <ele>848.20001220703</ele>
        <time>2021-09-08T04:29:24.000Z</time>
      </trkpt>
      <trkpt lat="45.21376" lon="5.73112">
        <ele>847.79998779297</ele>
        <time>2021-09-08T04:29:25.000Z</time>
      </trkpt>
      <trkpt lat="45.21369" lon="5.73101">
        <ele>847</ele>
        <time>2021-09-08T04:29:29.000Z</time>
      </trkpt>
      <trkpt lat="45.21367" lon="5.73098">
        <ele>846.79998779297</ele>
        <time>2021-09-08T04:29:30.000Z</time>
      </trkpt>
      <trkpt lat="45.21361" lon="5.73089">
        <ele>846.40002441406</ele>
        <time>2021-09-08T04:29:34.000Z</time>
      </trkpt>
      <trkpt lat="45.21359" lon="5.73088">
        <ele>846.40002441406</ele>
        <time>2021-09-08T04:29:35.000Z</time>
      </trkpt>
      <trkpt lat="45.21357" lon="5.73084">
        <ele>846.20001220703</ele>
        <time>2021-09-08T04:29:38.000Z</time>
      </trkpt>
      <trkpt lat="45.21356" lon="5.73082">
        <ele>845.59997558594</ele>
        <time>2021-09-08T04:29:40.000Z</time>
      </trkpt>
      <trkpt lat="45.21354" lon="5.73071">
        <ele>844.59997558594</ele>
        <time>2021-09-08T04:29:44.000Z</time>
      </trkpt>
      <trkpt lat="45.21352" lon="5.73067">
        <ele>844</ele>
        <time>2021-09-08T04:29:46.000Z</time>
      </trkpt>
      <trkpt lat="45.21351" lon="5.73062">
        <ele>843.20001220703</ele>
        <time>2021-09-08T04:29:48.000Z</time>
      </trkpt>
      <trkpt lat="45.21343" lon="5.73053">
        <ele>842</ele>
        <time>2021-09-08T04:29:53.000Z</time>
      </trkpt>
      <trkpt lat="45.21342" lon="5.73048">
        <ele>841.20001220703</ele>
        <time>2021-09-08T04:29:55.000Z</time>
      </trkpt>
      <trkpt lat="45.21341" lon="5.73046">
        <ele>841</ele>
        <time>2021-09-08T04:29:56.000Z</time>
      </trkpt>
      <trkpt lat="45.21339" lon="5.73044">
        <ele>840.20001220703</ele>
        <time>2021-09-08T04:29:58.000Z</time>
      </trkpt>
      <trkpt lat="45.21338" lon="5.73044">
        <ele>839.79998779297</ele>
        <time>2021-09-08T04:29:59.000Z</time>
      </trkpt>
      <trkpt lat="45.21336" lon="5.73042">
        <ele>839.40002441406</ele>
        <time>2021-09-08T04:30:01.000Z</time>
      </trkpt>
      <trkpt lat="45.21333" lon="5.73039">
        <ele>838.40002441406</ele>
        <time>2021-09-08T04:30:03.000Z</time>
      </trkpt>
      <trkpt lat="45.21332" lon="5.73038">
        <ele>838.20001220703</ele>
        <time>2021-09-08T04:30:04.000Z</time>
      </trkpt>
      <trkpt lat="45.21331" lon="5.73035">
        <ele>837.40002441406</ele>
        <time>2021-09-08T04:30:06.000Z</time>
      </trkpt>
      <trkpt lat="45.2133" lon="5.7303">
        <ele>836.20001220703</ele>
        <time>2021-09-08T04:30:10.000Z</time>
      </trkpt>
      <trkpt lat="45.21327" lon="5.73028">
        <ele>835.79998779297</ele>
        <time>2021-09-08T04:30:12.000Z</time>
      </trkpt>
      <trkpt lat="45.21324" lon="5.73026">
        <ele>835.20001220703</ele>
        <time>2021-09-08T04:30:14.000Z</time>
      </trkpt>
      <trkpt lat="45.21321" lon="5.73023">
        <ele>834.20001220703</ele>
        <time>2021-09-08T04:30:16.000Z</time>
      </trkpt>
      <trkpt lat="45.2132" lon="5.73021">
        <ele>833.59997558594</ele>
        <time>2021-09-08T04:30:17.000Z</time>
      </trkpt>
      <trkpt lat="45.21318" lon="5.73016">
        <ele>832.59997558594</ele>
        <time>2021-09-08T04:30:19.000Z</time>
      </trkpt>
      <trkpt lat="45.21316" lon="5.73012">
        <ele>832.59997558594</ele>
        <time>2021-09-08T04:30:21.000Z</time>
      </trkpt>
      <trkpt lat="45.21315" lon="5.7301">
        <ele>832.59997558594</ele>
        <time>2021-09-08T04:30:22.000Z</time>
      </trkpt>
      <trkpt lat="45.21311" lon="5.73003">
        <ele>831.20001220703</ele>
        <time>2021-09-08T04:30:25.000Z</time>
      </trkpt>
      <trkpt lat="45.21307" lon="5.72997">
        <ele>830.40002441406</ele>
        <time>2021-09-08T04:30:29.000Z</time>
      </trkpt>
      <trkpt lat="45.21306" lon="5.72995">
        <ele>830</ele>
        <time>2021-09-08T04:30:30.000Z</time>
      </trkpt>
      <trkpt lat="45.21302" lon="5.72992">
        <ele>828.79998779297</ele>
        <time>2021-09-08T04:30:33.000Z</time>
      </trkpt>
      <trkpt lat="45.213" lon="5.7299">
        <ele>828.59997558594</ele>
        <time>2021-09-08T04:30:35.000Z</time>
      </trkpt>
      <trkpt lat="45.21294" lon="5.72984">
        <ele>827.59997558594</ele>
        <time>2021-09-08T04:30:39.000Z</time>
      </trkpt>
      <trkpt lat="45.21291" lon="5.72981">
        <ele>826.20001220703</ele>
        <time>2021-09-08T04:30:41.000Z</time>
      </trkpt>
      <trkpt lat="45.21289" lon="5.72979">
        <ele>826</ele>
        <time>2021-09-08T04:30:42.000Z</time>
      </trkpt>
      <trkpt lat="45.21283" lon="5.72973">
        <ele>825</ele>
        <time>2021-09-08T04:30:46.000Z</time>
      </trkpt>
      <trkpt lat="45.21279" lon="5.72968">
        <ele>823.40002441406</ele>
        <time>2021-09-08T04:30:49.000Z</time>
      </trkpt>
      <trkpt lat="45.21277" lon="5.72966">
        <ele>823.20001220703</ele>
        <time>2021-09-08T04:30:50.000Z</time>
      </trkpt>
      <trkpt lat="45.21274" lon="5.7296">
        <ele>822.40002441406</ele>
        <time>2021-09-08T04:30:53.000Z</time>
      </trkpt>
      <trkpt lat="45.21273" lon="5.72959">
        <ele>822</ele>
        <time>2021-09-08T04:30:54.000Z</time>
      </trkpt>
      <trkpt lat="45.21272" lon="5.72957">
        <ele>821.40002441406</ele>
        <time>2021-09-08T04:30:55.000Z</time>
      </trkpt>
      <trkpt lat="45.21271" lon="5.72957">
        <ele>821.20001220703</ele>
        <time>2021-09-08T04:30:56.000Z</time>
      </trkpt>
      <trkpt lat="45.21267" lon="5.72955">
        <ele>820.40002441406</ele>
        <time>2021-09-08T04:30:59.000Z</time>
      </trkpt>
      <trkpt lat="45.21266" lon="5.72954">
        <ele>819.40002441406</ele>
        <time>2021-09-08T04:31:00.000Z</time>
      </trkpt>
      <trkpt lat="45.21264" lon="5.72954">
        <ele>818.40002441406</ele>
        <time>2021-09-08T04:31:02.000Z</time>
      </trkpt>
      <trkpt lat="45.21262" lon="5.72953">
        <ele>818.40002441406</ele>
        <time>2021-09-08T04:31:03.000Z</time>
      </trkpt>
      <trkpt lat="45.2126" lon="5.72952">
        <ele>815.59997558594</ele>
        <time>2021-09-08T04:31:04.000Z</time>
      </trkpt>
      <trkpt lat="45.21259" lon="5.72951">
        <ele>815.59997558594</ele>
        <time>2021-09-08T04:31:05.000Z</time>
      </trkpt>
      <trkpt lat="45.21256" lon="5.7295">
        <ele>815.59997558594</ele>
        <time>2021-09-08T04:31:07.000Z</time>
      </trkpt>
      <trkpt lat="45.21253" lon="5.72948">
        <ele>815</ele>
        <time>2021-09-08T04:31:09.000Z</time>
      </trkpt>
      <trkpt lat="45.21251" lon="5.72946">
        <ele>814.20001220703</ele>
        <time>2021-09-08T04:31:11.000Z</time>
      </trkpt>
      <trkpt lat="45.21248" lon="5.72945">
        <ele>813</ele>
        <time>2021-09-08T04:31:14.000Z</time>
      </trkpt>
      <trkpt lat="45.21245" lon="5.72945">
        <ele>812.40002441406</ele>
        <time>2021-09-08T04:31:17.000Z</time>
      </trkpt>
      <trkpt lat="45.21244" lon="5.72944">
        <ele>812.20001220703</ele>
        <time>2021-09-08T04:31:18.000Z</time>
      </trkpt>
      <trkpt lat="45.21242" lon="5.72943">
        <ele>811.40002441406</ele>
        <time>2021-09-08T04:31:19.000Z</time>
      </trkpt>
      <trkpt lat="45.21239" lon="5.72941">
        <ele>810.20001220703</ele>
        <time>2021-09-08T04:31:22.000Z</time>
      </trkpt>
      <trkpt lat="45.21235" lon="5.72939">
        <ele>810</ele>
        <time>2021-09-08T04:31:24.000Z</time>
      </trkpt>
      <trkpt lat="45.21231" lon="5.72936">
        <ele>809.20001220703</ele>
        <time>2021-09-08T04:31:26.000Z</time>
      </trkpt>
      <trkpt lat="45.2123" lon="5.72934">
        <ele>809.20001220703</ele>
        <time>2021-09-08T04:31:27.000Z</time>
      </trkpt>
      <trkpt lat="45.21229" lon="5.72931">
        <ele>809.20001220703</ele>
        <time>2021-09-08T04:31:28.000Z</time>
      </trkpt>
      <trkpt lat="45.21228" lon="5.72929">
        <ele>809</ele>
        <time>2021-09-08T04:31:29.000Z</time>
      </trkpt>
      <trkpt lat="45.21228" lon="5.72928">
        <ele>808.40002441406</ele>
        <time>2021-09-08T04:31:30.000Z</time>
      </trkpt>
      <trkpt lat="45.21226" lon="5.72927">
        <ele>808.20001220703</ele>
        <time>2021-09-08T04:31:32.000Z</time>
      </trkpt>
      <trkpt lat="45.21223" lon="5.72926">
        <ele>807.79998779297</ele>
        <time>2021-09-08T04:31:34.000Z</time>
      </trkpt>
      <trkpt lat="45.21222" lon="5.72925">
        <ele>807.40002441406</ele>
        <time>2021-09-08T04:31:35.000Z</time>
      </trkpt>
      <trkpt lat="45.2122" lon="5.72925">
        <ele>806.79998779297</ele>
        <time>2021-09-08T04:31:37.000Z</time>
      </trkpt>
      <trkpt lat="45.21218" lon="5.72924">
        <ele>805.59997558594</ele>
        <time>2021-09-08T04:31:40.000Z</time>
      </trkpt>
      <trkpt lat="45.21217" lon="5.72924">
        <ele>805.20001220703</ele>
        <time>2021-09-08T04:31:41.000Z</time>
      </trkpt>
      <trkpt lat="45.21215" lon="5.72925">
        <ele>804.59997558594</ele>
        <time>2021-09-08T04:31:44.000Z</time>
      </trkpt>
      <trkpt lat="45.21215" lon="5.72927">
        <ele>804.40002441406</ele>
        <time>2021-09-08T04:31:45.000Z</time>
      </trkpt>
      <trkpt lat="45.21214" lon="5.72929">
        <ele>804</ele>
        <time>2021-09-08T04:31:46.000Z</time>
      </trkpt>
      <trkpt lat="45.21214" lon="5.72931">
        <ele>803</ele>
        <time>2021-09-08T04:31:47.000Z</time>
      </trkpt>
      <trkpt lat="45.21216" lon="5.72939">
        <ele>801.79998779297</ele>
        <time>2021-09-08T04:31:52.000Z</time>
      </trkpt>
      <trkpt lat="45.21216" lon="5.72941">
        <ele>801.20001220703</ele>
        <time>2021-09-08T04:31:53.000Z</time>
      </trkpt>
      <trkpt lat="45.21217" lon="5.72942">
        <ele>800.59997558594</ele>
        <time>2021-09-08T04:31:54.000Z</time>
      </trkpt>
      <trkpt lat="45.21217" lon="5.72942">
        <ele>800.20001220703</ele>
        <time>2021-09-08T04:31:55.000Z</time>
      </trkpt>
      <trkpt lat="45.21217" lon="5.72944">
        <ele>799.59997558594</ele>
        <time>2021-09-08T04:31:57.000Z</time>
      </trkpt>
      <trkpt lat="45.21217" lon="5.72945">
        <ele>799.40002441406</ele>
        <time>2021-09-08T04:31:58.000Z</time>
      </trkpt>
      <trkpt lat="45.21211" lon="5.72945">
        <ele>798.20001220703</ele>
        <time>2021-09-08T04:32:01.000Z</time>
      </trkpt>
      <trkpt lat="45.21208" lon="5.72945">
        <ele>798</ele>
        <time>2021-09-08T04:32:02.000Z</time>
      </trkpt>
      <trkpt lat="45.21203" lon="5.72938">
        <ele>796.79998779297</ele>
        <time>2021-09-08T04:32:05.000Z</time>
      </trkpt>
      <trkpt lat="45.21201" lon="5.72934">
        <ele>796.20001220703</ele>
        <time>2021-09-08T04:32:07.000Z</time>
      </trkpt>
      <trkpt lat="45.21199" lon="5.7293">
        <ele>795.79998779297</ele>
        <time>2021-09-08T04:32:10.000Z</time>
      </trkpt>
      <trkpt lat="45.21197" lon="5.72929">
        <ele>795</ele>
        <time>2021-09-08T04:32:11.000Z</time>
      </trkpt>
      <trkpt lat="45.21196" lon="5.72927">
        <ele>794.59997558594</ele>
        <time>2021-09-08T04:32:12.000Z</time>
      </trkpt>
      <trkpt lat="45.21189" lon="5.72921">
        <ele>793.20001220703</ele>
        <time>2021-09-08T04:32:16.000Z</time>
      </trkpt>
      <trkpt lat="45.21187" lon="5.72918">
        <ele>792.59997558594</ele>
        <time>2021-09-08T04:32:18.000Z</time>
      </trkpt>
      <trkpt lat="45.21183" lon="5.72915">
        <ele>791.59997558594</ele>
        <time>2021-09-08T04:32:21.000Z</time>
      </trkpt>
      <trkpt lat="45.21179" lon="5.72909">
        <ele>790.79998779297</ele>
        <time>2021-09-08T04:32:24.000Z</time>
      </trkpt>
      <trkpt lat="45.21177" lon="5.72908">
        <ele>790.79998779297</ele>
        <time>2021-09-08T04:32:25.000Z</time>
      </trkpt>
      <trkpt lat="45.21173" lon="5.72907">
        <ele>789.79998779297</ele>
        <time>2021-09-08T04:32:27.000Z</time>
      </trkpt>
      <trkpt lat="45.21168" lon="5.72904">
        <ele>788</ele>
        <time>2021-09-08T04:32:29.000Z</time>
      </trkpt>
      <trkpt lat="45.2116" lon="5.72901">
        <ele>787</ele>
        <time>2021-09-08T04:32:33.000Z</time>
      </trkpt>
      <trkpt lat="45.21156" lon="5.729">
        <ele>786.79998779297</ele>
        <time>2021-09-08T04:32:35.000Z</time>
      </trkpt>
      <trkpt lat="45.21151" lon="5.72898">
        <ele>786</ele>
        <time>2021-09-08T04:32:38.000Z</time>
      </trkpt>
      <trkpt lat="45.21149" lon="5.72897">
        <ele>785.40002441406</ele>
        <time>2021-09-08T04:32:40.000Z</time>
      </trkpt>
      <trkpt lat="45.21148" lon="5.72897">
        <ele>785.20001220703</ele>
        <time>2021-09-08T04:32:41.000Z</time>
      </trkpt>
      <trkpt lat="45.21146" lon="5.72897">
        <ele>784.79998779297</ele>
        <time>2021-09-08T04:32:42.000Z</time>
      </trkpt>
      <trkpt lat="45.21142" lon="5.72895">
        <ele>783.40002441406</ele>
        <time>2021-09-08T04:32:45.000Z</time>
      </trkpt>
      <trkpt lat="45.2114" lon="5.72894">
        <ele>783.40002441406</ele>
        <time>2021-09-08T04:32:46.000Z</time>
      </trkpt>
      <trkpt lat="45.21137" lon="5.72891">
        <ele>782.40002441406</ele>
        <time>2021-09-08T04:32:49.000Z</time>
      </trkpt>
      <trkpt lat="45.21133" lon="5.7289">
        <ele>781.20001220703</ele>
        <time>2021-09-08T04:32:51.000Z</time>
      </trkpt>
      <trkpt lat="45.21125" lon="5.72888">
        <ele>780.59997558594</ele>
        <time>2021-09-08T04:32:54.000Z</time>
      </trkpt>
      <trkpt lat="45.21122" lon="5.72888">
        <ele>780</ele>
        <time>2021-09-08T04:32:55.000Z</time>
      </trkpt>
      <trkpt lat="45.21113" lon="5.72884">
        <ele>778.59997558594</ele>
        <time>2021-09-08T04:32:59.000Z</time>
      </trkpt>
      <trkpt lat="45.2111" lon="5.7288">
        <ele>777.79998779297</ele>
        <time>2021-09-08T04:33:01.000Z</time>
      </trkpt>
      <trkpt lat="45.21109" lon="5.72879">
        <ele>777.79998779297</ele>
        <time>2021-09-08T04:33:02.000Z</time>
      </trkpt>
      <trkpt lat="45.21108" lon="5.72876">
        <ele>777.79998779297</ele>
        <time>2021-09-08T04:33:03.000Z</time>
      </trkpt>
      <trkpt lat="45.21107" lon="5.72872">
        <ele>777.59997558594</ele>
        <time>2021-09-08T04:33:05.000Z</time>
      </trkpt>
      <trkpt lat="45.21106" lon="5.7287">
        <ele>777.40002441406</ele>
        <time>2021-09-08T04:33:06.000Z</time>
      </trkpt>
      <trkpt lat="45.21102" lon="5.72869">
        <ele>776.40002441406</ele>
        <time>2021-09-08T04:33:09.000Z</time>
      </trkpt>
      <trkpt lat="45.21097" lon="5.72864">
        <ele>775.79998779297</ele>
        <time>2021-09-08T04:33:12.000Z</time>
      </trkpt>
      <trkpt lat="45.21095" lon="5.72863">
        <ele>775</ele>
        <time>2021-09-08T04:33:13.000Z</time>
      </trkpt>
      <trkpt lat="45.21086" lon="5.72854">
        <ele>773.79998779297</ele>
        <time>2021-09-08T04:33:19.000Z</time>
      </trkpt>
      <trkpt lat="45.21085" lon="5.72853">
        <ele>773.59997558594</ele>
        <time>2021-09-08T04:33:20.000Z</time>
      </trkpt>
      <trkpt lat="45.21084" lon="5.72851">
        <ele>773.40002441406</ele>
        <time>2021-09-08T04:33:21.000Z</time>
      </trkpt>
      <trkpt lat="45.21078" lon="5.72842">
        <ele>772.59997558594</ele>
        <time>2021-09-08T04:33:25.000Z</time>
      </trkpt>
      <trkpt lat="45.21073" lon="5.72832">
        <ele>772</ele>
        <time>2021-09-08T04:33:28.000Z</time>
      </trkpt>
      <trkpt lat="45.21068" lon="5.7282">
        <ele>771.79998779297</ele>
        <time>2021-09-08T04:33:31.000Z</time>
      </trkpt>
      <trkpt lat="45.21063" lon="5.72808">
        <ele>771.20001220703</ele>
        <time>2021-09-08T04:33:34.000Z</time>
      </trkpt>
      <trkpt lat="45.21057" lon="5.72794">
        <ele>771.20001220703</ele>
        <time>2021-09-08T04:33:38.000Z</time>
      </trkpt>
      <trkpt lat="45.21053" lon="5.72779">
        <ele>771</ele>
        <time>2021-09-08T04:33:44.000Z</time>
      </trkpt>
      <trkpt lat="45.21052" lon="5.72776">
        <ele>771</ele>
        <time>2021-09-08T04:33:45.000Z</time>
      </trkpt>
      <trkpt lat="45.21047" lon="5.72763">
        <ele>770.20001220703</ele>
        <time>2021-09-08T04:33:50.000Z</time>
      </trkpt>
      <trkpt lat="45.21043" lon="5.72756">
        <ele>769.79998779297</ele>
        <time>2021-09-08T04:33:54.000Z</time>
      </trkpt>
      <trkpt lat="45.21042" lon="5.72754">
        <ele>769.40002441406</ele>
        <time>2021-09-08T04:33:56.000Z</time>
      </trkpt>
      <trkpt lat="45.21041" lon="5.72754">
        <ele>768.79998779297</ele>
        <time>2021-09-08T04:33:57.000Z</time>
      </trkpt>
      <trkpt lat="45.2104" lon="5.72754">
        <ele>768.40002441406</ele>
        <time>2021-09-08T04:33:59.000Z</time>
      </trkpt>
      <trkpt lat="45.2104" lon="5.72753">
        <ele>768.20001220703</ele>
        <time>2021-09-08T04:34:00.000Z</time>
      </trkpt>
      <trkpt lat="45.21039" lon="5.72752">
        <ele>767.40002441406</ele>
        <time>2021-09-08T04:34:02.000Z</time>
      </trkpt>
      <trkpt lat="45.21037" lon="5.72751">
        <ele>766.59997558594</ele>
        <time>2021-09-08T04:34:05.000Z</time>
      </trkpt>
      <trkpt lat="45.21036" lon="5.72751">
        <ele>766</ele>
        <time>2021-09-08T04:34:06.000Z</time>
      </trkpt>
      <trkpt lat="45.21034" lon="5.72751">
        <ele>765</ele>
        <time>2021-09-08T04:34:09.000Z</time>
      </trkpt>
      <trkpt lat="45.21033" lon="5.7275">
        <ele>764.59997558594</ele>
        <time>2021-09-08T04:34:10.000Z</time>
      </trkpt>
      <trkpt lat="45.2103" lon="5.72748">
        <ele>764.20001220703</ele>
        <time>2021-09-08T04:34:12.000Z</time>
      </trkpt>
      <trkpt lat="45.21027" lon="5.72746">
        <ele>763.79998779297</ele>
        <time>2021-09-08T04:34:13.000Z</time>
      </trkpt>
      <trkpt lat="45.21026" lon="5.72747">
        <ele>763.40002441406</ele>
        <time>2021-09-08T04:34:14.000Z</time>
      </trkpt>
      <trkpt lat="45.21024" lon="5.72748">
        <ele>763.20001220703</ele>
        <time>2021-09-08T04:34:17.000Z</time>
      </trkpt>
      <trkpt lat="45.21023" lon="5.72748">
        <ele>762.40002441406</ele>
        <time>2021-09-08T04:34:18.000Z</time>
      </trkpt>
      <trkpt lat="45.21023" lon="5.72747">
        <ele>761.79998779297</ele>
        <time>2021-09-08T04:34:19.000Z</time>
      </trkpt>
      <trkpt lat="45.21022" lon="5.72747">
        <ele>761.20001220703</ele>
        <time>2021-09-08T04:34:20.000Z</time>
      </trkpt>
      <trkpt lat="45.21019" lon="5.72748">
        <ele>760.40002441406</ele>
        <time>2021-09-08T04:34:24.000Z</time>
      </trkpt>
      <trkpt lat="45.21018" lon="5.72748">
        <ele>760.40002441406</ele>
        <time>2021-09-08T04:34:25.000Z</time>
      </trkpt>
      <trkpt lat="45.21017" lon="5.72748">
        <ele>760</ele>
        <time>2021-09-08T04:34:26.000Z</time>
      </trkpt>
      <trkpt lat="45.21016" lon="5.72747">
        <ele>759</ele>
        <time>2021-09-08T04:34:27.000Z</time>
      </trkpt>
      <trkpt lat="45.21015" lon="5.72747">
        <ele>759</ele>
        <time>2021-09-08T04:34:28.000Z</time>
      </trkpt>
      <trkpt lat="45.21014" lon="5.72748">
        <ele>758.40002441406</ele>
        <time>2021-09-08T04:34:29.000Z</time>
      </trkpt>
      <trkpt lat="45.21013" lon="5.72749">
        <ele>758</ele>
        <time>2021-09-08T04:34:30.000Z</time>
      </trkpt>
      <trkpt lat="45.21012" lon="5.7275">
        <ele>758</ele>
        <time>2021-09-08T04:34:31.000Z</time>
      </trkpt>
      <trkpt lat="45.2101" lon="5.72753">
        <ele>756.59997558594</ele>
        <time>2021-09-08T04:34:34.000Z</time>
      </trkpt>
      <trkpt lat="45.21006" lon="5.72754">
        <ele>755.79998779297</ele>
        <time>2021-09-08T04:34:38.000Z</time>
      </trkpt>
      <trkpt lat="45.21003" lon="5.72753">
        <ele>755.20001220703</ele>
        <time>2021-09-08T04:34:40.000Z</time>
      </trkpt>
      <trkpt lat="45.21002" lon="5.72754">
        <ele>755.20001220703</ele>
        <time>2021-09-08T04:34:41.000Z</time>
      </trkpt>
      <trkpt lat="45.21001" lon="5.72755">
        <ele>754</ele>
        <time>2021-09-08T04:34:43.000Z</time>
      </trkpt>
      <trkpt lat="45.21" lon="5.72755">
        <ele>753.79998779297</ele>
        <time>2021-09-08T04:34:44.000Z</time>
      </trkpt>
      <trkpt lat="45.20997" lon="5.72758">
        <ele>752.79998779297</ele>
        <time>2021-09-08T04:34:48.000Z</time>
      </trkpt>
      <trkpt lat="45.20996" lon="5.72757">
        <ele>752.40002441406</ele>
        <time>2021-09-08T04:34:49.000Z</time>
      </trkpt>
      <trkpt lat="45.20995" lon="5.72757">
        <ele>751.59997558594</ele>
        <time>2021-09-08T04:34:50.000Z</time>
      </trkpt>
      <trkpt lat="45.20993" lon="5.72759">
        <ele>751</ele>
        <time>2021-09-08T04:34:53.000Z</time>
      </trkpt>
      <trkpt lat="45.20993" lon="5.72761">
        <ele>751</ele>
        <time>2021-09-08T04:34:55.000Z</time>
      </trkpt>
      <trkpt lat="45.20993" lon="5.72762">
        <ele>750.40002441406</ele>
        <time>2021-09-08T04:34:56.000Z</time>
      </trkpt>
      <trkpt lat="45.20992" lon="5.72763">
        <ele>749.40002441406</ele>
        <time>2021-09-08T04:34:58.000Z</time>
      </trkpt>
      <trkpt lat="45.2099" lon="5.72762">
        <ele>748.79998779297</ele>
        <time>2021-09-08T04:35:00.000Z</time>
      </trkpt>
      <trkpt lat="45.2099" lon="5.72761">
        <ele>748.40002441406</ele>
        <time>2021-09-08T04:35:01.000Z</time>
      </trkpt>
      <trkpt lat="45.20989" lon="5.7276">
        <ele>748</ele>
        <time>2021-09-08T04:35:02.000Z</time>
      </trkpt>
      <trkpt lat="45.20987" lon="5.72759">
        <ele>746.40002441406</ele>
        <time>2021-09-08T04:35:05.000Z</time>
      </trkpt>
      <trkpt lat="45.20983" lon="5.72754">
        <ele>745.40002441406</ele>
        <time>2021-09-08T04:35:09.000Z</time>
      </trkpt>
      <trkpt lat="45.20981" lon="5.72752">
        <ele>744</ele>
        <time>2021-09-08T04:35:11.000Z</time>
      </trkpt>
      <trkpt lat="45.20979" lon="5.72749">
        <ele>743</ele>
        <time>2021-09-08T04:35:13.000Z</time>
      </trkpt>
      <trkpt lat="45.20976" lon="5.72747">
        <ele>742</ele>
        <time>2021-09-08T04:35:15.000Z</time>
      </trkpt>
      <trkpt lat="45.20973" lon="5.72743">
        <ele>741</ele>
        <time>2021-09-08T04:35:19.000Z</time>
      </trkpt>
      <trkpt lat="45.20973" lon="5.72741">
        <ele>740.59997558594</ele>
        <time>2021-09-08T04:35:21.000Z</time>
      </trkpt>
      <trkpt lat="45.20972" lon="5.72738">
        <ele>739.20001220703</ele>
        <time>2021-09-08T04:35:24.000Z</time>
      </trkpt>
      <trkpt lat="45.20972" lon="5.72737">
        <ele>739</ele>
        <time>2021-09-08T04:35:25.000Z</time>
      </trkpt>
      <trkpt lat="45.2097" lon="5.72735">
        <ele>737.79998779297</ele>
        <time>2021-09-08T04:35:28.000Z</time>
      </trkpt>
      <trkpt lat="45.20969" lon="5.72734">
        <ele>737.59997558594</ele>
        <time>2021-09-08T04:35:29.000Z</time>
      </trkpt>
      <trkpt lat="45.20969" lon="5.72734">
        <ele>737</ele>
        <time>2021-09-08T04:35:30.000Z</time>
      </trkpt>
      <trkpt lat="45.20968" lon="5.72733">
        <ele>736.79998779297</ele>
        <time>2021-09-08T04:35:31.000Z</time>
      </trkpt>
      <trkpt lat="45.20967" lon="5.72732">
        <ele>736.79998779297</ele>
        <time>2021-09-08T04:35:32.000Z</time>
      </trkpt>
      <trkpt lat="45.20965" lon="5.7273">
        <ele>735.79998779297</ele>
        <time>2021-09-08T04:35:34.000Z</time>
      </trkpt>
      <trkpt lat="45.20964" lon="5.72729">
        <ele>735.59997558594</ele>
        <time>2021-09-08T04:35:35.000Z</time>
      </trkpt>
      <trkpt lat="45.20962" lon="5.72728">
        <ele>734.40002441406</ele>
        <time>2021-09-08T04:35:37.000Z</time>
      </trkpt>
      <trkpt lat="45.2096" lon="5.72727">
        <ele>734.40002441406</ele>
        <time>2021-09-08T04:35:38.000Z</time>
      </trkpt>
      <trkpt lat="45.20959" lon="5.72726">
        <ele>734.20001220703</ele>
        <time>2021-09-08T04:35:39.000Z</time>
      </trkpt>
      <trkpt lat="45.20955" lon="5.72722">
        <ele>733</ele>
        <time>2021-09-08T04:35:41.000Z</time>
      </trkpt>
      <trkpt lat="45.20953" lon="5.7272">
        <ele>732.59997558594</ele>
        <time>2021-09-08T04:35:42.000Z</time>
      </trkpt>
      <trkpt lat="45.20951" lon="5.72719">
        <ele>732.40002441406</ele>
        <time>2021-09-08T04:35:43.000Z</time>
      </trkpt>
      <trkpt lat="45.2095" lon="5.72717">
        <ele>731.59997558594</ele>
        <time>2021-09-08T04:35:44.000Z</time>
      </trkpt>
      <trkpt lat="45.20947" lon="5.72714">
        <ele>731.20001220703</ele>
        <time>2021-09-08T04:35:46.000Z</time>
      </trkpt>
      <trkpt lat="45.20946" lon="5.72712">
        <ele>731</ele>
        <time>2021-09-08T04:35:47.000Z</time>
      </trkpt>
      <trkpt lat="45.20945" lon="5.7271">
        <ele>730.59997558594</ele>
        <time>2021-09-08T04:35:48.000Z</time>
      </trkpt>
      <trkpt lat="45.20944" lon="5.72707">
        <ele>729.79998779297</ele>
        <time>2021-09-08T04:35:49.000Z</time>
      </trkpt>
      <trkpt lat="45.20943" lon="5.72705">
        <ele>729.20001220703</ele>
        <time>2021-09-08T04:35:50.000Z</time>
      </trkpt>
      <trkpt lat="45.20939" lon="5.72699">
        <ele>728.59997558594</ele>
        <time>2021-09-08T04:35:53.000Z</time>
      </trkpt>
      <trkpt lat="45.20937" lon="5.72697">
        <ele>727.79998779297</ele>
        <time>2021-09-08T04:35:54.000Z</time>
      </trkpt>
      <trkpt lat="45.20935" lon="5.72694">
        <ele>727.79998779297</ele>
        <time>2021-09-08T04:35:56.000Z</time>
      </trkpt>
      <trkpt lat="45.20933" lon="5.72693">
        <ele>727.20001220703</ele>
        <time>2021-09-08T04:35:57.000Z</time>
      </trkpt>
      <trkpt lat="45.20932" lon="5.72693">
        <ele>726.59997558594</ele>
        <time>2021-09-08T04:35:58.000Z</time>
      </trkpt>
      <trkpt lat="45.2093" lon="5.72692">
        <ele>726.40002441406</ele>
        <time>2021-09-08T04:35:59.000Z</time>
      </trkpt>
      <trkpt lat="45.20929" lon="5.72691">
        <ele>726.20001220703</ele>
        <time>2021-09-08T04:36:00.000Z</time>
      </trkpt>
      <trkpt lat="45.20928" lon="5.72691">
        <ele>725.79998779297</ele>
        <time>2021-09-08T04:36:01.000Z</time>
      </trkpt>
      <trkpt lat="45.20925" lon="5.72689">
        <ele>725</ele>
        <time>2021-09-08T04:36:03.000Z</time>
      </trkpt>
      <trkpt lat="45.20922" lon="5.72685">
        <ele>724.20001220703</ele>
        <time>2021-09-08T04:36:07.000Z</time>
      </trkpt>
      <trkpt lat="45.20922" lon="5.72685">
        <ele>724</ele>
        <time>2021-09-08T04:36:08.000Z</time>
      </trkpt>
      <trkpt lat="45.2092" lon="5.72685">
        <ele>723.40002441406</ele>
        <time>2021-09-08T04:36:09.000Z</time>
      </trkpt>
      <trkpt lat="45.20918" lon="5.72685">
        <ele>722.20001220703</ele>
        <time>2021-09-08T04:36:11.000Z</time>
      </trkpt>
      <trkpt lat="45.20917" lon="5.72685">
        <ele>722.20001220703</ele>
        <time>2021-09-08T04:36:12.000Z</time>
      </trkpt>
      <trkpt lat="45.20914" lon="5.72686">
        <ele>720.79998779297</ele>
        <time>2021-09-08T04:36:15.000Z</time>
      </trkpt>
      <trkpt lat="45.20912" lon="5.72686">
        <ele>720.59997558594</ele>
        <time>2021-09-08T04:36:17.000Z</time>
      </trkpt>
      <trkpt lat="45.20911" lon="5.72686">
        <ele>720.40002441406</ele>
        <time>2021-09-08T04:36:18.000Z</time>
      </trkpt>
      <trkpt lat="45.2091" lon="5.72686">
        <ele>719.59997558594</ele>
        <time>2021-09-08T04:36:20.000Z</time>
      </trkpt>
      <trkpt lat="45.20909" lon="5.72688">
        <ele>718.59997558594</ele>
        <time>2021-09-08T04:36:23.000Z</time>
      </trkpt>
      <trkpt lat="45.20906" lon="5.72688">
        <ele>718.20001220703</ele>
        <time>2021-09-08T04:36:25.000Z</time>
      </trkpt>
      <trkpt lat="45.20905" lon="5.72688">
        <ele>718.20001220703</ele>
        <time>2021-09-08T04:36:26.000Z</time>
      </trkpt>
      <trkpt lat="45.20903" lon="5.72688">
        <ele>717.40002441406</ele>
        <time>2021-09-08T04:36:27.000Z</time>
      </trkpt>
      <trkpt lat="45.20901" lon="5.72688">
        <ele>716.59997558594</ele>
        <time>2021-09-08T04:36:29.000Z</time>
      </trkpt>
      <trkpt lat="45.209" lon="5.72688">
        <ele>716.59997558594</ele>
        <time>2021-09-08T04:36:30.000Z</time>
      </trkpt>
      <trkpt lat="45.20899" lon="5.72689">
        <ele>716.40002441406</ele>
        <time>2021-09-08T04:36:31.000Z</time>
      </trkpt>
      <trkpt lat="45.20894" lon="5.72691">
        <ele>715.59997558594</ele>
        <time>2021-09-08T04:36:34.000Z</time>
      </trkpt>
      <trkpt lat="45.20893" lon="5.72691">
        <ele>715.20001220703</ele>
        <time>2021-09-08T04:36:35.000Z</time>
      </trkpt>
      <trkpt lat="45.20888" lon="5.72693">
        <ele>714</ele>
        <time>2021-09-08T04:36:38.000Z</time>
      </trkpt>
      <trkpt lat="45.20884" lon="5.72694">
        <ele>713.59997558594</ele>
        <time>2021-09-08T04:36:40.000Z</time>
      </trkpt>
      <trkpt lat="45.20883" lon="5.72694">
        <ele>713.40002441406</ele>
        <time>2021-09-08T04:36:41.000Z</time>
      </trkpt>
      <trkpt lat="45.20879" lon="5.72694">
        <ele>712.59997558594</ele>
        <time>2021-09-08T04:36:42.000Z</time>
      </trkpt>
      <trkpt lat="45.20871" lon="5.72695">
        <ele>712</ele>
        <time>2021-09-08T04:36:44.000Z</time>
      </trkpt>
      <trkpt lat="45.2087" lon="5.72696">
        <ele>711.59997558594</ele>
        <time>2021-09-08T04:36:45.000Z</time>
      </trkpt>
      <trkpt lat="45.20863" lon="5.72698">
        <ele>710.40002441406</ele>
        <time>2021-09-08T04:36:48.000Z</time>
      </trkpt>
      <trkpt lat="45.20853" lon="5.72699">
        <ele>709.20001220703</ele>
        <time>2021-09-08T04:36:54.000Z</time>
      </trkpt>
      <trkpt lat="45.20852" lon="5.72698">
        <ele>709</ele>
        <time>2021-09-08T04:36:55.000Z</time>
      </trkpt>
      <trkpt lat="45.20851" lon="5.72699">
        <ele>708.79998779297</ele>
        <time>2021-09-08T04:36:56.000Z</time>
      </trkpt>
      <trkpt lat="45.2085" lon="5.727">
        <ele>708</ele>
        <time>2021-09-08T04:36:57.000Z</time>
      </trkpt>
      <trkpt lat="45.20848" lon="5.727">
        <ele>707.59997558594</ele>
        <time>2021-09-08T04:36:59.000Z</time>
      </trkpt>
      <trkpt lat="45.20847" lon="5.72701">
        <ele>707</ele>
        <time>2021-09-08T04:37:00.000Z</time>
      </trkpt>
      <trkpt lat="45.20844" lon="5.72702">
        <ele>706.59997558594</ele>
        <time>2021-09-08T04:37:03.000Z</time>
      </trkpt>
      <trkpt lat="45.20842" lon="5.72701">
        <ele>706</ele>
        <time>2021-09-08T04:37:04.000Z</time>
      </trkpt>
      <trkpt lat="45.20838" lon="5.72697">
        <ele>705.20001220703</ele>
        <time>2021-09-08T04:37:07.000Z</time>
      </trkpt>
      <trkpt lat="45.20837" lon="5.72695">
        <ele>704.79998779297</ele>
        <time>2021-09-08T04:37:08.000Z</time>
      </trkpt>
      <trkpt lat="45.20836" lon="5.72693">
        <ele>704.40002441406</ele>
        <time>2021-09-08T04:37:09.000Z</time>
      </trkpt>
      <trkpt lat="45.20835" lon="5.72691">
        <ele>704.40002441406</ele>
        <time>2021-09-08T04:37:10.000Z</time>
      </trkpt>
      <trkpt lat="45.20835" lon="5.7269">
        <ele>703.40002441406</ele>
        <time>2021-09-08T04:37:11.000Z</time>
      </trkpt>
      <trkpt lat="45.20833" lon="5.72682">
        <ele>702</ele>
        <time>2021-09-08T04:37:15.000Z</time>
      </trkpt>
      <trkpt lat="45.20831" lon="5.72676">
        <ele>700.79998779297</ele>
        <time>2021-09-08T04:37:19.000Z</time>
      </trkpt>
      <trkpt lat="45.2083" lon="5.72672">
        <ele>699.79998779297</ele>
        <time>2021-09-08T04:37:21.000Z</time>
      </trkpt>
      <trkpt lat="45.2083" lon="5.72671">
        <ele>699.20001220703</ele>
        <time>2021-09-08T04:37:22.000Z</time>
      </trkpt>
      <trkpt lat="45.20825" lon="5.72665">
        <ele>698.40002441406</ele>
        <time>2021-09-08T04:37:26.000Z</time>
      </trkpt>
      <trkpt lat="45.20824" lon="5.72665">
        <ele>698</ele>
        <time>2021-09-08T04:37:27.000Z</time>
      </trkpt>
      <trkpt lat="45.20824" lon="5.72666">
        <ele>697.40002441406</ele>
        <time>2021-09-08T04:37:28.000Z</time>
      </trkpt>
      <trkpt lat="45.20823" lon="5.72667">
        <ele>697.40002441406</ele>
        <time>2021-09-08T04:37:29.000Z</time>
      </trkpt>
      <trkpt lat="45.20823" lon="5.72668">
        <ele>697</ele>
        <time>2021-09-08T04:37:30.000Z</time>
      </trkpt>
      <trkpt lat="45.20822" lon="5.72669">
        <ele>696.59997558594</ele>
        <time>2021-09-08T04:37:31.000Z</time>
      </trkpt>
      <trkpt lat="45.20821" lon="5.7267">
        <ele>696</ele>
        <time>2021-09-08T04:37:32.000Z</time>
      </trkpt>
      <trkpt lat="45.2082" lon="5.72671">
        <ele>695.59997558594</ele>
        <time>2021-09-08T04:37:33.000Z</time>
      </trkpt>
      <trkpt lat="45.20818" lon="5.72672">
        <ele>694.79998779297</ele>
        <time>2021-09-08T04:37:35.000Z</time>
      </trkpt>
      <trkpt lat="45.20816" lon="5.72672">
        <ele>694</ele>
        <time>2021-09-08T04:37:38.000Z</time>
      </trkpt>
      <trkpt lat="45.20814" lon="5.72673">
        <ele>693.20001220703</ele>
        <time>2021-09-08T04:37:39.000Z</time>
      </trkpt>
      <trkpt lat="45.20805" lon="5.72671">
        <ele>692</ele>
        <time>2021-09-08T04:37:43.000Z</time>
      </trkpt>
      <trkpt lat="45.20803" lon="5.72667">
        <ele>690.79998779297</ele>
        <time>2021-09-08T04:37:45.000Z</time>
      </trkpt>
      <trkpt lat="45.20801" lon="5.72658">
        <ele>689.40002441406</ele>
        <time>2021-09-08T04:37:49.000Z</time>
      </trkpt>
      <trkpt lat="45.208" lon="5.72649">
        <ele>688</ele>
        <time>2021-09-08T04:37:53.000Z</time>
      </trkpt>
      <trkpt lat="45.20798" lon="5.72643">
        <ele>687</ele>
        <time>2021-09-08T04:37:56.000Z</time>
      </trkpt>
      <trkpt lat="45.20798" lon="5.72642">
        <ele>687</ele>
        <time>2021-09-08T04:37:57.000Z</time>
      </trkpt>
      <trkpt lat="45.20797" lon="5.72639">
        <ele>685.40002441406</ele>
        <time>2021-09-08T04:38:00.000Z</time>
      </trkpt>
      <trkpt lat="45.20795" lon="5.72635">
        <ele>684.40002441406</ele>
        <time>2021-09-08T04:38:02.000Z</time>
      </trkpt>
      <trkpt lat="45.20795" lon="5.72633">
        <ele>684.20001220703</ele>
        <time>2021-09-08T04:38:03.000Z</time>
      </trkpt>
      <trkpt lat="45.20793" lon="5.72631">
        <ele>683.59997558594</ele>
        <time>2021-09-08T04:38:05.000Z</time>
      </trkpt>
      <trkpt lat="45.20792" lon="5.72631">
        <ele>683</ele>
        <time>2021-09-08T04:38:08.000Z</time>
      </trkpt>
      <trkpt lat="45.20791" lon="5.72632">
        <ele>682</ele>
        <time>2021-09-08T04:38:11.000Z</time>
      </trkpt>
      <trkpt lat="45.20791" lon="5.72633">
        <ele>681.79998779297</ele>
        <time>2021-09-08T04:38:12.000Z</time>
      </trkpt>
      <trkpt lat="45.2079" lon="5.72635">
        <ele>681.40002441406</ele>
        <time>2021-09-08T04:38:13.000Z</time>
      </trkpt>
      <trkpt lat="45.20789" lon="5.72637">
        <ele>681.20001220703</ele>
        <time>2021-09-08T04:38:14.000Z</time>
      </trkpt>
      <trkpt lat="45.20788" lon="5.72639">
        <ele>680.40002441406</ele>
        <time>2021-09-08T04:38:15.000Z</time>
      </trkpt>
      <trkpt lat="45.20787" lon="5.7264">
        <ele>680.40002441406</ele>
        <time>2021-09-08T04:38:16.000Z</time>
      </trkpt>
      <trkpt lat="45.20784" lon="5.72642">
        <ele>679.79998779297</ele>
        <time>2021-09-08T04:38:18.000Z</time>
      </trkpt>
      <trkpt lat="45.20782" lon="5.72643">
        <ele>679.40002441406</ele>
        <time>2021-09-08T04:38:20.000Z</time>
      </trkpt>
      <trkpt lat="45.20782" lon="5.72645">
        <ele>678.59997558594</ele>
        <time>2021-09-08T04:38:21.000Z</time>
      </trkpt>
      <trkpt lat="45.20782" lon="5.7265">
        <ele>678.20001220703</ele>
        <time>2021-09-08T04:38:23.000Z</time>
      </trkpt>
      <trkpt lat="45.20781" lon="5.72651">
        <ele>678.20001220703</ele>
        <time>2021-09-08T04:38:24.000Z</time>
      </trkpt>
      <trkpt lat="45.20778" lon="5.72652">
        <ele>676.79998779297</ele>
        <time>2021-09-08T04:38:27.000Z</time>
      </trkpt>
      <trkpt lat="45.20772" lon="5.72649">
        <ele>676</ele>
        <time>2021-09-08T04:38:30.000Z</time>
      </trkpt>
      <trkpt lat="45.20772" lon="5.72647">
        <ele>675.59997558594</ele>
        <time>2021-09-08T04:38:31.000Z</time>
      </trkpt>
      <trkpt lat="45.20772" lon="5.72646">
        <ele>674.40002441406</ele>
        <time>2021-09-08T04:38:33.000Z</time>
      </trkpt>
      <trkpt lat="45.20772" lon="5.72644">
        <ele>674.40002441406</ele>
        <time>2021-09-08T04:38:34.000Z</time>
      </trkpt>
      <trkpt lat="45.2077" lon="5.72635">
        <ele>672.59997558594</ele>
        <time>2021-09-08T04:38:38.000Z</time>
      </trkpt>
      <trkpt lat="45.2077" lon="5.72633">
        <ele>672</ele>
        <time>2021-09-08T04:38:39.000Z</time>
      </trkpt>
      <trkpt lat="45.20768" lon="5.72626">
        <ele>671.59997558594</ele>
        <time>2021-09-08T04:38:42.000Z</time>
      </trkpt>
      <trkpt lat="45.20768" lon="5.72622">
        <ele>671</ele>
        <time>2021-09-08T04:38:44.000Z</time>
      </trkpt>
      <trkpt lat="45.20766" lon="5.72619">
        <ele>669.59997558594</ele>
        <time>2021-09-08T04:38:47.000Z</time>
      </trkpt>
      <trkpt lat="45.20764" lon="5.7262">
        <ele>668.40002441406</ele>
        <time>2021-09-08T04:38:50.000Z</time>
      </trkpt>
      <trkpt lat="45.20762" lon="5.72621">
        <ele>667.59997558594</ele>
        <time>2021-09-08T04:38:52.000Z</time>
      </trkpt>
      <trkpt lat="45.20761" lon="5.72621">
        <ele>667.20001220703</ele>
        <time>2021-09-08T04:38:53.000Z</time>
      </trkpt>
      <trkpt lat="45.20761" lon="5.72622">
        <ele>667</ele>
        <time>2021-09-08T04:38:54.000Z</time>
      </trkpt>
      <trkpt lat="45.20758" lon="5.72624">
        <ele>666</ele>
        <time>2021-09-08T04:38:56.000Z</time>
      </trkpt>
      <trkpt lat="45.20756" lon="5.72624">
        <ele>665.40002441406</ele>
        <time>2021-09-08T04:38:57.000Z</time>
      </trkpt>
      <trkpt lat="45.20753" lon="5.72624">
        <ele>664.40002441406</ele>
        <time>2021-09-08T04:38:59.000Z</time>
      </trkpt>
      <trkpt lat="45.20749" lon="5.72624">
        <ele>663.40002441406</ele>
        <time>2021-09-08T04:39:02.000Z</time>
      </trkpt>
      <trkpt lat="45.20748" lon="5.72623">
        <ele>663.20001220703</ele>
        <time>2021-09-08T04:39:03.000Z</time>
      </trkpt>
      <trkpt lat="45.20746" lon="5.7262">
        <ele>662.79998779297</ele>
        <time>2021-09-08T04:39:05.000Z</time>
      </trkpt>
      <trkpt lat="45.20745" lon="5.72616">
        <ele>662.20001220703</ele>
        <time>2021-09-08T04:39:07.000Z</time>
      </trkpt>
      <trkpt lat="45.20744" lon="5.72612">
        <ele>661</ele>
        <time>2021-09-08T04:39:09.000Z</time>
      </trkpt>
      <trkpt lat="45.20743" lon="5.7261">
        <ele>660.79998779297</ele>
        <time>2021-09-08T04:39:10.000Z</time>
      </trkpt>
      <trkpt lat="45.2074" lon="5.72607">
        <ele>660</ele>
        <time>2021-09-08T04:39:12.000Z</time>
      </trkpt>
      <trkpt lat="45.20738" lon="5.72603">
        <ele>659.79998779297</ele>
        <time>2021-09-08T04:39:14.000Z</time>
      </trkpt>
      <trkpt lat="45.20737" lon="5.72601">
        <ele>658.40002441406</ele>
        <time>2021-09-08T04:39:15.000Z</time>
      </trkpt>
      <trkpt lat="45.20735" lon="5.72597">
        <ele>658</ele>
        <time>2021-09-08T04:39:17.000Z</time>
      </trkpt>
      <trkpt lat="45.20734" lon="5.72596">
        <ele>658</ele>
        <time>2021-09-08T04:39:18.000Z</time>
      </trkpt>
      <trkpt lat="45.20733" lon="5.72596">
        <ele>657</ele>
        <time>2021-09-08T04:39:19.000Z</time>
      </trkpt>
      <trkpt lat="45.20732" lon="5.72595">
        <ele>657</ele>
        <time>2021-09-08T04:39:21.000Z</time>
      </trkpt>
      <trkpt lat="45.20731" lon="5.72594">
        <ele>656</ele>
        <time>2021-09-08T04:39:22.000Z</time>
      </trkpt>
      <trkpt lat="45.2073" lon="5.72593">
        <ele>656</ele>
        <time>2021-09-08T04:39:23.000Z</time>
      </trkpt>
      <trkpt lat="45.20722" lon="5.72588">
        <ele>653.79998779297</ele>
        <time>2021-09-08T04:39:27.000Z</time>
      </trkpt>
      <trkpt lat="45.2072" lon="5.72588">
        <ele>653.59997558594</ele>
        <time>2021-09-08T04:39:28.000Z</time>
      </trkpt>
      <trkpt lat="45.20715" lon="5.72587">
        <ele>653</ele>
        <time>2021-09-08T04:39:31.000Z</time>
      </trkpt>
      <trkpt lat="45.20714" lon="5.72586">
        <ele>652</ele>
        <time>2021-09-08T04:39:32.000Z</time>
      </trkpt>
      <trkpt lat="45.20712" lon="5.72584">
        <ele>651.79998779297</ele>
        <time>2021-09-08T04:39:33.000Z</time>
      </trkpt>
      <trkpt lat="45.20709" lon="5.7258">
        <ele>650.79998779297</ele>
        <time>2021-09-08T04:39:36.000Z</time>
      </trkpt>
      <trkpt lat="45.20706" lon="5.72576">
        <ele>649.59997558594</ele>
        <time>2021-09-08T04:39:39.000Z</time>
      </trkpt>
      <trkpt lat="45.20705" lon="5.72575">
        <ele>649</ele>
        <time>2021-09-08T04:39:40.000Z</time>
      </trkpt>
      <trkpt lat="45.20703" lon="5.72572">
        <ele>648.59997558594</ele>
        <time>2021-09-08T04:39:42.000Z</time>
      </trkpt>
      <trkpt lat="45.20702" lon="5.72571">
        <ele>647.79998779297</ele>
        <time>2021-09-08T04:39:44.000Z</time>
      </trkpt>
      <trkpt lat="45.20699" lon="5.72571">
        <ele>647</ele>
        <time>2021-09-08T04:39:46.000Z</time>
      </trkpt>
      <trkpt lat="45.20692" lon="5.72574">
        <ele>645.59997558594</ele>
        <time>2021-09-08T04:39:50.000Z</time>
      </trkpt>
      <trkpt lat="45.20685" lon="5.72576">
        <ele>643.59997558594</ele>
        <time>2021-09-08T04:39:54.000Z</time>
      </trkpt>
      <trkpt lat="45.20683" lon="5.72578">
        <ele>643.20001220703</ele>
        <time>2021-09-08T04:39:55.000Z</time>
      </trkpt>
      <trkpt lat="45.20681" lon="5.7258">
        <ele>643</ele>
        <time>2021-09-08T04:39:57.000Z</time>
      </trkpt>
      <trkpt lat="45.20679" lon="5.72582">
        <ele>642.79998779297</ele>
        <time>2021-09-08T04:39:58.000Z</time>
      </trkpt>
      <trkpt lat="45.20678" lon="5.72585">
        <ele>642.59997558594</ele>
        <time>2021-09-08T04:39:59.000Z</time>
      </trkpt>
      <trkpt lat="45.20674" lon="5.72589">
        <ele>641.79998779297</ele>
        <time>2021-09-08T04:40:01.000Z</time>
      </trkpt>
      <trkpt lat="45.2067" lon="5.72592">
        <ele>641.20001220703</ele>
        <time>2021-09-08T04:40:03.000Z</time>
      </trkpt>
      <trkpt lat="45.20667" lon="5.72596">
        <ele>640.79998779297</ele>
        <time>2021-09-08T04:40:05.000Z</time>
      </trkpt>
      <trkpt lat="45.20663" lon="5.726">
        <ele>640.59997558594</ele>
        <time>2021-09-08T04:40:07.000Z</time>
      </trkpt>
      <trkpt lat="45.20661" lon="5.72601">
        <ele>640.20001220703</ele>
        <time>2021-09-08T04:40:08.000Z</time>
      </trkpt>
      <trkpt lat="45.20658" lon="5.72602">
        <ele>640.20001220703</ele>
        <time>2021-09-08T04:40:09.000Z</time>
      </trkpt>
      <trkpt lat="45.20649" lon="5.72604">
        <ele>639.40002441406</ele>
        <time>2021-09-08T04:40:12.000Z</time>
      </trkpt>
      <trkpt lat="45.20644" lon="5.72605">
        <ele>639</ele>
        <time>2021-09-08T04:40:14.000Z</time>
      </trkpt>
      <trkpt lat="45.20639" lon="5.72605">
        <ele>638.79998779297</ele>
        <time>2021-09-08T04:40:15.000Z</time>
      </trkpt>
      <trkpt lat="45.20636" lon="5.72604">
        <ele>638.79998779297</ele>
        <time>2021-09-08T04:40:16.000Z</time>
      </trkpt>
      <trkpt lat="45.2063" lon="5.72603">
        <ele>638.59997558594</ele>
        <time>2021-09-08T04:40:18.000Z</time>
      </trkpt>
      <trkpt lat="45.20626" lon="5.72602">
        <ele>637.79998779297</ele>
        <time>2021-09-08T04:40:20.000Z</time>
      </trkpt>
      <trkpt lat="45.20621" lon="5.726">
        <ele>637.40002441406</ele>
        <time>2021-09-08T04:40:22.000Z</time>
      </trkpt>
      <trkpt lat="45.20619" lon="5.72599">
        <ele>636.59997558594</ele>
        <time>2021-09-08T04:40:23.000Z</time>
      </trkpt>
      <trkpt lat="45.20608" lon="5.72589">
        <ele>635.59997558594</ele>
        <time>2021-09-08T04:40:27.000Z</time>
      </trkpt>
      <trkpt lat="45.20602" lon="5.72584">
        <ele>635.20001220703</ele>
        <time>2021-09-08T04:40:30.000Z</time>
      </trkpt>
      <trkpt lat="45.20589" lon="5.72573">
        <ele>634.40002441406</ele>
        <time>2021-09-08T04:40:36.000Z</time>
      </trkpt>
      <trkpt lat="45.20587" lon="5.72573">
        <ele>633.79998779297</ele>
        <time>2021-09-08T04:40:37.000Z</time>
      </trkpt>
      <trkpt lat="45.20585" lon="5.72571">
        <ele>633.59997558594</ele>
        <time>2021-09-08T04:40:38.000Z</time>
      </trkpt>
      <trkpt lat="45.20576" lon="5.72567">
        <ele>633.20001220703</ele>
        <time>2021-09-08T04:40:42.000Z</time>
      </trkpt>
      <trkpt lat="45.20565" lon="5.72564">
        <ele>631.79998779297</ele>
        <time>2021-09-08T04:40:46.000Z</time>
      </trkpt>
      <trkpt lat="45.20555" lon="5.72562">
        <ele>631.59997558594</ele>
        <time>2021-09-08T04:40:50.000Z</time>
      </trkpt>
      <trkpt lat="45.20541" lon="5.72565">
        <ele>630.59997558594</ele>
        <time>2021-09-08T04:40:56.000Z</time>
      </trkpt>
      <trkpt lat="45.20538" lon="5.72567">
        <ele>630.59997558594</ele>
        <time>2021-09-08T04:40:57.000Z</time>
      </trkpt>
      <trkpt lat="45.20524" lon="5.72568">
        <ele>632</ele>
        <time>2021-09-08T04:41:02.000Z</time>
      </trkpt>
      <trkpt lat="45.20511" lon="5.72563">
        <ele>632.79998779297</ele>
        <time>2021-09-08T04:41:06.000Z</time>
      </trkpt>
      <trkpt lat="45.20506" lon="5.72558">
        <ele>633</ele>
        <time>2021-09-08T04:41:08.000Z</time>
      </trkpt>
      <trkpt lat="45.20502" lon="5.72552">
        <ele>633</ele>
        <time>2021-09-08T04:41:10.000Z</time>
      </trkpt>
      <trkpt lat="45.20497" lon="5.72542">
        <ele>632.59997558594</ele>
        <time>2021-09-08T04:41:13.000Z</time>
      </trkpt>
      <trkpt lat="45.20485" lon="5.7252">
        <ele>632.20001220703</ele>
        <time>2021-09-08T04:41:20.000Z</time>
      </trkpt>
      <trkpt lat="45.20484" lon="5.72516">
        <ele>632.20001220703</ele>
        <time>2021-09-08T04:41:21.000Z</time>
      </trkpt>
      <trkpt lat="45.20481" lon="5.72509">
        <ele>631.79998779297</ele>
        <time>2021-09-08T04:41:23.000Z</time>
      </trkpt>
      <trkpt lat="45.20476" lon="5.72484">
        <ele>631.79998779297</ele>
        <time>2021-09-08T04:41:30.000Z</time>
      </trkpt>
      <trkpt lat="45.20473" lon="5.72471">
        <ele>633.20001220703</ele>
        <time>2021-09-08T04:41:34.000Z</time>
      </trkpt>
      <trkpt lat="45.20473" lon="5.72466">
        <ele>634</ele>
        <time>2021-09-08T04:41:36.000Z</time>
      </trkpt>
      <trkpt lat="45.20473" lon="5.72463">
        <ele>634.40002441406</ele>
        <time>2021-09-08T04:41:37.000Z</time>
      </trkpt>
      <trkpt lat="45.20471" lon="5.72455">
        <ele>635.59997558594</ele>
        <time>2021-09-08T04:41:40.000Z</time>
      </trkpt>
      <trkpt lat="45.20471" lon="5.72452">
        <ele>636</ele>
        <time>2021-09-08T04:41:41.000Z</time>
      </trkpt>
      <trkpt lat="45.20469" lon="5.72446">
        <ele>636.59997558594</ele>
        <time>2021-09-08T04:41:43.000Z</time>
      </trkpt>
      <trkpt lat="45.20468" lon="5.72443">
        <ele>637.20001220703</ele>
        <time>2021-09-08T04:41:44.000Z</time>
      </trkpt>
      <trkpt lat="45.20461" lon="5.72434">
        <ele>637.20001220703</ele>
        <time>2021-09-08T04:41:48.000Z</time>
      </trkpt>
      <trkpt lat="45.20457" lon="5.72431">
        <ele>637.20001220703</ele>
        <time>2021-09-08T04:41:50.000Z</time>
      </trkpt>
      <trkpt lat="45.20451" lon="5.72428">
        <ele>637.20001220703</ele>
        <time>2021-09-08T04:41:53.000Z</time>
      </trkpt>
      <trkpt lat="45.20446" lon="5.72427">
        <ele>637</ele>
        <time>2021-09-08T04:41:56.000Z</time>
      </trkpt>
      <trkpt lat="45.20445" lon="5.72425">
        <ele>636.79998779297</ele>
        <time>2021-09-08T04:41:57.000Z</time>
      </trkpt>
      <trkpt lat="45.20443" lon="5.72424">
        <ele>636.59997558594</ele>
        <time>2021-09-08T04:41:58.000Z</time>
      </trkpt>
      <trkpt lat="45.20431" lon="5.72423">
        <ele>636.59997558594</ele>
        <time>2021-09-08T04:42:05.000Z</time>
      </trkpt>
      <trkpt lat="45.20429" lon="5.72422">
        <ele>636.59997558594</ele>
        <time>2021-09-08T04:42:06.000Z</time>
      </trkpt>
      <trkpt lat="45.20427" lon="5.72423">
        <ele>636.59997558594</ele>
        <time>2021-09-08T04:42:07.000Z</time>
      </trkpt>
      <trkpt lat="45.20422" lon="5.72427">
        <ele>636.79998779297</ele>
        <time>2021-09-08T04:42:11.000Z</time>
      </trkpt>
      <trkpt lat="45.20404" lon="5.72431">
        <ele>637.59997558594</ele>
        <time>2021-09-08T04:42:19.000Z</time>
      </trkpt>
      <trkpt lat="45.20397" lon="5.72426">
        <ele>637.59997558594</ele>
        <time>2021-09-08T04:42:23.000Z</time>
      </trkpt>
      <trkpt lat="45.20397" lon="5.72423">
        <ele>637.59997558594</ele>
        <time>2021-09-08T04:42:24.000Z</time>
      </trkpt>
      <trkpt lat="45.20395" lon="5.7242">
        <ele>637.40002441406</ele>
        <time>2021-09-08T04:42:26.000Z</time>
      </trkpt>
      <trkpt lat="45.20393" lon="5.72419">
        <ele>637.20001220703</ele>
        <time>2021-09-08T04:42:28.000Z</time>
      </trkpt>
      <trkpt lat="45.20391" lon="5.72421">
        <ele>637.20001220703</ele>
        <time>2021-09-08T04:42:29.000Z</time>
      </trkpt>
      <trkpt lat="45.20388" lon="5.72425">
        <ele>636.59997558594</ele>
        <time>2021-09-08T04:42:33.000Z</time>
      </trkpt>
      <trkpt lat="45.20386" lon="5.72426">
        <ele>636.59997558594</ele>
        <time>2021-09-08T04:42:35.000Z</time>
      </trkpt>
      <trkpt lat="45.20385" lon="5.72426">
        <ele>636.40002441406</ele>
        <time>2021-09-08T04:42:36.000Z</time>
      </trkpt>
      <trkpt lat="45.20385" lon="5.72428">
        <ele>636</ele>
        <time>2021-09-08T04:42:37.000Z</time>
      </trkpt>
      <trkpt lat="45.20385" lon="5.72431">
        <ele>635.59997558594</ele>
        <time>2021-09-08T04:42:38.000Z</time>
      </trkpt>
      <trkpt lat="45.20385" lon="5.7244">
        <ele>635.40002441406</ele>
        <time>2021-09-08T04:42:42.000Z</time>
      </trkpt>
      <trkpt lat="45.20386" lon="5.7244">
        <ele>635.40002441406</ele>
        <time>2021-09-08T04:42:43.000Z</time>
      </trkpt>
      <trkpt lat="45.2039" lon="5.72441">
        <ele>635.40002441406</ele>
        <time>2021-09-08T04:42:47.000Z</time>
      </trkpt>
      <trkpt lat="45.20394" lon="5.7244">
        <ele>635</ele>
        <time>2021-09-08T04:42:49.000Z</time>
      </trkpt>
      <trkpt lat="45.20395" lon="5.72439">
        <ele>634.59997558594</ele>
        <time>2021-09-08T04:42:50.000Z</time>
      </trkpt>
      <trkpt lat="45.20398" lon="5.7244">
        <ele>634.40002441406</ele>
        <time>2021-09-08T04:42:52.000Z</time>
      </trkpt>
      <trkpt lat="45.20399" lon="5.72443">
        <ele>633.79998779297</ele>
        <time>2021-09-08T04:42:55.000Z</time>
      </trkpt>
      <trkpt lat="45.20401" lon="5.72445">
        <ele>632.79998779297</ele>
        <time>2021-09-08T04:42:58.000Z</time>
      </trkpt>
      <trkpt lat="45.20403" lon="5.72445">
        <ele>632.40002441406</ele>
        <time>2021-09-08T04:42:59.000Z</time>
      </trkpt>
      <trkpt lat="45.20407" lon="5.72446">
        <ele>631.59997558594</ele>
        <time>2021-09-08T04:43:01.000Z</time>
      </trkpt>
      <trkpt lat="45.20415" lon="5.72452">
        <ele>630.59997558594</ele>
        <time>2021-09-08T04:43:04.000Z</time>
      </trkpt>
      <trkpt lat="45.20421" lon="5.72459">
        <ele>630.20001220703</ele>
        <time>2021-09-08T04:43:07.000Z</time>
      </trkpt>
      <trkpt lat="45.20431" lon="5.72465">
        <ele>630</ele>
        <time>2021-09-08T04:43:11.000Z</time>
      </trkpt>
      <trkpt lat="45.20443" lon="5.72469">
        <ele>630.79998779297</ele>
        <time>2021-09-08T04:43:17.000Z</time>
      </trkpt>
      <trkpt lat="45.20455" lon="5.72475">
        <ele>631</ele>
        <time>2021-09-08T04:43:23.000Z</time>
      </trkpt>
      <trkpt lat="45.20462" lon="5.72478">
        <ele>630.79998779297</ele>
        <time>2021-09-08T04:43:26.000Z</time>
      </trkpt>
      <trkpt lat="45.20471" lon="5.7248">
        <ele>630.79998779297</ele>
        <time>2021-09-08T04:43:29.000Z</time>
      </trkpt>
      <trkpt lat="45.20476" lon="5.72483">
        <ele>630.79998779297</ele>
        <time>2021-09-08T04:43:31.000Z</time>
      </trkpt>
      <trkpt lat="45.20479" lon="5.72492">
        <ele>630.79998779297</ele>
        <time>2021-09-08T04:43:33.000Z</time>
      </trkpt>
      <trkpt lat="45.20485" lon="5.7251">
        <ele>630.79998779297</ele>
        <time>2021-09-08T04:43:37.000Z</time>
      </trkpt>
      <trkpt lat="45.20485" lon="5.72514">
        <ele>631.20001220703</ele>
        <time>2021-09-08T04:43:38.000Z</time>
      </trkpt>
      <trkpt lat="45.20484" lon="5.7253">
        <ele>630.79998779297</ele>
        <time>2021-09-08T04:43:42.000Z</time>
      </trkpt>
      <trkpt lat="45.20489" lon="5.72543">
        <ele>629.20001220703</ele>
        <time>2021-09-08T04:43:47.000Z</time>
      </trkpt>
      <trkpt lat="45.20493" lon="5.72555">
        <ele>628</ele>
        <time>2021-09-08T04:43:52.000Z</time>
      </trkpt>
      <trkpt lat="45.20494" lon="5.7256">
        <ele>627.59997558594</ele>
        <time>2021-09-08T04:43:54.000Z</time>
      </trkpt>
      <trkpt lat="45.20493" lon="5.72562">
        <ele>627.20001220703</ele>
        <time>2021-09-08T04:43:55.000Z</time>
      </trkpt>
      <trkpt lat="45.20492" lon="5.72564">
        <ele>626.20001220703</ele>
        <time>2021-09-08T04:43:56.000Z</time>
      </trkpt>
      <trkpt lat="45.20489" lon="5.72565">
        <ele>625.79998779297</ele>
        <time>2021-09-08T04:43:57.000Z</time>
      </trkpt>
      <trkpt lat="45.20482" lon="5.72562">
        <ele>625</ele>
        <time>2021-09-08T04:44:00.000Z</time>
      </trkpt>
      <trkpt lat="45.20477" lon="5.72558">
        <ele>624.79998779297</ele>
        <time>2021-09-08T04:44:02.000Z</time>
      </trkpt>
      <trkpt lat="45.20473" lon="5.72554">
        <ele>624</ele>
        <time>2021-09-08T04:44:04.000Z</time>
      </trkpt>
      <trkpt lat="45.20465" lon="5.72548">
        <ele>623.79998779297</ele>
        <time>2021-09-08T04:44:07.000Z</time>
      </trkpt>
      <trkpt lat="45.20459" lon="5.72541">
        <ele>622.79998779297</ele>
        <time>2021-09-08T04:44:10.000Z</time>
      </trkpt>
      <trkpt lat="45.20457" lon="5.72538">
        <ele>622.40002441406</ele>
        <time>2021-09-08T04:44:11.000Z</time>
      </trkpt>
      <trkpt lat="45.20452" lon="5.7253">
        <ele>621.79998779297</ele>
        <time>2021-09-08T04:44:14.000Z</time>
      </trkpt>
      <trkpt lat="45.2045" lon="5.72528">
        <ele>621.59997558594</ele>
        <time>2021-09-08T04:44:15.000Z</time>
      </trkpt>
      <trkpt lat="45.20445" lon="5.72521">
        <ele>620.40002441406</ele>
        <time>2021-09-08T04:44:18.000Z</time>
      </trkpt>
      <trkpt lat="45.20443" lon="5.72521">
        <ele>620.20001220703</ele>
        <time>2021-09-08T04:44:19.000Z</time>
      </trkpt>
      <trkpt lat="45.20437" lon="5.72523">
        <ele>619.40002441406</ele>
        <time>2021-09-08T04:44:22.000Z</time>
      </trkpt>
      <trkpt lat="45.20436" lon="5.72523">
        <ele>619.40002441406</ele>
        <time>2021-09-08T04:44:24.000Z</time>
      </trkpt>
      <trkpt lat="45.20435" lon="5.72522">
        <ele>619</ele>
        <time>2021-09-08T04:44:26.000Z</time>
      </trkpt>
      <trkpt lat="45.20434" lon="5.72524">
        <ele>618.20001220703</ele>
        <time>2021-09-08T04:44:28.000Z</time>
      </trkpt>
      <trkpt lat="45.20433" lon="5.72525">
        <ele>617.20001220703</ele>
        <time>2021-09-08T04:44:29.000Z</time>
      </trkpt>
      <trkpt lat="45.20431" lon="5.72525">
        <ele>617</ele>
        <time>2021-09-08T04:44:30.000Z</time>
      </trkpt>
      <trkpt lat="45.2043" lon="5.72525">
        <ele>616</ele>
        <time>2021-09-08T04:44:32.000Z</time>
      </trkpt>
      <trkpt lat="45.20429" lon="5.72525">
        <ele>615.59997558594</ele>
        <time>2021-09-08T04:44:34.000Z</time>
      </trkpt>
      <trkpt lat="45.20429" lon="5.72524">
        <ele>615</ele>
        <time>2021-09-08T04:44:35.000Z</time>
      </trkpt>
      <trkpt lat="45.20428" lon="5.72524">
        <ele>614.59997558594</ele>
        <time>2021-09-08T04:44:36.000Z</time>
      </trkpt>
      <trkpt lat="45.20428" lon="5.72524">
        <ele>614.40002441406</ele>
        <time>2021-09-08T04:44:37.000Z</time>
      </trkpt>
      <trkpt lat="45.20427" lon="5.72525">
        <ele>613.79998779297</ele>
        <time>2021-09-08T04:44:38.000Z</time>
      </trkpt>
      <trkpt lat="45.20426" lon="5.72525">
        <ele>612.59997558594</ele>
        <time>2021-09-08T04:44:41.000Z</time>
      </trkpt>
      <trkpt lat="45.20424" lon="5.72526">
        <ele>611.59997558594</ele>
        <time>2021-09-08T04:44:44.000Z</time>
      </trkpt>
      <trkpt lat="45.20424" lon="5.72528">
        <ele>610.79998779297</ele>
        <time>2021-09-08T04:44:45.000Z</time>
      </trkpt>
      <trkpt lat="45.20424" lon="5.72528">
        <ele>610.40002441406</ele>
        <time>2021-09-08T04:44:46.000Z</time>
      </trkpt>
      <trkpt lat="45.20422" lon="5.72532">
        <ele>609.40002441406</ele>
        <time>2021-09-08T04:44:49.000Z</time>
      </trkpt>
      <trkpt lat="45.20421" lon="5.72533">
        <ele>609</ele>
        <time>2021-09-08T04:44:50.000Z</time>
      </trkpt>
      <trkpt lat="45.2042" lon="5.72533">
        <ele>608.59997558594</ele>
        <time>2021-09-08T04:44:51.000Z</time>
      </trkpt>
      <trkpt lat="45.20418" lon="5.72534">
        <ele>607.59997558594</ele>
        <time>2021-09-08T04:44:54.000Z</time>
      </trkpt>
      <trkpt lat="45.20417" lon="5.72535">
        <ele>607.59997558594</ele>
        <time>2021-09-08T04:44:56.000Z</time>
      </trkpt>
      <trkpt lat="45.20416" lon="5.72536">
        <ele>607.40002441406</ele>
        <time>2021-09-08T04:44:57.000Z</time>
      </trkpt>
      <trkpt lat="45.20415" lon="5.72535">
        <ele>606.40002441406</ele>
        <time>2021-09-08T04:44:58.000Z</time>
      </trkpt>
      <trkpt lat="45.20413" lon="5.72537">
        <ele>605.40002441406</ele>
        <time>2021-09-08T04:45:00.000Z</time>
      </trkpt>
      <trkpt lat="45.20412" lon="5.7254">
        <ele>604.59997558594</ele>
        <time>2021-09-08T04:45:03.000Z</time>
      </trkpt>
      <trkpt lat="45.20411" lon="5.7254">
        <ele>604.59997558594</ele>
        <time>2021-09-08T04:45:04.000Z</time>
      </trkpt>
      <trkpt lat="45.2041" lon="5.72541">
        <ele>604.40002441406</ele>
        <time>2021-09-08T04:45:05.000Z</time>
      </trkpt>
      <trkpt lat="45.20409" lon="5.72541">
        <ele>604</ele>
        <time>2021-09-08T04:45:06.000Z</time>
      </trkpt>
      <trkpt lat="45.20406" lon="5.72539">
        <ele>602.79998779297</ele>
        <time>2021-09-08T04:45:09.000Z</time>
      </trkpt>
      <trkpt lat="45.20402" lon="5.72542">
        <ele>601.40002441406</ele>
        <time>2021-09-08T04:45:13.000Z</time>
      </trkpt>
      <trkpt lat="45.20401" lon="5.72543">
        <ele>601.20001220703</ele>
        <time>2021-09-08T04:45:14.000Z</time>
      </trkpt>
      <trkpt lat="45.20401" lon="5.72544">
        <ele>600.79998779297</ele>
        <time>2021-09-08T04:45:15.000Z</time>
      </trkpt>
      <trkpt lat="45.20399" lon="5.72546">
        <ele>600.20001220703</ele>
        <time>2021-09-08T04:45:17.000Z</time>
      </trkpt>
      <trkpt lat="45.20398" lon="5.72548">
        <ele>599.40002441406</ele>
        <time>2021-09-08T04:45:18.000Z</time>
      </trkpt>
      <trkpt lat="45.20396" lon="5.72549">
        <ele>599</ele>
        <time>2021-09-08T04:45:19.000Z</time>
      </trkpt>
      <trkpt lat="45.20393" lon="5.7255">
        <ele>598.79998779297</ele>
        <time>2021-09-08T04:45:20.000Z</time>
      </trkpt>
      <trkpt lat="45.20391" lon="5.72548">
        <ele>598.40002441406</ele>
        <time>2021-09-08T04:45:21.000Z</time>
      </trkpt>
      <trkpt lat="45.20387" lon="5.72546">
        <ele>597.59997558594</ele>
        <time>2021-09-08T04:45:23.000Z</time>
      </trkpt>
      <trkpt lat="45.20385" lon="5.72546">
        <ele>597.40002441406</ele>
        <time>2021-09-08T04:45:24.000Z</time>
      </trkpt>
      <trkpt lat="45.20382" lon="5.72546">
        <ele>596.79998779297</ele>
        <time>2021-09-08T04:45:26.000Z</time>
      </trkpt>
      <trkpt lat="45.20382" lon="5.72545">
        <ele>596.40002441406</ele>
        <time>2021-09-08T04:45:27.000Z</time>
      </trkpt>
      <trkpt lat="45.20379" lon="5.72541">
        <ele>595</ele>
        <time>2021-09-08T04:45:30.000Z</time>
      </trkpt>
      <trkpt lat="45.20375" lon="5.72536">
        <ele>594</ele>
        <time>2021-09-08T04:45:33.000Z</time>
      </trkpt>
      <trkpt lat="45.20375" lon="5.72535">
        <ele>594</ele>
        <time>2021-09-08T04:45:34.000Z</time>
      </trkpt>
      <trkpt lat="45.20374" lon="5.72533">
        <ele>593.20001220703</ele>
        <time>2021-09-08T04:45:35.000Z</time>
      </trkpt>
      <trkpt lat="45.2037" lon="5.72533">
        <ele>592.20001220703</ele>
        <time>2021-09-08T04:45:38.000Z</time>
      </trkpt>
      <trkpt lat="45.20368" lon="5.72534">
        <ele>591</ele>
        <time>2021-09-08T04:45:39.000Z</time>
      </trkpt>
      <trkpt lat="45.20363" lon="5.72533">
        <ele>590.40002441406</ele>
        <time>2021-09-08T04:45:43.000Z</time>
      </trkpt>
      <trkpt lat="45.20363" lon="5.72532">
        <ele>590</ele>
        <time>2021-09-08T04:45:44.000Z</time>
      </trkpt>
      <trkpt lat="45.20362" lon="5.72531">
        <ele>589.59997558594</ele>
        <time>2021-09-08T04:45:45.000Z</time>
      </trkpt>
      <trkpt lat="45.20361" lon="5.72528">
        <ele>589.20001220703</ele>
        <time>2021-09-08T04:45:47.000Z</time>
      </trkpt>
      <trkpt lat="45.2036" lon="5.72527">
        <ele>588.40002441406</ele>
        <time>2021-09-08T04:45:48.000Z</time>
      </trkpt>
      <trkpt lat="45.2036" lon="5.72528">
        <ele>587.79998779297</ele>
        <time>2021-09-08T04:45:50.000Z</time>
      </trkpt>
      <trkpt lat="45.20361" lon="5.72529">
        <ele>587.40002441406</ele>
        <time>2021-09-08T04:45:51.000Z</time>
      </trkpt>
      <trkpt lat="45.2036" lon="5.7253">
        <ele>586.79998779297</ele>
        <time>2021-09-08T04:45:53.000Z</time>
      </trkpt>
      <trkpt lat="45.2036" lon="5.7253">
        <ele>586.59997558594</ele>
        <time>2021-09-08T04:45:54.000Z</time>
      </trkpt>
      <trkpt lat="45.20359" lon="5.7253">
        <ele>586.20001220703</ele>
        <time>2021-09-08T04:45:55.000Z</time>
      </trkpt>
      <trkpt lat="45.20358" lon="5.7253">
        <ele>585.79998779297</ele>
        <time>2021-09-08T04:45:56.000Z</time>
      </trkpt>
      <trkpt lat="45.20355" lon="5.7253">
        <ele>585</ele>
        <time>2021-09-08T04:45:59.000Z</time>
      </trkpt>
      <trkpt lat="45.20352" lon="5.72529">
        <ele>584</ele>
        <time>2021-09-08T04:46:01.000Z</time>
      </trkpt>
      <trkpt lat="45.20351" lon="5.7253">
        <ele>583.79998779297</ele>
        <time>2021-09-08T04:46:02.000Z</time>
      </trkpt>
      <trkpt lat="45.20348" lon="5.7253">
        <ele>583.20001220703</ele>
        <time>2021-09-08T04:46:03.000Z</time>
      </trkpt>
      <trkpt lat="45.20345" lon="5.72529">
        <ele>582.59997558594</ele>
        <time>2021-09-08T04:46:05.000Z</time>
      </trkpt>
      <trkpt lat="45.20344" lon="5.72528">
        <ele>582</ele>
        <time>2021-09-08T04:46:08.000Z</time>
      </trkpt>
      <trkpt lat="45.20343" lon="5.72529">
        <ele>581.59997558594</ele>
        <time>2021-09-08T04:46:09.000Z</time>
      </trkpt>
      <trkpt lat="45.20342" lon="5.7253">
        <ele>580.59997558594</ele>
        <time>2021-09-08T04:46:12.000Z</time>
      </trkpt>
      <trkpt lat="45.20341" lon="5.72529">
        <ele>580.40002441406</ele>
        <time>2021-09-08T04:46:13.000Z</time>
      </trkpt>
      <trkpt lat="45.20341" lon="5.72527">
        <ele>579.79998779297</ele>
        <time>2021-09-08T04:46:14.000Z</time>
      </trkpt>
      <trkpt lat="45.20342" lon="5.72527">
        <ele>579.79998779297</ele>
        <time>2021-09-08T04:46:15.000Z</time>
      </trkpt>
      <trkpt lat="45.20342" lon="5.72527">
        <ele>579.40002441406</ele>
        <time>2021-09-08T04:46:16.000Z</time>
      </trkpt>
      <trkpt lat="45.20342" lon="5.72526">
        <ele>579</ele>
        <time>2021-09-08T04:46:20.000Z</time>
      </trkpt>
      <trkpt lat="45.20342" lon="5.72526">
        <ele>579</ele>
        <time>2021-09-08T04:46:21.000Z</time>
      </trkpt>
      <trkpt lat="45.2034" lon="5.72526">
        <ele>578.40002441406</ele>
        <time>2021-09-08T04:46:23.000Z</time>
      </trkpt>
      <trkpt lat="45.20337" lon="5.72527">
        <ele>577.40002441406</ele>
        <time>2021-09-08T04:46:25.000Z</time>
      </trkpt>
      <trkpt lat="45.20334" lon="5.72528">
        <ele>576.79998779297</ele>
        <time>2021-09-08T04:46:27.000Z</time>
      </trkpt>
      <trkpt lat="45.20333" lon="5.72528">
        <ele>576</ele>
        <time>2021-09-08T04:46:28.000Z</time>
      </trkpt>
      <trkpt lat="45.20331" lon="5.72528">
        <ele>575.79998779297</ele>
        <time>2021-09-08T04:46:29.000Z</time>
      </trkpt>
      <trkpt lat="45.20327" lon="5.72527">
        <ele>574.79998779297</ele>
        <time>2021-09-08T04:46:31.000Z</time>
      </trkpt>
      <trkpt lat="45.20325" lon="5.72526">
        <ele>574.40002441406</ele>
        <time>2021-09-08T04:46:33.000Z</time>
      </trkpt>
      <trkpt lat="45.20323" lon="5.72526">
        <ele>573.79998779297</ele>
        <time>2021-09-08T04:46:34.000Z</time>
      </trkpt>
      <trkpt lat="45.2032" lon="5.72526">
        <ele>573</ele>
        <time>2021-09-08T04:46:37.000Z</time>
      </trkpt>
      <trkpt lat="45.20319" lon="5.72525">
        <ele>572</ele>
        <time>2021-09-08T04:46:38.000Z</time>
      </trkpt>
      <trkpt lat="45.20318" lon="5.72524">
        <ele>572</ele>
        <time>2021-09-08T04:46:39.000Z</time>
      </trkpt>
      <trkpt lat="45.20316" lon="5.72524">
        <ele>571.40002441406</ele>
        <time>2021-09-08T04:46:40.000Z</time>
      </trkpt>
      <trkpt lat="45.20312" lon="5.72525">
        <ele>570.20001220703</ele>
        <time>2021-09-08T04:46:43.000Z</time>
      </trkpt>
      <trkpt lat="45.20311" lon="5.72526">
        <ele>569.79998779297</ele>
        <time>2021-09-08T04:46:44.000Z</time>
      </trkpt>
      <trkpt lat="45.20307" lon="5.72529">
        <ele>569.20001220703</ele>
        <time>2021-09-08T04:46:46.000Z</time>
      </trkpt>
      <trkpt lat="45.20306" lon="5.72527">
        <ele>568.59997558594</ele>
        <time>2021-09-08T04:46:47.000Z</time>
      </trkpt>
      <trkpt lat="45.203" lon="5.72526">
        <ele>567.79998779297</ele>
        <time>2021-09-08T04:46:50.000Z</time>
      </trkpt>
      <trkpt lat="45.20296" lon="5.72527">
        <ele>566.79998779297</ele>
        <time>2021-09-08T04:46:52.000Z</time>
      </trkpt>
      <trkpt lat="45.20293" lon="5.72528">
        <ele>566.79998779297</ele>
        <time>2021-09-08T04:46:53.000Z</time>
      </trkpt>
      <trkpt lat="45.20287" lon="5.72527">
        <ele>566</ele>
        <time>2021-09-08T04:46:56.000Z</time>
      </trkpt>
      <trkpt lat="45.20284" lon="5.72527">
        <ele>565.40002441406</ele>
        <time>2021-09-08T04:46:58.000Z</time>
      </trkpt>
      <trkpt lat="45.20279" lon="5.72526">
        <ele>564.79998779297</ele>
        <time>2021-09-08T04:47:00.000Z</time>
      </trkpt>
      <trkpt lat="45.20275" lon="5.72526">
        <ele>564.20001220703</ele>
        <time>2021-09-08T04:47:02.000Z</time>
      </trkpt>
      <trkpt lat="45.20271" lon="5.72525">
        <ele>562.79998779297</ele>
        <time>2021-09-08T04:47:05.000Z</time>
      </trkpt>
      <trkpt lat="45.20268" lon="5.72526">
        <ele>561.59997558594</ele>
        <time>2021-09-08T04:47:07.000Z</time>
      </trkpt>
      <trkpt lat="45.20266" lon="5.72527">
        <ele>561.20001220703</ele>
        <time>2021-09-08T04:47:08.000Z</time>
      </trkpt>
      <trkpt lat="45.20264" lon="5.72526">
        <ele>560.59997558594</ele>
        <time>2021-09-08T04:47:09.000Z</time>
      </trkpt>
      <trkpt lat="45.20261" lon="5.72525">
        <ele>559.59997558594</ele>
        <time>2021-09-08T04:47:12.000Z</time>
      </trkpt>
      <trkpt lat="45.2026" lon="5.72525">
        <ele>559</ele>
        <time>2021-09-08T04:47:14.000Z</time>
      </trkpt>
      <trkpt lat="45.20258" lon="5.72527">
        <ele>558.79998779297</ele>
        <time>2021-09-08T04:47:16.000Z</time>
      </trkpt>
      <trkpt lat="45.20256" lon="5.72528">
        <ele>558</ele>
        <time>2021-09-08T04:47:17.000Z</time>
      </trkpt>
      <trkpt lat="45.20254" lon="5.72528">
        <ele>557.40002441406</ele>
        <time>2021-09-08T04:47:18.000Z</time>
      </trkpt>
      <trkpt lat="45.20252" lon="5.72528">
        <ele>556.79998779297</ele>
        <time>2021-09-08T04:47:19.000Z</time>
      </trkpt>
      <trkpt lat="45.20249" lon="5.72531">
        <ele>555.40002441406</ele>
        <time>2021-09-08T04:47:21.000Z</time>
      </trkpt>
      <trkpt lat="45.20245" lon="5.72529">
        <ele>555</ele>
        <time>2021-09-08T04:47:23.000Z</time>
      </trkpt>
      <trkpt lat="45.20244" lon="5.72529">
        <ele>554.59997558594</ele>
        <time>2021-09-08T04:47:24.000Z</time>
      </trkpt>
      <trkpt lat="45.20242" lon="5.72529">
        <ele>553.59997558594</ele>
        <time>2021-09-08T04:47:25.000Z</time>
      </trkpt>
      <trkpt lat="45.2024" lon="5.72529">
        <ele>553.59997558594</ele>
        <time>2021-09-08T04:47:26.000Z</time>
      </trkpt>
      <trkpt lat="45.20237" lon="5.72532">
        <ele>552.40002441406</ele>
        <time>2021-09-08T04:47:29.000Z</time>
      </trkpt>
      <trkpt lat="45.20231" lon="5.7253">
        <ele>551</ele>
        <time>2021-09-08T04:47:33.000Z</time>
      </trkpt>
      <trkpt lat="45.20229" lon="5.7253">
        <ele>551</ele>
        <time>2021-09-08T04:47:34.000Z</time>
      </trkpt>
      <trkpt lat="45.20228" lon="5.7253">
        <ele>550.40002441406</ele>
        <time>2021-09-08T04:47:35.000Z</time>
      </trkpt>
      <trkpt lat="45.20227" lon="5.7253">
        <ele>549.79998779297</ele>
        <time>2021-09-08T04:47:36.000Z</time>
      </trkpt>
      <trkpt lat="45.20223" lon="5.72529">
        <ele>548.59997558594</ele>
        <time>2021-09-08T04:47:39.000Z</time>
      </trkpt>
      <trkpt lat="45.2022" lon="5.7253">
        <ele>547.20001220703</ele>
        <time>2021-09-08T04:47:42.000Z</time>
      </trkpt>
      <trkpt lat="45.20217" lon="5.7253">
        <ele>546</ele>
        <time>2021-09-08T04:47:44.000Z</time>
      </trkpt>
      <trkpt lat="45.20213" lon="5.7253">
        <ele>545.79998779297</ele>
        <time>2021-09-08T04:47:46.000Z</time>
      </trkpt>
      <trkpt lat="45.20208" lon="5.72526">
        <ele>544.79998779297</ele>
        <time>2021-09-08T04:47:49.000Z</time>
      </trkpt>
      <trkpt lat="45.20205" lon="5.72523">
        <ele>544</ele>
        <time>2021-09-08T04:47:51.000Z</time>
      </trkpt>
      <trkpt lat="45.20203" lon="5.72521">
        <ele>543.59997558594</ele>
        <time>2021-09-08T04:47:52.000Z</time>
      </trkpt>
      <trkpt lat="45.202" lon="5.72517">
        <ele>542.59997558594</ele>
        <time>2021-09-08T04:47:54.000Z</time>
      </trkpt>
      <trkpt lat="45.20198" lon="5.72516">
        <ele>542.20001220703</ele>
        <time>2021-09-08T04:47:55.000Z</time>
      </trkpt>
      <trkpt lat="45.20195" lon="5.72512">
        <ele>542</ele>
        <time>2021-09-08T04:47:57.000Z</time>
      </trkpt>
      <trkpt lat="45.2019" lon="5.72507">
        <ele>540.59997558594</ele>
        <time>2021-09-08T04:48:00.000Z</time>
      </trkpt>
      <trkpt lat="45.20185" lon="5.72502">
        <ele>539.79998779297</ele>
        <time>2021-09-08T04:48:04.000Z</time>
      </trkpt>
      <trkpt lat="45.20184" lon="5.72502">
        <ele>539.59997558594</ele>
        <time>2021-09-08T04:48:05.000Z</time>
      </trkpt>
      <trkpt lat="45.20178" lon="5.72499">
        <ele>538.40002441406</ele>
        <time>2021-09-08T04:48:09.000Z</time>
      </trkpt>
      <trkpt lat="45.20177" lon="5.72498">
        <ele>538.40002441406</ele>
        <time>2021-09-08T04:48:10.000Z</time>
      </trkpt>
      <trkpt lat="45.20175" lon="5.72497">
        <ele>537.59997558594</ele>
        <time>2021-09-08T04:48:11.000Z</time>
      </trkpt>
      <trkpt lat="45.20173" lon="5.72493">
        <ele>537.40002441406</ele>
        <time>2021-09-08T04:48:13.000Z</time>
      </trkpt>
      <trkpt lat="45.20172" lon="5.72493">
        <ele>537.20001220703</ele>
        <time>2021-09-08T04:48:14.000Z</time>
      </trkpt>
      <trkpt lat="45.20171" lon="5.72492">
        <ele>537</ele>
        <time>2021-09-08T04:48:15.000Z</time>
      </trkpt>
      <trkpt lat="45.2017" lon="5.72491">
        <ele>536.59997558594</ele>
        <time>2021-09-08T04:48:16.000Z</time>
      </trkpt>
      <trkpt lat="45.20169" lon="5.72489">
        <ele>536.20001220703</ele>
        <time>2021-09-08T04:48:17.000Z</time>
      </trkpt>
      <trkpt lat="45.20168" lon="5.72488">
        <ele>536.20001220703</ele>
        <time>2021-09-08T04:48:18.000Z</time>
      </trkpt>
      <trkpt lat="45.20166" lon="5.72483">
        <ele>534.59997558594</ele>
        <time>2021-09-08T04:48:21.000Z</time>
      </trkpt>
      <trkpt lat="45.20164" lon="5.7248">
        <ele>534.20001220703</ele>
        <time>2021-09-08T04:48:24.000Z</time>
      </trkpt>
      <trkpt lat="45.20164" lon="5.72479">
        <ele>533.40002441406</ele>
        <time>2021-09-08T04:48:25.000Z</time>
      </trkpt>
      <trkpt lat="45.20161" lon="5.72476">
        <ele>532</ele>
        <time>2021-09-08T04:48:28.000Z</time>
      </trkpt>
      <trkpt lat="45.20158" lon="5.72475">
        <ele>530.59997558594</ele>
        <time>2021-09-08T04:48:31.000Z</time>
      </trkpt>
      <trkpt lat="45.20157" lon="5.72474">
        <ele>530.59997558594</ele>
        <time>2021-09-08T04:48:32.000Z</time>
      </trkpt>
      <trkpt lat="45.20155" lon="5.72471">
        <ele>529</ele>
        <time>2021-09-08T04:48:36.000Z</time>
      </trkpt>
      <trkpt lat="45.20154" lon="5.7247">
        <ele>528.79998779297</ele>
        <time>2021-09-08T04:48:38.000Z</time>
      </trkpt>
      <trkpt lat="45.20153" lon="5.72468">
        <ele>527.59997558594</ele>
        <time>2021-09-08T04:48:40.000Z</time>
      </trkpt>
      <trkpt lat="45.20152" lon="5.72467">
        <ele>527.40002441406</ele>
        <time>2021-09-08T04:48:42.000Z</time>
      </trkpt>
      <trkpt lat="45.20151" lon="5.72467">
        <ele>527</ele>
        <time>2021-09-08T04:48:43.000Z</time>
      </trkpt>
      <trkpt lat="45.2015" lon="5.72465">
        <ele>526.20001220703</ele>
        <time>2021-09-08T04:48:45.000Z</time>
      </trkpt>
      <trkpt lat="45.20149" lon="5.72464">
        <ele>525.59997558594</ele>
        <time>2021-09-08T04:48:47.000Z</time>
      </trkpt>
      <trkpt lat="45.20147" lon="5.72464">
        <ele>525.40002441406</ele>
        <time>2021-09-08T04:48:48.000Z</time>
      </trkpt>
      <trkpt lat="45.20146" lon="5.72464">
        <ele>524.79998779297</ele>
        <time>2021-09-08T04:48:49.000Z</time>
      </trkpt>
      <trkpt lat="45.20145" lon="5.72461">
        <ele>523.79998779297</ele>
        <time>2021-09-08T04:48:52.000Z</time>
      </trkpt>
      <trkpt lat="45.20144" lon="5.72462">
        <ele>522.79998779297</ele>
        <time>2021-09-08T04:48:54.000Z</time>
      </trkpt>
      <trkpt lat="45.20143" lon="5.72465">
        <ele>522.40002441406</ele>
        <time>2021-09-08T04:48:56.000Z</time>
      </trkpt>
      <trkpt lat="45.20142" lon="5.72466">
        <ele>521.59997558594</ele>
        <time>2021-09-08T04:48:57.000Z</time>
      </trkpt>
      <trkpt lat="45.20141" lon="5.72466">
        <ele>521.20001220703</ele>
        <time>2021-09-08T04:48:58.000Z</time>
      </trkpt>
      <trkpt lat="45.20139" lon="5.72467">
        <ele>520.59997558594</ele>
        <time>2021-09-08T04:49:01.000Z</time>
      </trkpt>
      <trkpt lat="45.20138" lon="5.72468">
        <ele>519.79998779297</ele>
        <time>2021-09-08T04:49:02.000Z</time>
      </trkpt>
      <trkpt lat="45.20138" lon="5.7247">
        <ele>519.59997558594</ele>
        <time>2021-09-08T04:49:03.000Z</time>
      </trkpt>
      <trkpt lat="45.20135" lon="5.72471">
        <ele>519</ele>
        <time>2021-09-08T04:49:06.000Z</time>
      </trkpt>
      <trkpt lat="45.20135" lon="5.72473">
        <ele>517.59997558594</ele>
        <time>2021-09-08T04:49:07.000Z</time>
      </trkpt>
      <trkpt lat="45.20135" lon="5.72475">
        <ele>517.59997558594</ele>
        <time>2021-09-08T04:49:08.000Z</time>
      </trkpt>
      <trkpt lat="45.20134" lon="5.72483">
        <ele>516.40002441406</ele>
        <time>2021-09-08T04:49:12.000Z</time>
      </trkpt>
      <trkpt lat="45.20133" lon="5.72485">
        <ele>516</ele>
        <time>2021-09-08T04:49:13.000Z</time>
      </trkpt>
      <trkpt lat="45.20132" lon="5.72491">
        <ele>515.40002441406</ele>
        <time>2021-09-08T04:49:16.000Z</time>
      </trkpt>
      <trkpt lat="45.20131" lon="5.72494">
        <ele>514</ele>
        <time>2021-09-08T04:49:17.000Z</time>
      </trkpt>
      <trkpt lat="45.20127" lon="5.72501">
        <ele>513.59997558594</ele>
        <time>2021-09-08T04:49:20.000Z</time>
      </trkpt>
      <trkpt lat="45.20125" lon="5.72503">
        <ele>512</ele>
        <time>2021-09-08T04:49:21.000Z</time>
      </trkpt>
      <trkpt lat="45.20119" lon="5.72512">
        <ele>511.20001220703</ele>
        <time>2021-09-08T04:49:25.000Z</time>
      </trkpt>
      <trkpt lat="45.20117" lon="5.72514">
        <ele>510</ele>
        <time>2021-09-08T04:49:26.000Z</time>
      </trkpt>
      <trkpt lat="45.20116" lon="5.72516">
        <ele>509.79998779297</ele>
        <time>2021-09-08T04:49:27.000Z</time>
      </trkpt>
      <trkpt lat="45.20114" lon="5.7252">
        <ele>508.60000610352</ele>
        <time>2021-09-08T04:49:29.000Z</time>
      </trkpt>
      <trkpt lat="45.20113" lon="5.72522">
        <ele>508.39999389648</ele>
        <time>2021-09-08T04:49:30.000Z</time>
      </trkpt>
      <trkpt lat="45.20113" lon="5.72526">
        <ele>507.60000610352</ele>
        <time>2021-09-08T04:49:33.000Z</time>
      </trkpt>
      <trkpt lat="45.20113" lon="5.72528">
        <ele>507.39999389648</ele>
        <time>2021-09-08T04:49:34.000Z</time>
      </trkpt>
      <trkpt lat="45.20115" lon="5.72535">
        <ele>506.39999389648</ele>
        <time>2021-09-08T04:49:37.000Z</time>
      </trkpt>
      <trkpt lat="45.20118" lon="5.72541">
        <ele>505.20001220703</ele>
        <time>2021-09-08T04:49:40.000Z</time>
      </trkpt>
      <trkpt lat="45.20118" lon="5.72543">
        <ele>504.79998779297</ele>
        <time>2021-09-08T04:49:41.000Z</time>
      </trkpt>
      <trkpt lat="45.20115" lon="5.72545">
        <ele>504</ele>
        <time>2021-09-08T04:49:43.000Z</time>
      </trkpt>
      <trkpt lat="45.20113" lon="5.72544">
        <ele>503.79998779297</ele>
        <time>2021-09-08T04:49:44.000Z</time>
      </trkpt>
      <trkpt lat="45.20107" lon="5.72541">
        <ele>502.79998779297</ele>
        <time>2021-09-08T04:49:47.000Z</time>
      </trkpt>
      <trkpt lat="45.20102" lon="5.72541">
        <ele>501.60000610352</ele>
        <time>2021-09-08T04:49:50.000Z</time>
      </trkpt>
      <trkpt lat="45.20098" lon="5.72542">
        <ele>501</ele>
        <time>2021-09-08T04:49:52.000Z</time>
      </trkpt>
      <trkpt lat="45.20094" lon="5.72543">
        <ele>500</ele>
        <time>2021-09-08T04:49:54.000Z</time>
      </trkpt>
      <trkpt lat="45.2009" lon="5.72543">
        <ele>498.79998779297</ele>
        <time>2021-09-08T04:49:56.000Z</time>
      </trkpt>
      <trkpt lat="45.20085" lon="5.72543">
        <ele>497.79998779297</ele>
        <time>2021-09-08T04:49:58.000Z</time>
      </trkpt>
      <trkpt lat="45.20082" lon="5.72544">
        <ele>497.79998779297</ele>
        <time>2021-09-08T04:49:59.000Z</time>
      </trkpt>
      <trkpt lat="45.20076" lon="5.72547">
        <ele>496.60000610352</ele>
        <time>2021-09-08T04:50:02.000Z</time>
      </trkpt>
      <trkpt lat="45.20073" lon="5.72549">
        <ele>496.39999389648</ele>
        <time>2021-09-08T04:50:04.000Z</time>
      </trkpt>
      <trkpt lat="45.2007" lon="5.72555">
        <ele>495</ele>
        <time>2021-09-08T04:50:08.000Z</time>
      </trkpt>
      <trkpt lat="45.20069" lon="5.72555">
        <ele>494.79998779297</ele>
        <time>2021-09-08T04:50:09.000Z</time>
      </trkpt>
      <trkpt lat="45.20069" lon="5.72555">
        <ele>494.79998779297</ele>
        <time>2021-09-08T04:50:10.000Z</time>
      </trkpt>
      <trkpt lat="45.2007" lon="5.72555">
        <ele>494.79998779297</ele>
        <time>2021-09-08T04:50:17.000Z</time>
      </trkpt>
      <trkpt lat="45.20071" lon="5.72555">
        <ele>494.79998779297</ele>
        <time>2021-09-08T04:50:23.000Z</time>
      </trkpt>
      <trkpt lat="45.2007" lon="5.72549">
        <ele>495.60000610352</ele>
        <time>2021-09-08T04:50:28.000Z</time>
      </trkpt>
      <trkpt lat="45.2007" lon="5.72545">
        <ele>496.20001220703</ele>
        <time>2021-09-08T04:50:29.000Z</time>
      </trkpt>
      <trkpt lat="45.20068" lon="5.72525">
        <ele>496.79998779297</ele>
        <time>2021-09-08T04:50:34.000Z</time>
      </trkpt>
      <trkpt lat="45.20069" lon="5.72521">
        <ele>497</ele>
        <time>2021-09-08T04:50:35.000Z</time>
      </trkpt>
      <trkpt lat="45.20072" lon="5.72499">
        <ele>496.20001220703</ele>
        <time>2021-09-08T04:50:40.000Z</time>
      </trkpt>
      <trkpt lat="45.20072" lon="5.72495">
        <ele>496</ele>
        <time>2021-09-08T04:50:41.000Z</time>
      </trkpt>
      <trkpt lat="45.20073" lon="5.72479">
        <ele>494.79998779297</ele>
        <time>2021-09-08T04:50:45.000Z</time>
      </trkpt>
      <trkpt lat="45.20072" lon="5.72467">
        <ele>494.39999389648</ele>
        <time>2021-09-08T04:50:48.000Z</time>
      </trkpt>
      <trkpt lat="45.20071" lon="5.7246">
        <ele>493.79998779297</ele>
        <time>2021-09-08T04:50:50.000Z</time>
      </trkpt>
      <trkpt lat="45.20069" lon="5.72453">
        <ele>493.60000610352</ele>
        <time>2021-09-08T04:50:52.000Z</time>
      </trkpt>
      <trkpt lat="45.20065" lon="5.72443">
        <ele>492.39999389648</ele>
        <time>2021-09-08T04:50:55.000Z</time>
      </trkpt>
      <trkpt lat="45.20058" lon="5.72437">
        <ele>491.79998779297</ele>
        <time>2021-09-08T04:50:58.000Z</time>
      </trkpt>
      <trkpt lat="45.20052" lon="5.72435">
        <ele>491.20001220703</ele>
        <time>2021-09-08T04:51:00.000Z</time>
      </trkpt>
      <trkpt lat="45.20047" lon="5.72434">
        <ele>489.79998779297</ele>
        <time>2021-09-08T04:51:02.000Z</time>
      </trkpt>
      <trkpt lat="45.20038" lon="5.72434">
        <ele>488.79998779297</ele>
        <time>2021-09-08T04:51:06.000Z</time>
      </trkpt>
      <trkpt lat="45.20036" lon="5.72433">
        <ele>488</ele>
        <time>2021-09-08T04:51:07.000Z</time>
      </trkpt>
      <trkpt lat="45.2003" lon="5.72432">
        <ele>487.79998779297</ele>
        <time>2021-09-08T04:51:09.000Z</time>
      </trkpt>
      <trkpt lat="45.20016" lon="5.72431">
        <ele>486.39999389648</ele>
        <time>2021-09-08T04:51:14.000Z</time>
      </trkpt>
      <trkpt lat="45.20005" lon="5.72429">
        <ele>485.20001220703</ele>
        <time>2021-09-08T04:51:18.000Z</time>
      </trkpt>
      <trkpt lat="45.2" lon="5.72428">
        <ele>484.79998779297</ele>
        <time>2021-09-08T04:51:20.000Z</time>
      </trkpt>
      <trkpt lat="45.19994" lon="5.72427">
        <ele>483.79998779297</ele>
        <time>2021-09-08T04:51:22.000Z</time>
      </trkpt>
      <trkpt lat="45.19977" lon="5.72424">
        <ele>482</ele>
        <time>2021-09-08T04:51:28.000Z</time>
      </trkpt>
      <trkpt lat="45.19974" lon="5.72424">
        <ele>481.60000610352</ele>
        <time>2021-09-08T04:51:29.000Z</time>
      </trkpt>
      <trkpt lat="45.19969" lon="5.72424">
        <ele>480.79998779297</ele>
        <time>2021-09-08T04:51:31.000Z</time>
      </trkpt>
      <trkpt lat="45.19961" lon="5.72424">
        <ele>480.20001220703</ele>
        <time>2021-09-08T04:51:34.000Z</time>
      </trkpt>
      <trkpt lat="45.19954" lon="5.72424">
        <ele>479.60000610352</ele>
        <time>2021-09-08T04:51:36.000Z</time>
      </trkpt>
      <trkpt lat="45.1995" lon="5.72425">
        <ele>479.20001220703</ele>
        <time>2021-09-08T04:51:37.000Z</time>
      </trkpt>
      <trkpt lat="45.19945" lon="5.72425">
        <ele>478.60000610352</ele>
        <time>2021-09-08T04:51:39.000Z</time>
      </trkpt>
      <trkpt lat="45.19934" lon="5.72427">
        <ele>478.20001220703</ele>
        <time>2021-09-08T04:51:43.000Z</time>
      </trkpt>
      <trkpt lat="45.19921" lon="5.72431">
        <ele>478.20001220703</ele>
        <time>2021-09-08T04:51:48.000Z</time>
      </trkpt>
      <trkpt lat="45.19918" lon="5.72432">
        <ele>478.60000610352</ele>
        <time>2021-09-08T04:51:49.000Z</time>
      </trkpt>
      <trkpt lat="45.19909" lon="5.72433">
        <ele>479.20001220703</ele>
        <time>2021-09-08T04:51:52.000Z</time>
      </trkpt>
      <trkpt lat="45.19901" lon="5.72436">
        <ele>480</ele>
        <time>2021-09-08T04:51:55.000Z</time>
      </trkpt>
      <trkpt lat="45.19896" lon="5.72439">
        <ele>480.60000610352</ele>
        <time>2021-09-08T04:51:57.000Z</time>
      </trkpt>
      <trkpt lat="45.19894" lon="5.72441">
        <ele>480.79998779297</ele>
        <time>2021-09-08T04:51:58.000Z</time>
      </trkpt>
      <trkpt lat="45.19892" lon="5.72443">
        <ele>481</ele>
        <time>2021-09-08T04:51:59.000Z</time>
      </trkpt>
      <trkpt lat="45.1989" lon="5.7245">
        <ele>481.60000610352</ele>
        <time>2021-09-08T04:52:01.000Z</time>
      </trkpt>
      <trkpt lat="45.19889" lon="5.72457">
        <ele>482.60000610352</ele>
        <time>2021-09-08T04:52:03.000Z</time>
      </trkpt>
      <trkpt lat="45.19887" lon="5.72462">
        <ele>482.60000610352</ele>
        <time>2021-09-08T04:52:06.000Z</time>
      </trkpt>
      <trkpt lat="45.1988" lon="5.72481">
        <ele>483</ele>
        <time>2021-09-08T04:52:13.000Z</time>
      </trkpt>
      <trkpt lat="45.1987" lon="5.72486">
        <ele>482.79998779297</ele>
        <time>2021-09-08T04:52:16.000Z</time>
      </trkpt>
      <trkpt lat="45.19864" lon="5.72492">
        <ele>482.39999389648</ele>
        <time>2021-09-08T04:52:18.000Z</time>
      </trkpt>
      <trkpt lat="45.19857" lon="5.72499">
        <ele>481.79998779297</ele>
        <time>2021-09-08T04:52:21.000Z</time>
      </trkpt>
      <trkpt lat="45.19855" lon="5.72505">
        <ele>481.60000610352</ele>
        <time>2021-09-08T04:52:23.000Z</time>
      </trkpt>
      <trkpt lat="45.19854" lon="5.72508">
        <ele>481.60000610352</ele>
        <time>2021-09-08T04:52:24.000Z</time>
      </trkpt>
      <trkpt lat="45.19855" lon="5.72515">
        <ele>481.39999389648</ele>
        <time>2021-09-08T04:52:26.000Z</time>
      </trkpt>
      <trkpt lat="45.19859" lon="5.72532">
        <ele>481</ele>
        <time>2021-09-08T04:52:30.000Z</time>
      </trkpt>
      <trkpt lat="45.1986" lon="5.72541">
        <ele>480.39999389648</ele>
        <time>2021-09-08T04:52:32.000Z</time>
      </trkpt>
      <trkpt lat="45.19863" lon="5.72548">
        <ele>479.39999389648</ele>
        <time>2021-09-08T04:52:34.000Z</time>
      </trkpt>
      <trkpt lat="45.19863" lon="5.72556">
        <ele>478</ele>
        <time>2021-09-08T04:52:38.000Z</time>
      </trkpt>
      <trkpt lat="45.1986" lon="5.72551">
        <ele>478</ele>
        <time>2021-09-08T04:52:40.000Z</time>
      </trkpt>
      <trkpt lat="45.19858" lon="5.72545">
        <ele>476.79998779297</ele>
        <time>2021-09-08T04:52:42.000Z</time>
      </trkpt>
      <trkpt lat="45.19857" lon="5.72541">
        <ele>476.79998779297</ele>
        <time>2021-09-08T04:52:43.000Z</time>
      </trkpt>
      <trkpt lat="45.19853" lon="5.72521">
        <ele>475.79998779297</ele>
        <time>2021-09-08T04:52:48.000Z</time>
      </trkpt>
      <trkpt lat="45.19851" lon="5.72513">
        <ele>474.79998779297</ele>
        <time>2021-09-08T04:52:50.000Z</time>
      </trkpt>
      <trkpt lat="45.1985" lon="5.72509">
        <ele>474.60000610352</ele>
        <time>2021-09-08T04:52:51.000Z</time>
      </trkpt>
      <trkpt lat="45.19849" lon="5.72502">
        <ele>474.60000610352</ele>
        <time>2021-09-08T04:52:53.000Z</time>
      </trkpt>
      <trkpt lat="45.19848" lon="5.7249">
        <ele>473.60000610352</ele>
        <time>2021-09-08T04:52:56.000Z</time>
      </trkpt>
      <trkpt lat="45.19848" lon="5.72485">
        <ele>473</ele>
        <time>2021-09-08T04:52:57.000Z</time>
      </trkpt>
      <trkpt lat="45.19848" lon="5.72481">
        <ele>472.39999389648</ele>
        <time>2021-09-08T04:52:58.000Z</time>
      </trkpt>
      <trkpt lat="45.19846" lon="5.72465">
        <ele>472</ele>
        <time>2021-09-08T04:53:02.000Z</time>
      </trkpt>
      <trkpt lat="45.19844" lon="5.72458">
        <ele>471.20001220703</ele>
        <time>2021-09-08T04:53:04.000Z</time>
      </trkpt>
      <trkpt lat="45.19838" lon="5.72445">
        <ele>470.20001220703</ele>
        <time>2021-09-08T04:53:08.000Z</time>
      </trkpt>
      <trkpt lat="45.19836" lon="5.72445">
        <ele>470</ele>
        <time>2021-09-08T04:53:10.000Z</time>
      </trkpt>
      <trkpt lat="45.19834" lon="5.72449">
        <ele>469.20001220703</ele>
        <time>2021-09-08T04:53:12.000Z</time>
      </trkpt>
      <trkpt lat="45.19833" lon="5.72456">
        <ele>468.60000610352</ele>
        <time>2021-09-08T04:53:14.000Z</time>
      </trkpt>
      <trkpt lat="45.19835" lon="5.72468">
        <ele>467.79998779297</ele>
        <time>2021-09-08T04:53:17.000Z</time>
      </trkpt>
      <trkpt lat="45.19833" lon="5.72483">
        <ele>466.60000610352</ele>
        <time>2021-09-08T04:53:21.000Z</time>
      </trkpt>
      <trkpt lat="45.1983" lon="5.72496">
        <ele>465.60000610352</ele>
        <time>2021-09-08T04:53:25.000Z</time>
      </trkpt>
      <trkpt lat="45.19829" lon="5.725">
        <ele>465.60000610352</ele>
        <time>2021-09-08T04:53:26.000Z</time>
      </trkpt>
      <trkpt lat="45.19828" lon="5.72508">
        <ele>464.60000610352</ele>
        <time>2021-09-08T04:53:28.000Z</time>
      </trkpt>
      <trkpt lat="45.19824" lon="5.72521">
        <ele>463.60000610352</ele>
        <time>2021-09-08T04:53:31.000Z</time>
      </trkpt>
      <trkpt lat="45.19823" lon="5.72526">
        <ele>463.39999389648</ele>
        <time>2021-09-08T04:53:32.000Z</time>
      </trkpt>
      <trkpt lat="45.19823" lon="5.72537">
        <ele>462.20001220703</ele>
        <time>2021-09-08T04:53:35.000Z</time>
      </trkpt>
      <trkpt lat="45.19823" lon="5.7255">
        <ele>461.79998779297</ele>
        <time>2021-09-08T04:53:38.000Z</time>
      </trkpt>
      <trkpt lat="45.19823" lon="5.72554">
        <ele>461.60000610352</ele>
        <time>2021-09-08T04:53:39.000Z</time>
      </trkpt>
      <trkpt lat="45.19824" lon="5.72562">
        <ele>461</ele>
        <time>2021-09-08T04:53:41.000Z</time>
      </trkpt>
      <trkpt lat="45.19825" lon="5.72574">
        <ele>459.60000610352</ele>
        <time>2021-09-08T04:53:44.000Z</time>
      </trkpt>
      <trkpt lat="45.19825" lon="5.72578">
        <ele>459.60000610352</ele>
        <time>2021-09-08T04:53:45.000Z</time>
      </trkpt>
      <trkpt lat="45.19828" lon="5.72597">
        <ele>458.39999389648</ele>
        <time>2021-09-08T04:53:50.000Z</time>
      </trkpt>
      <trkpt lat="45.19829" lon="5.72602">
        <ele>458.20001220703</ele>
        <time>2021-09-08T04:53:51.000Z</time>
      </trkpt>
      <trkpt lat="45.19832" lon="5.72614">
        <ele>457.39999389648</ele>
        <time>2021-09-08T04:53:54.000Z</time>
      </trkpt>
      <trkpt lat="45.19832" lon="5.72617">
        <ele>456.79998779297</ele>
        <time>2021-09-08T04:53:55.000Z</time>
      </trkpt>
      <trkpt lat="45.19836" lon="5.72628">
        <ele>456</ele>
        <time>2021-09-08T04:53:58.000Z</time>
      </trkpt>
      <trkpt lat="45.19839" lon="5.72641">
        <ele>455.60000610352</ele>
        <time>2021-09-08T04:54:02.000Z</time>
      </trkpt>
      <trkpt lat="45.19841" lon="5.72647">
        <ele>454.79998779297</ele>
        <time>2021-09-08T04:54:04.000Z</time>
      </trkpt>
      <trkpt lat="45.19843" lon="5.72652">
        <ele>454.39999389648</ele>
        <time>2021-09-08T04:54:06.000Z</time>
      </trkpt>
      <trkpt lat="45.19845" lon="5.72656">
        <ele>453.20001220703</ele>
        <time>2021-09-08T04:54:08.000Z</time>
      </trkpt>
      <trkpt lat="45.19851" lon="5.72664">
        <ele>453</ele>
        <time>2021-09-08T04:54:11.000Z</time>
      </trkpt>
      <trkpt lat="45.19853" lon="5.72669">
        <ele>451.60000610352</ele>
        <time>2021-09-08T04:54:13.000Z</time>
      </trkpt>
      <trkpt lat="45.19858" lon="5.72674">
        <ele>450.79998779297</ele>
        <time>2021-09-08T04:54:17.000Z</time>
      </trkpt>
      <trkpt lat="45.19859" lon="5.72676">
        <ele>450.20001220703</ele>
        <time>2021-09-08T04:54:18.000Z</time>
      </trkpt>
      <trkpt lat="45.19857" lon="5.72678">
        <ele>449.39999389648</ele>
        <time>2021-09-08T04:54:20.000Z</time>
      </trkpt>
      <trkpt lat="45.19856" lon="5.72678">
        <ele>449.20001220703</ele>
        <time>2021-09-08T04:54:21.000Z</time>
      </trkpt>
      <trkpt lat="45.19851" lon="5.72676">
        <ele>448.79998779297</ele>
        <time>2021-09-08T04:54:23.000Z</time>
      </trkpt>
      <trkpt lat="45.1985" lon="5.72676">
        <ele>448.60000610352</ele>
        <time>2021-09-08T04:54:24.000Z</time>
      </trkpt>
      <trkpt lat="45.19849" lon="5.72675">
        <ele>448.20001220703</ele>
        <time>2021-09-08T04:54:25.000Z</time>
      </trkpt>
      <trkpt lat="45.19847" lon="5.72673">
        <ele>447.79998779297</ele>
        <time>2021-09-08T04:54:26.000Z</time>
      </trkpt>
      <trkpt lat="45.19841" lon="5.7267">
        <ele>447.79998779297</ele>
        <time>2021-09-08T04:54:28.000Z</time>
      </trkpt>
      <trkpt lat="45.19832" lon="5.72664">
        <ele>446.79998779297</ele>
        <time>2021-09-08T04:54:32.000Z</time>
      </trkpt>
      <trkpt lat="45.19825" lon="5.72658">
        <ele>446.20001220703</ele>
        <time>2021-09-08T04:54:35.000Z</time>
      </trkpt>
      <trkpt lat="45.19818" lon="5.72653">
        <ele>445.20001220703</ele>
        <time>2021-09-08T04:54:38.000Z</time>
      </trkpt>
      <trkpt lat="45.19811" lon="5.72648">
        <ele>444.60000610352</ele>
        <time>2021-09-08T04:54:41.000Z</time>
      </trkpt>
      <trkpt lat="45.19803" lon="5.72643">
        <ele>444</ele>
        <time>2021-09-08T04:54:44.000Z</time>
      </trkpt>
      <trkpt lat="45.19796" lon="5.72637">
        <ele>442.60000610352</ele>
        <time>2021-09-08T04:54:47.000Z</time>
      </trkpt>
      <trkpt lat="45.19794" lon="5.72635">
        <ele>442</ele>
        <time>2021-09-08T04:54:48.000Z</time>
      </trkpt>
      <trkpt lat="45.19788" lon="5.72623">
        <ele>441.20001220703</ele>
        <time>2021-09-08T04:54:52.000Z</time>
      </trkpt>
      <trkpt lat="45.19786" lon="5.7262">
        <ele>441</ele>
        <time>2021-09-08T04:54:53.000Z</time>
      </trkpt>
      <trkpt lat="45.19785" lon="5.726">
        <ele>440.20001220703</ele>
        <time>2021-09-08T04:54:58.000Z</time>
      </trkpt>
      <trkpt lat="45.19784" lon="5.72584">
        <ele>439</ele>
        <time>2021-09-08T04:55:02.000Z</time>
      </trkpt>
      <trkpt lat="45.19783" lon="5.72577">
        <ele>438.20001220703</ele>
        <time>2021-09-08T04:55:04.000Z</time>
      </trkpt>
      <trkpt lat="45.19783" lon="5.72573">
        <ele>438.20001220703</ele>
        <time>2021-09-08T04:55:05.000Z</time>
      </trkpt>
      <trkpt lat="45.19783" lon="5.72565">
        <ele>438</ele>
        <time>2021-09-08T04:55:07.000Z</time>
      </trkpt>
      <trkpt lat="45.19782" lon="5.72557">
        <ele>436.79998779297</ele>
        <time>2021-09-08T04:55:09.000Z</time>
      </trkpt>
      <trkpt lat="45.19782" lon="5.7255">
        <ele>436.60000610352</ele>
        <time>2021-09-08T04:55:11.000Z</time>
      </trkpt>
      <trkpt lat="45.19781" lon="5.72538">
        <ele>435.60000610352</ele>
        <time>2021-09-08T04:55:15.000Z</time>
      </trkpt>
      <trkpt lat="45.19779" lon="5.72537">
        <ele>435.39999389648</ele>
        <time>2021-09-08T04:55:16.000Z</time>
      </trkpt>
      <trkpt lat="45.19777" lon="5.72538">
        <ele>435</ele>
        <time>2021-09-08T04:55:18.000Z</time>
      </trkpt>
      <trkpt lat="45.19777" lon="5.72541">
        <ele>434.79998779297</ele>
        <time>2021-09-08T04:55:19.000Z</time>
      </trkpt>
      <trkpt lat="45.19776" lon="5.72544">
        <ele>434.60000610352</ele>
        <time>2021-09-08T04:55:20.000Z</time>
      </trkpt>
      <trkpt lat="45.19774" lon="5.72552">
        <ele>433.39999389648</ele>
        <time>2021-09-08T04:55:22.000Z</time>
      </trkpt>
      <trkpt lat="45.19774" lon="5.72555">
        <ele>433.20001220703</ele>
        <time>2021-09-08T04:55:23.000Z</time>
      </trkpt>
      <trkpt lat="45.19773" lon="5.7257">
        <ele>432</ele>
        <time>2021-09-08T04:55:26.000Z</time>
      </trkpt>
      <trkpt lat="45.1977" lon="5.72579">
        <ele>431.60000610352</ele>
        <time>2021-09-08T04:55:28.000Z</time>
      </trkpt>
      <trkpt lat="45.19767" lon="5.72589">
        <ele>430.79998779297</ele>
        <time>2021-09-08T04:55:31.000Z</time>
      </trkpt>
      <trkpt lat="45.19765" lon="5.72591">
        <ele>430.60000610352</ele>
        <time>2021-09-08T04:55:32.000Z</time>
      </trkpt>
      <trkpt lat="45.19761" lon="5.72584">
        <ele>430</ele>
        <time>2021-09-08T04:55:35.000Z</time>
      </trkpt>
      <trkpt lat="45.1976" lon="5.72578">
        <ele>429.20001220703</ele>
        <time>2021-09-08T04:55:37.000Z</time>
      </trkpt>
      <trkpt lat="45.19758" lon="5.72569">
        <ele>428.20001220703</ele>
        <time>2021-09-08T04:55:39.000Z</time>
      </trkpt>
      <trkpt lat="45.19755" lon="5.72553">
        <ele>426.79998779297</ele>
        <time>2021-09-08T04:55:43.000Z</time>
      </trkpt>
      <trkpt lat="45.19757" lon="5.72532">
        <ele>426</ele>
        <time>2021-09-08T04:55:48.000Z</time>
      </trkpt>
      <trkpt lat="45.19758" lon="5.72528">
        <ele>424.79998779297</ele>
        <time>2021-09-08T04:55:49.000Z</time>
      </trkpt>
      <trkpt lat="45.19758" lon="5.72525">
        <ele>424.79998779297</ele>
        <time>2021-09-08T04:55:50.000Z</time>
      </trkpt>
      <trkpt lat="45.1976" lon="5.72519">
        <ele>424.60000610352</ele>
        <time>2021-09-08T04:55:52.000Z</time>
      </trkpt>
      <trkpt lat="45.19761" lon="5.72516">
        <ele>424.60000610352</ele>
        <time>2021-09-08T04:55:53.000Z</time>
      </trkpt>
      <trkpt lat="45.1976" lon="5.72515">
        <ele>423.39999389648</ele>
        <time>2021-09-08T04:55:55.000Z</time>
      </trkpt>
      <trkpt lat="45.19756" lon="5.72521">
        <ele>422</ele>
        <time>2021-09-08T04:55:59.000Z</time>
      </trkpt>
      <trkpt lat="45.19754" lon="5.72524">
        <ele>421.79998779297</ele>
        <time>2021-09-08T04:56:00.000Z</time>
      </trkpt>
      <trkpt lat="45.19749" lon="5.7253">
        <ele>421.39999389648</ele>
        <time>2021-09-08T04:56:03.000Z</time>
      </trkpt>
      <trkpt lat="45.19747" lon="5.72538">
        <ele>421.20001220703</ele>
        <time>2021-09-08T04:56:05.000Z</time>
      </trkpt>
      <trkpt lat="45.19744" lon="5.72545">
        <ele>420.79998779297</ele>
        <time>2021-09-08T04:56:07.000Z</time>
      </trkpt>
      <trkpt lat="45.19743" lon="5.7256">
        <ele>420.79998779297</ele>
        <time>2021-09-08T04:56:11.000Z</time>
      </trkpt>
      <trkpt lat="45.19743" lon="5.72563">
        <ele>420.79998779297</ele>
        <time>2021-09-08T04:56:12.000Z</time>
      </trkpt>
      <trkpt lat="45.19746" lon="5.7258">
        <ele>421</ele>
        <time>2021-09-08T04:56:17.000Z</time>
      </trkpt>
      <trkpt lat="45.19751" lon="5.72598">
        <ele>420.79998779297</ele>
        <time>2021-09-08T04:56:21.000Z</time>
      </trkpt>
      <trkpt lat="45.19757" lon="5.72615">
        <ele>421</ele>
        <time>2021-09-08T04:56:25.000Z</time>
      </trkpt>
      <trkpt lat="45.19762" lon="5.72636">
        <ele>421</ele>
        <time>2021-09-08T04:56:29.000Z</time>
      </trkpt>
      <trkpt lat="45.19763" lon="5.72647">
        <ele>420.79998779297</ele>
        <time>2021-09-08T04:56:32.000Z</time>
      </trkpt>
      <trkpt lat="45.19768" lon="5.72654">
        <ele>420.79998779297</ele>
        <time>2021-09-08T04:56:34.000Z</time>
      </trkpt>
      <trkpt lat="45.19781" lon="5.72669">
        <ele>420.39999389648</ele>
        <time>2021-09-08T04:56:40.000Z</time>
      </trkpt>
      <trkpt lat="45.19793" lon="5.7268">
        <ele>420.39999389648</ele>
        <time>2021-09-08T04:56:45.000Z</time>
      </trkpt>
      <trkpt lat="45.19798" lon="5.72686">
        <ele>420.39999389648</ele>
        <time>2021-09-08T04:56:47.000Z</time>
      </trkpt>
      <trkpt lat="45.19812" lon="5.727">
        <ele>421.20001220703</ele>
        <time>2021-09-08T04:56:53.000Z</time>
      </trkpt>
      <trkpt lat="45.19829" lon="5.72718">
        <ele>421</ele>
        <time>2021-09-08T04:56:59.000Z</time>
      </trkpt>
      <trkpt lat="45.1983" lon="5.7272">
        <ele>421</ele>
        <time>2021-09-08T04:57:00.000Z</time>
      </trkpt>
      <trkpt lat="45.19836" lon="5.72733">
        <ele>421.60000610352</ele>
        <time>2021-09-08T04:57:04.000Z</time>
      </trkpt>
      <trkpt lat="45.19838" lon="5.72736">
        <ele>421.20001220703</ele>
        <time>2021-09-08T04:57:05.000Z</time>
      </trkpt>
      <trkpt lat="45.19838" lon="5.72741">
        <ele>421.20001220703</ele>
        <time>2021-09-08T04:57:06.000Z</time>
      </trkpt>
      <trkpt lat="45.19839" lon="5.72743">
        <ele>421.20001220703</ele>
        <time>2021-09-08T04:57:08.000Z</time>
      </trkpt>
      <trkpt lat="45.19854" lon="5.72771">
        <ele>417.20001220703</ele>
        <time>2021-09-08T04:57:22.000Z</time>
      </trkpt>
      <trkpt lat="45.19855" lon="5.72768">
        <ele>417</ele>
        <time>2021-09-08T04:57:23.000Z</time>
      </trkpt>
      <trkpt lat="45.19856" lon="5.72771">
        <ele>416.39999389648</ele>
        <time>2021-09-08T04:57:26.000Z</time>
      </trkpt>
      <trkpt lat="45.19857" lon="5.7277">
        <ele>415.60000610352</ele>
        <time>2021-09-08T04:57:29.000Z</time>
      </trkpt>
      <trkpt lat="45.19855" lon="5.72768">
        <ele>415.20001220703</ele>
        <time>2021-09-08T04:57:30.000Z</time>
      </trkpt>
      <trkpt lat="45.19855" lon="5.72764">
        <ele>413.60000610352</ele>
        <time>2021-09-08T04:57:33.000Z</time>
      </trkpt>
      <trkpt lat="45.19854" lon="5.72762">
        <ele>412.60000610352</ele>
        <time>2021-09-08T04:57:35.000Z</time>
      </trkpt>
      <trkpt lat="45.19854" lon="5.72762">
        <ele>412.20001220703</ele>
        <time>2021-09-08T04:57:36.000Z</time>
      </trkpt>
      <trkpt lat="45.19852" lon="5.72763">
        <ele>411.60000610352</ele>
        <time>2021-09-08T04:57:38.000Z</time>
      </trkpt>
      <trkpt lat="45.19853" lon="5.72764">
        <ele>411.39999389648</ele>
        <time>2021-09-08T04:57:39.000Z</time>
      </trkpt>
      <trkpt lat="45.19854" lon="5.72765">
        <ele>411</ele>
        <time>2021-09-08T04:57:40.000Z</time>
      </trkpt>
      <trkpt lat="45.19855" lon="5.72765">
        <ele>410.60000610352</ele>
        <time>2021-09-08T04:57:41.000Z</time>
      </trkpt>
      <trkpt lat="45.19851" lon="5.72782">
        <ele>397.39999389648</ele>
        <time>2021-09-08T04:58:11.000Z</time>
      </trkpt>
      <trkpt lat="45.19851" lon="5.72783">
        <ele>396.79998779297</ele>
        <time>2021-09-08T04:58:12.000Z</time>
      </trkpt>
      <trkpt lat="45.19849" lon="5.72782">
        <ele>396.39999389648</ele>
        <time>2021-09-08T04:58:13.000Z</time>
      </trkpt>
      <trkpt lat="45.19847" lon="5.72782">
        <ele>395.39999389648</ele>
        <time>2021-09-08T04:58:15.000Z</time>
      </trkpt>
      <trkpt lat="45.19846" lon="5.72782">
        <ele>394.20001220703</ele>
        <time>2021-09-08T04:58:17.000Z</time>
      </trkpt>
      <trkpt lat="45.19846" lon="5.72782">
        <ele>393.20001220703</ele>
        <time>2021-09-08T04:58:18.000Z</time>
      </trkpt>
      <trkpt lat="45.19848" lon="5.72782">
        <ele>392.39999389648</ele>
        <time>2021-09-08T04:58:20.000Z</time>
      </trkpt>
      <trkpt lat="45.19849" lon="5.72782">
        <ele>392.20001220703</ele>
        <time>2021-09-08T04:58:21.000Z</time>
      </trkpt>
      <trkpt lat="45.1985" lon="5.72785">
        <ele>391.79998779297</ele>
        <time>2021-09-08T04:58:23.000Z</time>
      </trkpt>
      <trkpt lat="45.19848" lon="5.72786">
        <ele>391.60000610352</ele>
        <time>2021-09-08T04:58:24.000Z</time>
      </trkpt>
      <trkpt lat="45.19844" lon="5.72784">
        <ele>391</ele>
        <time>2021-09-08T04:58:26.000Z</time>
      </trkpt>
      <trkpt lat="45.19832" lon="5.72776">
        <ele>389.60000610352</ele>
        <time>2021-09-08T04:58:32.000Z</time>
      </trkpt>
      <trkpt lat="45.1982" lon="5.72769">
        <ele>388.39999389648</ele>
        <time>2021-09-08T04:58:37.000Z</time>
      </trkpt>
      <trkpt lat="45.19816" lon="5.72766">
        <ele>388.20001220703</ele>
        <time>2021-09-08T04:58:39.000Z</time>
      </trkpt>
      <trkpt lat="45.19812" lon="5.72762">
        <ele>388</ele>
        <time>2021-09-08T04:58:41.000Z</time>
      </trkpt>
      <trkpt lat="45.19804" lon="5.72757">
        <ele>387.39999389648</ele>
        <time>2021-09-08T04:58:45.000Z</time>
      </trkpt>
      <trkpt lat="45.19797" lon="5.72751">
        <ele>386.60000610352</ele>
        <time>2021-09-08T04:58:48.000Z</time>
      </trkpt>
      <trkpt lat="45.19795" lon="5.72749">
        <ele>386.60000610352</ele>
        <time>2021-09-08T04:58:49.000Z</time>
      </trkpt>
      <trkpt lat="45.19791" lon="5.72746">
        <ele>386.39999389648</ele>
        <time>2021-09-08T04:58:51.000Z</time>
      </trkpt>
      <trkpt lat="45.1979" lon="5.72745">
        <ele>385.39999389648</ele>
        <time>2021-09-08T04:58:54.000Z</time>
      </trkpt>
      <trkpt lat="45.19791" lon="5.72746">
        <ele>384.79998779297</ele>
        <time>2021-09-08T04:58:55.000Z</time>
      </trkpt>
      <trkpt lat="45.198" lon="5.72756">
        <ele>383.79998779297</ele>
        <time>2021-09-08T04:59:00.000Z</time>
      </trkpt>
      <trkpt lat="45.19802" lon="5.72759">
        <ele>383.20001220703</ele>
        <time>2021-09-08T04:59:01.000Z</time>
      </trkpt>
      <trkpt lat="45.19805" lon="5.72762">
        <ele>382.20001220703</ele>
        <time>2021-09-08T04:59:02.000Z</time>
      </trkpt>
      <trkpt lat="45.19814" lon="5.72776">
        <ele>381.39999389648</ele>
        <time>2021-09-08T04:59:06.000Z</time>
      </trkpt>
      <trkpt lat="45.19816" lon="5.72778">
        <ele>381.20001220703</ele>
        <time>2021-09-08T04:59:07.000Z</time>
      </trkpt>
      <trkpt lat="45.19821" lon="5.72784">
        <ele>380</ele>
        <time>2021-09-08T04:59:09.000Z</time>
      </trkpt>
      <trkpt lat="45.19833" lon="5.7279">
        <ele>379</ele>
        <time>2021-09-08T04:59:13.000Z</time>
      </trkpt>
      <trkpt lat="45.19836" lon="5.72792">
        <ele>378.60000610352</ele>
        <time>2021-09-08T04:59:14.000Z</time>
      </trkpt>
      <trkpt lat="45.19843" lon="5.72797">
        <ele>377.39999389648</ele>
        <time>2021-09-08T04:59:17.000Z</time>
      </trkpt>
      <trkpt lat="45.19851" lon="5.72803">
        <ele>376.20001220703</ele>
        <time>2021-09-08T04:59:20.000Z</time>
      </trkpt>
      <trkpt lat="45.19851" lon="5.72805">
        <ele>375.79998779297</ele>
        <time>2021-09-08T04:59:22.000Z</time>
      </trkpt>
      <trkpt lat="45.19849" lon="5.72805">
        <ele>375.39999389648</ele>
        <time>2021-09-08T04:59:23.000Z</time>
      </trkpt>
      <trkpt lat="45.19847" lon="5.72806">
        <ele>375</ele>
        <time>2021-09-08T04:59:24.000Z</time>
      </trkpt>
      <trkpt lat="45.19844" lon="5.72805">
        <ele>374.79998779297</ele>
        <time>2021-09-08T04:59:25.000Z</time>
      </trkpt>
      <trkpt lat="45.19832" lon="5.72803">
        <ele>373.79998779297</ele>
        <time>2021-09-08T04:59:28.000Z</time>
      </trkpt>
      <trkpt lat="45.19819" lon="5.72798">
        <ele>372.39999389648</ele>
        <time>2021-09-08T04:59:32.000Z</time>
      </trkpt>
      <trkpt lat="45.19817" lon="5.72797">
        <ele>372.20001220703</ele>
        <time>2021-09-08T04:59:33.000Z</time>
      </trkpt>
      <trkpt lat="45.19807" lon="5.72795">
        <ele>371.20001220703</ele>
        <time>2021-09-08T04:59:37.000Z</time>
      </trkpt>
      <trkpt lat="45.19798" lon="5.7279">
        <ele>370.20001220703</ele>
        <time>2021-09-08T04:59:41.000Z</time>
      </trkpt>
      <trkpt lat="45.19798" lon="5.7279">
        <ele>369.60000610352</ele>
        <time>2021-09-08T04:59:42.000Z</time>
      </trkpt>
      <trkpt lat="45.19799" lon="5.72792">
        <ele>369.39999389648</ele>
        <time>2021-09-08T04:59:43.000Z</time>
      </trkpt>
      <trkpt lat="45.198" lon="5.72792">
        <ele>369.20001220703</ele>
        <time>2021-09-08T04:59:44.000Z</time>
      </trkpt>
      <trkpt lat="45.19801" lon="5.72792">
        <ele>368.79998779297</ele>
        <time>2021-09-08T04:59:45.000Z</time>
      </trkpt>
      <trkpt lat="45.19817" lon="5.72803">
        <ele>367.39999389648</ele>
        <time>2021-09-08T04:59:52.000Z</time>
      </trkpt>
      <trkpt lat="45.19826" lon="5.72809">
        <ele>366</ele>
        <time>2021-09-08T04:59:56.000Z</time>
      </trkpt>
      <trkpt lat="45.19832" lon="5.72813">
        <ele>365.20001220703</ele>
        <time>2021-09-08T04:59:59.000Z</time>
      </trkpt>
      <trkpt lat="45.19834" lon="5.72813">
        <ele>364.60000610352</ele>
        <time>2021-09-08T05:00:00.000Z</time>
      </trkpt>
      <trkpt lat="45.19846" lon="5.72824">
        <ele>363</ele>
        <time>2021-09-08T05:00:06.000Z</time>
      </trkpt>
      <trkpt lat="45.19846" lon="5.72826">
        <ele>362.60000610352</ele>
        <time>2021-09-08T05:00:07.000Z</time>
      </trkpt>
      <trkpt lat="45.1984" lon="5.72824">
        <ele>362</ele>
        <time>2021-09-08T05:00:10.000Z</time>
      </trkpt>
      <trkpt lat="45.19836" lon="5.72824">
        <ele>361.39999389648</ele>
        <time>2021-09-08T05:00:11.000Z</time>
      </trkpt>
      <trkpt lat="45.19824" lon="5.7282">
        <ele>360</ele>
        <time>2021-09-08T05:00:16.000Z</time>
      </trkpt>
      <trkpt lat="45.19817" lon="5.72818">
        <ele>359.39999389648</ele>
        <time>2021-09-08T05:00:19.000Z</time>
      </trkpt>
      <trkpt lat="45.19816" lon="5.72818">
        <ele>359.39999389648</ele>
        <time>2021-09-08T05:00:20.000Z</time>
      </trkpt>
      <trkpt lat="45.19815" lon="5.72819">
        <ele>358.79998779297</ele>
        <time>2021-09-08T05:00:21.000Z</time>
      </trkpt>
      <trkpt lat="45.19816" lon="5.7282">
        <ele>358.39999389648</ele>
        <time>2021-09-08T05:00:22.000Z</time>
      </trkpt>
      <trkpt lat="45.19821" lon="5.72822">
        <ele>357.79998779297</ele>
        <time>2021-09-08T05:00:24.000Z</time>
      </trkpt>
      <trkpt lat="45.19824" lon="5.72823">
        <ele>357.20001220703</ele>
        <time>2021-09-08T05:00:25.000Z</time>
      </trkpt>
      <trkpt lat="45.19827" lon="5.72825">
        <ele>357</ele>
        <time>2021-09-08T05:00:26.000Z</time>
      </trkpt>
      <trkpt lat="45.1983" lon="5.72826">
        <ele>357</ele>
        <time>2021-09-08T05:00:27.000Z</time>
      </trkpt>
      <trkpt lat="45.19834" lon="5.72828">
        <ele>356.39999389648</ele>
        <time>2021-09-08T05:00:28.000Z</time>
      </trkpt>
      <trkpt lat="45.19836" lon="5.72831">
        <ele>356</ele>
        <time>2021-09-08T05:00:29.000Z</time>
      </trkpt>
      <trkpt lat="45.19834" lon="5.72834">
        <ele>355.39999389648</ele>
        <time>2021-09-08T05:00:31.000Z</time>
      </trkpt>
      <trkpt lat="45.19833" lon="5.72833">
        <ele>355</ele>
        <time>2021-09-08T05:00:32.000Z</time>
      </trkpt>
      <trkpt lat="45.19824" lon="5.72832">
        <ele>354.60000610352</ele>
        <time>2021-09-08T05:00:35.000Z</time>
      </trkpt>
      <trkpt lat="45.19813" lon="5.72826">
        <ele>353.39999389648</ele>
        <time>2021-09-08T05:00:39.000Z</time>
      </trkpt>
      <trkpt lat="45.19808" lon="5.72824">
        <ele>353</ele>
        <time>2021-09-08T05:00:41.000Z</time>
      </trkpt>
      <trkpt lat="45.19803" lon="5.7282">
        <ele>351.60000610352</ele>
        <time>2021-09-08T05:00:43.000Z</time>
      </trkpt>
      <trkpt lat="45.19793" lon="5.72815">
        <ele>350.39999389648</ele>
        <time>2021-09-08T05:00:48.000Z</time>
      </trkpt>
      <trkpt lat="45.19797" lon="5.72816">
        <ele>350</ele>
        <time>2021-09-08T05:00:51.000Z</time>
      </trkpt>
      <trkpt lat="45.1981" lon="5.72823">
        <ele>349.39999389648</ele>
        <time>2021-09-08T05:00:56.000Z</time>
      </trkpt>
      <trkpt lat="45.19821" lon="5.72832">
        <ele>347.79998779297</ele>
        <time>2021-09-08T05:01:01.000Z</time>
      </trkpt>
      <trkpt lat="45.19823" lon="5.72839">
        <ele>347.60000610352</ele>
        <time>2021-09-08T05:01:03.000Z</time>
      </trkpt>
      <trkpt lat="45.19818" lon="5.7284">
        <ele>347</ele>
        <time>2021-09-08T05:01:05.000Z</time>
      </trkpt>
      <trkpt lat="45.19816" lon="5.72839">
        <ele>346.60000610352</ele>
        <time>2021-09-08T05:01:06.000Z</time>
      </trkpt>
      <trkpt lat="45.19804" lon="5.72836">
        <ele>345.39999389648</ele>
        <time>2021-09-08T05:01:10.000Z</time>
      </trkpt>
      <trkpt lat="45.19801" lon="5.72835">
        <ele>345.39999389648</ele>
        <time>2021-09-08T05:01:11.000Z</time>
      </trkpt>
      <trkpt lat="45.19799" lon="5.72834">
        <ele>345</ele>
        <time>2021-09-08T05:01:12.000Z</time>
      </trkpt>
      <trkpt lat="45.19796" lon="5.72833">
        <ele>344.39999389648</ele>
        <time>2021-09-08T05:01:13.000Z</time>
      </trkpt>
      <trkpt lat="45.19786" lon="5.72828">
        <ele>343.39999389648</ele>
        <time>2021-09-08T05:01:17.000Z</time>
      </trkpt>
      <trkpt lat="45.19778" lon="5.72823">
        <ele>342.20001220703</ele>
        <time>2021-09-08T05:01:20.000Z</time>
      </trkpt>
      <trkpt lat="45.19771" lon="5.7282">
        <ele>341.39999389648</ele>
        <time>2021-09-08T05:01:23.000Z</time>
      </trkpt>
      <trkpt lat="45.19769" lon="5.72819">
        <ele>341</ele>
        <time>2021-09-08T05:01:24.000Z</time>
      </trkpt>
      <trkpt lat="45.19762" lon="5.72814">
        <ele>339.79998779297</ele>
        <time>2021-09-08T05:01:27.000Z</time>
      </trkpt>
      <trkpt lat="45.19759" lon="5.72812">
        <ele>339.60000610352</ele>
        <time>2021-09-08T05:01:28.000Z</time>
      </trkpt>
      <trkpt lat="45.19757" lon="5.72812">
        <ele>339.60000610352</ele>
        <time>2021-09-08T05:01:29.000Z</time>
      </trkpt>
      <trkpt lat="45.19756" lon="5.72812">
        <ele>338.20001220703</ele>
        <time>2021-09-08T05:01:31.000Z</time>
      </trkpt>
      <trkpt lat="45.19756" lon="5.72813">
        <ele>337.79998779297</ele>
        <time>2021-09-08T05:01:32.000Z</time>
      </trkpt>
      <trkpt lat="45.19758" lon="5.72813">
        <ele>337.79998779297</ele>
        <time>2021-09-08T05:01:33.000Z</time>
      </trkpt>
      <trkpt lat="45.19761" lon="5.72815">
        <ele>337.39999389648</ele>
        <time>2021-09-08T05:01:35.000Z</time>
      </trkpt>
      <trkpt lat="45.19762" lon="5.72818">
        <ele>337.20001220703</ele>
        <time>2021-09-08T05:01:36.000Z</time>
      </trkpt>
      <trkpt lat="45.19763" lon="5.7282">
        <ele>337</ele>
        <time>2021-09-08T05:01:37.000Z</time>
      </trkpt>
      <trkpt lat="45.19766" lon="5.72822">
        <ele>336</ele>
        <time>2021-09-08T05:01:38.000Z</time>
      </trkpt>
      <trkpt lat="45.19775" lon="5.72831">
        <ele>335.39999389648</ele>
        <time>2021-09-08T05:01:42.000Z</time>
      </trkpt>
      <trkpt lat="45.19778" lon="5.72833">
        <ele>334</ele>
        <time>2021-09-08T05:01:43.000Z</time>
      </trkpt>
      <trkpt lat="45.19789" lon="5.72846">
        <ele>333.20001220703</ele>
        <time>2021-09-08T05:01:47.000Z</time>
      </trkpt>
      <trkpt lat="45.19791" lon="5.72848">
        <ele>332.39999389648</ele>
        <time>2021-09-08T05:01:48.000Z</time>
      </trkpt>
      <trkpt lat="45.198" lon="5.72856">
        <ele>331</ele>
        <time>2021-09-08T05:01:53.000Z</time>
      </trkpt>
      <trkpt lat="45.19804" lon="5.72861">
        <ele>329.60000610352</ele>
        <time>2021-09-08T05:01:55.000Z</time>
      </trkpt>
      <trkpt lat="45.19808" lon="5.72872">
        <ele>328.60000610352</ele>
        <time>2021-09-08T05:01:59.000Z</time>
      </trkpt>
      <trkpt lat="45.19805" lon="5.72872">
        <ele>328.39999389648</ele>
        <time>2021-09-08T05:02:00.000Z</time>
      </trkpt>
      <trkpt lat="45.19795" lon="5.72872">
        <ele>327</ele>
        <time>2021-09-08T05:02:04.000Z</time>
      </trkpt>
      <trkpt lat="45.19789" lon="5.72871">
        <ele>326.39999389648</ele>
        <time>2021-09-08T05:02:06.000Z</time>
      </trkpt>
      <trkpt lat="45.19781" lon="5.72869">
        <ele>326</ele>
        <time>2021-09-08T05:02:09.000Z</time>
      </trkpt>
      <trkpt lat="45.19778" lon="5.72867">
        <ele>325.60000610352</ele>
        <time>2021-09-08T05:02:10.000Z</time>
      </trkpt>
      <trkpt lat="45.19775" lon="5.72865">
        <ele>324.79998779297</ele>
        <time>2021-09-08T05:02:11.000Z</time>
      </trkpt>
      <trkpt lat="45.19771" lon="5.72864">
        <ele>324.60000610352</ele>
        <time>2021-09-08T05:02:12.000Z</time>
      </trkpt>
      <trkpt lat="45.1976" lon="5.72859">
        <ele>323.39999389648</ele>
        <time>2021-09-08T05:02:16.000Z</time>
      </trkpt>
      <trkpt lat="45.19758" lon="5.72857">
        <ele>322.79998779297</ele>
        <time>2021-09-08T05:02:17.000Z</time>
      </trkpt>
      <trkpt lat="45.19754" lon="5.72854">
        <ele>322.39999389648</ele>
        <time>2021-09-08T05:02:19.000Z</time>
      </trkpt>
      <trkpt lat="45.19747" lon="5.72851">
        <ele>321.39999389648</ele>
        <time>2021-09-08T05:02:22.000Z</time>
      </trkpt>
      <trkpt lat="45.1974" lon="5.72847">
        <ele>320</ele>
        <time>2021-09-08T05:02:26.000Z</time>
      </trkpt>
      <trkpt lat="45.19742" lon="5.72849">
        <ele>319.79998779297</ele>
        <time>2021-09-08T05:02:28.000Z</time>
      </trkpt>
      <trkpt lat="45.19748" lon="5.7285">
        <ele>318.60000610352</ele>
        <time>2021-09-08T05:02:30.000Z</time>
      </trkpt>
      <trkpt lat="45.19755" lon="5.72857">
        <ele>317.39999389648</ele>
        <time>2021-09-08T05:02:33.000Z</time>
      </trkpt>
      <trkpt lat="45.1976" lon="5.72865">
        <ele>316.79998779297</ele>
        <time>2021-09-08T05:02:36.000Z</time>
      </trkpt>
      <trkpt lat="45.19761" lon="5.72867">
        <ele>316</ele>
        <time>2021-09-08T05:02:37.000Z</time>
      </trkpt>
      <trkpt lat="45.19767" lon="5.72877">
        <ele>315</ele>
        <time>2021-09-08T05:02:41.000Z</time>
      </trkpt>
      <trkpt lat="45.19769" lon="5.7288">
        <ele>314.60000610352</ele>
        <time>2021-09-08T05:02:42.000Z</time>
      </trkpt>
      <trkpt lat="45.19774" lon="5.72891">
        <ele>313.60000610352</ele>
        <time>2021-09-08T05:02:46.000Z</time>
      </trkpt>
      <trkpt lat="45.19775" lon="5.72894">
        <ele>313.20001220703</ele>
        <time>2021-09-08T05:02:47.000Z</time>
      </trkpt>
      <trkpt lat="45.19777" lon="5.72896">
        <ele>312.20001220703</ele>
        <time>2021-09-08T05:02:48.000Z</time>
      </trkpt>
      <trkpt lat="45.1978" lon="5.729">
        <ele>311.60000610352</ele>
        <time>2021-09-08T05:02:50.000Z</time>
      </trkpt>
      <trkpt lat="45.19784" lon="5.72902">
        <ele>311.20001220703</ele>
        <time>2021-09-08T05:02:52.000Z</time>
      </trkpt>
      <trkpt lat="45.19787" lon="5.72905">
        <ele>311.20001220703</ele>
        <time>2021-09-08T05:02:53.000Z</time>
      </trkpt>
      <trkpt lat="45.1979" lon="5.72911">
        <ele>309.79998779297</ele>
        <time>2021-09-08T05:02:55.000Z</time>
      </trkpt>
      <trkpt lat="45.19788" lon="5.72914">
        <ele>309.79998779297</ele>
        <time>2021-09-08T05:02:57.000Z</time>
      </trkpt>
      <trkpt lat="45.19782" lon="5.72913">
        <ele>308.39999389648</ele>
        <time>2021-09-08T05:03:00.000Z</time>
      </trkpt>
      <trkpt lat="45.19777" lon="5.72912">
        <ele>308</ele>
        <time>2021-09-08T05:03:02.000Z</time>
      </trkpt>
      <trkpt lat="45.19769" lon="5.7291">
        <ele>306.39999389648</ele>
        <time>2021-09-08T05:03:05.000Z</time>
      </trkpt>
      <trkpt lat="45.19758" lon="5.72904">
        <ele>306</ele>
        <time>2021-09-08T05:03:09.000Z</time>
      </trkpt>
      <trkpt lat="45.19755" lon="5.72901">
        <ele>305.20001220703</ele>
        <time>2021-09-08T05:03:10.000Z</time>
      </trkpt>
      <trkpt lat="45.19745" lon="5.72896">
        <ele>304</ele>
        <time>2021-09-08T05:03:14.000Z</time>
      </trkpt>
      <trkpt lat="45.19737" lon="5.72892">
        <ele>303.20001220703</ele>
        <time>2021-09-08T05:03:17.000Z</time>
      </trkpt>
      <trkpt lat="45.19734" lon="5.72891">
        <ele>302.60000610352</ele>
        <time>2021-09-08T05:03:18.000Z</time>
      </trkpt>
      <trkpt lat="45.1973" lon="5.72888">
        <ele>301.39999389648</ele>
        <time>2021-09-08T05:03:20.000Z</time>
      </trkpt>
      <trkpt lat="45.19724" lon="5.72884">
        <ele>301</ele>
        <time>2021-09-08T05:03:23.000Z</time>
      </trkpt>
      <trkpt lat="45.19712" lon="5.7288">
        <ele>300</ele>
        <time>2021-09-08T05:03:27.000Z</time>
      </trkpt>
      <trkpt lat="45.19706" lon="5.72874">
        <ele>299.20001220703</ele>
        <time>2021-09-08T05:03:30.000Z</time>
      </trkpt>
      <trkpt lat="45.19704" lon="5.72871">
        <ele>298</ele>
        <time>2021-09-08T05:03:31.000Z</time>
      </trkpt>
      <trkpt lat="45.19692" lon="5.72858">
        <ele>297</ele>
        <time>2021-09-08T05:03:36.000Z</time>
      </trkpt>
      <trkpt lat="45.1969" lon="5.72857">
        <ele>296.79998779297</ele>
        <time>2021-09-08T05:03:37.000Z</time>
      </trkpt>
      <trkpt lat="45.19689" lon="5.72857">
        <ele>296</ele>
        <time>2021-09-08T05:03:38.000Z</time>
      </trkpt>
      <trkpt lat="45.19688" lon="5.72857">
        <ele>295.79998779297</ele>
        <time>2021-09-08T05:03:39.000Z</time>
      </trkpt>
      <trkpt lat="45.19688" lon="5.72858">
        <ele>295.60000610352</ele>
        <time>2021-09-08T05:03:40.000Z</time>
      </trkpt>
      <trkpt lat="45.1969" lon="5.7286">
        <ele>295.39999389648</ele>
        <time>2021-09-08T05:03:41.000Z</time>
      </trkpt>
      <trkpt lat="45.19691" lon="5.72862">
        <ele>295</ele>
        <time>2021-09-08T05:03:42.000Z</time>
      </trkpt>
      <trkpt lat="45.19694" lon="5.72865">
        <ele>294.60000610352</ele>
        <time>2021-09-08T05:03:44.000Z</time>
      </trkpt>
      <trkpt lat="45.19698" lon="5.7287">
        <ele>293.79998779297</ele>
        <time>2021-09-08T05:03:46.000Z</time>
      </trkpt>
      <trkpt lat="45.19701" lon="5.72875">
        <ele>293.39999389648</ele>
        <time>2021-09-08T05:03:48.000Z</time>
      </trkpt>
      <trkpt lat="45.19702" lon="5.72876">
        <ele>293</ele>
        <time>2021-09-08T05:03:49.000Z</time>
      </trkpt>
      <trkpt lat="45.19706" lon="5.72882">
        <ele>292.39999389648</ele>
        <time>2021-09-08T05:03:51.000Z</time>
      </trkpt>
      <trkpt lat="45.19708" lon="5.72888">
        <ele>291.60000610352</ele>
        <time>2021-09-08T05:03:53.000Z</time>
      </trkpt>
      <trkpt lat="45.19712" lon="5.72893">
        <ele>291.20001220703</ele>
        <time>2021-09-08T05:03:55.000Z</time>
      </trkpt>
      <trkpt lat="45.19722" lon="5.72906">
        <ele>290.20001220703</ele>
        <time>2021-09-08T05:03:59.000Z</time>
      </trkpt>
      <trkpt lat="45.19725" lon="5.72909">
        <ele>289.79998779297</ele>
        <time>2021-09-08T05:04:00.000Z</time>
      </trkpt>
      <trkpt lat="45.19731" lon="5.72918">
        <ele>288.79998779297</ele>
        <time>2021-09-08T05:04:03.000Z</time>
      </trkpt>
      <trkpt lat="45.19733" lon="5.72924">
        <ele>288.60000610352</ele>
        <time>2021-09-08T05:04:05.000Z</time>
      </trkpt>
      <trkpt lat="45.19735" lon="5.72929">
        <ele>287.20001220703</ele>
        <time>2021-09-08T05:04:07.000Z</time>
      </trkpt>
      <trkpt lat="45.19738" lon="5.72934">
        <ele>286.79998779297</ele>
        <time>2021-09-08T05:04:09.000Z</time>
      </trkpt>
      <trkpt lat="45.19739" lon="5.72937">
        <ele>286.79998779297</ele>
        <time>2021-09-08T05:04:10.000Z</time>
      </trkpt>
      <trkpt lat="45.19741" lon="5.72943">
        <ele>286</ele>
        <time>2021-09-08T05:04:12.000Z</time>
      </trkpt>
      <trkpt lat="45.19749" lon="5.72955">
        <ele>285</ele>
        <time>2021-09-08T05:04:17.000Z</time>
      </trkpt>
      <trkpt lat="45.1975" lon="5.72957">
        <ele>284.20001220703</ele>
        <time>2021-09-08T05:04:18.000Z</time>
      </trkpt>
      <trkpt lat="45.19753" lon="5.72959">
        <ele>283.60000610352</ele>
        <time>2021-09-08T05:04:19.000Z</time>
      </trkpt>
      <trkpt lat="45.19763" lon="5.7297">
        <ele>282.20001220703</ele>
        <time>2021-09-08T05:04:24.000Z</time>
      </trkpt>
      <trkpt lat="45.19767" lon="5.72975">
        <ele>281.79998779297</ele>
        <time>2021-09-08T05:04:26.000Z</time>
      </trkpt>
      <trkpt lat="45.19771" lon="5.72979">
        <ele>281.39999389648</ele>
        <time>2021-09-08T05:04:28.000Z</time>
      </trkpt>
      <trkpt lat="45.19773" lon="5.72981">
        <ele>280.79998779297</ele>
        <time>2021-09-08T05:04:29.000Z</time>
      </trkpt>
      <trkpt lat="45.19779" lon="5.72987">
        <ele>280.39999389648</ele>
        <time>2021-09-08T05:04:31.000Z</time>
      </trkpt>
      <trkpt lat="45.19784" lon="5.72991">
        <ele>279.60000610352</ele>
        <time>2021-09-08T05:04:34.000Z</time>
      </trkpt>
      <trkpt lat="45.19792" lon="5.72999">
        <ele>278.60000610352</ele>
        <time>2021-09-08T05:04:38.000Z</time>
      </trkpt>
      <trkpt lat="45.19797" lon="5.73002">
        <ele>277.60000610352</ele>
        <time>2021-09-08T05:04:40.000Z</time>
      </trkpt>
      <trkpt lat="45.198" lon="5.73006">
        <ele>277</ele>
        <time>2021-09-08T05:04:42.000Z</time>
      </trkpt>
      <trkpt lat="45.198" lon="5.73009">
        <ele>276.39999389648</ele>
        <time>2021-09-08T05:04:43.000Z</time>
      </trkpt>
      <trkpt lat="45.19792" lon="5.7301">
        <ele>276</ele>
        <time>2021-09-08T05:04:46.000Z</time>
      </trkpt>
      <trkpt lat="45.19785" lon="5.7301">
        <ele>275</ele>
        <time>2021-09-08T05:04:49.000Z</time>
      </trkpt>
      <trkpt lat="45.19773" lon="5.73012">
        <ele>274.39999389648</ele>
        <time>2021-09-08T05:04:53.000Z</time>
      </trkpt>
      <trkpt lat="45.19768" lon="5.73012">
        <ele>273.39999389648</ele>
        <time>2021-09-08T05:04:55.000Z</time>
      </trkpt>
      <trkpt lat="45.19756" lon="5.73009">
        <ele>271.79998779297</ele>
        <time>2021-09-08T05:04:59.000Z</time>
      </trkpt>
      <trkpt lat="45.19755" lon="5.7301">
        <ele>271.60000610352</ele>
        <time>2021-09-08T05:05:00.000Z</time>
      </trkpt>
      <trkpt lat="45.19759" lon="5.73014">
        <ele>270.60000610352</ele>
        <time>2021-09-08T05:05:03.000Z</time>
      </trkpt>
      <trkpt lat="45.19766" lon="5.73016">
        <ele>270.39999389648</ele>
        <time>2021-09-08T05:05:06.000Z</time>
      </trkpt>
      <trkpt lat="45.19771" lon="5.73018">
        <ele>269.20001220703</ele>
        <time>2021-09-08T05:05:08.000Z</time>
      </trkpt>
      <trkpt lat="45.19785" lon="5.73023">
        <ele>268.20001220703</ele>
        <time>2021-09-08T05:05:13.000Z</time>
      </trkpt>
      <trkpt lat="45.19788" lon="5.73026">
        <ele>267.60000610352</ele>
        <time>2021-09-08T05:05:14.000Z</time>
      </trkpt>
      <trkpt lat="45.19794" lon="5.73029">
        <ele>267.39999389648</ele>
        <time>2021-09-08T05:05:16.000Z</time>
      </trkpt>
      <trkpt lat="45.19797" lon="5.73032">
        <ele>266.39999389648</ele>
        <time>2021-09-08T05:05:18.000Z</time>
      </trkpt>
      <trkpt lat="45.19797" lon="5.73034">
        <ele>266.20001220703</ele>
        <time>2021-09-08T05:05:19.000Z</time>
      </trkpt>
      <trkpt lat="45.19794" lon="5.73037">
        <ele>265.79998779297</ele>
        <time>2021-09-08T05:05:21.000Z</time>
      </trkpt>
      <trkpt lat="45.1979" lon="5.73039">
        <ele>265</ele>
        <time>2021-09-08T05:05:23.000Z</time>
      </trkpt>
      <trkpt lat="45.19781" lon="5.73039">
        <ele>263.60000610352</ele>
        <time>2021-09-08T05:05:27.000Z</time>
      </trkpt>
      <trkpt lat="45.19775" lon="5.73039">
        <ele>262.79998779297</ele>
        <time>2021-09-08T05:05:29.000Z</time>
      </trkpt>
      <trkpt lat="45.19769" lon="5.73038">
        <ele>262.60000610352</ele>
        <time>2021-09-08T05:05:31.000Z</time>
      </trkpt>
      <trkpt lat="45.19763" lon="5.73038">
        <ele>261.39999389648</ele>
        <time>2021-09-08T05:05:33.000Z</time>
      </trkpt>
      <trkpt lat="45.19761" lon="5.73037">
        <ele>261.20001220703</ele>
        <time>2021-09-08T05:05:34.000Z</time>
      </trkpt>
      <trkpt lat="45.19754" lon="5.73034">
        <ele>260</ele>
        <time>2021-09-08T05:05:37.000Z</time>
      </trkpt>
      <trkpt lat="45.1975" lon="5.73032">
        <ele>259.60000610352</ele>
        <time>2021-09-08T05:05:40.000Z</time>
      </trkpt>
      <trkpt lat="45.19751" lon="5.73035">
        <ele>259</ele>
        <time>2021-09-08T05:05:42.000Z</time>
      </trkpt>
      <trkpt lat="45.19752" lon="5.73036">
        <ele>258.60000610352</ele>
        <time>2021-09-08T05:05:43.000Z</time>
      </trkpt>
      <trkpt lat="45.19758" lon="5.73039">
        <ele>258.39999389648</ele>
        <time>2021-09-08T05:05:45.000Z</time>
      </trkpt>
      <trkpt lat="45.1976" lon="5.73041">
        <ele>257.79998779297</ele>
        <time>2021-09-08T05:05:46.000Z</time>
      </trkpt>
      <trkpt lat="45.19766" lon="5.73043">
        <ele>257.20001220703</ele>
        <time>2021-09-08T05:05:48.000Z</time>
      </trkpt>
      <trkpt lat="45.19768" lon="5.73045">
        <ele>256.60000610352</ele>
        <time>2021-09-08T05:05:49.000Z</time>
      </trkpt>
      <trkpt lat="45.19779" lon="5.7305">
        <ele>255.39999389648</ele>
        <time>2021-09-08T05:05:53.000Z</time>
      </trkpt>
      <trkpt lat="45.1979" lon="5.73056">
        <ele>253.80000305176</ele>
        <time>2021-09-08T05:05:57.000Z</time>
      </trkpt>
      <trkpt lat="45.19791" lon="5.73058">
        <ele>253.60000610352</ele>
        <time>2021-09-08T05:05:58.000Z</time>
      </trkpt>
      <trkpt lat="45.19786" lon="5.73062">
        <ele>253</ele>
        <time>2021-09-08T05:06:01.000Z</time>
      </trkpt>
      <trkpt lat="45.19782" lon="5.73061">
        <ele>252.39999389648</ele>
        <time>2021-09-08T05:06:03.000Z</time>
      </trkpt>
      <trkpt lat="45.19774" lon="5.73058">
        <ele>251.60000610352</ele>
        <time>2021-09-08T05:06:06.000Z</time>
      </trkpt>
      <trkpt lat="45.1977" lon="5.73056">
        <ele>250.80000305176</ele>
        <time>2021-09-08T05:06:08.000Z</time>
      </trkpt>
      <trkpt lat="45.19759" lon="5.73054">
        <ele>249.39999389648</ele>
        <time>2021-09-08T05:06:12.000Z</time>
      </trkpt>
      <trkpt lat="45.19752" lon="5.73054">
        <ele>248.39999389648</ele>
        <time>2021-09-08T05:06:14.000Z</time>
      </trkpt>
      <trkpt lat="45.19748" lon="5.73055">
        <ele>247.39999389648</ele>
        <time>2021-09-08T05:06:16.000Z</time>
      </trkpt>
      <trkpt lat="45.19747" lon="5.73056">
        <ele>247.39999389648</ele>
        <time>2021-09-08T05:06:17.000Z</time>
      </trkpt>
      <trkpt lat="45.19748" lon="5.73056">
        <ele>247.19999694824</ele>
        <time>2021-09-08T05:06:18.000Z</time>
      </trkpt>
      <trkpt lat="45.19754" lon="5.73058">
        <ele>245.80000305176</ele>
        <time>2021-09-08T05:06:21.000Z</time>
      </trkpt>
      <trkpt lat="45.19755" lon="5.73059">
        <ele>245.80000305176</ele>
        <time>2021-09-08T05:06:22.000Z</time>
      </trkpt>
      <trkpt lat="45.19759" lon="5.73063">
        <ele>245.60000610352</ele>
        <time>2021-09-08T05:06:24.000Z</time>
      </trkpt>
      <trkpt lat="45.19763" lon="5.73065">
        <ele>244.80000305176</ele>
        <time>2021-09-08T05:06:26.000Z</time>
      </trkpt>
      <trkpt lat="45.19774" lon="5.73071">
        <ele>243.19999694824</ele>
        <time>2021-09-08T05:06:30.000Z</time>
      </trkpt>
      <trkpt lat="45.19794" lon="5.73081">
        <ele>242.19999694824</ele>
        <time>2021-09-08T05:06:35.000Z</time>
      </trkpt>
      <trkpt lat="45.19798" lon="5.73082">
        <ele>242</ele>
        <time>2021-09-08T05:06:36.000Z</time>
      </trkpt>
      <trkpt lat="45.198" lon="5.73084">
        <ele>241.19999694824</ele>
        <time>2021-09-08T05:06:37.000Z</time>
      </trkpt>
      <trkpt lat="45.19799" lon="5.73088">
        <ele>241.19999694824</ele>
        <time>2021-09-08T05:06:39.000Z</time>
      </trkpt>
      <trkpt lat="45.19797" lon="5.73089">
        <ele>240.39999389648</ele>
        <time>2021-09-08T05:06:40.000Z</time>
      </trkpt>
      <trkpt lat="45.19788" lon="5.73089">
        <ele>239.39999389648</ele>
        <time>2021-09-08T05:06:43.000Z</time>
      </trkpt>
      <trkpt lat="45.19778" lon="5.73089">
        <ele>238.60000610352</ele>
        <time>2021-09-08T05:06:47.000Z</time>
      </trkpt>
      <trkpt lat="45.19774" lon="5.7309">
        <ele>237.80000305176</ele>
        <time>2021-09-08T05:06:48.000Z</time>
      </trkpt>
      <trkpt lat="45.19771" lon="5.73088">
        <ele>237.19999694824</ele>
        <time>2021-09-08T05:06:49.000Z</time>
      </trkpt>
      <trkpt lat="45.1977" lon="5.73088">
        <ele>237.19999694824</ele>
        <time>2021-09-08T05:06:50.000Z</time>
      </trkpt>
      <trkpt lat="45.19763" lon="5.73087">
        <ele>236.80000305176</ele>
        <time>2021-09-08T05:06:52.000Z</time>
      </trkpt>
      <trkpt lat="45.19757" lon="5.73091">
        <ele>235.60000610352</ele>
        <time>2021-09-08T05:06:55.000Z</time>
      </trkpt>
      <trkpt lat="45.19759" lon="5.73093">
        <ele>235</ele>
        <time>2021-09-08T05:06:58.000Z</time>
      </trkpt>
      <trkpt lat="45.19762" lon="5.73094">
        <ele>234.60000610352</ele>
        <time>2021-09-08T05:07:00.000Z</time>
      </trkpt>
      <trkpt lat="45.19766" lon="5.73096">
        <ele>233.60000610352</ele>
        <time>2021-09-08T05:07:03.000Z</time>
      </trkpt>
      <trkpt lat="45.19767" lon="5.73098">
        <ele>233.19999694824</ele>
        <time>2021-09-08T05:07:04.000Z</time>
      </trkpt>
      <trkpt lat="45.19776" lon="5.73103">
        <ele>231.80000305176</ele>
        <time>2021-09-08T05:07:09.000Z</time>
      </trkpt>
      <trkpt lat="45.19783" lon="5.73109">
        <ele>230.60000610352</ele>
        <time>2021-09-08T05:07:12.000Z</time>
      </trkpt>
      <trkpt lat="45.19786" lon="5.7311">
        <ele>230.39999389648</ele>
        <time>2021-09-08T05:07:13.000Z</time>
      </trkpt>
      <trkpt lat="45.19794" lon="5.73116">
        <ele>229.60000610352</ele>
        <time>2021-09-08T05:07:16.000Z</time>
      </trkpt>
      <trkpt lat="45.1979" lon="5.73124">
        <ele>229.19999694824</ele>
        <time>2021-09-08T05:07:18.000Z</time>
      </trkpt>
      <trkpt lat="45.19787" lon="5.73127">
        <ele>228.60000610352</ele>
        <time>2021-09-08T05:07:19.000Z</time>
      </trkpt>
      <trkpt lat="45.19781" lon="5.73136">
        <ele>227.60000610352</ele>
        <time>2021-09-08T05:07:22.000Z</time>
      </trkpt>
      <trkpt lat="45.19779" lon="5.73139">
        <ele>227.19999694824</ele>
        <time>2021-09-08T05:07:23.000Z</time>
      </trkpt>
      <trkpt lat="45.19774" lon="5.73148">
        <ele>226.39999389648</ele>
        <time>2021-09-08T05:07:26.000Z</time>
      </trkpt>
      <trkpt lat="45.19771" lon="5.73156">
        <ele>225</ele>
        <time>2021-09-08T05:07:28.000Z</time>
      </trkpt>
      <trkpt lat="45.1977" lon="5.7316">
        <ele>224.80000305176</ele>
        <time>2021-09-08T05:07:29.000Z</time>
      </trkpt>
      <trkpt lat="45.19769" lon="5.73168">
        <ele>223.80000305176</ele>
        <time>2021-09-08T05:07:31.000Z</time>
      </trkpt>
      <trkpt lat="45.19769" lon="5.73172">
        <ele>222.60000610352</ele>
        <time>2021-09-08T05:07:32.000Z</time>
      </trkpt>
      <trkpt lat="45.1977" lon="5.7318">
        <ele>222.19999694824</ele>
        <time>2021-09-08T05:07:34.000Z</time>
      </trkpt>
      <trkpt lat="45.19778" lon="5.73205">
        <ele>222.19999694824</ele>
        <time>2021-09-08T05:07:40.000Z</time>
      </trkpt>
      <trkpt lat="45.19774" lon="5.73218">
        <ele>222.60000610352</ele>
        <time>2021-09-08T05:07:44.000Z</time>
      </trkpt>
      <trkpt lat="45.19773" lon="5.73221">
        <ele>222.60000610352</ele>
        <time>2021-09-08T05:07:45.000Z</time>
      </trkpt>
      <trkpt lat="45.19768" lon="5.73246">
        <ele>222.60000610352</ele>
        <time>2021-09-08T05:07:51.000Z</time>
      </trkpt>
      <trkpt lat="45.19771" lon="5.73253">
        <ele>222.80000305176</ele>
        <time>2021-09-08T05:07:54.000Z</time>
      </trkpt>
      <trkpt lat="45.19776" lon="5.73256">
        <ele>223</ele>
        <time>2021-09-08T05:07:56.000Z</time>
      </trkpt>
      <trkpt lat="45.19794" lon="5.73261">
        <ele>222.80000305176</ele>
        <time>2021-09-08T05:08:02.000Z</time>
      </trkpt>
      <trkpt lat="45.198" lon="5.73262">
        <ele>222.80000305176</ele>
        <time>2021-09-08T05:08:04.000Z</time>
      </trkpt>
      <trkpt lat="45.1982" lon="5.73266">
        <ele>222.60000610352</ele>
        <time>2021-09-08T05:08:10.000Z</time>
      </trkpt>
      <trkpt lat="45.19825" lon="5.73267">
        <ele>222.60000610352</ele>
        <time>2021-09-08T05:08:12.000Z</time>
      </trkpt>
      <trkpt lat="45.19845" lon="5.73271">
        <ele>222.60000610352</ele>
        <time>2021-09-08T05:08:20.000Z</time>
      </trkpt>
      <trkpt lat="45.19861" lon="5.73272">
        <ele>222.80000305176</ele>
        <time>2021-09-08T05:08:26.000Z</time>
      </trkpt>
      <trkpt lat="45.1988" lon="5.73276">
        <ele>223</ele>
        <time>2021-09-08T05:08:32.000Z</time>
      </trkpt>
      <trkpt lat="45.19882" lon="5.73277">
        <ele>223</ele>
        <time>2021-09-08T05:08:33.000Z</time>
      </trkpt>
      <trkpt lat="45.19902" lon="5.73284">
        <ele>222.80000305176</ele>
        <time>2021-09-08T05:08:40.000Z</time>
      </trkpt>
      <trkpt lat="45.19905" lon="5.73286">
        <ele>222.80000305176</ele>
        <time>2021-09-08T05:08:41.000Z</time>
      </trkpt>
      <trkpt lat="45.19923" lon="5.73297">
        <ele>223</ele>
        <time>2021-09-08T05:08:48.000Z</time>
      </trkpt>
      <trkpt lat="45.19928" lon="5.73299">
        <ele>223</ele>
        <time>2021-09-08T05:08:51.000Z</time>
      </trkpt>
      <trkpt lat="45.19939" lon="5.73304">
        <ele>223</ele>
        <time>2021-09-08T05:08:55.000Z</time>
      </trkpt>
      <trkpt lat="45.1995" lon="5.7331">
        <ele>222.80000305176</ele>
        <time>2021-09-08T05:08:58.000Z</time>
      </trkpt>
      <trkpt lat="45.19953" lon="5.73311">
        <ele>222.80000305176</ele>
        <time>2021-09-08T05:08:59.000Z</time>
      </trkpt>
      <trkpt lat="45.1997" lon="5.73318">
        <ele>222.39999389648</ele>
        <time>2021-09-08T05:09:04.000Z</time>
      </trkpt>
      <trkpt lat="45.19981" lon="5.73322">
        <ele>222.39999389648</ele>
        <time>2021-09-08T05:09:07.000Z</time>
      </trkpt>
      <trkpt lat="45.19987" lon="5.73325">
        <ele>222.39999389648</ele>
        <time>2021-09-08T05:09:09.000Z</time>
      </trkpt>
      <trkpt lat="45.20006" lon="5.73332">
        <ele>222.39999389648</ele>
        <time>2021-09-08T05:09:15.000Z</time>
      </trkpt>
      <trkpt lat="45.20011" lon="5.73335">
        <ele>222.19999694824</ele>
        <time>2021-09-08T05:09:17.000Z</time>
      </trkpt>
      <trkpt lat="45.20026" lon="5.73344">
        <ele>221.60000610352</ele>
        <time>2021-09-08T05:09:23.000Z</time>
      </trkpt>
      <trkpt lat="45.20034" lon="5.7335">
        <ele>221.80000305176</ele>
        <time>2021-09-08T05:09:27.000Z</time>
      </trkpt>
      <trkpt lat="45.20041" lon="5.73353">
        <ele>221.60000610352</ele>
        <time>2021-09-08T05:09:30.000Z</time>
      </trkpt>
      <trkpt lat="45.20043" lon="5.73353">
        <ele>221.60000610352</ele>
        <time>2021-09-08T05:09:31.000Z</time>
      </trkpt>
      <trkpt lat="45.2005" lon="5.73357">
        <ele>221.39999389648</ele>
        <time>2021-09-08T05:09:34.000Z</time>
      </trkpt>
      <trkpt lat="45.2006" lon="5.73361">
        <ele>221.39999389648</ele>
        <time>2021-09-08T05:09:38.000Z</time>
      </trkpt>
      <trkpt lat="45.20066" lon="5.73363">
        <ele>221.39999389648</ele>
        <time>2021-09-08T05:09:40.000Z</time>
      </trkpt>
      <trkpt lat="45.2007" lon="5.73365">
        <ele>221.39999389648</ele>
        <time>2021-09-08T05:09:41.000Z</time>
      </trkpt>
      <trkpt lat="45.20089" lon="5.73375">
        <ele>221.60000610352</ele>
        <time>2021-09-08T05:09:46.000Z</time>
      </trkpt>
      <trkpt lat="45.20103" lon="5.73382">
        <ele>221.39999389648</ele>
        <time>2021-09-08T05:09:51.000Z</time>
      </trkpt>
      <trkpt lat="45.20119" lon="5.73397">
        <ele>220.80000305176</ele>
        <time>2021-09-08T05:09:56.000Z</time>
      </trkpt>
      <trkpt lat="45.20124" lon="5.73401">
        <ele>220.80000305176</ele>
        <time>2021-09-08T05:09:58.000Z</time>
      </trkpt>
      <trkpt lat="45.20133" lon="5.73417">
        <ele>220.19999694824</ele>
        <time>2021-09-08T05:10:02.000Z</time>
      </trkpt>
      <trkpt lat="45.20139" lon="5.73427">
        <ele>219.80000305176</ele>
        <time>2021-09-08T05:10:05.000Z</time>
      </trkpt>
      <trkpt lat="45.20148" lon="5.73442">
        <ele>219.60000610352</ele>
        <time>2021-09-08T05:10:09.000Z</time>
      </trkpt>
      <trkpt lat="45.20157" lon="5.73456">
        <ele>219.60000610352</ele>
        <time>2021-09-08T05:10:13.000Z</time>
      </trkpt>
      <trkpt lat="45.20174" lon="5.73475">
        <ele>219.39999389648</ele>
        <time>2021-09-08T05:10:19.000Z</time>
      </trkpt>
      <trkpt lat="45.20176" lon="5.73478">
        <ele>219.39999389648</ele>
        <time>2021-09-08T05:10:20.000Z</time>
      </trkpt>
      <trkpt lat="45.20187" lon="5.73501">
        <ele>219.39999389648</ele>
        <time>2021-09-08T05:10:27.000Z</time>
      </trkpt>
      <trkpt lat="45.20198" lon="5.73518">
        <ele>219.80000305176</ele>
        <time>2021-09-08T05:10:33.000Z</time>
      </trkpt>
      <trkpt lat="45.20207" lon="5.73541">
        <ele>220</ele>
        <time>2021-09-08T05:10:39.000Z</time>
      </trkpt>
      <trkpt lat="45.20217" lon="5.7356">
        <ele>220.80000305176</ele>
        <time>2021-09-08T05:10:44.000Z</time>
      </trkpt>
      <trkpt lat="45.20223" lon="5.7357">
        <ele>220.60000610352</ele>
        <time>2021-09-08T05:10:47.000Z</time>
      </trkpt>
      <trkpt lat="45.20229" lon="5.73584">
        <ele>220.60000610352</ele>
        <time>2021-09-08T05:10:51.000Z</time>
      </trkpt>
      <trkpt lat="45.20231" lon="5.73592">
        <ele>220.19999694824</ele>
        <time>2021-09-08T05:10:53.000Z</time>
      </trkpt>
      <trkpt lat="45.20242" lon="5.7361">
        <ele>220.19999694824</ele>
        <time>2021-09-08T05:10:59.000Z</time>
      </trkpt>
      <trkpt lat="45.2025" lon="5.73636">
        <ele>220.39999389648</ele>
        <time>2021-09-08T05:11:05.000Z</time>
      </trkpt>
      <trkpt lat="45.2025" lon="5.73641">
        <ele>220.39999389648</ele>
        <time>2021-09-08T05:11:06.000Z</time>
      </trkpt>
      <trkpt lat="45.2025" lon="5.73667">
        <ele>220.60000610352</ele>
        <time>2021-09-08T05:11:11.000Z</time>
      </trkpt>
      <trkpt lat="45.2025" lon="5.73677">
        <ele>220.60000610352</ele>
        <time>2021-09-08T05:11:13.000Z</time>
      </trkpt>
      <trkpt lat="45.20256" lon="5.73703">
        <ele>220.39999389648</ele>
        <time>2021-09-08T05:11:19.000Z</time>
      </trkpt>
      <trkpt lat="45.20257" lon="5.73713">
        <ele>220.19999694824</ele>
        <time>2021-09-08T05:11:21.000Z</time>
      </trkpt>
      <trkpt lat="45.20262" lon="5.73731">
        <ele>220.19999694824</ele>
        <time>2021-09-08T05:11:26.000Z</time>
      </trkpt>
      <trkpt lat="45.20267" lon="5.73741">
        <ele>220.39999389648</ele>
        <time>2021-09-08T05:11:28.000Z</time>
      </trkpt>
      <trkpt lat="45.20266" lon="5.73746">
        <ele>220.39999389648</ele>
        <time>2021-09-08T05:11:29.000Z</time>
      </trkpt>
      <trkpt lat="45.20263" lon="5.73773">
        <ele>220.39999389648</ele>
        <time>2021-09-08T05:11:35.000Z</time>
      </trkpt>
      <trkpt lat="45.20263" lon="5.73777">
        <ele>220.39999389648</ele>
        <time>2021-09-08T05:11:36.000Z</time>
      </trkpt>
      <trkpt lat="45.20258" lon="5.73798">
        <ele>220.80000305176</ele>
        <time>2021-09-08T05:11:41.000Z</time>
      </trkpt>
      <trkpt lat="45.20251" lon="5.7382">
        <ele>220.39999389648</ele>
        <time>2021-09-08T05:11:46.000Z</time>
      </trkpt>
      <trkpt lat="45.20245" lon="5.73848">
        <ele>220.60000610352</ele>
        <time>2021-09-08T05:11:52.000Z</time>
      </trkpt>
      <trkpt lat="45.20243" lon="5.73874">
        <ele>220.80000305176</ele>
        <time>2021-09-08T05:11:58.000Z</time>
      </trkpt>
      <trkpt lat="45.20242" lon="5.73878">
        <ele>220.80000305176</ele>
        <time>2021-09-08T05:11:59.000Z</time>
      </trkpt>
      <trkpt lat="45.20237" lon="5.73905">
        <ele>220.60000610352</ele>
        <time>2021-09-08T05:12:05.000Z</time>
      </trkpt>
      <trkpt lat="45.20236" lon="5.73909">
        <ele>220.60000610352</ele>
        <time>2021-09-08T05:12:06.000Z</time>
      </trkpt>
      <trkpt lat="45.20231" lon="5.7393">
        <ele>220.80000305176</ele>
        <time>2021-09-08T05:12:11.000Z</time>
      </trkpt>
      <trkpt lat="45.20224" lon="5.73951">
        <ele>220.60000610352</ele>
        <time>2021-09-08T05:12:16.000Z</time>
      </trkpt>
      <trkpt lat="45.20216" lon="5.73974">
        <ele>220.19999694824</ele>
        <time>2021-09-08T05:12:22.000Z</time>
      </trkpt>
      <trkpt lat="45.20209" lon="5.73989">
        <ele>220.19999694824</ele>
        <time>2021-09-08T05:12:26.000Z</time>
      </trkpt>
      <trkpt lat="45.20203" lon="5.74015">
        <ele>220.19999694824</ele>
        <time>2021-09-08T05:12:32.000Z</time>
      </trkpt>
      <trkpt lat="45.20201" lon="5.7402">
        <ele>220.19999694824</ele>
        <time>2021-09-08T05:12:33.000Z</time>
      </trkpt>
      <trkpt lat="45.20188" lon="5.74041">
        <ele>220.19999694824</ele>
        <time>2021-09-08T05:12:39.000Z</time>
      </trkpt>
      <trkpt lat="45.20187" lon="5.74043">
        <ele>220.19999694824</ele>
        <time>2021-09-08T05:12:40.000Z</time>
      </trkpt>
      <trkpt lat="45.20175" lon="5.74063">
        <ele>219.39999389648</ele>
        <time>2021-09-08T05:12:46.000Z</time>
      </trkpt>
      <trkpt lat="45.2017" lon="5.7407">
        <ele>220.19999694824</ele>
        <time>2021-09-08T05:12:48.000Z</time>
      </trkpt>
      <trkpt lat="45.20156" lon="5.74088">
        <ele>220.19999694824</ele>
        <time>2021-09-08T05:12:54.000Z</time>
      </trkpt>
      <trkpt lat="45.20153" lon="5.74094">
        <ele>220.80000305176</ele>
        <time>2021-09-08T05:12:56.000Z</time>
      </trkpt>
      <trkpt lat="45.20151" lon="5.74106">
        <ele>220.80000305176</ele>
        <time>2021-09-08T05:12:59.000Z</time>
      </trkpt>
      <trkpt lat="45.2015" lon="5.74108">
        <ele>221</ele>
        <time>2021-09-08T05:13:00.000Z</time>
      </trkpt>
      <trkpt lat="45.20146" lon="5.74123">
        <ele>221.39999389648</ele>
        <time>2021-09-08T05:13:04.000Z</time>
      </trkpt>
      <trkpt lat="45.20138" lon="5.74135">
        <ele>222</ele>
        <time>2021-09-08T05:13:08.000Z</time>
      </trkpt>
      <trkpt lat="45.20132" lon="5.74143">
        <ele>222.60000610352</ele>
        <time>2021-09-08T05:13:11.000Z</time>
      </trkpt>
      <trkpt lat="45.2012" lon="5.7416">
        <ele>223.60000610352</ele>
        <time>2021-09-08T05:13:16.000Z</time>
      </trkpt>
      <trkpt lat="45.20115" lon="5.74168">
        <ele>224.19999694824</ele>
        <time>2021-09-08T05:13:18.000Z</time>
      </trkpt>
      <trkpt lat="45.20111" lon="5.74174">
        <ele>224.80000305176</ele>
        <time>2021-09-08T05:13:20.000Z</time>
      </trkpt>
      <trkpt lat="45.20103" lon="5.74184">
        <ele>224.60000610352</ele>
        <time>2021-09-08T05:13:24.000Z</time>
      </trkpt>
      <trkpt lat="45.20097" lon="5.7419">
        <ele>224.60000610352</ele>
        <time>2021-09-08T05:13:27.000Z</time>
      </trkpt>
      <trkpt lat="45.20089" lon="5.74194">
        <ele>224.60000610352</ele>
        <time>2021-09-08T05:13:30.000Z</time>
      </trkpt>
      <trkpt lat="45.20085" lon="5.74193">
        <ele>224.60000610352</ele>
        <time>2021-09-08T05:13:31.000Z</time>
      </trkpt>
      <trkpt lat="45.20072" lon="5.74176">
        <ele>224.80000305176</ele>
        <time>2021-09-08T05:13:36.000Z</time>
      </trkpt>
      <trkpt lat="45.20059" lon="5.74154">
        <ele>225</ele>
        <time>2021-09-08T05:13:43.000Z</time>
      </trkpt>
      <trkpt lat="45.20053" lon="5.74146">
        <ele>225</ele>
        <time>2021-09-08T05:13:45.000Z</time>
      </trkpt>
      <trkpt lat="45.20039" lon="5.74128">
        <ele>224.80000305176</ele>
        <time>2021-09-08T05:13:51.000Z</time>
      </trkpt>
      <trkpt lat="45.20037" lon="5.74124">
        <ele>224.80000305176</ele>
        <time>2021-09-08T05:13:52.000Z</time>
      </trkpt>
      <trkpt lat="45.20023" lon="5.74107">
        <ele>224.60000610352</ele>
        <time>2021-09-08T05:13:58.000Z</time>
      </trkpt>
      <trkpt lat="45.20017" lon="5.741">
        <ele>224.60000610352</ele>
        <time>2021-09-08T05:14:01.000Z</time>
      </trkpt>
      <trkpt lat="45.20004" lon="5.74092">
        <ele>224.39999389648</ele>
        <time>2021-09-08T05:14:07.000Z</time>
      </trkpt>
      <trkpt lat="45.20002" lon="5.74094">
        <ele>224.39999389648</ele>
        <time>2021-09-08T05:14:08.000Z</time>
      </trkpt>
      <trkpt lat="45.19993" lon="5.74105">
        <ele>223</ele>
        <time>2021-09-08T05:14:12.000Z</time>
      </trkpt>
      <trkpt lat="45.19992" lon="5.74109">
        <ele>223</ele>
        <time>2021-09-08T05:14:13.000Z</time>
      </trkpt>
      <trkpt lat="45.1998" lon="5.74127">
        <ele>221.80000305176</ele>
        <time>2021-09-08T05:14:18.000Z</time>
      </trkpt>
      <trkpt lat="45.19965" lon="5.74145">
        <ele>221.19999694824</ele>
        <time>2021-09-08T05:14:24.000Z</time>
      </trkpt>
      <trkpt lat="45.19963" lon="5.74147">
        <ele>220.60000610352</ele>
        <time>2021-09-08T05:14:25.000Z</time>
      </trkpt>
      <trkpt lat="45.19949" lon="5.74164">
        <ele>221</ele>
        <time>2021-09-08T05:14:31.000Z</time>
      </trkpt>
      <trkpt lat="45.19933" lon="5.74181">
        <ele>220.80000305176</ele>
        <time>2021-09-08T05:14:37.000Z</time>
      </trkpt>
      <trkpt lat="45.19915" lon="5.74194">
        <ele>221.19999694824</ele>
        <time>2021-09-08T05:14:43.000Z</time>
      </trkpt>
      <trkpt lat="45.1991" lon="5.74198">
        <ele>221.19999694824</ele>
        <time>2021-09-08T05:14:45.000Z</time>
      </trkpt>
      <trkpt lat="45.19893" lon="5.7421">
        <ele>220.80000305176</ele>
        <time>2021-09-08T05:14:51.000Z</time>
      </trkpt>
      <trkpt lat="45.19875" lon="5.74214">
        <ele>221</ele>
        <time>2021-09-08T05:14:57.000Z</time>
      </trkpt>
      <trkpt lat="45.19872" lon="5.74215">
        <ele>221</ele>
        <time>2021-09-08T05:14:58.000Z</time>
      </trkpt>
      <trkpt lat="45.19863" lon="5.7422">
        <ele>220.80000305176</ele>
        <time>2021-09-08T05:15:01.000Z</time>
      </trkpt>
      <trkpt lat="45.19851" lon="5.74226">
        <ele>220.80000305176</ele>
        <time>2021-09-08T05:15:05.000Z</time>
      </trkpt>
      <trkpt lat="45.19846" lon="5.74228">
        <ele>220.80000305176</ele>
        <time>2021-09-08T05:15:07.000Z</time>
      </trkpt>
      <trkpt lat="45.19842" lon="5.74228">
        <ele>221</ele>
        <time>2021-09-08T05:15:08.000Z</time>
      </trkpt>
      <trkpt lat="45.19832" lon="5.7423">
        <ele>220.19999694824</ele>
        <time>2021-09-08T05:15:11.000Z</time>
      </trkpt>
      <trkpt lat="45.19816" lon="5.74235">
        <ele>220.39999389648</ele>
        <time>2021-09-08T05:15:16.000Z</time>
      </trkpt>
      <trkpt lat="45.19797" lon="5.74241">
        <ele>220.60000610352</ele>
        <time>2021-09-08T05:15:22.000Z</time>
      </trkpt>
      <trkpt lat="45.19794" lon="5.74242">
        <ele>220.60000610352</ele>
        <time>2021-09-08T05:15:23.000Z</time>
      </trkpt>
      <trkpt lat="45.19788" lon="5.74244">
        <ele>220.60000610352</ele>
        <time>2021-09-08T05:15:25.000Z</time>
      </trkpt>
      <trkpt lat="45.19782" lon="5.74248">
        <ele>220.60000610352</ele>
        <time>2021-09-08T05:15:27.000Z</time>
      </trkpt>
      <trkpt lat="45.19779" lon="5.74249">
        <ele>220.60000610352</ele>
        <time>2021-09-08T05:15:28.000Z</time>
      </trkpt>
      <trkpt lat="45.19775" lon="5.74249">
        <ele>220.60000610352</ele>
        <time>2021-09-08T05:15:29.000Z</time>
      </trkpt>
      <trkpt lat="45.19772" lon="5.74249">
        <ele>220.80000305176</ele>
        <time>2021-09-08T05:15:30.000Z</time>
      </trkpt>
      <trkpt lat="45.19753" lon="5.74255">
        <ele>220.60000610352</ele>
        <time>2021-09-08T05:15:36.000Z</time>
      </trkpt>
      <trkpt lat="45.19749" lon="5.74256">
        <ele>220.60000610352</ele>
        <time>2021-09-08T05:15:37.000Z</time>
      </trkpt>
      <trkpt lat="45.19739" lon="5.74257">
        <ele>220.19999694824</ele>
        <time>2021-09-08T05:15:40.000Z</time>
      </trkpt>
      <trkpt lat="45.19728" lon="5.74257">
        <ele>220.39999389648</ele>
        <time>2021-09-08T05:15:44.000Z</time>
      </trkpt>
      <trkpt lat="45.19726" lon="5.74255">
        <ele>220.19999694824</ele>
        <time>2021-09-08T05:15:47.000Z</time>
      </trkpt>
      <trkpt lat="45.19726" lon="5.74253">
        <ele>219.39999389648</ele>
        <time>2021-09-08T05:15:48.000Z</time>
      </trkpt>
      <trkpt lat="45.19723" lon="5.74247">
        <ele>219</ele>
        <time>2021-09-08T05:15:50.000Z</time>
      </trkpt>
      <trkpt lat="45.19719" lon="5.74239">
        <ele>219</ele>
        <time>2021-09-08T05:15:52.000Z</time>
      </trkpt>
      <trkpt lat="45.19721" lon="5.74213">
        <ele>218.80000305176</ele>
        <time>2021-09-08T05:15:57.000Z</time>
      </trkpt>
      <trkpt lat="45.19719" lon="5.74197">
        <ele>218.80000305176</ele>
        <time>2021-09-08T05:16:01.000Z</time>
      </trkpt>
      <trkpt lat="45.19713" lon="5.74177">
        <ele>218.80000305176</ele>
        <time>2021-09-08T05:16:07.000Z</time>
      </trkpt>
      <trkpt lat="45.19709" lon="5.74162">
        <ele>218.80000305176</ele>
        <time>2021-09-08T05:16:12.000Z</time>
      </trkpt>
      <trkpt lat="45.19708" lon="5.74152">
        <ele>218.80000305176</ele>
        <time>2021-09-08T05:16:14.000Z</time>
      </trkpt>
      <trkpt lat="45.19704" lon="5.74134">
        <ele>218.80000305176</ele>
        <time>2021-09-08T05:16:17.000Z</time>
      </trkpt>
      <trkpt lat="45.19702" lon="5.74123">
        <ele>218.80000305176</ele>
        <time>2021-09-08T05:16:19.000Z</time>
      </trkpt>
      <trkpt lat="45.19701" lon="5.74118">
        <ele>218.80000305176</ele>
        <time>2021-09-08T05:16:20.000Z</time>
      </trkpt>
      <trkpt lat="45.19701" lon="5.74114">
        <ele>219</ele>
        <time>2021-09-08T05:16:21.000Z</time>
      </trkpt>
      <trkpt lat="45.19699" lon="5.74106">
        <ele>219</ele>
        <time>2021-09-08T05:16:23.000Z</time>
      </trkpt>
      <trkpt lat="45.19696" lon="5.74093">
        <ele>219</ele>
        <time>2021-09-08T05:16:26.000Z</time>
      </trkpt>
      <trkpt lat="45.19691" lon="5.74068">
        <ele>219.19999694824</ele>
        <time>2021-09-08T05:16:32.000Z</time>
      </trkpt>
      <trkpt lat="45.1969" lon="5.74041">
        <ele>218.80000305176</ele>
        <time>2021-09-08T05:16:38.000Z</time>
      </trkpt>
      <trkpt lat="45.19684" lon="5.74023">
        <ele>218.60000610352</ele>
        <time>2021-09-08T05:16:43.000Z</time>
      </trkpt>
      <trkpt lat="45.19679" lon="5.74019">
        <ele>218.60000610352</ele>
        <time>2021-09-08T05:16:45.000Z</time>
      </trkpt>
      <trkpt lat="45.19677" lon="5.74018">
        <ele>218</ele>
        <time>2021-09-08T05:16:46.000Z</time>
      </trkpt>
      <trkpt lat="45.19671" lon="5.74017">
        <ele>218.39999389648</ele>
        <time>2021-09-08T05:16:48.000Z</time>
      </trkpt>
      <trkpt lat="45.19653" lon="5.74014">
        <ele>218.80000305176</ele>
        <time>2021-09-08T05:16:53.000Z</time>
      </trkpt>
      <trkpt lat="45.19633" lon="5.74014">
        <ele>218.60000610352</ele>
        <time>2021-09-08T05:16:58.000Z</time>
      </trkpt>
      <trkpt lat="45.19629" lon="5.74014">
        <ele>218.39999389648</ele>
        <time>2021-09-08T05:16:59.000Z</time>
      </trkpt>
      <trkpt lat="45.19612" lon="5.74015">
        <ele>218.60000610352</ele>
        <time>2021-09-08T05:17:04.000Z</time>
      </trkpt>
      <trkpt lat="45.1961" lon="5.74011">
        <ele>218.60000610352</ele>
        <time>2021-09-08T05:17:05.000Z</time>
      </trkpt>
      <trkpt lat="45.19608" lon="5.74">
        <ele>218.60000610352</ele>
        <time>2021-09-08T05:17:07.000Z</time>
      </trkpt>
      <trkpt lat="45.19609" lon="5.73987">
        <ele>218.39999389648</ele>
        <time>2021-09-08T05:17:10.000Z</time>
      </trkpt>
      <trkpt lat="45.19613" lon="5.73981">
        <ele>218.39999389648</ele>
        <time>2021-09-08T05:17:12.000Z</time>
      </trkpt>
      <trkpt lat="45.19615" lon="5.7398">
        <ele>218.19999694824</ele>
        <time>2021-09-08T05:17:13.000Z</time>
      </trkpt>
      <trkpt lat="45.19623" lon="5.73979">
        <ele>218.19999694824</ele>
        <time>2021-09-08T05:17:16.000Z</time>
      </trkpt>
      <trkpt lat="45.19628" lon="5.73979">
        <ele>218.39999389648</ele>
        <time>2021-09-08T05:17:19.000Z</time>
      </trkpt>
      <trkpt lat="45.19629" lon="5.73978">
        <ele>218.39999389648</ele>
        <time>2021-09-08T05:17:21.000Z</time>
      </trkpt>
      <trkpt lat="45.19628" lon="5.73976">
        <ele>218.39999389648</ele>
        <time>2021-09-08T05:17:22.000Z</time>
      </trkpt>
      <trkpt lat="45.19655" lon="5.73978">
        <ele>226.39999389648</ele>
        <time>2021-09-08T05:18:13.000Z</time>
      </trkpt>
      <trkpt lat="45.19657" lon="5.73982">
        <ele>226.39999389648</ele>
        <time>2021-09-08T05:18:14.000Z</time>
      </trkpt>
      <trkpt lat="45.19658" lon="5.73982">
        <ele>226.39999389648</ele>
        <time>2021-09-08T05:18:15.000Z</time>
      </trkpt>
    </trkseg>
  </trk>
</gpx>